<?xml version="1.0" encoding="UTF-8" standalone="no" ?>
<gpx xmlns="http://www.topografix.com/GPX/1/1" xmlns:xsi="http://www.w3.org/2001/XMLSchema-instance" xsi:schemaLocation="http://www.topografix.com/GPX/1/1 http://www.topografix.com/GPX/1/1/gpx.xsd" version="1.1" creator="VisuGPX - https://www.visugpx.com">
  <metadata>
    <name>Coupiac avec le CMC (corrigé)</name>
    <desc><![CDATA[Superbe randonnée très variée et sans difficultés.]]></desc>
  </metadata>
  <trk>
    <name><![CDATA[Coupais]]></name>
    <trkseg>
      <trkpt lat="43.955" lon="2.58129">
        <ele>365</ele>
        <time>2015-11-29T08:33:43Z</time>
      </trkpt>
      <trkpt lat="43.95496" lon="2.58125">
        <ele>365</ele>
        <time>2015-11-29T08:33:46Z</time>
      </trkpt>
      <trkpt lat="43.95491" lon="2.58119">
        <ele>365</ele>
        <time>2015-11-29T08:33:55Z</time>
      </trkpt>
      <trkpt lat="43.95489" lon="2.58118">
        <ele>365</ele>
        <time>2015-11-29T08:34:14Z</time>
      </trkpt>
      <trkpt lat="43.95482" lon="2.58109">
        <ele>365</ele>
        <time>2015-11-29T08:34:19Z</time>
      </trkpt>
      <trkpt lat="43.95472" lon="2.58104">
        <ele>365</ele>
        <time>2015-11-29T08:34:33Z</time>
      </trkpt>
      <trkpt lat="43.95467" lon="2.581">
        <ele>365</ele>
        <time>2015-11-29T08:34:35Z</time>
      </trkpt>
      <trkpt lat="43.95474" lon="2.58098">
        <ele>365</ele>
        <time>2015-11-29T08:34:41Z</time>
      </trkpt>
      <trkpt lat="43.95465" lon="2.58089">
        <ele>365</ele>
        <time>2015-11-29T08:34:53Z</time>
      </trkpt>
      <trkpt lat="43.95459" lon="2.58086">
        <ele>365</ele>
        <time>2015-11-29T08:34:56Z</time>
      </trkpt>
      <trkpt lat="43.95453" lon="2.58084">
        <ele>365</ele>
        <time>2015-11-29T08:35:01Z</time>
      </trkpt>
      <trkpt lat="43.95448" lon="2.58083">
        <ele>365</ele>
        <time>2015-11-29T08:35:06Z</time>
      </trkpt>
      <trkpt lat="43.95443" lon="2.5808">
        <ele>365</ele>
        <time>2015-11-29T08:35:11Z</time>
      </trkpt>
      <trkpt lat="43.95452" lon="2.58081">
        <ele>365</ele>
        <time>2015-11-29T08:35:14Z</time>
      </trkpt>
      <trkpt lat="43.95454" lon="2.58075">
        <ele>365</ele>
        <time>2015-11-29T08:35:23Z</time>
      </trkpt>
      <trkpt lat="43.95449" lon="2.58068">
        <ele>365</ele>
        <time>2015-11-29T08:35:37Z</time>
      </trkpt>
      <trkpt lat="43.95445" lon="2.58064">
        <ele>365</ele>
        <time>2015-11-29T08:35:44Z</time>
      </trkpt>
      <trkpt lat="43.9544" lon="2.58059">
        <ele>365</ele>
        <time>2015-11-29T08:35:49Z</time>
      </trkpt>
      <trkpt lat="43.95435" lon="2.58056">
        <ele>365</ele>
        <time>2015-11-29T08:35:55Z</time>
      </trkpt>
      <trkpt lat="43.9543" lon="2.58055">
        <ele>365</ele>
        <time>2015-11-29T08:36:01Z</time>
      </trkpt>
      <trkpt lat="43.95441" lon="2.5805">
        <ele>365</ele>
        <time>2015-11-29T08:36:25Z</time>
      </trkpt>
      <trkpt lat="43.95437" lon="2.58038">
        <ele>365</ele>
        <time>2015-11-29T08:36:47Z</time>
      </trkpt>
      <trkpt lat="43.95435" lon="2.58032">
        <ele>365</ele>
        <time>2015-11-29T08:36:53Z</time>
      </trkpt>
      <trkpt lat="43.95434" lon="2.58025">
        <ele>365</ele>
        <time>2015-11-29T08:36:59Z</time>
      </trkpt>
      <trkpt lat="43.9543" lon="2.58018">
        <ele>365</ele>
        <time>2015-11-29T08:37:09Z</time>
      </trkpt>
      <trkpt lat="43.95441" lon="2.58019">
        <ele>365</ele>
        <time>2015-11-29T08:37:11Z</time>
      </trkpt>
      <trkpt lat="43.95458" lon="2.58021">
        <ele>365</ele>
        <time>2015-11-29T08:37:13Z</time>
      </trkpt>
      <trkpt lat="43.95453" lon="2.58011">
        <ele>365</ele>
        <time>2015-11-29T08:37:17Z</time>
      </trkpt>
      <trkpt lat="43.95451" lon="2.58005">
        <ele>365</ele>
        <time>2015-11-29T08:37:20Z</time>
      </trkpt>
      <trkpt lat="43.95451" lon="2.57999">
        <ele>365</ele>
        <time>2015-11-29T08:37:28Z</time>
      </trkpt>
      <trkpt lat="43.9544" lon="2.57995">
        <ele>365</ele>
        <time>2015-11-29T08:37:54Z</time>
      </trkpt>
      <trkpt lat="43.95433" lon="2.57998">
        <ele>365</ele>
        <time>2015-11-29T08:38:03Z</time>
      </trkpt>
      <trkpt lat="43.95427" lon="2.57994">
        <ele>365</ele>
        <time>2015-11-29T08:38:09Z</time>
      </trkpt>
      <trkpt lat="43.95424" lon="2.57991">
        <ele>365</ele>
        <time>2015-11-29T08:38:14Z</time>
      </trkpt>
      <trkpt lat="43.95424" lon="2.57991">
        <ele>365</ele>
        <time>2015-11-29T08:38:46Z</time>
      </trkpt>
      <trkpt lat="43.95337" lon="2.57908">
        <ele>365</ele>
        <time>2015-11-29T08:38:53Z</time>
      </trkpt>
      <trkpt lat="43.95333" lon="2.57905">
        <ele>365</ele>
        <time>2015-11-29T08:38:55Z</time>
      </trkpt>
      <trkpt lat="43.9532" lon="2.57896">
        <ele>365</ele>
        <time>2015-11-29T08:39:00Z</time>
      </trkpt>
      <trkpt lat="43.95308" lon="2.57892">
        <ele>374</ele>
        <time>2015-11-29T08:39:14Z</time>
      </trkpt>
      <trkpt lat="43.95304" lon="2.5789">
        <ele>404</ele>
        <time>2015-11-29T08:39:20Z</time>
      </trkpt>
      <trkpt lat="43.95299" lon="2.57887">
        <ele>411</ele>
        <time>2015-11-29T08:39:28Z</time>
      </trkpt>
      <trkpt lat="43.95295" lon="2.57889">
        <ele>415</ele>
        <time>2015-11-29T08:39:38Z</time>
      </trkpt>
      <trkpt lat="43.9529" lon="2.57886">
        <ele>415</ele>
        <time>2015-11-29T08:39:50Z</time>
      </trkpt>
      <trkpt lat="43.95285" lon="2.57885">
        <ele>414</ele>
        <time>2015-11-29T08:39:55Z</time>
      </trkpt>
      <trkpt lat="43.9528" lon="2.57885">
        <ele>414</ele>
        <time>2015-11-29T08:40:03Z</time>
      </trkpt>
      <trkpt lat="43.95274" lon="2.57886">
        <ele>413</ele>
        <time>2015-11-29T08:40:13Z</time>
      </trkpt>
      <trkpt lat="43.95269" lon="2.57887">
        <ele>412</ele>
        <time>2015-11-29T08:40:21Z</time>
      </trkpt>
      <trkpt lat="43.95264" lon="2.57888">
        <ele>413</ele>
        <time>2015-11-29T08:40:27Z</time>
      </trkpt>
      <trkpt lat="43.9526" lon="2.57886">
        <ele>413</ele>
        <time>2015-11-29T08:40:34Z</time>
      </trkpt>
      <trkpt lat="43.95255" lon="2.57885">
        <ele>413</ele>
        <time>2015-11-29T08:40:43Z</time>
      </trkpt>
      <trkpt lat="43.95249" lon="2.57884">
        <ele>413</ele>
        <time>2015-11-29T08:40:53Z</time>
      </trkpt>
      <trkpt lat="43.95243" lon="2.57879">
        <ele>414</ele>
        <time>2015-11-29T08:41:10Z</time>
      </trkpt>
      <trkpt lat="43.95239" lon="2.57876">
        <ele>416</ele>
        <time>2015-11-29T08:41:19Z</time>
      </trkpt>
      <trkpt lat="43.95232" lon="2.57873">
        <ele>417</ele>
        <time>2015-11-29T08:41:28Z</time>
      </trkpt>
      <trkpt lat="43.95227" lon="2.57871">
        <ele>419</ele>
        <time>2015-11-29T08:41:35Z</time>
      </trkpt>
      <trkpt lat="43.95223" lon="2.57869">
        <ele>420</ele>
        <time>2015-11-29T08:41:42Z</time>
      </trkpt>
      <trkpt lat="43.95218" lon="2.57866">
        <ele>421</ele>
        <time>2015-11-29T08:41:51Z</time>
      </trkpt>
      <trkpt lat="43.95213" lon="2.57862">
        <ele>421</ele>
        <time>2015-11-29T08:41:59Z</time>
      </trkpt>
      <trkpt lat="43.95209" lon="2.57857">
        <ele>421</ele>
        <time>2015-11-29T08:42:08Z</time>
      </trkpt>
      <trkpt lat="43.95206" lon="2.57851">
        <ele>421</ele>
        <time>2015-11-29T08:42:19Z</time>
      </trkpt>
      <trkpt lat="43.95201" lon="2.57847">
        <ele>421</ele>
        <time>2015-11-29T08:42:27Z</time>
      </trkpt>
      <trkpt lat="43.95197" lon="2.57843">
        <ele>421</ele>
        <time>2015-11-29T08:42:34Z</time>
      </trkpt>
      <trkpt lat="43.95193" lon="2.57841">
        <ele>421</ele>
        <time>2015-11-29T08:42:40Z</time>
      </trkpt>
      <trkpt lat="43.95189" lon="2.57837">
        <ele>422</ele>
        <time>2015-11-29T08:42:49Z</time>
      </trkpt>
      <trkpt lat="43.95182" lon="2.57835">
        <ele>422</ele>
        <time>2015-11-29T08:42:56Z</time>
      </trkpt>
      <trkpt lat="43.95177" lon="2.57831">
        <ele>422</ele>
        <time>2015-11-29T08:43:02Z</time>
      </trkpt>
      <trkpt lat="43.95172" lon="2.57829">
        <ele>422</ele>
        <time>2015-11-29T08:43:10Z</time>
      </trkpt>
      <trkpt lat="43.95165" lon="2.57823">
        <ele>422</ele>
        <time>2015-11-29T08:43:16Z</time>
      </trkpt>
      <trkpt lat="43.95161" lon="2.57817">
        <ele>423</ele>
        <time>2015-11-29T08:43:20Z</time>
      </trkpt>
      <trkpt lat="43.95159" lon="2.57811">
        <ele>423</ele>
        <time>2015-11-29T08:43:25Z</time>
      </trkpt>
      <trkpt lat="43.95156" lon="2.57807">
        <ele>423</ele>
        <time>2015-11-29T08:43:30Z</time>
      </trkpt>
      <trkpt lat="43.95153" lon="2.57799">
        <ele>424</ele>
        <time>2015-11-29T08:43:37Z</time>
      </trkpt>
      <trkpt lat="43.95151" lon="2.57792">
        <ele>425</ele>
        <time>2015-11-29T08:43:45Z</time>
      </trkpt>
      <trkpt lat="43.95148" lon="2.57787">
        <ele>425</ele>
        <time>2015-11-29T08:43:52Z</time>
      </trkpt>
      <trkpt lat="43.95145" lon="2.57779">
        <ele>426</ele>
        <time>2015-11-29T08:44:12Z</time>
      </trkpt>
      <trkpt lat="43.95147" lon="2.57772">
        <ele>426</ele>
        <time>2015-11-29T08:44:18Z</time>
      </trkpt>
      <trkpt lat="43.95144" lon="2.57766">
        <ele>426</ele>
        <time>2015-11-29T08:44:24Z</time>
      </trkpt>
      <trkpt lat="43.95141" lon="2.57758">
        <ele>426</ele>
        <time>2015-11-29T08:44:32Z</time>
      </trkpt>
      <trkpt lat="43.95142" lon="2.57751">
        <ele>427</ele>
        <time>2015-11-29T08:44:40Z</time>
      </trkpt>
      <trkpt lat="43.9514" lon="2.57744">
        <ele>427</ele>
        <time>2015-11-29T08:44:48Z</time>
      </trkpt>
      <trkpt lat="43.95138" lon="2.57737">
        <ele>428</ele>
        <time>2015-11-29T08:44:56Z</time>
      </trkpt>
      <trkpt lat="43.95139" lon="2.57728">
        <ele>428</ele>
        <time>2015-11-29T08:45:06Z</time>
      </trkpt>
      <trkpt lat="43.95138" lon="2.57721">
        <ele>429</ele>
        <time>2015-11-29T08:45:13Z</time>
      </trkpt>
      <trkpt lat="43.95134" lon="2.57715">
        <ele>430</ele>
        <time>2015-11-29T08:45:19Z</time>
      </trkpt>
      <trkpt lat="43.95132" lon="2.57709">
        <ele>431</ele>
        <time>2015-11-29T08:45:26Z</time>
      </trkpt>
      <trkpt lat="43.95131" lon="2.57703">
        <ele>431</ele>
        <time>2015-11-29T08:45:32Z</time>
      </trkpt>
      <trkpt lat="43.9513" lon="2.57696">
        <ele>432</ele>
        <time>2015-11-29T08:45:40Z</time>
      </trkpt>
      <trkpt lat="43.95129" lon="2.57688">
        <ele>433</ele>
        <time>2015-11-29T08:45:46Z</time>
      </trkpt>
      <trkpt lat="43.95128" lon="2.57681">
        <ele>434</ele>
        <time>2015-11-29T08:45:52Z</time>
      </trkpt>
      <trkpt lat="43.95127" lon="2.57672">
        <ele>435</ele>
        <time>2015-11-29T08:46:00Z</time>
      </trkpt>
      <trkpt lat="43.95128" lon="2.57665">
        <ele>435</ele>
        <time>2015-11-29T08:46:08Z</time>
      </trkpt>
      <trkpt lat="43.95127" lon="2.57658">
        <ele>436</ele>
        <time>2015-11-29T08:46:16Z</time>
      </trkpt>
      <trkpt lat="43.95124" lon="2.57651">
        <ele>437</ele>
        <time>2015-11-29T08:46:24Z</time>
      </trkpt>
      <trkpt lat="43.95123" lon="2.57644">
        <ele>438</ele>
        <time>2015-11-29T08:46:30Z</time>
      </trkpt>
      <trkpt lat="43.95122" lon="2.57637">
        <ele>438</ele>
        <time>2015-11-29T08:46:37Z</time>
      </trkpt>
      <trkpt lat="43.9512" lon="2.57631">
        <ele>439</ele>
        <time>2015-11-29T08:46:42Z</time>
      </trkpt>
      <trkpt lat="43.95116" lon="2.57626">
        <ele>440</ele>
        <time>2015-11-29T08:46:46Z</time>
      </trkpt>
      <trkpt lat="43.95114" lon="2.57619">
        <ele>440</ele>
        <time>2015-11-29T08:46:52Z</time>
      </trkpt>
      <trkpt lat="43.95112" lon="2.57612">
        <ele>441</ele>
        <time>2015-11-29T08:46:58Z</time>
      </trkpt>
      <trkpt lat="43.95108" lon="2.57608">
        <ele>442</ele>
        <time>2015-11-29T08:47:02Z</time>
      </trkpt>
      <trkpt lat="43.95104" lon="2.57603">
        <ele>443</ele>
        <time>2015-11-29T08:47:06Z</time>
      </trkpt>
      <trkpt lat="43.95101" lon="2.57598">
        <ele>444</ele>
        <time>2015-11-29T08:47:12Z</time>
      </trkpt>
      <trkpt lat="43.95096" lon="2.57592">
        <ele>445</ele>
        <time>2015-11-29T08:47:18Z</time>
      </trkpt>
      <trkpt lat="43.95093" lon="2.57586">
        <ele>446</ele>
        <time>2015-11-29T08:47:24Z</time>
      </trkpt>
      <trkpt lat="43.95089" lon="2.57581">
        <ele>447</ele>
        <time>2015-11-29T08:47:32Z</time>
      </trkpt>
      <trkpt lat="43.95085" lon="2.57575">
        <ele>448</ele>
        <time>2015-11-29T08:47:40Z</time>
      </trkpt>
      <trkpt lat="43.9508" lon="2.57572">
        <ele>449</ele>
        <time>2015-11-29T08:47:46Z</time>
      </trkpt>
      <trkpt lat="43.95076" lon="2.57568">
        <ele>450</ele>
        <time>2015-11-29T08:47:51Z</time>
      </trkpt>
      <trkpt lat="43.95071" lon="2.57564">
        <ele>450</ele>
        <time>2015-11-29T08:47:57Z</time>
      </trkpt>
      <trkpt lat="43.95066" lon="2.57561">
        <ele>451</ele>
        <time>2015-11-29T08:48:05Z</time>
      </trkpt>
      <trkpt lat="43.9506" lon="2.57559">
        <ele>452</ele>
        <time>2015-11-29T08:48:12Z</time>
      </trkpt>
      <trkpt lat="43.95056" lon="2.57556">
        <ele>452</ele>
        <time>2015-11-29T08:48:20Z</time>
      </trkpt>
      <trkpt lat="43.95051" lon="2.57557">
        <ele>452</ele>
        <time>2015-11-29T08:48:26Z</time>
      </trkpt>
      <trkpt lat="43.95047" lon="2.57556">
        <ele>452</ele>
        <time>2015-11-29T08:48:31Z</time>
      </trkpt>
      <trkpt lat="43.95041" lon="2.57555">
        <ele>453</ele>
        <time>2015-11-29T08:48:37Z</time>
      </trkpt>
      <trkpt lat="43.95036" lon="2.57555">
        <ele>453</ele>
        <time>2015-11-29T08:48:42Z</time>
      </trkpt>
      <trkpt lat="43.9503" lon="2.57557">
        <ele>453</ele>
        <time>2015-11-29T08:48:49Z</time>
      </trkpt>
      <trkpt lat="43.95025" lon="2.57557">
        <ele>453</ele>
        <time>2015-11-29T08:48:55Z</time>
      </trkpt>
      <trkpt lat="43.9502" lon="2.57559">
        <ele>453</ele>
        <time>2015-11-29T08:49:01Z</time>
      </trkpt>
      <trkpt lat="43.95015" lon="2.5756">
        <ele>453</ele>
        <time>2015-11-29T08:49:08Z</time>
      </trkpt>
      <trkpt lat="43.95009" lon="2.57559">
        <ele>453</ele>
        <time>2015-11-29T08:49:15Z</time>
      </trkpt>
      <trkpt lat="43.95004" lon="2.57558">
        <ele>453</ele>
        <time>2015-11-29T08:49:19Z</time>
      </trkpt>
      <trkpt lat="43.94999" lon="2.57557">
        <ele>453</ele>
        <time>2015-11-29T08:49:24Z</time>
      </trkpt>
      <trkpt lat="43.94992" lon="2.57555">
        <ele>453</ele>
        <time>2015-11-29T08:49:29Z</time>
      </trkpt>
      <trkpt lat="43.94987" lon="2.57554">
        <ele>453</ele>
        <time>2015-11-29T08:49:32Z</time>
      </trkpt>
      <trkpt lat="43.94981" lon="2.57551">
        <ele>453</ele>
        <time>2015-11-29T08:49:38Z</time>
      </trkpt>
      <trkpt lat="43.94976" lon="2.57547">
        <ele>453</ele>
        <time>2015-11-29T08:49:43Z</time>
      </trkpt>
      <trkpt lat="43.94972" lon="2.57542">
        <ele>453</ele>
        <time>2015-11-29T08:49:49Z</time>
      </trkpt>
      <trkpt lat="43.94967" lon="2.57537">
        <ele>453</ele>
        <time>2015-11-29T08:49:56Z</time>
      </trkpt>
      <trkpt lat="43.94962" lon="2.57535">
        <ele>453</ele>
        <time>2015-11-29T08:50:01Z</time>
      </trkpt>
      <trkpt lat="43.94958" lon="2.57532">
        <ele>453</ele>
        <time>2015-11-29T08:50:07Z</time>
      </trkpt>
      <trkpt lat="43.94952" lon="2.57531">
        <ele>453</ele>
        <time>2015-11-29T08:50:14Z</time>
      </trkpt>
      <trkpt lat="43.94948" lon="2.57528">
        <ele>453</ele>
        <time>2015-11-29T08:50:20Z</time>
      </trkpt>
      <trkpt lat="43.94942" lon="2.57528">
        <ele>453</ele>
        <time>2015-11-29T08:50:30Z</time>
      </trkpt>
      <trkpt lat="43.94939" lon="2.57527">
        <ele>453</ele>
        <time>2015-11-29T08:50:46Z</time>
      </trkpt>
      <trkpt lat="43.94936" lon="2.57526">
        <ele>454</ele>
        <time>2015-11-29T08:50:54Z</time>
      </trkpt>
      <trkpt lat="43.94931" lon="2.57526">
        <ele>454</ele>
        <time>2015-11-29T08:51:01Z</time>
      </trkpt>
      <trkpt lat="43.94926" lon="2.57525">
        <ele>453</ele>
        <time>2015-11-29T08:51:06Z</time>
      </trkpt>
      <trkpt lat="43.9492" lon="2.57525">
        <ele>453</ele>
        <time>2015-11-29T08:51:11Z</time>
      </trkpt>
      <trkpt lat="43.94916" lon="2.57525">
        <ele>453</ele>
        <time>2015-11-29T08:51:20Z</time>
      </trkpt>
      <trkpt lat="43.94909" lon="2.57527">
        <ele>452</ele>
        <time>2015-11-29T08:51:25Z</time>
      </trkpt>
      <trkpt lat="43.94902" lon="2.57528">
        <ele>452</ele>
        <time>2015-11-29T08:51:29Z</time>
      </trkpt>
      <trkpt lat="43.94893" lon="2.57528">
        <ele>452</ele>
        <time>2015-11-29T08:51:53Z</time>
      </trkpt>
      <trkpt lat="43.94888" lon="2.57528">
        <ele>452</ele>
        <time>2015-11-29T08:52:02Z</time>
      </trkpt>
      <trkpt lat="43.94883" lon="2.57526">
        <ele>452</ele>
        <time>2015-11-29T08:52:09Z</time>
      </trkpt>
      <trkpt lat="43.94878" lon="2.57523">
        <ele>453</ele>
        <time>2015-11-29T08:52:15Z</time>
      </trkpt>
      <trkpt lat="43.94875" lon="2.57514">
        <ele>453</ele>
        <time>2015-11-29T08:52:23Z</time>
      </trkpt>
      <trkpt lat="43.94875" lon="2.57507">
        <ele>453</ele>
        <time>2015-11-29T08:52:28Z</time>
      </trkpt>
      <trkpt lat="43.94875" lon="2.57498">
        <ele>454</ele>
        <time>2015-11-29T08:52:34Z</time>
      </trkpt>
      <trkpt lat="43.94876" lon="2.57492">
        <ele>454</ele>
        <time>2015-11-29T08:52:38Z</time>
      </trkpt>
      <trkpt lat="43.94879" lon="2.57483">
        <ele>454</ele>
        <time>2015-11-29T08:52:45Z</time>
      </trkpt>
      <trkpt lat="43.9488" lon="2.57475">
        <ele>454</ele>
        <time>2015-11-29T08:52:49Z</time>
      </trkpt>
      <trkpt lat="43.94882" lon="2.57468">
        <ele>454</ele>
        <time>2015-11-29T08:52:54Z</time>
      </trkpt>
      <trkpt lat="43.94884" lon="2.57462">
        <ele>454</ele>
        <time>2015-11-29T08:53:00Z</time>
      </trkpt>
      <trkpt lat="43.94883" lon="2.57455">
        <ele>454</ele>
        <time>2015-11-29T08:53:06Z</time>
      </trkpt>
      <trkpt lat="43.94882" lon="2.57448">
        <ele>454</ele>
        <time>2015-11-29T08:53:12Z</time>
      </trkpt>
      <trkpt lat="43.9488" lon="2.57442">
        <ele>454</ele>
        <time>2015-11-29T08:53:17Z</time>
      </trkpt>
      <trkpt lat="43.94876" lon="2.57437">
        <ele>453</ele>
        <time>2015-11-29T08:53:23Z</time>
      </trkpt>
      <trkpt lat="43.94872" lon="2.57433">
        <ele>453</ele>
        <time>2015-11-29T08:53:31Z</time>
      </trkpt>
      <trkpt lat="43.94866" lon="2.5743">
        <ele>453</ele>
        <time>2015-11-29T08:53:37Z</time>
      </trkpt>
      <trkpt lat="43.94863" lon="2.57426">
        <ele>452</ele>
        <time>2015-11-29T08:53:41Z</time>
      </trkpt>
      <trkpt lat="43.94859" lon="2.57418">
        <ele>452</ele>
        <time>2015-11-29T08:53:48Z</time>
      </trkpt>
      <trkpt lat="43.94866" lon="2.57406">
        <ele>452</ele>
        <time>2015-11-29T08:54:14Z</time>
      </trkpt>
      <trkpt lat="43.94872" lon="2.57403">
        <ele>451</ele>
        <time>2015-11-29T08:54:20Z</time>
      </trkpt>
      <trkpt lat="43.94878" lon="2.57402">
        <ele>451</ele>
        <time>2015-11-29T08:54:25Z</time>
      </trkpt>
      <trkpt lat="43.94884" lon="2.57404">
        <ele>451</ele>
        <time>2015-11-29T08:54:33Z</time>
      </trkpt>
      <trkpt lat="43.94891" lon="2.57407">
        <ele>451</ele>
        <time>2015-11-29T08:54:37Z</time>
      </trkpt>
      <trkpt lat="43.94896" lon="2.57407">
        <ele>451</ele>
        <time>2015-11-29T08:54:41Z</time>
      </trkpt>
      <trkpt lat="43.94901" lon="2.57408">
        <ele>451</ele>
        <time>2015-11-29T08:54:46Z</time>
      </trkpt>
      <trkpt lat="43.94914" lon="2.57409">
        <ele>450</ele>
        <time>2015-11-29T08:55:01Z</time>
      </trkpt>
      <trkpt lat="43.9492" lon="2.57409">
        <ele>450</ele>
        <time>2015-11-29T08:55:04Z</time>
      </trkpt>
      <trkpt lat="43.94927" lon="2.57407">
        <ele>450</ele>
        <time>2015-11-29T08:55:09Z</time>
      </trkpt>
      <trkpt lat="43.94931" lon="2.57404">
        <ele>449</ele>
        <time>2015-11-29T08:55:13Z</time>
      </trkpt>
      <trkpt lat="43.94932" lon="2.57395">
        <ele>448</ele>
        <time>2015-11-29T08:55:18Z</time>
      </trkpt>
      <trkpt lat="43.94933" lon="2.57385">
        <ele>448</ele>
        <time>2015-11-29T08:55:23Z</time>
      </trkpt>
      <trkpt lat="43.94935" lon="2.57377">
        <ele>447</ele>
        <time>2015-11-29T08:55:27Z</time>
      </trkpt>
      <trkpt lat="43.94937" lon="2.57371">
        <ele>446</ele>
        <time>2015-11-29T08:55:32Z</time>
      </trkpt>
      <trkpt lat="43.9494" lon="2.57363">
        <ele>446</ele>
        <time>2015-11-29T08:55:37Z</time>
      </trkpt>
      <trkpt lat="43.94944" lon="2.5736">
        <ele>445</ele>
        <time>2015-11-29T08:55:42Z</time>
      </trkpt>
      <trkpt lat="43.94948" lon="2.57355">
        <ele>445</ele>
        <time>2015-11-29T08:55:47Z</time>
      </trkpt>
      <trkpt lat="43.94953" lon="2.57351">
        <ele>444</ele>
        <time>2015-11-29T08:55:53Z</time>
      </trkpt>
      <trkpt lat="43.94958" lon="2.57348">
        <ele>444</ele>
        <time>2015-11-29T08:55:58Z</time>
      </trkpt>
      <trkpt lat="43.94963" lon="2.57345">
        <ele>444</ele>
        <time>2015-11-29T08:56:04Z</time>
      </trkpt>
      <trkpt lat="43.94967" lon="2.57342">
        <ele>443</ele>
        <time>2015-11-29T08:56:09Z</time>
      </trkpt>
      <trkpt lat="43.94973" lon="2.57338">
        <ele>443</ele>
        <time>2015-11-29T08:56:15Z</time>
      </trkpt>
      <trkpt lat="43.94977" lon="2.57334">
        <ele>443</ele>
        <time>2015-11-29T08:56:20Z</time>
      </trkpt>
      <trkpt lat="43.9498" lon="2.57326">
        <ele>443</ele>
        <time>2015-11-29T08:56:25Z</time>
      </trkpt>
      <trkpt lat="43.94982" lon="2.57321">
        <ele>442</ele>
        <time>2015-11-29T08:56:29Z</time>
      </trkpt>
      <trkpt lat="43.94985" lon="2.57313">
        <ele>442</ele>
        <time>2015-11-29T08:56:35Z</time>
      </trkpt>
      <trkpt lat="43.94988" lon="2.57307">
        <ele>442</ele>
        <time>2015-11-29T08:56:40Z</time>
      </trkpt>
      <trkpt lat="43.94991" lon="2.573">
        <ele>441</ele>
        <time>2015-11-29T08:56:47Z</time>
      </trkpt>
      <trkpt lat="43.94994" lon="2.57294">
        <ele>441</ele>
        <time>2015-11-29T08:56:53Z</time>
      </trkpt>
      <trkpt lat="43.94998" lon="2.57289">
        <ele>441</ele>
        <time>2015-11-29T08:57:01Z</time>
      </trkpt>
      <trkpt lat="43.95001" lon="2.57284">
        <ele>440</ele>
        <time>2015-11-29T08:57:07Z</time>
      </trkpt>
      <trkpt lat="43.95004" lon="2.57278">
        <ele>440</ele>
        <time>2015-11-29T08:57:12Z</time>
      </trkpt>
      <trkpt lat="43.95007" lon="2.57272">
        <ele>440</ele>
        <time>2015-11-29T08:57:19Z</time>
      </trkpt>
      <trkpt lat="43.9501" lon="2.57267">
        <ele>439</ele>
        <time>2015-11-29T08:57:24Z</time>
      </trkpt>
      <trkpt lat="43.95012" lon="2.57261">
        <ele>439</ele>
        <time>2015-11-29T08:57:30Z</time>
      </trkpt>
      <trkpt lat="43.95015" lon="2.57254">
        <ele>439</ele>
        <time>2015-11-29T08:57:34Z</time>
      </trkpt>
      <trkpt lat="43.95017" lon="2.57249">
        <ele>439</ele>
        <time>2015-11-29T08:57:39Z</time>
      </trkpt>
      <trkpt lat="43.9502" lon="2.57242">
        <ele>439</ele>
        <time>2015-11-29T08:57:45Z</time>
      </trkpt>
      <trkpt lat="43.95023" lon="2.57236">
        <ele>439</ele>
        <time>2015-11-29T08:57:50Z</time>
      </trkpt>
      <trkpt lat="43.95025" lon="2.5723">
        <ele>439</ele>
        <time>2015-11-29T08:57:55Z</time>
      </trkpt>
      <trkpt lat="43.95025" lon="2.57221">
        <ele>439</ele>
        <time>2015-11-29T08:58:02Z</time>
      </trkpt>
      <trkpt lat="43.95026" lon="2.57214">
        <ele>439</ele>
        <time>2015-11-29T08:58:07Z</time>
      </trkpt>
      <trkpt lat="43.95027" lon="2.57207">
        <ele>439</ele>
        <time>2015-11-29T08:58:13Z</time>
      </trkpt>
      <trkpt lat="43.95028" lon="2.57198">
        <ele>439</ele>
        <time>2015-11-29T08:58:20Z</time>
      </trkpt>
      <trkpt lat="43.95027" lon="2.5719">
        <ele>439</ele>
        <time>2015-11-29T08:58:26Z</time>
      </trkpt>
      <trkpt lat="43.95027" lon="2.57179">
        <ele>439</ele>
        <time>2015-11-29T08:58:36Z</time>
      </trkpt>
      <trkpt lat="43.95027" lon="2.57171">
        <ele>439</ele>
        <time>2015-11-29T08:58:41Z</time>
      </trkpt>
      <trkpt lat="43.95026" lon="2.57164">
        <ele>438</ele>
        <time>2015-11-29T08:58:46Z</time>
      </trkpt>
      <trkpt lat="43.95024" lon="2.57156">
        <ele>438</ele>
        <time>2015-11-29T08:58:52Z</time>
      </trkpt>
      <trkpt lat="43.95023" lon="2.57149">
        <ele>438</ele>
        <time>2015-11-29T08:58:58Z</time>
      </trkpt>
      <trkpt lat="43.95021" lon="2.5714">
        <ele>438</ele>
        <time>2015-11-29T08:59:04Z</time>
      </trkpt>
      <trkpt lat="43.9502" lon="2.57133">
        <ele>438</ele>
        <time>2015-11-29T08:59:09Z</time>
      </trkpt>
      <trkpt lat="43.95017" lon="2.57127">
        <ele>438</ele>
        <time>2015-11-29T08:59:15Z</time>
      </trkpt>
      <trkpt lat="43.95011" lon="2.57115">
        <ele>438</ele>
        <time>2015-11-29T08:59:29Z</time>
      </trkpt>
      <trkpt lat="43.95009" lon="2.5711">
        <ele>438</ele>
        <time>2015-11-29T08:59:32Z</time>
      </trkpt>
      <trkpt lat="43.95004" lon="2.57105">
        <ele>437</ele>
        <time>2015-11-29T08:59:37Z</time>
      </trkpt>
      <trkpt lat="43.94999" lon="2.57101">
        <ele>437</ele>
        <time>2015-11-29T08:59:44Z</time>
      </trkpt>
      <trkpt lat="43.94996" lon="2.57097">
        <ele>437</ele>
        <time>2015-11-29T08:59:49Z</time>
      </trkpt>
      <trkpt lat="43.9499" lon="2.57091">
        <ele>437</ele>
        <time>2015-11-29T08:59:56Z</time>
      </trkpt>
      <trkpt lat="43.94988" lon="2.57086">
        <ele>436</ele>
        <time>2015-11-29T09:00:00Z</time>
      </trkpt>
      <trkpt lat="43.94982" lon="2.57084">
        <ele>436</ele>
        <time>2015-11-29T09:00:06Z</time>
      </trkpt>
      <trkpt lat="43.94978" lon="2.57079">
        <ele>436</ele>
        <time>2015-11-29T09:00:16Z</time>
      </trkpt>
      <trkpt lat="43.94976" lon="2.57073">
        <ele>436</ele>
        <time>2015-11-29T09:00:21Z</time>
      </trkpt>
      <trkpt lat="43.94975" lon="2.57066">
        <ele>436</ele>
        <time>2015-11-29T09:00:29Z</time>
      </trkpt>
      <trkpt lat="43.94972" lon="2.5706">
        <ele>436</ele>
        <time>2015-11-29T09:00:37Z</time>
      </trkpt>
      <trkpt lat="43.94969" lon="2.57054">
        <ele>435</ele>
        <time>2015-11-29T09:00:45Z</time>
      </trkpt>
      <trkpt lat="43.94968" lon="2.57047">
        <ele>435</ele>
        <time>2015-11-29T09:00:51Z</time>
      </trkpt>
      <trkpt lat="43.94968" lon="2.57039">
        <ele>435</ele>
        <time>2015-11-29T09:00:58Z</time>
      </trkpt>
      <trkpt lat="43.94967" lon="2.5703">
        <ele>435</ele>
        <time>2015-11-29T09:01:05Z</time>
      </trkpt>
      <trkpt lat="43.9497" lon="2.57023">
        <ele>435</ele>
        <time>2015-11-29T09:01:12Z</time>
      </trkpt>
      <trkpt lat="43.94973" lon="2.57016">
        <ele>435</ele>
        <time>2015-11-29T09:01:18Z</time>
      </trkpt>
      <trkpt lat="43.94976" lon="2.57012">
        <ele>435</ele>
        <time>2015-11-29T09:01:22Z</time>
      </trkpt>
      <trkpt lat="43.94978" lon="2.57004">
        <ele>435</ele>
        <time>2015-11-29T09:01:28Z</time>
      </trkpt>
      <trkpt lat="43.94979" lon="2.56996">
        <ele>435</ele>
        <time>2015-11-29T09:01:33Z</time>
      </trkpt>
      <trkpt lat="43.94979" lon="2.56988">
        <ele>435</ele>
        <time>2015-11-29T09:01:37Z</time>
      </trkpt>
      <trkpt lat="43.9498" lon="2.56981">
        <ele>435</ele>
        <time>2015-11-29T09:01:43Z</time>
      </trkpt>
      <trkpt lat="43.9498" lon="2.56974">
        <ele>435</ele>
        <time>2015-11-29T09:01:48Z</time>
      </trkpt>
      <trkpt lat="43.94979" lon="2.56968">
        <ele>435</ele>
        <time>2015-11-29T09:01:52Z</time>
      </trkpt>
      <trkpt lat="43.94978" lon="2.56958">
        <ele>436</ele>
        <time>2015-11-29T09:01:58Z</time>
      </trkpt>
      <trkpt lat="43.94976" lon="2.56949">
        <ele>436</ele>
        <time>2015-11-29T09:02:04Z</time>
      </trkpt>
      <trkpt lat="43.94975" lon="2.56943">
        <ele>436</ele>
        <time>2015-11-29T09:02:08Z</time>
      </trkpt>
      <trkpt lat="43.94974" lon="2.56935">
        <ele>436</ele>
        <time>2015-11-29T09:02:15Z</time>
      </trkpt>
      <trkpt lat="43.94972" lon="2.56928">
        <ele>436</ele>
        <time>2015-11-29T09:02:20Z</time>
      </trkpt>
      <trkpt lat="43.9497" lon="2.56921">
        <ele>436</ele>
        <time>2015-11-29T09:02:24Z</time>
      </trkpt>
      <trkpt lat="43.94967" lon="2.56913">
        <ele>436</ele>
        <time>2015-11-29T09:02:28Z</time>
      </trkpt>
      <trkpt lat="43.94964" lon="2.56905">
        <ele>436</ele>
        <time>2015-11-29T09:02:34Z</time>
      </trkpt>
      <trkpt lat="43.94961" lon="2.56899">
        <ele>436</ele>
        <time>2015-11-29T09:02:38Z</time>
      </trkpt>
      <trkpt lat="43.94957" lon="2.56894">
        <ele>436</ele>
        <time>2015-11-29T09:02:44Z</time>
      </trkpt>
      <trkpt lat="43.94954" lon="2.56888">
        <ele>436</ele>
        <time>2015-11-29T09:02:50Z</time>
      </trkpt>
      <trkpt lat="43.94952" lon="2.56882">
        <ele>436</ele>
        <time>2015-11-29T09:02:55Z</time>
      </trkpt>
      <trkpt lat="43.94953" lon="2.56875">
        <ele>435</ele>
        <time>2015-11-29T09:03:01Z</time>
      </trkpt>
      <trkpt lat="43.94953" lon="2.56866">
        <ele>435</ele>
        <time>2015-11-29T09:03:07Z</time>
      </trkpt>
      <trkpt lat="43.94955" lon="2.56857">
        <ele>435</ele>
        <time>2015-11-29T09:03:14Z</time>
      </trkpt>
      <trkpt lat="43.94955" lon="2.56851">
        <ele>435</ele>
        <time>2015-11-29T09:03:18Z</time>
      </trkpt>
      <trkpt lat="43.94959" lon="2.56845">
        <ele>434</ele>
        <time>2015-11-29T09:03:23Z</time>
      </trkpt>
      <trkpt lat="43.94964" lon="2.56839">
        <ele>434</ele>
        <time>2015-11-29T09:03:26Z</time>
      </trkpt>
      <trkpt lat="43.94965" lon="2.56832">
        <ele>434</ele>
        <time>2015-11-29T09:03:30Z</time>
      </trkpt>
      <trkpt lat="43.94963" lon="2.56824">
        <ele>434</ele>
        <time>2015-11-29T09:03:34Z</time>
      </trkpt>
      <trkpt lat="43.94962" lon="2.56815">
        <ele>433</ele>
        <time>2015-11-29T09:03:40Z</time>
      </trkpt>
      <trkpt lat="43.94963" lon="2.56808">
        <ele>433</ele>
        <time>2015-11-29T09:03:46Z</time>
      </trkpt>
      <trkpt lat="43.94965" lon="2.56801">
        <ele>433</ele>
        <time>2015-11-29T09:03:52Z</time>
      </trkpt>
      <trkpt lat="43.94968" lon="2.56794">
        <ele>432</ele>
        <time>2015-11-29T09:03:58Z</time>
      </trkpt>
      <trkpt lat="43.94971" lon="2.56786">
        <ele>432</ele>
        <time>2015-11-29T09:04:03Z</time>
      </trkpt>
      <trkpt lat="43.94973" lon="2.56779">
        <ele>432</ele>
        <time>2015-11-29T09:04:06Z</time>
      </trkpt>
      <trkpt lat="43.94977" lon="2.56774">
        <ele>431</ele>
        <time>2015-11-29T09:04:12Z</time>
      </trkpt>
      <trkpt lat="43.94981" lon="2.56768">
        <ele>431</ele>
        <time>2015-11-29T09:04:18Z</time>
      </trkpt>
      <trkpt lat="43.94986" lon="2.56762">
        <ele>431</ele>
        <time>2015-11-29T09:04:24Z</time>
      </trkpt>
      <trkpt lat="43.9499" lon="2.56756">
        <ele>431</ele>
        <time>2015-11-29T09:04:30Z</time>
      </trkpt>
      <trkpt lat="43.94992" lon="2.5675">
        <ele>431</ele>
        <time>2015-11-29T09:04:34Z</time>
      </trkpt>
      <trkpt lat="43.94995" lon="2.56745">
        <ele>430</ele>
        <time>2015-11-29T09:04:38Z</time>
      </trkpt>
      <trkpt lat="43.94997" lon="2.56739">
        <ele>430</ele>
        <time>2015-11-29T09:04:42Z</time>
      </trkpt>
      <trkpt lat="43.94999" lon="2.56733">
        <ele>430</ele>
        <time>2015-11-29T09:04:46Z</time>
      </trkpt>
      <trkpt lat="43.95002" lon="2.56726">
        <ele>430</ele>
        <time>2015-11-29T09:04:50Z</time>
      </trkpt>
      <trkpt lat="43.95005" lon="2.5672">
        <ele>430</ele>
        <time>2015-11-29T09:04:56Z</time>
      </trkpt>
      <trkpt lat="43.95007" lon="2.56713">
        <ele>430</ele>
        <time>2015-11-29T09:05:01Z</time>
      </trkpt>
      <trkpt lat="43.95008" lon="2.56705">
        <ele>430</ele>
        <time>2015-11-29T09:05:07Z</time>
      </trkpt>
      <trkpt lat="43.95011" lon="2.56699">
        <ele>430</ele>
        <time>2015-11-29T09:05:13Z</time>
      </trkpt>
      <trkpt lat="43.95012" lon="2.56691">
        <ele>430</ele>
        <time>2015-11-29T09:05:18Z</time>
      </trkpt>
      <trkpt lat="43.95012" lon="2.56683">
        <ele>430</ele>
        <time>2015-11-29T09:05:22Z</time>
      </trkpt>
      <trkpt lat="43.95012" lon="2.56675">
        <ele>430</ele>
        <time>2015-11-29T09:05:26Z</time>
      </trkpt>
      <trkpt lat="43.95013" lon="2.56668">
        <ele>430</ele>
        <time>2015-11-29T09:05:30Z</time>
      </trkpt>
      <trkpt lat="43.95013" lon="2.56659">
        <ele>430</ele>
        <time>2015-11-29T09:05:36Z</time>
      </trkpt>
      <trkpt lat="43.95012" lon="2.56652">
        <ele>430</ele>
        <time>2015-11-29T09:05:40Z</time>
      </trkpt>
      <trkpt lat="43.95012" lon="2.56644">
        <ele>430</ele>
        <time>2015-11-29T09:05:46Z</time>
      </trkpt>
      <trkpt lat="43.9501" lon="2.56637">
        <ele>430</ele>
        <time>2015-11-29T09:05:50Z</time>
      </trkpt>
      <trkpt lat="43.95009" lon="2.56628">
        <ele>430</ele>
        <time>2015-11-29T09:05:56Z</time>
      </trkpt>
      <trkpt lat="43.95006" lon="2.56622">
        <ele>430</ele>
        <time>2015-11-29T09:06:01Z</time>
      </trkpt>
      <trkpt lat="43.95005" lon="2.5662">
        <ele>430</ele>
        <time>2015-11-29T09:06:20Z</time>
      </trkpt>
      <trkpt lat="43.95005" lon="2.5662">
        <ele>430</ele>
        <time>2015-11-29T09:06:36Z</time>
      </trkpt>
      <trkpt lat="43.95004" lon="2.56617">
        <ele>430</ele>
        <time>2015-11-29T09:06:46Z</time>
      </trkpt>
      <trkpt lat="43.94999" lon="2.5661">
        <ele>430</ele>
        <time>2015-11-29T09:06:52Z</time>
      </trkpt>
      <trkpt lat="43.94996" lon="2.56605">
        <ele>430</ele>
        <time>2015-11-29T09:06:58Z</time>
      </trkpt>
      <trkpt lat="43.94991" lon="2.56599">
        <ele>430</ele>
        <time>2015-11-29T09:07:05Z</time>
      </trkpt>
      <trkpt lat="43.94987" lon="2.56595">
        <ele>430</ele>
        <time>2015-11-29T09:07:10Z</time>
      </trkpt>
      <trkpt lat="43.94982" lon="2.56591">
        <ele>431</ele>
        <time>2015-11-29T09:07:16Z</time>
      </trkpt>
      <trkpt lat="43.94978" lon="2.56587">
        <ele>431</ele>
        <time>2015-11-29T09:07:20Z</time>
      </trkpt>
      <trkpt lat="43.94974" lon="2.56583">
        <ele>431</ele>
        <time>2015-11-29T09:07:26Z</time>
      </trkpt>
      <trkpt lat="43.94969" lon="2.56577">
        <ele>431</ele>
        <time>2015-11-29T09:07:32Z</time>
      </trkpt>
      <trkpt lat="43.94967" lon="2.56571">
        <ele>431</ele>
        <time>2015-11-29T09:07:38Z</time>
      </trkpt>
      <trkpt lat="43.94965" lon="2.56565">
        <ele>430</ele>
        <time>2015-11-29T09:07:42Z</time>
      </trkpt>
      <trkpt lat="43.94963" lon="2.56557">
        <ele>430</ele>
        <time>2015-11-29T09:07:48Z</time>
      </trkpt>
      <trkpt lat="43.94963" lon="2.56551">
        <ele>430</ele>
        <time>2015-11-29T09:07:53Z</time>
      </trkpt>
      <trkpt lat="43.94964" lon="2.56541">
        <ele>431</ele>
        <time>2015-11-29T09:07:58Z</time>
      </trkpt>
      <trkpt lat="43.94964" lon="2.56535">
        <ele>431</ele>
        <time>2015-11-29T09:08:03Z</time>
      </trkpt>
      <trkpt lat="43.94963" lon="2.56528">
        <ele>431</ele>
        <time>2015-11-29T09:08:08Z</time>
      </trkpt>
      <trkpt lat="43.94964" lon="2.56521">
        <ele>431</ele>
        <time>2015-11-29T09:08:14Z</time>
      </trkpt>
      <trkpt lat="43.94964" lon="2.56513">
        <ele>432</ele>
        <time>2015-11-29T09:08:19Z</time>
      </trkpt>
      <trkpt lat="43.94964" lon="2.56506">
        <ele>432</ele>
        <time>2015-11-29T09:08:23Z</time>
      </trkpt>
      <trkpt lat="43.94966" lon="2.56499">
        <ele>432</ele>
        <time>2015-11-29T09:08:28Z</time>
      </trkpt>
      <trkpt lat="43.94968" lon="2.56491">
        <ele>432</ele>
        <time>2015-11-29T09:08:33Z</time>
      </trkpt>
      <trkpt lat="43.94969" lon="2.56484">
        <ele>432</ele>
        <time>2015-11-29T09:08:38Z</time>
      </trkpt>
      <trkpt lat="43.9497" lon="2.56476">
        <ele>432</ele>
        <time>2015-11-29T09:08:43Z</time>
      </trkpt>
      <trkpt lat="43.94971" lon="2.56466">
        <ele>432</ele>
        <time>2015-11-29T09:08:48Z</time>
      </trkpt>
      <trkpt lat="43.94972" lon="2.56459">
        <ele>432</ele>
        <time>2015-11-29T09:08:52Z</time>
      </trkpt>
      <trkpt lat="43.94972" lon="2.56452">
        <ele>431</ele>
        <time>2015-11-29T09:08:56Z</time>
      </trkpt>
      <trkpt lat="43.94974" lon="2.56446">
        <ele>431</ele>
        <time>2015-11-29T09:09:04Z</time>
      </trkpt>
      <trkpt lat="43.94974" lon="2.56439">
        <ele>431</ele>
        <time>2015-11-29T09:09:07Z</time>
      </trkpt>
      <trkpt lat="43.94974" lon="2.56433">
        <ele>431</ele>
        <time>2015-11-29T09:09:10Z</time>
      </trkpt>
      <trkpt lat="43.94973" lon="2.56426">
        <ele>431</ele>
        <time>2015-11-29T09:09:13Z</time>
      </trkpt>
      <trkpt lat="43.94969" lon="2.56417">
        <ele>430</ele>
        <time>2015-11-29T09:09:18Z</time>
      </trkpt>
      <trkpt lat="43.94967" lon="2.56411">
        <ele>430</ele>
        <time>2015-11-29T09:09:21Z</time>
      </trkpt>
      <trkpt lat="43.94965" lon="2.56405">
        <ele>430</ele>
        <time>2015-11-29T09:09:24Z</time>
      </trkpt>
      <trkpt lat="43.9496" lon="2.56399">
        <ele>430</ele>
        <time>2015-11-29T09:09:30Z</time>
      </trkpt>
      <trkpt lat="43.94959" lon="2.56392">
        <ele>430</ele>
        <time>2015-11-29T09:09:35Z</time>
      </trkpt>
      <trkpt lat="43.94959" lon="2.56385">
        <ele>429</ele>
        <time>2015-11-29T09:09:39Z</time>
      </trkpt>
      <trkpt lat="43.9496" lon="2.56378">
        <ele>429</ele>
        <time>2015-11-29T09:09:43Z</time>
      </trkpt>
      <trkpt lat="43.94961" lon="2.56371">
        <ele>429</ele>
        <time>2015-11-29T09:09:47Z</time>
      </trkpt>
      <trkpt lat="43.94962" lon="2.56364">
        <ele>429</ele>
        <time>2015-11-29T09:09:51Z</time>
      </trkpt>
      <trkpt lat="43.94964" lon="2.56357">
        <ele>428</ele>
        <time>2015-11-29T09:09:56Z</time>
      </trkpt>
      <trkpt lat="43.94967" lon="2.56352">
        <ele>428</ele>
        <time>2015-11-29T09:10:00Z</time>
      </trkpt>
      <trkpt lat="43.94971" lon="2.56347">
        <ele>428</ele>
        <time>2015-11-29T09:10:06Z</time>
      </trkpt>
      <trkpt lat="43.94973" lon="2.56342">
        <ele>428</ele>
        <time>2015-11-29T09:10:10Z</time>
      </trkpt>
      <trkpt lat="43.94976" lon="2.56337">
        <ele>428</ele>
        <time>2015-11-29T09:10:14Z</time>
      </trkpt>
      <trkpt lat="43.94979" lon="2.56331">
        <ele>428</ele>
        <time>2015-11-29T09:10:19Z</time>
      </trkpt>
      <trkpt lat="43.94983" lon="2.56327">
        <ele>428</ele>
        <time>2015-11-29T09:10:23Z</time>
      </trkpt>
      <trkpt lat="43.94987" lon="2.5632">
        <ele>428</ele>
        <time>2015-11-29T09:10:43Z</time>
      </trkpt>
      <trkpt lat="43.94984" lon="2.56316">
        <ele>428</ele>
        <time>2015-11-29T09:10:47Z</time>
      </trkpt>
      <trkpt lat="43.94982" lon="2.56309">
        <ele>428</ele>
        <time>2015-11-29T09:10:52Z</time>
      </trkpt>
      <trkpt lat="43.94984" lon="2.56302">
        <ele>428</ele>
        <time>2015-11-29T09:11:00Z</time>
      </trkpt>
      <trkpt lat="43.94988" lon="2.56296">
        <ele>427</ele>
        <time>2015-11-29T09:11:06Z</time>
      </trkpt>
      <trkpt lat="43.94992" lon="2.56289">
        <ele>427</ele>
        <time>2015-11-29T09:11:12Z</time>
      </trkpt>
      <trkpt lat="43.94996" lon="2.56282">
        <ele>427</ele>
        <time>2015-11-29T09:11:18Z</time>
      </trkpt>
      <trkpt lat="43.95" lon="2.56274">
        <ele>427</ele>
        <time>2015-11-29T09:11:24Z</time>
      </trkpt>
      <trkpt lat="43.95002" lon="2.56269">
        <ele>427</ele>
        <time>2015-11-29T09:11:28Z</time>
      </trkpt>
      <trkpt lat="43.95003" lon="2.56262">
        <ele>427</ele>
        <time>2015-11-29T09:11:32Z</time>
      </trkpt>
      <trkpt lat="43.95005" lon="2.56254">
        <ele>427</ele>
        <time>2015-11-29T09:11:37Z</time>
      </trkpt>
      <trkpt lat="43.95006" lon="2.56245">
        <ele>427</ele>
        <time>2015-11-29T09:11:42Z</time>
      </trkpt>
      <trkpt lat="43.95009" lon="2.56238">
        <ele>427</ele>
        <time>2015-11-29T09:11:48Z</time>
      </trkpt>
      <trkpt lat="43.95015" lon="2.56233">
        <ele>427</ele>
        <time>2015-11-29T09:11:55Z</time>
      </trkpt>
      <trkpt lat="43.9502" lon="2.56231">
        <ele>427</ele>
        <time>2015-11-29T09:12:00Z</time>
      </trkpt>
      <trkpt lat="43.95023" lon="2.56227">
        <ele>426</ele>
        <time>2015-11-29T09:12:03Z</time>
      </trkpt>
      <trkpt lat="43.95027" lon="2.56222">
        <ele>426</ele>
        <time>2015-11-29T09:12:08Z</time>
      </trkpt>
      <trkpt lat="43.95033" lon="2.56221">
        <ele>426</ele>
        <time>2015-11-29T09:12:12Z</time>
      </trkpt>
      <trkpt lat="43.95039" lon="2.56217">
        <ele>426</ele>
        <time>2015-11-29T09:12:18Z</time>
      </trkpt>
      <trkpt lat="43.95043" lon="2.56212">
        <ele>426</ele>
        <time>2015-11-29T09:12:24Z</time>
      </trkpt>
      <trkpt lat="43.9505" lon="2.5621">
        <ele>425</ele>
        <time>2015-11-29T09:12:27Z</time>
      </trkpt>
      <trkpt lat="43.95055" lon="2.56212">
        <ele>425</ele>
        <time>2015-11-29T09:12:29Z</time>
      </trkpt>
      <trkpt lat="43.95059" lon="2.56208">
        <ele>425</ele>
        <time>2015-11-29T09:12:33Z</time>
      </trkpt>
      <trkpt lat="43.95064" lon="2.56205">
        <ele>425</ele>
        <time>2015-11-29T09:12:38Z</time>
      </trkpt>
      <trkpt lat="43.95068" lon="2.56204">
        <ele>425</ele>
        <time>2015-11-29T09:12:41Z</time>
      </trkpt>
      <trkpt lat="43.95073" lon="2.56201">
        <ele>425</ele>
        <time>2015-11-29T09:12:46Z</time>
      </trkpt>
      <trkpt lat="43.95076" lon="2.56195">
        <ele>425</ele>
        <time>2015-11-29T09:12:55Z</time>
      </trkpt>
      <trkpt lat="43.95081" lon="2.5619">
        <ele>425</ele>
        <time>2015-11-29T09:13:01Z</time>
      </trkpt>
      <trkpt lat="43.95085" lon="2.56186">
        <ele>426</ele>
        <time>2015-11-29T09:13:06Z</time>
      </trkpt>
      <trkpt lat="43.95087" lon="2.56179">
        <ele>426</ele>
        <time>2015-11-29T09:13:12Z</time>
      </trkpt>
      <trkpt lat="43.95087" lon="2.56171">
        <ele>426</ele>
        <time>2015-11-29T09:13:20Z</time>
      </trkpt>
      <trkpt lat="43.95089" lon="2.56165">
        <ele>426</ele>
        <time>2015-11-29T09:13:25Z</time>
      </trkpt>
      <trkpt lat="43.95091" lon="2.5616">
        <ele>427</ele>
        <time>2015-11-29T09:13:30Z</time>
      </trkpt>
      <trkpt lat="43.95094" lon="2.56151">
        <ele>427</ele>
        <time>2015-11-29T09:13:37Z</time>
      </trkpt>
      <trkpt lat="43.95096" lon="2.56145">
        <ele>427</ele>
        <time>2015-11-29T09:13:42Z</time>
      </trkpt>
      <trkpt lat="43.95097" lon="2.56139">
        <ele>428</ele>
        <time>2015-11-29T09:13:46Z</time>
      </trkpt>
      <trkpt lat="43.951" lon="2.56131">
        <ele>428</ele>
        <time>2015-11-29T09:13:51Z</time>
      </trkpt>
      <trkpt lat="43.95102" lon="2.56124">
        <ele>429</ele>
        <time>2015-11-29T09:13:56Z</time>
      </trkpt>
      <trkpt lat="43.95104" lon="2.56118">
        <ele>429</ele>
        <time>2015-11-29T09:14:00Z</time>
      </trkpt>
      <trkpt lat="43.95107" lon="2.56103">
        <ele>429</ele>
        <time>2015-11-29T09:14:14Z</time>
      </trkpt>
      <trkpt lat="43.95108" lon="2.56096">
        <ele>430</ele>
        <time>2015-11-29T09:14:20Z</time>
      </trkpt>
      <trkpt lat="43.95109" lon="2.56089">
        <ele>430</ele>
        <time>2015-11-29T09:14:25Z</time>
      </trkpt>
      <trkpt lat="43.9511" lon="2.56081">
        <ele>430</ele>
        <time>2015-11-29T09:14:30Z</time>
      </trkpt>
      <trkpt lat="43.9511" lon="2.56074">
        <ele>430</ele>
        <time>2015-11-29T09:14:35Z</time>
      </trkpt>
      <trkpt lat="43.95109" lon="2.56066">
        <ele>430</ele>
        <time>2015-11-29T09:14:41Z</time>
      </trkpt>
      <trkpt lat="43.95109" lon="2.5606">
        <ele>430</ele>
        <time>2015-11-29T09:14:49Z</time>
      </trkpt>
      <trkpt lat="43.95108" lon="2.56052">
        <ele>430</ele>
        <time>2015-11-29T09:14:55Z</time>
      </trkpt>
      <trkpt lat="43.95106" lon="2.56046">
        <ele>430</ele>
        <time>2015-11-29T09:15:00Z</time>
      </trkpt>
      <trkpt lat="43.95105" lon="2.56039">
        <ele>430</ele>
        <time>2015-11-29T09:15:04Z</time>
      </trkpt>
      <trkpt lat="43.95104" lon="2.56031">
        <ele>429</ele>
        <time>2015-11-29T09:15:09Z</time>
      </trkpt>
      <trkpt lat="43.95101" lon="2.56025">
        <ele>429</ele>
        <time>2015-11-29T09:15:14Z</time>
      </trkpt>
      <trkpt lat="43.951" lon="2.56018">
        <ele>429</ele>
        <time>2015-11-29T09:15:19Z</time>
      </trkpt>
      <trkpt lat="43.95099" lon="2.56012">
        <ele>429</ele>
        <time>2015-11-29T09:15:24Z</time>
      </trkpt>
      <trkpt lat="43.95099" lon="2.56003">
        <ele>429</ele>
        <time>2015-11-29T09:15:30Z</time>
      </trkpt>
      <trkpt lat="43.951" lon="2.55996">
        <ele>429</ele>
        <time>2015-11-29T09:15:36Z</time>
      </trkpt>
      <trkpt lat="43.95101" lon="2.5599">
        <ele>428</ele>
        <time>2015-11-29T09:15:41Z</time>
      </trkpt>
      <trkpt lat="43.95102" lon="2.55982">
        <ele>428</ele>
        <time>2015-11-29T09:15:43Z</time>
      </trkpt>
      <trkpt lat="43.95104" lon="2.55974">
        <ele>428</ele>
        <time>2015-11-29T09:15:49Z</time>
      </trkpt>
      <trkpt lat="43.95109" lon="2.55971">
        <ele>428</ele>
        <time>2015-11-29T09:15:54Z</time>
      </trkpt>
      <trkpt lat="43.95114" lon="2.55967">
        <ele>428</ele>
        <time>2015-11-29T09:16:00Z</time>
      </trkpt>
      <trkpt lat="43.95118" lon="2.55966">
        <ele>427</ele>
        <time>2015-11-29T09:16:06Z</time>
      </trkpt>
      <trkpt lat="43.95124" lon="2.55964">
        <ele>427</ele>
        <time>2015-11-29T09:16:16Z</time>
      </trkpt>
      <trkpt lat="43.95129" lon="2.55962">
        <ele>427</ele>
        <time>2015-11-29T09:16:22Z</time>
      </trkpt>
      <trkpt lat="43.95134" lon="2.5596">
        <ele>427</ele>
        <time>2015-11-29T09:16:27Z</time>
      </trkpt>
      <trkpt lat="43.95141" lon="2.55958">
        <ele>428</ele>
        <time>2015-11-29T09:16:34Z</time>
      </trkpt>
      <trkpt lat="43.95143" lon="2.55957">
        <ele>428</ele>
        <time>2015-11-29T09:16:54Z</time>
      </trkpt>
      <trkpt lat="43.95145" lon="2.5596">
        <ele>428</ele>
        <time>2015-11-29T09:16:57Z</time>
      </trkpt>
      <trkpt lat="43.95149" lon="2.55964">
        <ele>429</ele>
        <time>2015-11-29T09:17:01Z</time>
      </trkpt>
      <trkpt lat="43.95154" lon="2.55968">
        <ele>429</ele>
        <time>2015-11-29T09:17:05Z</time>
      </trkpt>
      <trkpt lat="43.95158" lon="2.55971">
        <ele>429</ele>
        <time>2015-11-29T09:17:14Z</time>
      </trkpt>
      <trkpt lat="43.95158" lon="2.55972">
        <ele>429</ele>
        <time>2015-11-29T09:17:49Z</time>
      </trkpt>
      <trkpt lat="43.95154" lon="2.55964">
        <ele>428</ele>
        <time>2015-11-29T09:18:16Z</time>
      </trkpt>
      <trkpt lat="43.9515" lon="2.5596">
        <ele>428</ele>
        <time>2015-11-29T09:18:21Z</time>
      </trkpt>
      <trkpt lat="43.95145" lon="2.55955">
        <ele>427</ele>
        <time>2015-11-29T09:18:28Z</time>
      </trkpt>
      <trkpt lat="43.95141" lon="2.55955">
        <ele>427</ele>
        <time>2015-11-29T09:19:10Z</time>
      </trkpt>
      <trkpt lat="43.95141" lon="2.55955">
        <ele>427</ele>
        <time>2015-11-29T09:19:37Z</time>
      </trkpt>
      <trkpt lat="43.95141" lon="2.5595">
        <ele>426</ele>
        <time>2015-11-29T09:19:42Z</time>
      </trkpt>
      <trkpt lat="43.95143" lon="2.55947">
        <ele>426</ele>
        <time>2015-11-29T09:20:02Z</time>
      </trkpt>
      <trkpt lat="43.95143" lon="2.55947">
        <ele>426</ele>
        <time>2015-11-29T09:20:21Z</time>
      </trkpt>
      <trkpt lat="43.95143" lon="2.55947">
        <ele>426</ele>
        <time>2015-11-29T09:20:37Z</time>
      </trkpt>
      <trkpt lat="43.95143" lon="2.55947">
        <ele>425</ele>
        <time>2015-11-29T09:21:13Z</time>
      </trkpt>
      <trkpt lat="43.95143" lon="2.55947">
        <ele>426</ele>
        <time>2015-11-29T09:21:37Z</time>
      </trkpt>
      <trkpt lat="43.95143" lon="2.55947">
        <ele>426</ele>
        <time>2015-11-29T09:22:02Z</time>
      </trkpt>
      <trkpt lat="43.95144" lon="2.5594">
        <ele>426</ele>
        <time>2015-11-29T09:22:12Z</time>
      </trkpt>
      <trkpt lat="43.95142" lon="2.55934">
        <ele>426</ele>
        <time>2015-11-29T09:22:18Z</time>
      </trkpt>
      <trkpt lat="43.95141" lon="2.55927">
        <ele>426</ele>
        <time>2015-11-29T09:22:24Z</time>
      </trkpt>
      <trkpt lat="43.95139" lon="2.5592">
        <ele>426</ele>
        <time>2015-11-29T09:22:29Z</time>
      </trkpt>
      <trkpt lat="43.95136" lon="2.55913">
        <ele>425</ele>
        <time>2015-11-29T09:22:36Z</time>
      </trkpt>
      <trkpt lat="43.95136" lon="2.55906">
        <ele>425</ele>
        <time>2015-11-29T09:22:41Z</time>
      </trkpt>
      <trkpt lat="43.95134" lon="2.55899">
        <ele>425</ele>
        <time>2015-11-29T09:22:45Z</time>
      </trkpt>
      <trkpt lat="43.95134" lon="2.55891">
        <ele>424</ele>
        <time>2015-11-29T09:22:50Z</time>
      </trkpt>
      <trkpt lat="43.95135" lon="2.55883">
        <ele>424</ele>
        <time>2015-11-29T09:22:55Z</time>
      </trkpt>
      <trkpt lat="43.95135" lon="2.55875">
        <ele>424</ele>
        <time>2015-11-29T09:23:00Z</time>
      </trkpt>
      <trkpt lat="43.95136" lon="2.55867">
        <ele>423</ele>
        <time>2015-11-29T09:23:09Z</time>
      </trkpt>
      <trkpt lat="43.95136" lon="2.55858">
        <ele>423</ele>
        <time>2015-11-29T09:23:14Z</time>
      </trkpt>
      <trkpt lat="43.95136" lon="2.55851">
        <ele>423</ele>
        <time>2015-11-29T09:23:18Z</time>
      </trkpt>
      <trkpt lat="43.95136" lon="2.55845">
        <ele>422</ele>
        <time>2015-11-29T09:23:23Z</time>
      </trkpt>
      <trkpt lat="43.95136" lon="2.55838">
        <ele>422</ele>
        <time>2015-11-29T09:23:28Z</time>
      </trkpt>
      <trkpt lat="43.95136" lon="2.55831">
        <ele>422</ele>
        <time>2015-11-29T09:23:32Z</time>
      </trkpt>
      <trkpt lat="43.95135" lon="2.55822">
        <ele>422</ele>
        <time>2015-11-29T09:23:38Z</time>
      </trkpt>
      <trkpt lat="43.95134" lon="2.55815">
        <ele>422</ele>
        <time>2015-11-29T09:23:43Z</time>
      </trkpt>
      <trkpt lat="43.95133" lon="2.55808">
        <ele>422</ele>
        <time>2015-11-29T09:23:47Z</time>
      </trkpt>
      <trkpt lat="43.95133" lon="2.558">
        <ele>421</ele>
        <time>2015-11-29T09:23:53Z</time>
      </trkpt>
      <trkpt lat="43.95134" lon="2.55791">
        <ele>421</ele>
        <time>2015-11-29T09:24:00Z</time>
      </trkpt>
      <trkpt lat="43.95133" lon="2.55784">
        <ele>421</ele>
        <time>2015-11-29T09:24:08Z</time>
      </trkpt>
      <trkpt lat="43.95134" lon="2.55776">
        <ele>421</ele>
        <time>2015-11-29T09:24:19Z</time>
      </trkpt>
      <trkpt lat="43.95132" lon="2.55763">
        <ele>421</ele>
        <time>2015-11-29T09:24:29Z</time>
      </trkpt>
      <trkpt lat="43.95131" lon="2.55754">
        <ele>421</ele>
        <time>2015-11-29T09:24:34Z</time>
      </trkpt>
      <trkpt lat="43.95129" lon="2.55745">
        <ele>421</ele>
        <time>2015-11-29T09:24:37Z</time>
      </trkpt>
      <trkpt lat="43.95126" lon="2.55735">
        <ele>421</ele>
        <time>2015-11-29T09:24:39Z</time>
      </trkpt>
      <trkpt lat="43.95125" lon="2.5573">
        <ele>421</ele>
        <time>2015-11-29T09:25:04Z</time>
      </trkpt>
      <trkpt lat="43.95126" lon="2.55728">
        <ele>421</ele>
        <time>2015-11-29T09:25:17Z</time>
      </trkpt>
      <trkpt lat="43.95126" lon="2.5572">
        <ele>422</ele>
        <time>2015-11-29T09:25:26Z</time>
      </trkpt>
      <trkpt lat="43.95129" lon="2.55714">
        <ele>422</ele>
        <time>2015-11-29T09:25:33Z</time>
      </trkpt>
      <trkpt lat="43.95128" lon="2.55707">
        <ele>422</ele>
        <time>2015-11-29T09:25:39Z</time>
      </trkpt>
      <trkpt lat="43.95126" lon="2.55696">
        <ele>423</ele>
        <time>2015-11-29T09:25:52Z</time>
      </trkpt>
      <trkpt lat="43.95126" lon="2.55689">
        <ele>423</ele>
        <time>2015-11-29T09:26:00Z</time>
      </trkpt>
      <trkpt lat="43.95126" lon="2.55682">
        <ele>423</ele>
        <time>2015-11-29T09:26:06Z</time>
      </trkpt>
      <trkpt lat="43.95127" lon="2.55674">
        <ele>423</ele>
        <time>2015-11-29T09:26:15Z</time>
      </trkpt>
      <trkpt lat="43.95127" lon="2.55667">
        <ele>423</ele>
        <time>2015-11-29T09:26:18Z</time>
      </trkpt>
      <trkpt lat="43.95126" lon="2.55661">
        <ele>423</ele>
        <time>2015-11-29T09:26:22Z</time>
      </trkpt>
      <trkpt lat="43.95126" lon="2.55655">
        <ele>423</ele>
        <time>2015-11-29T09:26:28Z</time>
      </trkpt>
      <trkpt lat="43.95126" lon="2.55647">
        <ele>424</ele>
        <time>2015-11-29T09:26:35Z</time>
      </trkpt>
      <trkpt lat="43.95127" lon="2.55639">
        <ele>424</ele>
        <time>2015-11-29T09:26:41Z</time>
      </trkpt>
      <trkpt lat="43.95127" lon="2.5563">
        <ele>424</ele>
        <time>2015-11-29T09:26:48Z</time>
      </trkpt>
      <trkpt lat="43.95126" lon="2.55623">
        <ele>424</ele>
        <time>2015-11-29T09:26:52Z</time>
      </trkpt>
      <trkpt lat="43.95126" lon="2.55616">
        <ele>424</ele>
        <time>2015-11-29T09:26:55Z</time>
      </trkpt>
      <trkpt lat="43.95126" lon="2.55606">
        <ele>423</ele>
        <time>2015-11-29T09:27:01Z</time>
      </trkpt>
      <trkpt lat="43.95126" lon="2.55599">
        <ele>423</ele>
        <time>2015-11-29T09:27:06Z</time>
      </trkpt>
      <trkpt lat="43.95126" lon="2.55591">
        <ele>423</ele>
        <time>2015-11-29T09:27:10Z</time>
      </trkpt>
      <trkpt lat="43.95125" lon="2.55584">
        <ele>423</ele>
        <time>2015-11-29T09:27:16Z</time>
      </trkpt>
      <trkpt lat="43.95124" lon="2.55577">
        <ele>423</ele>
        <time>2015-11-29T09:27:20Z</time>
      </trkpt>
      <trkpt lat="43.95123" lon="2.55568">
        <ele>423</ele>
        <time>2015-11-29T09:27:26Z</time>
      </trkpt>
      <trkpt lat="43.95123" lon="2.55562">
        <ele>423</ele>
        <time>2015-11-29T09:27:30Z</time>
      </trkpt>
      <trkpt lat="43.95121" lon="2.55554">
        <ele>423</ele>
        <time>2015-11-29T09:27:35Z</time>
      </trkpt>
      <trkpt lat="43.95119" lon="2.55543">
        <ele>423</ele>
        <time>2015-11-29T09:27:41Z</time>
      </trkpt>
      <trkpt lat="43.95118" lon="2.55534">
        <ele>423</ele>
        <time>2015-11-29T09:27:47Z</time>
      </trkpt>
      <trkpt lat="43.95116" lon="2.55527">
        <ele>423</ele>
        <time>2015-11-29T09:27:52Z</time>
      </trkpt>
      <trkpt lat="43.95115" lon="2.55519">
        <ele>423</ele>
        <time>2015-11-29T09:27:57Z</time>
      </trkpt>
      <trkpt lat="43.95115" lon="2.55512">
        <ele>423</ele>
        <time>2015-11-29T09:28:01Z</time>
      </trkpt>
      <trkpt lat="43.95114" lon="2.55502">
        <ele>422</ele>
        <time>2015-11-29T09:28:06Z</time>
      </trkpt>
      <trkpt lat="43.95113" lon="2.55495">
        <ele>422</ele>
        <time>2015-11-29T09:28:12Z</time>
      </trkpt>
      <trkpt lat="43.95112" lon="2.55487">
        <ele>422</ele>
        <time>2015-11-29T09:28:17Z</time>
      </trkpt>
      <trkpt lat="43.95112" lon="2.55478">
        <ele>422</ele>
        <time>2015-11-29T09:28:24Z</time>
      </trkpt>
      <trkpt lat="43.9511" lon="2.55471">
        <ele>421</ele>
        <time>2015-11-29T09:28:29Z</time>
      </trkpt>
      <trkpt lat="43.95109" lon="2.55464">
        <ele>421</ele>
        <time>2015-11-29T09:28:33Z</time>
      </trkpt>
      <trkpt lat="43.95107" lon="2.55457">
        <ele>421</ele>
        <time>2015-11-29T09:28:38Z</time>
      </trkpt>
      <trkpt lat="43.95106" lon="2.55449">
        <ele>420</ele>
        <time>2015-11-29T09:28:44Z</time>
      </trkpt>
      <trkpt lat="43.95104" lon="2.55441">
        <ele>420</ele>
        <time>2015-11-29T09:28:50Z</time>
      </trkpt>
      <trkpt lat="43.95102" lon="2.55435">
        <ele>419</ele>
        <time>2015-11-29T09:28:56Z</time>
      </trkpt>
      <trkpt lat="43.951" lon="2.55429">
        <ele>419</ele>
        <time>2015-11-29T09:28:59Z</time>
      </trkpt>
      <trkpt lat="43.95098" lon="2.55422">
        <ele>418</ele>
        <time>2015-11-29T09:29:03Z</time>
      </trkpt>
      <trkpt lat="43.95096" lon="2.55416">
        <ele>418</ele>
        <time>2015-11-29T09:29:08Z</time>
      </trkpt>
      <trkpt lat="43.95095" lon="2.55409">
        <ele>417</ele>
        <time>2015-11-29T09:29:12Z</time>
      </trkpt>
      <trkpt lat="43.95094" lon="2.554">
        <ele>417</ele>
        <time>2015-11-29T09:29:18Z</time>
      </trkpt>
      <trkpt lat="43.95091" lon="2.55393">
        <ele>417</ele>
        <time>2015-11-29T09:29:23Z</time>
      </trkpt>
      <trkpt lat="43.9509" lon="2.55387">
        <ele>416</ele>
        <time>2015-11-29T09:29:28Z</time>
      </trkpt>
      <trkpt lat="43.95089" lon="2.55379">
        <ele>416</ele>
        <time>2015-11-29T09:29:35Z</time>
      </trkpt>
      <trkpt lat="43.95088" lon="2.55372">
        <ele>416</ele>
        <time>2015-11-29T09:29:41Z</time>
      </trkpt>
      <trkpt lat="43.95087" lon="2.55364">
        <ele>415</ele>
        <time>2015-11-29T09:29:47Z</time>
      </trkpt>
      <trkpt lat="43.95087" lon="2.55356">
        <ele>415</ele>
        <time>2015-11-29T09:29:52Z</time>
      </trkpt>
      <trkpt lat="43.95086" lon="2.55348">
        <ele>414</ele>
        <time>2015-11-29T09:29:56Z</time>
      </trkpt>
      <trkpt lat="43.9509" lon="2.55343">
        <ele>414</ele>
        <time>2015-11-29T09:30:05Z</time>
      </trkpt>
      <trkpt lat="43.95089" lon="2.55335">
        <ele>413</ele>
        <time>2015-11-29T09:30:09Z</time>
      </trkpt>
      <trkpt lat="43.95082" lon="2.55317">
        <ele>414</ele>
        <time>2015-11-29T09:30:25Z</time>
      </trkpt>
      <trkpt lat="43.95081" lon="2.55316">
        <ele>414</ele>
        <time>2015-11-29T09:30:40Z</time>
      </trkpt>
      <trkpt lat="43.95078" lon="2.55318">
        <ele>415</ele>
        <time>2015-11-29T09:30:50Z</time>
      </trkpt>
      <trkpt lat="43.95073" lon="2.55316">
        <ele>415</ele>
        <time>2015-11-29T09:30:56Z</time>
      </trkpt>
      <trkpt lat="43.95069" lon="2.55314">
        <ele>416</ele>
        <time>2015-11-29T09:31:02Z</time>
      </trkpt>
      <trkpt lat="43.95063" lon="2.55311">
        <ele>417</ele>
        <time>2015-11-29T09:31:10Z</time>
      </trkpt>
      <trkpt lat="43.95059" lon="2.55313">
        <ele>417</ele>
        <time>2015-11-29T09:31:17Z</time>
      </trkpt>
      <trkpt lat="43.95054" lon="2.55317">
        <ele>418</ele>
        <time>2015-11-29T09:31:26Z</time>
      </trkpt>
      <trkpt lat="43.9505" lon="2.55322">
        <ele>418</ele>
        <time>2015-11-29T09:31:34Z</time>
      </trkpt>
      <trkpt lat="43.95051" lon="2.55329">
        <ele>419</ele>
        <time>2015-11-29T09:31:43Z</time>
      </trkpt>
      <trkpt lat="43.95052" lon="2.55336">
        <ele>419</ele>
        <time>2015-11-29T09:31:50Z</time>
      </trkpt>
      <trkpt lat="43.95053" lon="2.55344">
        <ele>419</ele>
        <time>2015-11-29T09:31:58Z</time>
      </trkpt>
      <trkpt lat="43.95052" lon="2.55351">
        <ele>419</ele>
        <time>2015-11-29T09:32:06Z</time>
      </trkpt>
      <trkpt lat="43.95052" lon="2.55357">
        <ele>419</ele>
        <time>2015-11-29T09:32:11Z</time>
      </trkpt>
      <trkpt lat="43.95052" lon="2.55365">
        <ele>419</ele>
        <time>2015-11-29T09:32:17Z</time>
      </trkpt>
      <trkpt lat="43.9505" lon="2.55373">
        <ele>419</ele>
        <time>2015-11-29T09:32:23Z</time>
      </trkpt>
      <trkpt lat="43.95047" lon="2.55381">
        <ele>419</ele>
        <time>2015-11-29T09:32:25Z</time>
      </trkpt>
      <trkpt lat="43.95046" lon="2.55387">
        <ele>420</ele>
        <time>2015-11-29T09:32:35Z</time>
      </trkpt>
      <trkpt lat="43.95044" lon="2.55394">
        <ele>421</ele>
        <time>2015-11-29T09:32:42Z</time>
      </trkpt>
      <trkpt lat="43.95042" lon="2.554">
        <ele>421</ele>
        <time>2015-11-29T09:32:48Z</time>
      </trkpt>
      <trkpt lat="43.95042" lon="2.55408">
        <ele>422</ele>
        <time>2015-11-29T09:32:56Z</time>
      </trkpt>
      <trkpt lat="43.95042" lon="2.55416">
        <ele>422</ele>
        <time>2015-11-29T09:33:05Z</time>
      </trkpt>
      <trkpt lat="43.95041" lon="2.55423">
        <ele>422</ele>
        <time>2015-11-29T09:33:11Z</time>
      </trkpt>
      <trkpt lat="43.9504" lon="2.55429">
        <ele>423</ele>
        <time>2015-11-29T09:33:19Z</time>
      </trkpt>
      <trkpt lat="43.95039" lon="2.55436">
        <ele>423</ele>
        <time>2015-11-29T09:33:25Z</time>
      </trkpt>
      <trkpt lat="43.95038" lon="2.55443">
        <ele>424</ele>
        <time>2015-11-29T09:33:31Z</time>
      </trkpt>
      <trkpt lat="43.95037" lon="2.55451">
        <ele>424</ele>
        <time>2015-11-29T09:33:38Z</time>
      </trkpt>
      <trkpt lat="43.95038" lon="2.55459">
        <ele>424</ele>
        <time>2015-11-29T09:33:46Z</time>
      </trkpt>
      <trkpt lat="43.95038" lon="2.55465">
        <ele>424</ele>
        <time>2015-11-29T09:33:53Z</time>
      </trkpt>
      <trkpt lat="43.95038" lon="2.55472">
        <ele>424</ele>
        <time>2015-11-29T09:34:02Z</time>
      </trkpt>
      <trkpt lat="43.95037" lon="2.55482">
        <ele>425</ele>
        <time>2015-11-29T09:34:10Z</time>
      </trkpt>
      <trkpt lat="43.95035" lon="2.55488">
        <ele>425</ele>
        <time>2015-11-29T09:34:17Z</time>
      </trkpt>
      <trkpt lat="43.95034" lon="2.55495">
        <ele>425</ele>
        <time>2015-11-29T09:34:21Z</time>
      </trkpt>
      <trkpt lat="43.95033" lon="2.55503">
        <ele>425</ele>
        <time>2015-11-29T09:34:27Z</time>
      </trkpt>
      <trkpt lat="43.95033" lon="2.55509">
        <ele>425</ele>
        <time>2015-11-29T09:34:33Z</time>
      </trkpt>
      <trkpt lat="43.95033" lon="2.55516">
        <ele>425</ele>
        <time>2015-11-29T09:34:37Z</time>
      </trkpt>
      <trkpt lat="43.95031" lon="2.55523">
        <ele>425</ele>
        <time>2015-11-29T09:34:45Z</time>
      </trkpt>
      <trkpt lat="43.95029" lon="2.5553">
        <ele>426</ele>
        <time>2015-11-29T09:34:50Z</time>
      </trkpt>
      <trkpt lat="43.95028" lon="2.55537">
        <ele>426</ele>
        <time>2015-11-29T09:34:57Z</time>
      </trkpt>
      <trkpt lat="43.95027" lon="2.55545">
        <ele>426</ele>
        <time>2015-11-29T09:35:02Z</time>
      </trkpt>
      <trkpt lat="43.95027" lon="2.55553">
        <ele>426</ele>
        <time>2015-11-29T09:35:09Z</time>
      </trkpt>
      <trkpt lat="43.95026" lon="2.55559">
        <ele>427</ele>
        <time>2015-11-29T09:35:15Z</time>
      </trkpt>
      <trkpt lat="43.95028" lon="2.55565">
        <ele>427</ele>
        <time>2015-11-29T09:35:22Z</time>
      </trkpt>
      <trkpt lat="43.95027" lon="2.55572">
        <ele>427</ele>
        <time>2015-11-29T09:35:27Z</time>
      </trkpt>
      <trkpt lat="43.95026" lon="2.55579">
        <ele>428</ele>
        <time>2015-11-29T09:35:32Z</time>
      </trkpt>
      <trkpt lat="43.95025" lon="2.55587">
        <ele>429</ele>
        <time>2015-11-29T09:35:40Z</time>
      </trkpt>
      <trkpt lat="43.95026" lon="2.55594">
        <ele>429</ele>
        <time>2015-11-29T09:35:46Z</time>
      </trkpt>
      <trkpt lat="43.95025" lon="2.55601">
        <ele>430</ele>
        <time>2015-11-29T09:35:53Z</time>
      </trkpt>
      <trkpt lat="43.95023" lon="2.55607">
        <ele>431</ele>
        <time>2015-11-29T09:36:00Z</time>
      </trkpt>
      <trkpt lat="43.95021" lon="2.55614">
        <ele>432</ele>
        <time>2015-11-29T09:36:07Z</time>
      </trkpt>
      <trkpt lat="43.95019" lon="2.55621">
        <ele>433</ele>
        <time>2015-11-29T09:36:11Z</time>
      </trkpt>
      <trkpt lat="43.95018" lon="2.55627">
        <ele>434</ele>
        <time>2015-11-29T09:36:16Z</time>
      </trkpt>
      <trkpt lat="43.95015" lon="2.55635">
        <ele>434</ele>
        <time>2015-11-29T09:36:22Z</time>
      </trkpt>
      <trkpt lat="43.95011" lon="2.5564">
        <ele>435</ele>
        <time>2015-11-29T09:36:29Z</time>
      </trkpt>
      <trkpt lat="43.95007" lon="2.55645">
        <ele>436</ele>
        <time>2015-11-29T09:36:35Z</time>
      </trkpt>
      <trkpt lat="43.95004" lon="2.55649">
        <ele>437</ele>
        <time>2015-11-29T09:36:42Z</time>
      </trkpt>
      <trkpt lat="43.94999" lon="2.55651">
        <ele>437</ele>
        <time>2015-11-29T09:36:47Z</time>
      </trkpt>
      <trkpt lat="43.94996" lon="2.55656">
        <ele>438</ele>
        <time>2015-11-29T09:36:58Z</time>
      </trkpt>
      <trkpt lat="43.94992" lon="2.5566">
        <ele>438</ele>
        <time>2015-11-29T09:37:05Z</time>
      </trkpt>
      <trkpt lat="43.94988" lon="2.55665">
        <ele>438</ele>
        <time>2015-11-29T09:37:12Z</time>
      </trkpt>
      <trkpt lat="43.94983" lon="2.5568">
        <ele>439</ele>
        <time>2015-11-29T09:37:16Z</time>
      </trkpt>
      <trkpt lat="43.94981" lon="2.55682">
        <ele>440</ele>
        <time>2015-11-29T09:37:37Z</time>
      </trkpt>
      <trkpt lat="43.94981" lon="2.55682">
        <ele>441</ele>
        <time>2015-11-29T09:38:05Z</time>
      </trkpt>
      <trkpt lat="43.94981" lon="2.55682">
        <ele>441</ele>
        <time>2015-11-29T09:38:31Z</time>
      </trkpt>
      <trkpt lat="43.94984" lon="2.55692">
        <ele>445</ele>
        <time>2015-11-29T09:38:46Z</time>
      </trkpt>
      <trkpt lat="43.94982" lon="2.55698">
        <ele>448</ele>
        <time>2015-11-29T09:38:58Z</time>
      </trkpt>
      <trkpt lat="43.9498" lon="2.55704">
        <ele>450</ele>
        <time>2015-11-29T09:39:06Z</time>
      </trkpt>
      <trkpt lat="43.94978" lon="2.55712">
        <ele>453</ele>
        <time>2015-11-29T09:39:15Z</time>
      </trkpt>
      <trkpt lat="43.94976" lon="2.55719">
        <ele>456</ele>
        <time>2015-11-29T09:39:21Z</time>
      </trkpt>
      <trkpt lat="43.94974" lon="2.55728">
        <ele>456</ele>
        <time>2015-11-29T09:39:27Z</time>
      </trkpt>
      <trkpt lat="43.94973" lon="2.55736">
        <ele>456</ele>
        <time>2015-11-29T09:39:35Z</time>
      </trkpt>
      <trkpt lat="43.94971" lon="2.55742">
        <ele>456</ele>
        <time>2015-11-29T09:39:42Z</time>
      </trkpt>
      <trkpt lat="43.94968" lon="2.55749">
        <ele>455</ele>
        <time>2015-11-29T09:39:49Z</time>
      </trkpt>
      <trkpt lat="43.94966" lon="2.55755">
        <ele>455</ele>
        <time>2015-11-29T09:39:54Z</time>
      </trkpt>
      <trkpt lat="43.94965" lon="2.55763">
        <ele>455</ele>
        <time>2015-11-29T09:40:00Z</time>
      </trkpt>
      <trkpt lat="43.94964" lon="2.5577">
        <ele>455</ele>
        <time>2015-11-29T09:40:06Z</time>
      </trkpt>
      <trkpt lat="43.94964" lon="2.55777">
        <ele>454</ele>
        <time>2015-11-29T09:40:10Z</time>
      </trkpt>
      <trkpt lat="43.94962" lon="2.55785">
        <ele>454</ele>
        <time>2015-11-29T09:40:15Z</time>
      </trkpt>
      <trkpt lat="43.94959" lon="2.55794">
        <ele>454</ele>
        <time>2015-11-29T09:40:19Z</time>
      </trkpt>
      <trkpt lat="43.94958" lon="2.55802">
        <ele>454</ele>
        <time>2015-11-29T09:40:23Z</time>
      </trkpt>
      <trkpt lat="43.94956" lon="2.55811">
        <ele>453</ele>
        <time>2015-11-29T09:40:27Z</time>
      </trkpt>
      <trkpt lat="43.94955" lon="2.55817">
        <ele>453</ele>
        <time>2015-11-29T09:40:30Z</time>
      </trkpt>
      <trkpt lat="43.94953" lon="2.55824">
        <ele>453</ele>
        <time>2015-11-29T09:40:34Z</time>
      </trkpt>
      <trkpt lat="43.9495" lon="2.55832">
        <ele>453</ele>
        <time>2015-11-29T09:40:38Z</time>
      </trkpt>
      <trkpt lat="43.94949" lon="2.55839">
        <ele>453</ele>
        <time>2015-11-29T09:40:40Z</time>
      </trkpt>
      <trkpt lat="43.94945" lon="2.55846">
        <ele>453</ele>
        <time>2015-11-29T09:40:45Z</time>
      </trkpt>
      <trkpt lat="43.94942" lon="2.55851">
        <ele>454</ele>
        <time>2015-11-29T09:40:50Z</time>
      </trkpt>
      <trkpt lat="43.94938" lon="2.55855">
        <ele>454</ele>
        <time>2015-11-29T09:40:55Z</time>
      </trkpt>
      <trkpt lat="43.94935" lon="2.55861">
        <ele>454</ele>
        <time>2015-11-29T09:41:00Z</time>
      </trkpt>
      <trkpt lat="43.94931" lon="2.55864">
        <ele>454</ele>
        <time>2015-11-29T09:41:04Z</time>
      </trkpt>
      <trkpt lat="43.94928" lon="2.55871">
        <ele>454</ele>
        <time>2015-11-29T09:41:08Z</time>
      </trkpt>
      <trkpt lat="43.94924" lon="2.55874">
        <ele>454</ele>
        <time>2015-11-29T09:41:13Z</time>
      </trkpt>
      <trkpt lat="43.94918" lon="2.55877">
        <ele>455</ele>
        <time>2015-11-29T09:41:18Z</time>
      </trkpt>
      <trkpt lat="43.94915" lon="2.5588">
        <ele>455</ele>
        <time>2015-11-29T09:41:25Z</time>
      </trkpt>
      <trkpt lat="43.9491" lon="2.55881">
        <ele>455</ele>
        <time>2015-11-29T09:41:29Z</time>
      </trkpt>
      <trkpt lat="43.94905" lon="2.55881">
        <ele>455</ele>
        <time>2015-11-29T09:41:34Z</time>
      </trkpt>
      <trkpt lat="43.94898" lon="2.5588">
        <ele>455</ele>
        <time>2015-11-29T09:41:39Z</time>
      </trkpt>
      <trkpt lat="43.94893" lon="2.55882">
        <ele>455</ele>
        <time>2015-11-29T09:41:43Z</time>
      </trkpt>
      <trkpt lat="43.94888" lon="2.5588">
        <ele>455</ele>
        <time>2015-11-29T09:41:45Z</time>
      </trkpt>
      <trkpt lat="43.94882" lon="2.55878">
        <ele>455</ele>
        <time>2015-11-29T09:41:48Z</time>
      </trkpt>
      <trkpt lat="43.94876" lon="2.55878">
        <ele>454</ele>
        <time>2015-11-29T09:41:52Z</time>
      </trkpt>
      <trkpt lat="43.9487" lon="2.55877">
        <ele>454</ele>
        <time>2015-11-29T09:41:55Z</time>
      </trkpt>
      <trkpt lat="43.94864" lon="2.55878">
        <ele>454</ele>
        <time>2015-11-29T09:41:58Z</time>
      </trkpt>
      <trkpt lat="43.94857" lon="2.55879">
        <ele>454</ele>
        <time>2015-11-29T09:42:02Z</time>
      </trkpt>
      <trkpt lat="43.94852" lon="2.5588">
        <ele>454</ele>
        <time>2015-11-29T09:42:05Z</time>
      </trkpt>
      <trkpt lat="43.94846" lon="2.55885">
        <ele>454</ele>
        <time>2015-11-29T09:42:09Z</time>
      </trkpt>
      <trkpt lat="43.94841" lon="2.55887">
        <ele>454</ele>
        <time>2015-11-29T09:42:13Z</time>
      </trkpt>
      <trkpt lat="43.94836" lon="2.55891">
        <ele>454</ele>
        <time>2015-11-29T09:42:18Z</time>
      </trkpt>
      <trkpt lat="43.94832" lon="2.55891">
        <ele>454</ele>
        <time>2015-11-29T09:42:22Z</time>
      </trkpt>
      <trkpt lat="43.94827" lon="2.55891">
        <ele>454</ele>
        <time>2015-11-29T09:42:27Z</time>
      </trkpt>
      <trkpt lat="43.94821" lon="2.55889">
        <ele>454</ele>
        <time>2015-11-29T09:42:31Z</time>
      </trkpt>
      <trkpt lat="43.94815" lon="2.55887">
        <ele>454</ele>
        <time>2015-11-29T09:42:35Z</time>
      </trkpt>
      <trkpt lat="43.94811" lon="2.55889">
        <ele>454</ele>
        <time>2015-11-29T09:42:39Z</time>
      </trkpt>
      <trkpt lat="43.94805" lon="2.55892">
        <ele>454</ele>
        <time>2015-11-29T09:42:45Z</time>
      </trkpt>
      <trkpt lat="43.948" lon="2.55894">
        <ele>454</ele>
        <time>2015-11-29T09:42:50Z</time>
      </trkpt>
      <trkpt lat="43.94795" lon="2.55898">
        <ele>454</ele>
        <time>2015-11-29T09:42:56Z</time>
      </trkpt>
      <trkpt lat="43.9479" lon="2.55901">
        <ele>453</ele>
        <time>2015-11-29T09:43:02Z</time>
      </trkpt>
      <trkpt lat="43.94786" lon="2.55904">
        <ele>453</ele>
        <time>2015-11-29T09:43:08Z</time>
      </trkpt>
      <trkpt lat="43.94783" lon="2.5591">
        <ele>453</ele>
        <time>2015-11-29T09:43:16Z</time>
      </trkpt>
      <trkpt lat="43.94783" lon="2.55917">
        <ele>453</ele>
        <time>2015-11-29T09:43:21Z</time>
      </trkpt>
      <trkpt lat="43.94784" lon="2.55926">
        <ele>453</ele>
        <time>2015-11-29T09:43:27Z</time>
      </trkpt>
      <trkpt lat="43.94786" lon="2.55935">
        <ele>453</ele>
        <time>2015-11-29T09:43:34Z</time>
      </trkpt>
      <trkpt lat="43.94787" lon="2.55945">
        <ele>452</ele>
        <time>2015-11-29T09:43:40Z</time>
      </trkpt>
      <trkpt lat="43.94787" lon="2.55952">
        <ele>452</ele>
        <time>2015-11-29T09:43:45Z</time>
      </trkpt>
      <trkpt lat="43.94787" lon="2.55959">
        <ele>452</ele>
        <time>2015-11-29T09:43:52Z</time>
      </trkpt>
      <trkpt lat="43.94788" lon="2.55966">
        <ele>452</ele>
        <time>2015-11-29T09:43:57Z</time>
      </trkpt>
      <trkpt lat="43.94789" lon="2.55973">
        <ele>452</ele>
        <time>2015-11-29T09:44:01Z</time>
      </trkpt>
      <trkpt lat="43.94791" lon="2.55981">
        <ele>451</ele>
        <time>2015-11-29T09:44:07Z</time>
      </trkpt>
      <trkpt lat="43.94794" lon="2.55988">
        <ele>451</ele>
        <time>2015-11-29T09:44:12Z</time>
      </trkpt>
      <trkpt lat="43.94796" lon="2.55994">
        <ele>451</ele>
        <time>2015-11-29T09:44:17Z</time>
      </trkpt>
      <trkpt lat="43.94797" lon="2.56001">
        <ele>451</ele>
        <time>2015-11-29T09:44:22Z</time>
      </trkpt>
      <trkpt lat="43.94796" lon="2.56009">
        <ele>451</ele>
        <time>2015-11-29T09:44:27Z</time>
      </trkpt>
      <trkpt lat="43.94796" lon="2.56016">
        <ele>451</ele>
        <time>2015-11-29T09:44:32Z</time>
      </trkpt>
      <trkpt lat="43.94795" lon="2.56023">
        <ele>450</ele>
        <time>2015-11-29T09:44:39Z</time>
      </trkpt>
      <trkpt lat="43.94793" lon="2.56031">
        <ele>450</ele>
        <time>2015-11-29T09:44:45Z</time>
      </trkpt>
      <trkpt lat="43.94794" lon="2.56037">
        <ele>450</ele>
        <time>2015-11-29T09:44:51Z</time>
      </trkpt>
      <trkpt lat="43.94793" lon="2.56045">
        <ele>450</ele>
        <time>2015-11-29T09:44:58Z</time>
      </trkpt>
      <trkpt lat="43.9479" lon="2.5605">
        <ele>450</ele>
        <time>2015-11-29T09:45:03Z</time>
      </trkpt>
      <trkpt lat="43.94788" lon="2.56056">
        <ele>450</ele>
        <time>2015-11-29T09:45:08Z</time>
      </trkpt>
      <trkpt lat="43.94786" lon="2.56062">
        <ele>450</ele>
        <time>2015-11-29T09:45:14Z</time>
      </trkpt>
      <trkpt lat="43.94787" lon="2.56069">
        <ele>450</ele>
        <time>2015-11-29T09:45:22Z</time>
      </trkpt>
      <trkpt lat="43.94786" lon="2.56075">
        <ele>450</ele>
        <time>2015-11-29T09:45:36Z</time>
      </trkpt>
      <trkpt lat="43.94781" lon="2.56078">
        <ele>451</ele>
        <time>2015-11-29T09:45:43Z</time>
      </trkpt>
      <trkpt lat="43.94781" lon="2.56088">
        <ele>453</ele>
        <time>2015-11-29T09:45:44Z</time>
      </trkpt>
      <trkpt lat="43.9478" lon="2.56094">
        <ele>456</ele>
        <time>2015-11-29T09:45:46Z</time>
      </trkpt>
      <trkpt lat="43.94778" lon="2.561">
        <ele>460</ele>
        <time>2015-11-29T09:45:57Z</time>
      </trkpt>
      <trkpt lat="43.94769" lon="2.56099">
        <ele>464</ele>
        <time>2015-11-29T09:46:02Z</time>
      </trkpt>
      <trkpt lat="43.94763" lon="2.56099">
        <ele>469</ele>
        <time>2015-11-29T09:46:05Z</time>
      </trkpt>
      <trkpt lat="43.94759" lon="2.56102">
        <ele>472</ele>
        <time>2015-11-29T09:46:09Z</time>
      </trkpt>
      <trkpt lat="43.94756" lon="2.56107">
        <ele>475</ele>
        <time>2015-11-29T09:46:15Z</time>
      </trkpt>
      <trkpt lat="43.94753" lon="2.56113">
        <ele>477</ele>
        <time>2015-11-29T09:46:20Z</time>
      </trkpt>
      <trkpt lat="43.9475" lon="2.56118">
        <ele>479</ele>
        <time>2015-11-29T09:46:25Z</time>
      </trkpt>
      <trkpt lat="43.94746" lon="2.56122">
        <ele>480</ele>
        <time>2015-11-29T09:46:30Z</time>
      </trkpt>
      <trkpt lat="43.94743" lon="2.56127">
        <ele>482</ele>
        <time>2015-11-29T09:46:36Z</time>
      </trkpt>
      <trkpt lat="43.9474" lon="2.56131">
        <ele>484</ele>
        <time>2015-11-29T09:46:40Z</time>
      </trkpt>
      <trkpt lat="43.94734" lon="2.56135">
        <ele>486</ele>
        <time>2015-11-29T09:46:45Z</time>
      </trkpt>
      <trkpt lat="43.9473" lon="2.56141">
        <ele>488</ele>
        <time>2015-11-29T09:46:50Z</time>
      </trkpt>
      <trkpt lat="43.94726" lon="2.56147">
        <ele>490</ele>
        <time>2015-11-29T09:46:56Z</time>
      </trkpt>
      <trkpt lat="43.94722" lon="2.56151">
        <ele>492</ele>
        <time>2015-11-29T09:47:02Z</time>
      </trkpt>
      <trkpt lat="43.94719" lon="2.56157">
        <ele>493</ele>
        <time>2015-11-29T09:47:09Z</time>
      </trkpt>
      <trkpt lat="43.94714" lon="2.56163">
        <ele>495</ele>
        <time>2015-11-29T09:47:16Z</time>
      </trkpt>
      <trkpt lat="43.9471" lon="2.56167">
        <ele>497</ele>
        <time>2015-11-29T09:47:20Z</time>
      </trkpt>
      <trkpt lat="43.94706" lon="2.56172">
        <ele>498</ele>
        <time>2015-11-29T09:47:25Z</time>
      </trkpt>
      <trkpt lat="43.94702" lon="2.56177">
        <ele>500</ele>
        <time>2015-11-29T09:47:30Z</time>
      </trkpt>
      <trkpt lat="43.94697" lon="2.56181">
        <ele>501</ele>
        <time>2015-11-29T09:47:37Z</time>
      </trkpt>
      <trkpt lat="43.94693" lon="2.56185">
        <ele>503</ele>
        <time>2015-11-29T09:47:43Z</time>
      </trkpt>
      <trkpt lat="43.94689" lon="2.56188">
        <ele>504</ele>
        <time>2015-11-29T09:47:50Z</time>
      </trkpt>
      <trkpt lat="43.94685" lon="2.56194">
        <ele>505</ele>
        <time>2015-11-29T09:47:56Z</time>
      </trkpt>
      <trkpt lat="43.94682" lon="2.56198">
        <ele>506</ele>
        <time>2015-11-29T09:48:00Z</time>
      </trkpt>
      <trkpt lat="43.94678" lon="2.56205">
        <ele>508</ele>
        <time>2015-11-29T09:48:08Z</time>
      </trkpt>
      <trkpt lat="43.94674" lon="2.5621">
        <ele>509</ele>
        <time>2015-11-29T09:48:13Z</time>
      </trkpt>
      <trkpt lat="43.94669" lon="2.56215">
        <ele>510</ele>
        <time>2015-11-29T09:48:18Z</time>
      </trkpt>
      <trkpt lat="43.94665" lon="2.56221">
        <ele>512</ele>
        <time>2015-11-29T09:48:23Z</time>
      </trkpt>
      <trkpt lat="43.9466" lon="2.56226">
        <ele>513</ele>
        <time>2015-11-29T09:48:28Z</time>
      </trkpt>
      <trkpt lat="43.94656" lon="2.5623">
        <ele>514</ele>
        <time>2015-11-29T09:48:32Z</time>
      </trkpt>
      <trkpt lat="43.94652" lon="2.56236">
        <ele>515</ele>
        <time>2015-11-29T09:48:39Z</time>
      </trkpt>
      <trkpt lat="43.94648" lon="2.56241">
        <ele>516</ele>
        <time>2015-11-29T09:48:44Z</time>
      </trkpt>
      <trkpt lat="43.94644" lon="2.56246">
        <ele>517</ele>
        <time>2015-11-29T09:48:49Z</time>
      </trkpt>
      <trkpt lat="43.9464" lon="2.56251">
        <ele>518</ele>
        <time>2015-11-29T09:48:54Z</time>
      </trkpt>
      <trkpt lat="43.94636" lon="2.56255">
        <ele>519</ele>
        <time>2015-11-29T09:48:59Z</time>
      </trkpt>
      <trkpt lat="43.94632" lon="2.5626">
        <ele>520</ele>
        <time>2015-11-29T09:49:05Z</time>
      </trkpt>
      <trkpt lat="43.94628" lon="2.56264">
        <ele>520</ele>
        <time>2015-11-29T09:49:12Z</time>
      </trkpt>
      <trkpt lat="43.94624" lon="2.56269">
        <ele>521</ele>
        <time>2015-11-29T09:49:18Z</time>
      </trkpt>
      <trkpt lat="43.9462" lon="2.56273">
        <ele>522</ele>
        <time>2015-11-29T09:49:24Z</time>
      </trkpt>
      <trkpt lat="43.94615" lon="2.56276">
        <ele>523</ele>
        <time>2015-11-29T09:49:30Z</time>
      </trkpt>
      <trkpt lat="43.9461" lon="2.5628">
        <ele>524</ele>
        <time>2015-11-29T09:49:36Z</time>
      </trkpt>
      <trkpt lat="43.94608" lon="2.56286">
        <ele>525</ele>
        <time>2015-11-29T09:49:44Z</time>
      </trkpt>
      <trkpt lat="43.94604" lon="2.563">
        <ele>526</ele>
        <time>2015-11-29T09:50:01Z</time>
      </trkpt>
      <trkpt lat="43.94604" lon="2.563">
        <ele>527</ele>
        <time>2015-11-29T09:50:01Z</time>
      </trkpt>
      <trkpt lat="43.94601" lon="2.56307">
        <ele>527</ele>
        <time>2015-11-29T09:50:08Z</time>
      </trkpt>
      <trkpt lat="43.94599" lon="2.56313">
        <ele>528</ele>
        <time>2015-11-29T09:50:13Z</time>
      </trkpt>
      <trkpt lat="43.94597" lon="2.56319">
        <ele>529</ele>
        <time>2015-11-29T09:50:18Z</time>
      </trkpt>
      <trkpt lat="43.94594" lon="2.56325">
        <ele>529</ele>
        <time>2015-11-29T09:50:24Z</time>
      </trkpt>
      <trkpt lat="43.9459" lon="2.56333">
        <ele>529</ele>
        <time>2015-11-29T09:50:31Z</time>
      </trkpt>
      <trkpt lat="43.94588" lon="2.56341">
        <ele>530</ele>
        <time>2015-11-29T09:50:38Z</time>
      </trkpt>
      <trkpt lat="43.94585" lon="2.56348">
        <ele>530</ele>
        <time>2015-11-29T09:50:44Z</time>
      </trkpt>
      <trkpt lat="43.94582" lon="2.56354">
        <ele>531</ele>
        <time>2015-11-29T09:50:49Z</time>
      </trkpt>
      <trkpt lat="43.94578" lon="2.56363">
        <ele>531</ele>
        <time>2015-11-29T09:50:51Z</time>
      </trkpt>
      <trkpt lat="43.94577" lon="2.56369">
        <ele>532</ele>
        <time>2015-11-29T09:50:58Z</time>
      </trkpt>
      <trkpt lat="43.94576" lon="2.56377">
        <ele>532</ele>
        <time>2015-11-29T09:51:06Z</time>
      </trkpt>
      <trkpt lat="43.94573" lon="2.56383">
        <ele>533</ele>
        <time>2015-11-29T09:51:17Z</time>
      </trkpt>
      <trkpt lat="43.94569" lon="2.56388">
        <ele>534</ele>
        <time>2015-11-29T09:51:23Z</time>
      </trkpt>
      <trkpt lat="43.94564" lon="2.56394">
        <ele>534</ele>
        <time>2015-11-29T09:51:30Z</time>
      </trkpt>
      <trkpt lat="43.9456" lon="2.564">
        <ele>535</ele>
        <time>2015-11-29T09:51:34Z</time>
      </trkpt>
      <trkpt lat="43.94555" lon="2.56404">
        <ele>535</ele>
        <time>2015-11-29T09:51:40Z</time>
      </trkpt>
      <trkpt lat="43.94552" lon="2.56408">
        <ele>536</ele>
        <time>2015-11-29T09:51:46Z</time>
      </trkpt>
      <trkpt lat="43.94549" lon="2.56414">
        <ele>536</ele>
        <time>2015-11-29T09:51:51Z</time>
      </trkpt>
      <trkpt lat="43.94547" lon="2.5642">
        <ele>536</ele>
        <time>2015-11-29T09:51:55Z</time>
      </trkpt>
      <trkpt lat="43.94544" lon="2.56426">
        <ele>536</ele>
        <time>2015-11-29T09:52:00Z</time>
      </trkpt>
      <trkpt lat="43.94541" lon="2.56434">
        <ele>537</ele>
        <time>2015-11-29T09:52:06Z</time>
      </trkpt>
      <trkpt lat="43.94539" lon="2.5644">
        <ele>537</ele>
        <time>2015-11-29T09:52:13Z</time>
      </trkpt>
      <trkpt lat="43.94538" lon="2.56448">
        <ele>537</ele>
        <time>2015-11-29T09:52:19Z</time>
      </trkpt>
      <trkpt lat="43.94536" lon="2.56455">
        <ele>538</ele>
        <time>2015-11-29T09:52:23Z</time>
      </trkpt>
      <trkpt lat="43.94534" lon="2.56462">
        <ele>538</ele>
        <time>2015-11-29T09:52:30Z</time>
      </trkpt>
      <trkpt lat="43.94532" lon="2.56469">
        <ele>539</ele>
        <time>2015-11-29T09:52:35Z</time>
      </trkpt>
      <trkpt lat="43.94529" lon="2.56474">
        <ele>539</ele>
        <time>2015-11-29T09:52:40Z</time>
      </trkpt>
      <trkpt lat="43.94526" lon="2.56479">
        <ele>540</ele>
        <time>2015-11-29T09:52:46Z</time>
      </trkpt>
      <trkpt lat="43.94522" lon="2.56485">
        <ele>540</ele>
        <time>2015-11-29T09:52:51Z</time>
      </trkpt>
      <trkpt lat="43.94518" lon="2.56491">
        <ele>541</ele>
        <time>2015-11-29T09:52:56Z</time>
      </trkpt>
      <trkpt lat="43.94518" lon="2.56498">
        <ele>541</ele>
        <time>2015-11-29T09:53:02Z</time>
      </trkpt>
      <trkpt lat="43.94518" lon="2.56506">
        <ele>542</ele>
        <time>2015-11-29T09:53:07Z</time>
      </trkpt>
      <trkpt lat="43.94518" lon="2.56512">
        <ele>542</ele>
        <time>2015-11-29T09:53:12Z</time>
      </trkpt>
      <trkpt lat="43.94511" lon="2.5653">
        <ele>543</ele>
        <time>2015-11-29T09:53:16Z</time>
      </trkpt>
      <trkpt lat="43.94511" lon="2.56531">
        <ele>544</ele>
        <time>2015-11-29T09:53:40Z</time>
      </trkpt>
      <trkpt lat="43.94511" lon="2.56531">
        <ele>545</ele>
        <time>2015-11-29T09:54:07Z</time>
      </trkpt>
      <trkpt lat="43.94519" lon="2.56532">
        <ele>547</ele>
        <time>2015-11-29T09:54:09Z</time>
      </trkpt>
      <trkpt lat="43.94519" lon="2.56532">
        <ele>548</ele>
        <time>2015-11-29T09:54:36Z</time>
      </trkpt>
      <trkpt lat="43.94519" lon="2.56532">
        <ele>550</ele>
        <time>2015-11-29T09:55:04Z</time>
      </trkpt>
      <trkpt lat="43.94519" lon="2.56532">
        <ele>551</ele>
        <time>2015-11-29T09:55:33Z</time>
      </trkpt>
      <trkpt lat="43.94519" lon="2.56532">
        <ele>552</ele>
        <time>2015-11-29T09:56:02Z</time>
      </trkpt>
      <trkpt lat="43.94518" lon="2.56538">
        <ele>553</ele>
        <time>2015-11-29T09:56:18Z</time>
      </trkpt>
      <trkpt lat="43.94518" lon="2.56541">
        <ele>554</ele>
        <time>2015-11-29T09:56:57Z</time>
      </trkpt>
      <trkpt lat="43.94518" lon="2.56541">
        <ele>555</ele>
        <time>2015-11-29T09:57:24Z</time>
      </trkpt>
      <trkpt lat="43.94518" lon="2.56541">
        <ele>555</ele>
        <time>2015-11-29T09:57:52Z</time>
      </trkpt>
      <trkpt lat="43.94518" lon="2.56541">
        <ele>556</ele>
        <time>2015-11-29T09:58:22Z</time>
      </trkpt>
      <trkpt lat="43.94518" lon="2.56541">
        <ele>556</ele>
        <time>2015-11-29T09:58:44Z</time>
      </trkpt>
      <trkpt lat="43.94518" lon="2.56541">
        <ele>556</ele>
        <time>2015-11-29T09:59:14Z</time>
      </trkpt>
      <trkpt lat="43.94518" lon="2.56541">
        <ele>556</ele>
        <time>2015-11-29T09:59:43Z</time>
      </trkpt>
      <trkpt lat="43.94518" lon="2.56541">
        <ele>556</ele>
        <time>2015-11-29T10:00:09Z</time>
      </trkpt>
      <trkpt lat="43.94518" lon="2.56541">
        <ele>556</ele>
        <time>2015-11-29T10:00:37Z</time>
      </trkpt>
      <trkpt lat="43.94518" lon="2.56541">
        <ele>556</ele>
        <time>2015-11-29T10:01:04Z</time>
      </trkpt>
      <trkpt lat="43.94518" lon="2.56541">
        <ele>556</ele>
        <time>2015-11-29T10:01:31Z</time>
      </trkpt>
      <trkpt lat="43.94518" lon="2.56541">
        <ele>556</ele>
        <time>2015-11-29T10:01:59Z</time>
      </trkpt>
      <trkpt lat="43.94518" lon="2.56541">
        <ele>556</ele>
        <time>2015-11-29T10:02:25Z</time>
      </trkpt>
      <trkpt lat="43.94518" lon="2.56541">
        <ele>556</ele>
        <time>2015-11-29T10:02:52Z</time>
      </trkpt>
      <trkpt lat="43.94518" lon="2.56541">
        <ele>556</ele>
        <time>2015-11-29T10:03:21Z</time>
      </trkpt>
      <trkpt lat="43.94518" lon="2.56541">
        <ele>556</ele>
        <time>2015-11-29T10:03:47Z</time>
      </trkpt>
      <trkpt lat="43.94518" lon="2.56541">
        <ele>556</ele>
        <time>2015-11-29T10:04:15Z</time>
      </trkpt>
      <trkpt lat="43.94515" lon="2.56529">
        <ele>558</ele>
        <time>2015-11-29T10:04:18Z</time>
      </trkpt>
      <trkpt lat="43.94514" lon="2.56528">
        <ele>559</ele>
        <time>2015-11-29T10:04:41Z</time>
      </trkpt>
      <trkpt lat="43.94517" lon="2.56536">
        <ele>561</ele>
        <time>2015-11-29T10:05:00Z</time>
      </trkpt>
      <trkpt lat="43.94518" lon="2.56543">
        <ele>562</ele>
        <time>2015-11-29T10:05:07Z</time>
      </trkpt>
      <trkpt lat="43.94519" lon="2.56551">
        <ele>563</ele>
        <time>2015-11-29T10:05:15Z</time>
      </trkpt>
      <trkpt lat="43.94518" lon="2.56558">
        <ele>563</ele>
        <time>2015-11-29T10:05:19Z</time>
      </trkpt>
      <trkpt lat="43.94518" lon="2.56564">
        <ele>563</ele>
        <time>2015-11-29T10:05:30Z</time>
      </trkpt>
      <trkpt lat="43.94519" lon="2.5657">
        <ele>563</ele>
        <time>2015-11-29T10:05:38Z</time>
      </trkpt>
      <trkpt lat="43.94519" lon="2.56577">
        <ele>563</ele>
        <time>2015-11-29T10:05:44Z</time>
      </trkpt>
      <trkpt lat="43.94519" lon="2.56585">
        <ele>563</ele>
        <time>2015-11-29T10:05:51Z</time>
      </trkpt>
      <trkpt lat="43.94519" lon="2.56593">
        <ele>563</ele>
        <time>2015-11-29T10:05:57Z</time>
      </trkpt>
      <trkpt lat="43.94518" lon="2.56601">
        <ele>562</ele>
        <time>2015-11-29T10:06:04Z</time>
      </trkpt>
      <trkpt lat="43.94518" lon="2.56607">
        <ele>562</ele>
        <time>2015-11-29T10:06:09Z</time>
      </trkpt>
      <trkpt lat="43.94516" lon="2.56613">
        <ele>562</ele>
        <time>2015-11-29T10:06:13Z</time>
      </trkpt>
      <trkpt lat="43.94516" lon="2.5662">
        <ele>562</ele>
        <time>2015-11-29T10:06:18Z</time>
      </trkpt>
      <trkpt lat="43.94515" lon="2.56629">
        <ele>562</ele>
        <time>2015-11-29T10:06:24Z</time>
      </trkpt>
      <trkpt lat="43.94515" lon="2.56635">
        <ele>562</ele>
        <time>2015-11-29T10:06:29Z</time>
      </trkpt>
      <trkpt lat="43.94515" lon="2.56642">
        <ele>562</ele>
        <time>2015-11-29T10:06:34Z</time>
      </trkpt>
      <trkpt lat="43.94515" lon="2.5665">
        <ele>562</ele>
        <time>2015-11-29T10:06:40Z</time>
      </trkpt>
      <trkpt lat="43.94515" lon="2.56658">
        <ele>562</ele>
        <time>2015-11-29T10:06:47Z</time>
      </trkpt>
      <trkpt lat="43.94515" lon="2.56665">
        <ele>562</ele>
        <time>2015-11-29T10:06:53Z</time>
      </trkpt>
      <trkpt lat="43.94517" lon="2.56672">
        <ele>562</ele>
        <time>2015-11-29T10:07:00Z</time>
      </trkpt>
      <trkpt lat="43.94515" lon="2.56684">
        <ele>562</ele>
        <time>2015-11-29T10:07:15Z</time>
      </trkpt>
      <trkpt lat="43.94518" lon="2.56688">
        <ele>563</ele>
        <time>2015-11-29T10:07:34Z</time>
      </trkpt>
      <trkpt lat="43.94523" lon="2.56691">
        <ele>563</ele>
        <time>2015-11-29T10:07:41Z</time>
      </trkpt>
      <trkpt lat="43.94527" lon="2.56694">
        <ele>564</ele>
        <time>2015-11-29T10:07:47Z</time>
      </trkpt>
      <trkpt lat="43.94533" lon="2.56698">
        <ele>564</ele>
        <time>2015-11-29T10:07:54Z</time>
      </trkpt>
      <trkpt lat="43.94537" lon="2.56699">
        <ele>564</ele>
        <time>2015-11-29T10:07:58Z</time>
      </trkpt>
      <trkpt lat="43.94542" lon="2.56703">
        <ele>564</ele>
        <time>2015-11-29T10:08:03Z</time>
      </trkpt>
      <trkpt lat="43.94546" lon="2.56706">
        <ele>564</ele>
        <time>2015-11-29T10:08:09Z</time>
      </trkpt>
      <trkpt lat="43.94549" lon="2.56713">
        <ele>564</ele>
        <time>2015-11-29T10:08:16Z</time>
      </trkpt>
      <trkpt lat="43.94552" lon="2.56718">
        <ele>564</ele>
        <time>2015-11-29T10:08:22Z</time>
      </trkpt>
      <trkpt lat="43.94554" lon="2.56725">
        <ele>564</ele>
        <time>2015-11-29T10:08:29Z</time>
      </trkpt>
      <trkpt lat="43.94556" lon="2.56732">
        <ele>564</ele>
        <time>2015-11-29T10:08:35Z</time>
      </trkpt>
      <trkpt lat="43.94557" lon="2.56738">
        <ele>564</ele>
        <time>2015-11-29T10:08:41Z</time>
      </trkpt>
      <trkpt lat="43.94558" lon="2.56745">
        <ele>564</ele>
        <time>2015-11-29T10:08:47Z</time>
      </trkpt>
      <trkpt lat="43.94559" lon="2.56753">
        <ele>563</ele>
        <time>2015-11-29T10:08:53Z</time>
      </trkpt>
      <trkpt lat="43.9456" lon="2.5676">
        <ele>563</ele>
        <time>2015-11-29T10:08:58Z</time>
      </trkpt>
      <trkpt lat="43.94561" lon="2.56766">
        <ele>563</ele>
        <time>2015-11-29T10:09:05Z</time>
      </trkpt>
      <trkpt lat="43.94561" lon="2.56775">
        <ele>562</ele>
        <time>2015-11-29T10:09:10Z</time>
      </trkpt>
      <trkpt lat="43.94564" lon="2.56783">
        <ele>562</ele>
        <time>2015-11-29T10:09:16Z</time>
      </trkpt>
      <trkpt lat="43.94564" lon="2.56789">
        <ele>561</ele>
        <time>2015-11-29T10:09:20Z</time>
      </trkpt>
      <trkpt lat="43.94564" lon="2.56796">
        <ele>561</ele>
        <time>2015-11-29T10:09:25Z</time>
      </trkpt>
      <trkpt lat="43.94565" lon="2.56803">
        <ele>561</ele>
        <time>2015-11-29T10:09:31Z</time>
      </trkpt>
      <trkpt lat="43.94566" lon="2.56812">
        <ele>561</ele>
        <time>2015-11-29T10:09:39Z</time>
      </trkpt>
      <trkpt lat="43.94566" lon="2.56819">
        <ele>560</ele>
        <time>2015-11-29T10:09:45Z</time>
      </trkpt>
      <trkpt lat="43.94566" lon="2.56826">
        <ele>560</ele>
        <time>2015-11-29T10:09:49Z</time>
      </trkpt>
      <trkpt lat="43.94566" lon="2.56832">
        <ele>560</ele>
        <time>2015-11-29T10:09:53Z</time>
      </trkpt>
      <trkpt lat="43.94567" lon="2.56839">
        <ele>559</ele>
        <time>2015-11-29T10:09:57Z</time>
      </trkpt>
      <trkpt lat="43.94567" lon="2.56847">
        <ele>559</ele>
        <time>2015-11-29T10:10:02Z</time>
      </trkpt>
      <trkpt lat="43.94567" lon="2.56855">
        <ele>559</ele>
        <time>2015-11-29T10:10:07Z</time>
      </trkpt>
      <trkpt lat="43.94567" lon="2.56862">
        <ele>559</ele>
        <time>2015-11-29T10:10:10Z</time>
      </trkpt>
      <trkpt lat="43.94567" lon="2.56868">
        <ele>558</ele>
        <time>2015-11-29T10:10:15Z</time>
      </trkpt>
      <trkpt lat="43.94569" lon="2.56874">
        <ele>558</ele>
        <time>2015-11-29T10:10:26Z</time>
      </trkpt>
      <trkpt lat="43.94569" lon="2.56883">
        <ele>558</ele>
        <time>2015-11-29T10:10:33Z</time>
      </trkpt>
      <trkpt lat="43.94568" lon="2.56891">
        <ele>557</ele>
        <time>2015-11-29T10:10:38Z</time>
      </trkpt>
      <trkpt lat="43.94568" lon="2.56897">
        <ele>557</ele>
        <time>2015-11-29T10:10:42Z</time>
      </trkpt>
      <trkpt lat="43.94568" lon="2.56905">
        <ele>556</ele>
        <time>2015-11-29T10:10:49Z</time>
      </trkpt>
      <trkpt lat="43.94568" lon="2.56914">
        <ele>556</ele>
        <time>2015-11-29T10:10:55Z</time>
      </trkpt>
      <trkpt lat="43.94568" lon="2.56921">
        <ele>555</ele>
        <time>2015-11-29T10:11:00Z</time>
      </trkpt>
      <trkpt lat="43.94568" lon="2.56928">
        <ele>554</ele>
        <time>2015-11-29T10:11:04Z</time>
      </trkpt>
      <trkpt lat="43.94568" lon="2.56936">
        <ele>554</ele>
        <time>2015-11-29T10:11:09Z</time>
      </trkpt>
      <trkpt lat="43.94568" lon="2.56943">
        <ele>553</ele>
        <time>2015-11-29T10:11:13Z</time>
      </trkpt>
      <trkpt lat="43.94568" lon="2.56952">
        <ele>553</ele>
        <time>2015-11-29T10:11:21Z</time>
      </trkpt>
      <trkpt lat="43.94569" lon="2.56958">
        <ele>553</ele>
        <time>2015-11-29T10:11:25Z</time>
      </trkpt>
      <trkpt lat="43.94569" lon="2.56965">
        <ele>552</ele>
        <time>2015-11-29T10:11:29Z</time>
      </trkpt>
      <trkpt lat="43.9457" lon="2.56972">
        <ele>552</ele>
        <time>2015-11-29T10:11:33Z</time>
      </trkpt>
      <trkpt lat="43.94571" lon="2.56981">
        <ele>551</ele>
        <time>2015-11-29T10:11:38Z</time>
      </trkpt>
      <trkpt lat="43.94572" lon="2.56987">
        <ele>551</ele>
        <time>2015-11-29T10:11:42Z</time>
      </trkpt>
      <trkpt lat="43.94574" lon="2.56993">
        <ele>551</ele>
        <time>2015-11-29T10:11:47Z</time>
      </trkpt>
      <trkpt lat="43.94576" lon="2.57">
        <ele>550</ele>
        <time>2015-11-29T10:11:52Z</time>
      </trkpt>
      <trkpt lat="43.94579" lon="2.57007">
        <ele>550</ele>
        <time>2015-11-29T10:11:58Z</time>
      </trkpt>
      <trkpt lat="43.94582" lon="2.57015">
        <ele>549</ele>
        <time>2015-11-29T10:12:04Z</time>
      </trkpt>
      <trkpt lat="43.94584" lon="2.57022">
        <ele>549</ele>
        <time>2015-11-29T10:12:09Z</time>
      </trkpt>
      <trkpt lat="43.94587" lon="2.57028">
        <ele>548</ele>
        <time>2015-11-29T10:12:13Z</time>
      </trkpt>
      <trkpt lat="43.9459" lon="2.57033">
        <ele>547</ele>
        <time>2015-11-29T10:12:19Z</time>
      </trkpt>
      <trkpt lat="43.94593" lon="2.57039">
        <ele>547</ele>
        <time>2015-11-29T10:12:23Z</time>
      </trkpt>
      <trkpt lat="43.94595" lon="2.57046">
        <ele>546</ele>
        <time>2015-11-29T10:12:28Z</time>
      </trkpt>
      <trkpt lat="43.94597" lon="2.57054">
        <ele>546</ele>
        <time>2015-11-29T10:12:33Z</time>
      </trkpt>
      <trkpt lat="43.94599" lon="2.57061">
        <ele>545</ele>
        <time>2015-11-29T10:12:38Z</time>
      </trkpt>
      <trkpt lat="43.94599" lon="2.57069">
        <ele>544</ele>
        <time>2015-11-29T10:12:43Z</time>
      </trkpt>
      <trkpt lat="43.94599" lon="2.57077">
        <ele>544</ele>
        <time>2015-11-29T10:12:47Z</time>
      </trkpt>
      <trkpt lat="43.94597" lon="2.57088">
        <ele>543</ele>
        <time>2015-11-29T10:12:52Z</time>
      </trkpt>
      <trkpt lat="43.94598" lon="2.57094">
        <ele>543</ele>
        <time>2015-11-29T10:12:56Z</time>
      </trkpt>
      <trkpt lat="43.94599" lon="2.57101">
        <ele>543</ele>
        <time>2015-11-29T10:13:01Z</time>
      </trkpt>
      <trkpt lat="43.94599" lon="2.5711">
        <ele>542</ele>
        <time>2015-11-29T10:13:07Z</time>
      </trkpt>
      <trkpt lat="43.946" lon="2.57116">
        <ele>542</ele>
        <time>2015-11-29T10:13:11Z</time>
      </trkpt>
      <trkpt lat="43.946" lon="2.57131">
        <ele>541</ele>
        <time>2015-11-29T10:13:24Z</time>
      </trkpt>
      <trkpt lat="43.94599" lon="2.5714">
        <ele>540</ele>
        <time>2015-11-29T10:13:31Z</time>
      </trkpt>
      <trkpt lat="43.94598" lon="2.57146">
        <ele>539</ele>
        <time>2015-11-29T10:13:38Z</time>
      </trkpt>
      <trkpt lat="43.94596" lon="2.57153">
        <ele>538</ele>
        <time>2015-11-29T10:13:45Z</time>
      </trkpt>
      <trkpt lat="43.94593" lon="2.57158">
        <ele>538</ele>
        <time>2015-11-29T10:13:52Z</time>
      </trkpt>
      <trkpt lat="43.9459" lon="2.57164">
        <ele>537</ele>
        <time>2015-11-29T10:13:57Z</time>
      </trkpt>
      <trkpt lat="43.94587" lon="2.57171">
        <ele>536</ele>
        <time>2015-11-29T10:14:04Z</time>
      </trkpt>
      <trkpt lat="43.94585" lon="2.57178">
        <ele>535</ele>
        <time>2015-11-29T10:14:10Z</time>
      </trkpt>
      <trkpt lat="43.94584" lon="2.57184">
        <ele>535</ele>
        <time>2015-11-29T10:14:18Z</time>
      </trkpt>
      <trkpt lat="43.94582" lon="2.57192">
        <ele>534</ele>
        <time>2015-11-29T10:14:24Z</time>
      </trkpt>
      <trkpt lat="43.9458" lon="2.572">
        <ele>533</ele>
        <time>2015-11-29T10:14:28Z</time>
      </trkpt>
      <trkpt lat="43.94577" lon="2.57211">
        <ele>532</ele>
        <time>2015-11-29T10:14:32Z</time>
      </trkpt>
      <trkpt lat="43.94576" lon="2.57222">
        <ele>531</ele>
        <time>2015-11-29T10:14:38Z</time>
      </trkpt>
      <trkpt lat="43.94576" lon="2.57228">
        <ele>530</ele>
        <time>2015-11-29T10:14:41Z</time>
      </trkpt>
      <trkpt lat="43.94574" lon="2.57234">
        <ele>529</ele>
        <time>2015-11-29T10:14:44Z</time>
      </trkpt>
      <trkpt lat="43.94573" lon="2.5724">
        <ele>528</ele>
        <time>2015-11-29T10:14:48Z</time>
      </trkpt>
      <trkpt lat="43.94572" lon="2.57248">
        <ele>528</ele>
        <time>2015-11-29T10:14:53Z</time>
      </trkpt>
      <trkpt lat="43.94572" lon="2.57255">
        <ele>527</ele>
        <time>2015-11-29T10:14:58Z</time>
      </trkpt>
      <trkpt lat="43.94572" lon="2.57264">
        <ele>526</ele>
        <time>2015-11-29T10:15:04Z</time>
      </trkpt>
      <trkpt lat="43.94572" lon="2.57274">
        <ele>526</ele>
        <time>2015-11-29T10:15:10Z</time>
      </trkpt>
      <trkpt lat="43.94573" lon="2.57283">
        <ele>525</ele>
        <time>2015-11-29T10:15:18Z</time>
      </trkpt>
      <trkpt lat="43.94573" lon="2.5729">
        <ele>524</ele>
        <time>2015-11-29T10:15:24Z</time>
      </trkpt>
      <trkpt lat="43.94574" lon="2.57298">
        <ele>523</ele>
        <time>2015-11-29T10:15:29Z</time>
      </trkpt>
      <trkpt lat="43.94575" lon="2.57304">
        <ele>522</ele>
        <time>2015-11-29T10:15:33Z</time>
      </trkpt>
      <trkpt lat="43.94576" lon="2.57312">
        <ele>521</ele>
        <time>2015-11-29T10:15:38Z</time>
      </trkpt>
      <trkpt lat="43.94576" lon="2.57319">
        <ele>521</ele>
        <time>2015-11-29T10:15:42Z</time>
      </trkpt>
      <trkpt lat="43.94578" lon="2.57326">
        <ele>520</ele>
        <time>2015-11-29T10:15:47Z</time>
      </trkpt>
      <trkpt lat="43.94581" lon="2.57333">
        <ele>519</ele>
        <time>2015-11-29T10:15:52Z</time>
      </trkpt>
      <trkpt lat="43.94582" lon="2.57341">
        <ele>519</ele>
        <time>2015-11-29T10:15:57Z</time>
      </trkpt>
      <trkpt lat="43.94583" lon="2.57348">
        <ele>518</ele>
        <time>2015-11-29T10:16:01Z</time>
      </trkpt>
      <trkpt lat="43.94585" lon="2.57356">
        <ele>517</ele>
        <time>2015-11-29T10:16:07Z</time>
      </trkpt>
      <trkpt lat="43.94586" lon="2.57366">
        <ele>517</ele>
        <time>2015-11-29T10:16:12Z</time>
      </trkpt>
      <trkpt lat="43.94586" lon="2.57373">
        <ele>516</ele>
        <time>2015-11-29T10:16:17Z</time>
      </trkpt>
      <trkpt lat="43.94585" lon="2.5738">
        <ele>515</ele>
        <time>2015-11-29T10:16:20Z</time>
      </trkpt>
      <trkpt lat="43.94578" lon="2.57391">
        <ele>515</ele>
        <time>2015-11-29T10:16:35Z</time>
      </trkpt>
      <trkpt lat="43.94572" lon="2.57394">
        <ele>515</ele>
        <time>2015-11-29T10:16:43Z</time>
      </trkpt>
      <trkpt lat="43.94562" lon="2.57415">
        <ele>514</ele>
        <time>2015-11-29T10:17:00Z</time>
      </trkpt>
      <trkpt lat="43.94559" lon="2.57422">
        <ele>514</ele>
        <time>2015-11-29T10:17:02Z</time>
      </trkpt>
      <trkpt lat="43.94552" lon="2.57428">
        <ele>515</ele>
        <time>2015-11-29T10:17:22Z</time>
      </trkpt>
      <trkpt lat="43.9456" lon="2.5743">
        <ele>516</ele>
        <time>2015-11-29T10:17:34Z</time>
      </trkpt>
      <trkpt lat="43.94559" lon="2.57439">
        <ele>517</ele>
        <time>2015-11-29T10:17:49Z</time>
      </trkpt>
      <trkpt lat="43.9456" lon="2.57446">
        <ele>518</ele>
        <time>2015-11-29T10:17:57Z</time>
      </trkpt>
      <trkpt lat="43.9456" lon="2.57453">
        <ele>519</ele>
        <time>2015-11-29T10:18:07Z</time>
      </trkpt>
      <trkpt lat="43.9456" lon="2.57461">
        <ele>520</ele>
        <time>2015-11-29T10:18:14Z</time>
      </trkpt>
      <trkpt lat="43.94559" lon="2.57468">
        <ele>520</ele>
        <time>2015-11-29T10:18:19Z</time>
      </trkpt>
      <trkpt lat="43.94558" lon="2.57478">
        <ele>520</ele>
        <time>2015-11-29T10:18:25Z</time>
      </trkpt>
      <trkpt lat="43.94558" lon="2.57485">
        <ele>520</ele>
        <time>2015-11-29T10:18:31Z</time>
      </trkpt>
      <trkpt lat="43.9456" lon="2.57492">
        <ele>520</ele>
        <time>2015-11-29T10:18:40Z</time>
      </trkpt>
      <trkpt lat="43.94558" lon="2.575">
        <ele>520</ele>
        <time>2015-11-29T10:18:49Z</time>
      </trkpt>
      <trkpt lat="43.94556" lon="2.57506">
        <ele>521</ele>
        <time>2015-11-29T10:18:59Z</time>
      </trkpt>
      <trkpt lat="43.94554" lon="2.57516">
        <ele>520</ele>
        <time>2015-11-29T10:19:12Z</time>
      </trkpt>
      <trkpt lat="43.94553" lon="2.57525">
        <ele>520</ele>
        <time>2015-11-29T10:19:21Z</time>
      </trkpt>
      <trkpt lat="43.9455" lon="2.57537">
        <ele>520</ele>
        <time>2015-11-29T10:19:25Z</time>
      </trkpt>
      <trkpt lat="43.94547" lon="2.57547">
        <ele>520</ele>
        <time>2015-11-29T10:19:28Z</time>
      </trkpt>
      <trkpt lat="43.94547" lon="2.57555">
        <ele>521</ele>
        <time>2015-11-29T10:19:44Z</time>
      </trkpt>
      <trkpt lat="43.94547" lon="2.57564">
        <ele>521</ele>
        <time>2015-11-29T10:19:53Z</time>
      </trkpt>
      <trkpt lat="43.94548" lon="2.57571">
        <ele>522</ele>
        <time>2015-11-29T10:20:00Z</time>
      </trkpt>
      <trkpt lat="43.94549" lon="2.57578">
        <ele>522</ele>
        <time>2015-11-29T10:20:06Z</time>
      </trkpt>
      <trkpt lat="43.94552" lon="2.57585">
        <ele>522</ele>
        <time>2015-11-29T10:20:13Z</time>
      </trkpt>
      <trkpt lat="43.94552" lon="2.57596">
        <ele>523</ele>
        <time>2015-11-29T10:20:18Z</time>
      </trkpt>
      <trkpt lat="43.94553" lon="2.57603">
        <ele>523</ele>
        <time>2015-11-29T10:20:23Z</time>
      </trkpt>
      <trkpt lat="43.94553" lon="2.57611">
        <ele>523</ele>
        <time>2015-11-29T10:20:26Z</time>
      </trkpt>
      <trkpt lat="43.94555" lon="2.57618">
        <ele>523</ele>
        <time>2015-11-29T10:20:31Z</time>
      </trkpt>
      <trkpt lat="43.94553" lon="2.5763">
        <ele>524</ele>
        <time>2015-11-29T10:20:36Z</time>
      </trkpt>
      <trkpt lat="43.94553" lon="2.57638">
        <ele>524</ele>
        <time>2015-11-29T10:20:39Z</time>
      </trkpt>
      <trkpt lat="43.94551" lon="2.57644">
        <ele>525</ele>
        <time>2015-11-29T10:20:42Z</time>
      </trkpt>
      <trkpt lat="43.94549" lon="2.5765">
        <ele>525</ele>
        <time>2015-11-29T10:20:46Z</time>
      </trkpt>
      <trkpt lat="43.94552" lon="2.57656">
        <ele>526</ele>
        <time>2015-11-29T10:20:58Z</time>
      </trkpt>
      <trkpt lat="43.94556" lon="2.57658">
        <ele>527</ele>
        <time>2015-11-29T10:21:04Z</time>
      </trkpt>
      <trkpt lat="43.94561" lon="2.57661">
        <ele>528</ele>
        <time>2015-11-29T10:21:12Z</time>
      </trkpt>
      <trkpt lat="43.94566" lon="2.57663">
        <ele>530</ele>
        <time>2015-11-29T10:21:19Z</time>
      </trkpt>
      <trkpt lat="43.9457" lon="2.57667">
        <ele>530</ele>
        <time>2015-11-29T10:21:26Z</time>
      </trkpt>
      <trkpt lat="43.94574" lon="2.57671">
        <ele>531</ele>
        <time>2015-11-29T10:21:33Z</time>
      </trkpt>
      <trkpt lat="43.94578" lon="2.57676">
        <ele>532</ele>
        <time>2015-11-29T10:21:40Z</time>
      </trkpt>
      <trkpt lat="43.94582" lon="2.57681">
        <ele>532</ele>
        <time>2015-11-29T10:21:45Z</time>
      </trkpt>
      <trkpt lat="43.94587" lon="2.57685">
        <ele>533</ele>
        <time>2015-11-29T10:21:49Z</time>
      </trkpt>
      <trkpt lat="43.94591" lon="2.57688">
        <ele>533</ele>
        <time>2015-11-29T10:21:53Z</time>
      </trkpt>
      <trkpt lat="43.94595" lon="2.57693">
        <ele>533</ele>
        <time>2015-11-29T10:21:57Z</time>
      </trkpt>
      <trkpt lat="43.946" lon="2.57695">
        <ele>534</ele>
        <time>2015-11-29T10:21:59Z</time>
      </trkpt>
      <trkpt lat="43.94606" lon="2.57701">
        <ele>534</ele>
        <time>2015-11-29T10:22:04Z</time>
      </trkpt>
      <trkpt lat="43.9461" lon="2.57703">
        <ele>535</ele>
        <time>2015-11-29T10:22:06Z</time>
      </trkpt>
      <trkpt lat="43.94615" lon="2.57709">
        <ele>536</ele>
        <time>2015-11-29T10:22:11Z</time>
      </trkpt>
      <trkpt lat="43.94619" lon="2.57716">
        <ele>537</ele>
        <time>2015-11-29T10:22:15Z</time>
      </trkpt>
      <trkpt lat="43.94622" lon="2.57721">
        <ele>537</ele>
        <time>2015-11-29T10:22:18Z</time>
      </trkpt>
      <trkpt lat="43.94624" lon="2.57728">
        <ele>538</ele>
        <time>2015-11-29T10:22:22Z</time>
      </trkpt>
      <trkpt lat="43.94624" lon="2.57734">
        <ele>539</ele>
        <time>2015-11-29T10:22:26Z</time>
      </trkpt>
      <trkpt lat="43.94627" lon="2.57741">
        <ele>540</ele>
        <time>2015-11-29T10:22:31Z</time>
      </trkpt>
      <trkpt lat="43.9463" lon="2.57748">
        <ele>540</ele>
        <time>2015-11-29T10:22:35Z</time>
      </trkpt>
      <trkpt lat="43.94632" lon="2.57754">
        <ele>540</ele>
        <time>2015-11-29T10:22:39Z</time>
      </trkpt>
      <trkpt lat="43.94632" lon="2.57763">
        <ele>541</ele>
        <time>2015-11-29T10:22:45Z</time>
      </trkpt>
      <trkpt lat="43.94635" lon="2.57771">
        <ele>541</ele>
        <time>2015-11-29T10:22:50Z</time>
      </trkpt>
      <trkpt lat="43.94638" lon="2.57778">
        <ele>542</ele>
        <time>2015-11-29T10:22:55Z</time>
      </trkpt>
      <trkpt lat="43.9464" lon="2.57785">
        <ele>542</ele>
        <time>2015-11-29T10:23:01Z</time>
      </trkpt>
      <trkpt lat="43.94643" lon="2.5779">
        <ele>543</ele>
        <time>2015-11-29T10:23:06Z</time>
      </trkpt>
      <trkpt lat="43.94647" lon="2.57796">
        <ele>543</ele>
        <time>2015-11-29T10:23:14Z</time>
      </trkpt>
      <trkpt lat="43.94651" lon="2.578">
        <ele>543</ele>
        <time>2015-11-29T10:23:18Z</time>
      </trkpt>
      <trkpt lat="43.94655" lon="2.57806">
        <ele>544</ele>
        <time>2015-11-29T10:23:23Z</time>
      </trkpt>
      <trkpt lat="43.94659" lon="2.5781">
        <ele>544</ele>
        <time>2015-11-29T10:23:27Z</time>
      </trkpt>
      <trkpt lat="43.94663" lon="2.57814">
        <ele>544</ele>
        <time>2015-11-29T10:23:31Z</time>
      </trkpt>
      <trkpt lat="43.94669" lon="2.57819">
        <ele>544</ele>
        <time>2015-11-29T10:23:36Z</time>
      </trkpt>
      <trkpt lat="43.94672" lon="2.57823">
        <ele>544</ele>
        <time>2015-11-29T10:23:40Z</time>
      </trkpt>
      <trkpt lat="43.94674" lon="2.5783">
        <ele>545</ele>
        <time>2015-11-29T10:23:46Z</time>
      </trkpt>
      <trkpt lat="43.94678" lon="2.57837">
        <ele>545</ele>
        <time>2015-11-29T10:23:52Z</time>
      </trkpt>
      <trkpt lat="43.94682" lon="2.57842">
        <ele>545</ele>
        <time>2015-11-29T10:23:57Z</time>
      </trkpt>
      <trkpt lat="43.94684" lon="2.5785">
        <ele>546</ele>
        <time>2015-11-29T10:24:02Z</time>
      </trkpt>
      <trkpt lat="43.94688" lon="2.57857">
        <ele>547</ele>
        <time>2015-11-29T10:24:08Z</time>
      </trkpt>
      <trkpt lat="43.94689" lon="2.57863">
        <ele>548</ele>
        <time>2015-11-29T10:24:12Z</time>
      </trkpt>
      <trkpt lat="43.94692" lon="2.5787">
        <ele>548</ele>
        <time>2015-11-29T10:24:18Z</time>
      </trkpt>
      <trkpt lat="43.94692" lon="2.57876">
        <ele>549</ele>
        <time>2015-11-29T10:24:22Z</time>
      </trkpt>
      <trkpt lat="43.94693" lon="2.57885">
        <ele>549</ele>
        <time>2015-11-29T10:24:28Z</time>
      </trkpt>
      <trkpt lat="43.94692" lon="2.57891">
        <ele>550</ele>
        <time>2015-11-29T10:24:35Z</time>
      </trkpt>
      <trkpt lat="43.94691" lon="2.579">
        <ele>550</ele>
        <time>2015-11-29T10:24:41Z</time>
      </trkpt>
      <trkpt lat="43.94693" lon="2.57908">
        <ele>551</ele>
        <time>2015-11-29T10:24:48Z</time>
      </trkpt>
      <trkpt lat="43.94696" lon="2.57915">
        <ele>551</ele>
        <time>2015-11-29T10:24:54Z</time>
      </trkpt>
      <trkpt lat="43.94698" lon="2.57921">
        <ele>552</ele>
        <time>2015-11-29T10:24:59Z</time>
      </trkpt>
      <trkpt lat="43.947" lon="2.57927">
        <ele>552</ele>
        <time>2015-11-29T10:25:04Z</time>
      </trkpt>
      <trkpt lat="43.94701" lon="2.57934">
        <ele>552</ele>
        <time>2015-11-29T10:25:10Z</time>
      </trkpt>
      <trkpt lat="43.94703" lon="2.57942">
        <ele>552</ele>
        <time>2015-11-29T10:25:17Z</time>
      </trkpt>
      <trkpt lat="43.94705" lon="2.5795">
        <ele>552</ele>
        <time>2015-11-29T10:25:24Z</time>
      </trkpt>
      <trkpt lat="43.94705" lon="2.57957">
        <ele>552</ele>
        <time>2015-11-29T10:25:29Z</time>
      </trkpt>
      <trkpt lat="43.94705" lon="2.57964">
        <ele>552</ele>
        <time>2015-11-29T10:25:35Z</time>
      </trkpt>
      <trkpt lat="43.94702" lon="2.57972">
        <ele>552</ele>
        <time>2015-11-29T10:25:40Z</time>
      </trkpt>
      <trkpt lat="43.94701" lon="2.57979">
        <ele>551</ele>
        <time>2015-11-29T10:25:44Z</time>
      </trkpt>
      <trkpt lat="43.947" lon="2.57987">
        <ele>551</ele>
        <time>2015-11-29T10:25:49Z</time>
      </trkpt>
      <trkpt lat="43.947" lon="2.57994">
        <ele>551</ele>
        <time>2015-11-29T10:25:53Z</time>
      </trkpt>
      <trkpt lat="43.94698" lon="2.58001">
        <ele>550</ele>
        <time>2015-11-29T10:25:58Z</time>
      </trkpt>
      <trkpt lat="43.94697" lon="2.58008">
        <ele>550</ele>
        <time>2015-11-29T10:26:03Z</time>
      </trkpt>
      <trkpt lat="43.94695" lon="2.58015">
        <ele>550</ele>
        <time>2015-11-29T10:26:10Z</time>
      </trkpt>
      <trkpt lat="43.94693" lon="2.58021">
        <ele>549</ele>
        <time>2015-11-29T10:26:15Z</time>
      </trkpt>
      <trkpt lat="43.94693" lon="2.58027">
        <ele>549</ele>
        <time>2015-11-29T10:26:20Z</time>
      </trkpt>
      <trkpt lat="43.94693" lon="2.58034">
        <ele>549</ele>
        <time>2015-11-29T10:26:26Z</time>
      </trkpt>
      <trkpt lat="43.94693" lon="2.58041">
        <ele>548</ele>
        <time>2015-11-29T10:26:31Z</time>
      </trkpt>
      <trkpt lat="43.94692" lon="2.58049">
        <ele>548</ele>
        <time>2015-11-29T10:26:37Z</time>
      </trkpt>
      <trkpt lat="43.94692" lon="2.58056">
        <ele>548</ele>
        <time>2015-11-29T10:26:41Z</time>
      </trkpt>
      <trkpt lat="43.94689" lon="2.58064">
        <ele>548</ele>
        <time>2015-11-29T10:26:46Z</time>
      </trkpt>
      <trkpt lat="43.94687" lon="2.58069">
        <ele>547</ele>
        <time>2015-11-29T10:26:49Z</time>
      </trkpt>
      <trkpt lat="43.94685" lon="2.5808">
        <ele>547</ele>
        <time>2015-11-29T10:26:54Z</time>
      </trkpt>
      <trkpt lat="43.94682" lon="2.58084">
        <ele>546</ele>
        <time>2015-11-29T10:26:56Z</time>
      </trkpt>
      <trkpt lat="43.9468" lon="2.5809">
        <ele>546</ele>
        <time>2015-11-29T10:26:59Z</time>
      </trkpt>
      <trkpt lat="43.94679" lon="2.58097">
        <ele>545</ele>
        <time>2015-11-29T10:27:03Z</time>
      </trkpt>
      <trkpt lat="43.94679" lon="2.58105">
        <ele>545</ele>
        <time>2015-11-29T10:27:06Z</time>
      </trkpt>
      <trkpt lat="43.94677" lon="2.58112">
        <ele>545</ele>
        <time>2015-11-29T10:27:10Z</time>
      </trkpt>
      <trkpt lat="43.94676" lon="2.58119">
        <ele>544</ele>
        <time>2015-11-29T10:27:14Z</time>
      </trkpt>
      <trkpt lat="43.94675" lon="2.58128">
        <ele>544</ele>
        <time>2015-11-29T10:27:19Z</time>
      </trkpt>
      <trkpt lat="43.94673" lon="2.58144">
        <ele>542</ele>
        <time>2015-11-29T10:27:28Z</time>
      </trkpt>
      <trkpt lat="43.94671" lon="2.58154">
        <ele>542</ele>
        <time>2015-11-29T10:27:34Z</time>
      </trkpt>
      <trkpt lat="43.9467" lon="2.5816">
        <ele>541</ele>
        <time>2015-11-29T10:27:37Z</time>
      </trkpt>
      <trkpt lat="43.94669" lon="2.58169">
        <ele>540</ele>
        <time>2015-11-29T10:27:41Z</time>
      </trkpt>
      <trkpt lat="43.94667" lon="2.58177">
        <ele>539</ele>
        <time>2015-11-29T10:27:45Z</time>
      </trkpt>
      <trkpt lat="43.94666" lon="2.58185">
        <ele>538</ele>
        <time>2015-11-29T10:27:49Z</time>
      </trkpt>
      <trkpt lat="43.94665" lon="2.58193">
        <ele>537</ele>
        <time>2015-11-29T10:27:53Z</time>
      </trkpt>
      <trkpt lat="43.94664" lon="2.582">
        <ele>537</ele>
        <time>2015-11-29T10:27:57Z</time>
      </trkpt>
      <trkpt lat="43.94663" lon="2.58207">
        <ele>536</ele>
        <time>2015-11-29T10:28:04Z</time>
      </trkpt>
      <trkpt lat="43.94662" lon="2.58215">
        <ele>535</ele>
        <time>2015-11-29T10:28:08Z</time>
      </trkpt>
      <trkpt lat="43.94661" lon="2.58223">
        <ele>534</ele>
        <time>2015-11-29T10:28:13Z</time>
      </trkpt>
      <trkpt lat="43.94661" lon="2.58233">
        <ele>533</ele>
        <time>2015-11-29T10:28:19Z</time>
      </trkpt>
      <trkpt lat="43.94659" lon="2.5824">
        <ele>532</ele>
        <time>2015-11-29T10:28:23Z</time>
      </trkpt>
      <trkpt lat="43.94659" lon="2.58249">
        <ele>532</ele>
        <time>2015-11-29T10:28:29Z</time>
      </trkpt>
      <trkpt lat="43.94658" lon="2.58256">
        <ele>531</ele>
        <time>2015-11-29T10:28:34Z</time>
      </trkpt>
      <trkpt lat="43.94658" lon="2.58265">
        <ele>530</ele>
        <time>2015-11-29T10:28:40Z</time>
      </trkpt>
      <trkpt lat="43.94658" lon="2.58273">
        <ele>529</ele>
        <time>2015-11-29T10:28:45Z</time>
      </trkpt>
      <trkpt lat="43.94658" lon="2.5828">
        <ele>528</ele>
        <time>2015-11-29T10:28:49Z</time>
      </trkpt>
      <trkpt lat="43.94657" lon="2.58287">
        <ele>528</ele>
        <time>2015-11-29T10:28:53Z</time>
      </trkpt>
      <trkpt lat="43.94657" lon="2.58294">
        <ele>527</ele>
        <time>2015-11-29T10:28:57Z</time>
      </trkpt>
      <trkpt lat="43.94656" lon="2.58304">
        <ele>526</ele>
        <time>2015-11-29T10:29:03Z</time>
      </trkpt>
      <trkpt lat="43.94657" lon="2.58311">
        <ele>526</ele>
        <time>2015-11-29T10:29:08Z</time>
      </trkpt>
      <trkpt lat="43.94657" lon="2.58319">
        <ele>525</ele>
        <time>2015-11-29T10:29:12Z</time>
      </trkpt>
      <trkpt lat="43.94658" lon="2.58326">
        <ele>524</ele>
        <time>2015-11-29T10:29:16Z</time>
      </trkpt>
      <trkpt lat="43.94658" lon="2.58332">
        <ele>524</ele>
        <time>2015-11-29T10:29:20Z</time>
      </trkpt>
      <trkpt lat="43.94659" lon="2.58341">
        <ele>523</ele>
        <time>2015-11-29T10:29:25Z</time>
      </trkpt>
      <trkpt lat="43.94659" lon="2.58348">
        <ele>522</ele>
        <time>2015-11-29T10:29:29Z</time>
      </trkpt>
      <trkpt lat="43.94659" lon="2.58357">
        <ele>522</ele>
        <time>2015-11-29T10:29:34Z</time>
      </trkpt>
      <trkpt lat="43.9466" lon="2.58364">
        <ele>521</ele>
        <time>2015-11-29T10:29:38Z</time>
      </trkpt>
      <trkpt lat="43.94664" lon="2.58371">
        <ele>520</ele>
        <time>2015-11-29T10:29:43Z</time>
      </trkpt>
      <trkpt lat="43.94665" lon="2.58378">
        <ele>519</ele>
        <time>2015-11-29T10:29:47Z</time>
      </trkpt>
      <trkpt lat="43.94668" lon="2.58384">
        <ele>519</ele>
        <time>2015-11-29T10:29:51Z</time>
      </trkpt>
      <trkpt lat="43.94671" lon="2.58391">
        <ele>518</ele>
        <time>2015-11-29T10:29:55Z</time>
      </trkpt>
      <trkpt lat="43.94671" lon="2.58397">
        <ele>517</ele>
        <time>2015-11-29T10:30:01Z</time>
      </trkpt>
      <trkpt lat="43.94672" lon="2.58404">
        <ele>517</ele>
        <time>2015-11-29T10:30:06Z</time>
      </trkpt>
      <trkpt lat="43.94674" lon="2.58413">
        <ele>516</ele>
        <time>2015-11-29T10:30:11Z</time>
      </trkpt>
      <trkpt lat="43.94674" lon="2.5842">
        <ele>515</ele>
        <time>2015-11-29T10:30:16Z</time>
      </trkpt>
      <trkpt lat="43.94675" lon="2.58427">
        <ele>514</ele>
        <time>2015-11-29T10:30:22Z</time>
      </trkpt>
      <trkpt lat="43.9468" lon="2.58428">
        <ele>514</ele>
        <time>2015-11-29T10:30:43Z</time>
      </trkpt>
      <trkpt lat="43.9468" lon="2.58435">
        <ele>513</ele>
        <time>2015-11-29T10:30:57Z</time>
      </trkpt>
      <trkpt lat="43.94679" lon="2.58438">
        <ele>512</ele>
        <time>2015-11-29T10:31:25Z</time>
      </trkpt>
      <trkpt lat="43.94679" lon="2.58438">
        <ele>512</ele>
        <time>2015-11-29T10:31:52Z</time>
      </trkpt>
      <trkpt lat="43.94679" lon="2.58438">
        <ele>512</ele>
        <time>2015-11-29T10:32:20Z</time>
      </trkpt>
      <trkpt lat="43.94679" lon="2.58438">
        <ele>511</ele>
        <time>2015-11-29T10:32:47Z</time>
      </trkpt>
      <trkpt lat="43.94679" lon="2.58438">
        <ele>512</ele>
        <time>2015-11-29T10:33:17Z</time>
      </trkpt>
      <trkpt lat="43.94679" lon="2.58438">
        <ele>512</ele>
        <time>2015-11-29T10:33:44Z</time>
      </trkpt>
      <trkpt lat="43.94679" lon="2.58438">
        <ele>512</ele>
        <time>2015-11-29T10:34:12Z</time>
      </trkpt>
      <trkpt lat="43.94679" lon="2.58438">
        <ele>512</ele>
        <time>2015-11-29T10:34:44Z</time>
      </trkpt>
      <trkpt lat="43.94679" lon="2.58438">
        <ele>512</ele>
        <time>2015-11-29T10:35:12Z</time>
      </trkpt>
      <trkpt lat="43.94679" lon="2.58438">
        <ele>512</ele>
        <time>2015-11-29T10:35:40Z</time>
      </trkpt>
      <trkpt lat="43.94676" lon="2.58443">
        <ele>511</ele>
        <time>2015-11-29T10:35:44Z</time>
      </trkpt>
      <trkpt lat="43.94675" lon="2.58443">
        <ele>510</ele>
        <time>2015-11-29T10:36:07Z</time>
      </trkpt>
      <trkpt lat="43.94674" lon="2.58449">
        <ele>510</ele>
        <time>2015-11-29T10:36:24Z</time>
      </trkpt>
      <trkpt lat="43.94675" lon="2.58456">
        <ele>509</ele>
        <time>2015-11-29T10:36:30Z</time>
      </trkpt>
      <trkpt lat="43.94675" lon="2.58465">
        <ele>508</ele>
        <time>2015-11-29T10:36:38Z</time>
      </trkpt>
      <trkpt lat="43.94676" lon="2.58472">
        <ele>508</ele>
        <time>2015-11-29T10:36:43Z</time>
      </trkpt>
      <trkpt lat="43.94678" lon="2.58478">
        <ele>508</ele>
        <time>2015-11-29T10:36:47Z</time>
      </trkpt>
      <trkpt lat="43.9468" lon="2.58487">
        <ele>508</ele>
        <time>2015-11-29T10:36:54Z</time>
      </trkpt>
      <trkpt lat="43.9468" lon="2.58494">
        <ele>508</ele>
        <time>2015-11-29T10:36:58Z</time>
      </trkpt>
      <trkpt lat="43.94681" lon="2.58501">
        <ele>508</ele>
        <time>2015-11-29T10:37:04Z</time>
      </trkpt>
      <trkpt lat="43.94681" lon="2.58508">
        <ele>508</ele>
        <time>2015-11-29T10:37:09Z</time>
      </trkpt>
      <trkpt lat="43.94681" lon="2.58517">
        <ele>509</ele>
        <time>2015-11-29T10:37:15Z</time>
      </trkpt>
      <trkpt lat="43.9468" lon="2.58524">
        <ele>509</ele>
        <time>2015-11-29T10:37:20Z</time>
      </trkpt>
      <trkpt lat="43.94679" lon="2.58531">
        <ele>509</ele>
        <time>2015-11-29T10:37:25Z</time>
      </trkpt>
      <trkpt lat="43.94677" lon="2.58539">
        <ele>509</ele>
        <time>2015-11-29T10:37:31Z</time>
      </trkpt>
      <trkpt lat="43.94676" lon="2.58547">
        <ele>509</ele>
        <time>2015-11-29T10:37:36Z</time>
      </trkpt>
      <trkpt lat="43.94674" lon="2.58553">
        <ele>509</ele>
        <time>2015-11-29T10:37:40Z</time>
      </trkpt>
      <trkpt lat="43.94673" lon="2.58562">
        <ele>510</ele>
        <time>2015-11-29T10:37:46Z</time>
      </trkpt>
      <trkpt lat="43.9467" lon="2.58568">
        <ele>510</ele>
        <time>2015-11-29T10:37:51Z</time>
      </trkpt>
      <trkpt lat="43.94668" lon="2.58576">
        <ele>510</ele>
        <time>2015-11-29T10:37:56Z</time>
      </trkpt>
      <trkpt lat="43.94666" lon="2.58582">
        <ele>510</ele>
        <time>2015-11-29T10:38:01Z</time>
      </trkpt>
      <trkpt lat="43.94664" lon="2.58589">
        <ele>510</ele>
        <time>2015-11-29T10:38:05Z</time>
      </trkpt>
      <trkpt lat="43.94663" lon="2.58596">
        <ele>510</ele>
        <time>2015-11-29T10:38:09Z</time>
      </trkpt>
      <trkpt lat="43.94662" lon="2.58602">
        <ele>510</ele>
        <time>2015-11-29T10:38:13Z</time>
      </trkpt>
      <trkpt lat="43.9466" lon="2.5861">
        <ele>511</ele>
        <time>2015-11-29T10:38:18Z</time>
      </trkpt>
      <trkpt lat="43.9466" lon="2.58619">
        <ele>511</ele>
        <time>2015-11-29T10:38:25Z</time>
      </trkpt>
      <trkpt lat="43.94659" lon="2.58625">
        <ele>511</ele>
        <time>2015-11-29T10:38:29Z</time>
      </trkpt>
      <trkpt lat="43.94657" lon="2.58631">
        <ele>511</ele>
        <time>2015-11-29T10:38:35Z</time>
      </trkpt>
      <trkpt lat="43.94656" lon="2.5864">
        <ele>511</ele>
        <time>2015-11-29T10:38:41Z</time>
      </trkpt>
      <trkpt lat="43.94655" lon="2.58646">
        <ele>511</ele>
        <time>2015-11-29T10:38:45Z</time>
      </trkpt>
      <trkpt lat="43.94654" lon="2.58654">
        <ele>511</ele>
        <time>2015-11-29T10:38:50Z</time>
      </trkpt>
      <trkpt lat="43.94653" lon="2.58664">
        <ele>511</ele>
        <time>2015-11-29T10:38:56Z</time>
      </trkpt>
      <trkpt lat="43.94655" lon="2.5867">
        <ele>511</ele>
        <time>2015-11-29T10:39:01Z</time>
      </trkpt>
      <trkpt lat="43.94653" lon="2.58679">
        <ele>511</ele>
        <time>2015-11-29T10:39:07Z</time>
      </trkpt>
      <trkpt lat="43.94652" lon="2.58688">
        <ele>511</ele>
        <time>2015-11-29T10:39:12Z</time>
      </trkpt>
      <trkpt lat="43.94653" lon="2.58695">
        <ele>511</ele>
        <time>2015-11-29T10:39:16Z</time>
      </trkpt>
      <trkpt lat="43.94656" lon="2.58702">
        <ele>511</ele>
        <time>2015-11-29T10:39:22Z</time>
      </trkpt>
      <trkpt lat="43.94656" lon="2.58708">
        <ele>511</ele>
        <time>2015-11-29T10:39:26Z</time>
      </trkpt>
      <trkpt lat="43.94656" lon="2.58715">
        <ele>512</ele>
        <time>2015-11-29T10:39:30Z</time>
      </trkpt>
      <trkpt lat="43.94654" lon="2.58722">
        <ele>512</ele>
        <time>2015-11-29T10:39:35Z</time>
      </trkpt>
      <trkpt lat="43.94656" lon="2.58729">
        <ele>512</ele>
        <time>2015-11-29T10:39:40Z</time>
      </trkpt>
      <trkpt lat="43.94656" lon="2.58738">
        <ele>512</ele>
        <time>2015-11-29T10:39:44Z</time>
      </trkpt>
      <trkpt lat="43.94658" lon="2.58746">
        <ele>512</ele>
        <time>2015-11-29T10:39:49Z</time>
      </trkpt>
      <trkpt lat="43.94659" lon="2.58752">
        <ele>513</ele>
        <time>2015-11-29T10:39:53Z</time>
      </trkpt>
      <trkpt lat="43.94659" lon="2.58759">
        <ele>513</ele>
        <time>2015-11-29T10:39:57Z</time>
      </trkpt>
      <trkpt lat="43.94659" lon="2.58766">
        <ele>513</ele>
        <time>2015-11-29T10:40:01Z</time>
      </trkpt>
      <trkpt lat="43.94659" lon="2.58772">
        <ele>514</ele>
        <time>2015-11-29T10:40:05Z</time>
      </trkpt>
      <trkpt lat="43.9466" lon="2.5878">
        <ele>514</ele>
        <time>2015-11-29T10:40:11Z</time>
      </trkpt>
      <trkpt lat="43.9466" lon="2.58786">
        <ele>514</ele>
        <time>2015-11-29T10:40:17Z</time>
      </trkpt>
      <trkpt lat="43.94659" lon="2.58793">
        <ele>515</ele>
        <time>2015-11-29T10:40:21Z</time>
      </trkpt>
      <trkpt lat="43.94658" lon="2.58801">
        <ele>515</ele>
        <time>2015-11-29T10:40:25Z</time>
      </trkpt>
      <trkpt lat="43.94658" lon="2.5881">
        <ele>515</ele>
        <time>2015-11-29T10:40:30Z</time>
      </trkpt>
      <trkpt lat="43.94658" lon="2.58818">
        <ele>515</ele>
        <time>2015-11-29T10:40:35Z</time>
      </trkpt>
      <trkpt lat="43.94656" lon="2.58823">
        <ele>515</ele>
        <time>2015-11-29T10:40:39Z</time>
      </trkpt>
      <trkpt lat="43.94658" lon="2.5883">
        <ele>516</ele>
        <time>2015-11-29T10:40:44Z</time>
      </trkpt>
      <trkpt lat="43.94659" lon="2.58838">
        <ele>516</ele>
        <time>2015-11-29T10:40:49Z</time>
      </trkpt>
      <trkpt lat="43.94659" lon="2.58845">
        <ele>516</ele>
        <time>2015-11-29T10:40:53Z</time>
      </trkpt>
      <trkpt lat="43.94659" lon="2.58853">
        <ele>517</ele>
        <time>2015-11-29T10:40:57Z</time>
      </trkpt>
      <trkpt lat="43.94661" lon="2.5886">
        <ele>517</ele>
        <time>2015-11-29T10:41:02Z</time>
      </trkpt>
      <trkpt lat="43.94662" lon="2.58868">
        <ele>518</ele>
        <time>2015-11-29T10:41:06Z</time>
      </trkpt>
      <trkpt lat="43.94662" lon="2.58877">
        <ele>518</ele>
        <time>2015-11-29T10:41:11Z</time>
      </trkpt>
      <trkpt lat="43.94658" lon="2.58885">
        <ele>519</ele>
        <time>2015-11-29T10:41:14Z</time>
      </trkpt>
      <trkpt lat="43.94659" lon="2.58892">
        <ele>519</ele>
        <time>2015-11-29T10:41:41Z</time>
      </trkpt>
      <trkpt lat="43.9466" lon="2.58899">
        <ele>520</ele>
        <time>2015-11-29T10:41:47Z</time>
      </trkpt>
      <trkpt lat="43.94661" lon="2.58907">
        <ele>521</ele>
        <time>2015-11-29T10:41:54Z</time>
      </trkpt>
      <trkpt lat="43.94663" lon="2.58914">
        <ele>521</ele>
        <time>2015-11-29T10:41:59Z</time>
      </trkpt>
      <trkpt lat="43.94665" lon="2.58921">
        <ele>522</ele>
        <time>2015-11-29T10:42:06Z</time>
      </trkpt>
      <trkpt lat="43.94669" lon="2.58927">
        <ele>522</ele>
        <time>2015-11-29T10:42:18Z</time>
      </trkpt>
      <trkpt lat="43.94672" lon="2.58934">
        <ele>522</ele>
        <time>2015-11-29T10:42:24Z</time>
      </trkpt>
      <trkpt lat="43.94674" lon="2.5894">
        <ele>522</ele>
        <time>2015-11-29T10:42:30Z</time>
      </trkpt>
      <trkpt lat="43.94675" lon="2.58941">
        <ele>523</ele>
        <time>2015-11-29T10:43:06Z</time>
      </trkpt>
      <trkpt lat="43.94682" lon="2.58941">
        <ele>523</ele>
        <time>2015-11-29T10:43:31Z</time>
      </trkpt>
      <trkpt lat="43.94688" lon="2.58946">
        <ele>524</ele>
        <time>2015-11-29T10:43:39Z</time>
      </trkpt>
      <trkpt lat="43.9469" lon="2.58952">
        <ele>525</ele>
        <time>2015-11-29T10:43:45Z</time>
      </trkpt>
      <trkpt lat="43.94693" lon="2.58958">
        <ele>525</ele>
        <time>2015-11-29T10:43:51Z</time>
      </trkpt>
      <trkpt lat="43.94696" lon="2.58962">
        <ele>526</ele>
        <time>2015-11-29T10:43:58Z</time>
      </trkpt>
      <trkpt lat="43.947" lon="2.58966">
        <ele>526</ele>
        <time>2015-11-29T10:44:04Z</time>
      </trkpt>
      <trkpt lat="43.94704" lon="2.5897">
        <ele>526</ele>
        <time>2015-11-29T10:44:09Z</time>
      </trkpt>
      <trkpt lat="43.94708" lon="2.58975">
        <ele>526</ele>
        <time>2015-11-29T10:44:15Z</time>
      </trkpt>
      <trkpt lat="43.94713" lon="2.58978">
        <ele>527</ele>
        <time>2015-11-29T10:44:20Z</time>
      </trkpt>
      <trkpt lat="43.94716" lon="2.58983">
        <ele>527</ele>
        <time>2015-11-29T10:44:26Z</time>
      </trkpt>
      <trkpt lat="43.9472" lon="2.58988">
        <ele>527</ele>
        <time>2015-11-29T10:44:31Z</time>
      </trkpt>
      <trkpt lat="43.94724" lon="2.58994">
        <ele>528</ele>
        <time>2015-11-29T10:44:36Z</time>
      </trkpt>
      <trkpt lat="43.94727" lon="2.58999">
        <ele>528</ele>
        <time>2015-11-29T10:44:41Z</time>
      </trkpt>
      <trkpt lat="43.94729" lon="2.59006">
        <ele>529</ele>
        <time>2015-11-29T10:44:46Z</time>
      </trkpt>
      <trkpt lat="43.94733" lon="2.59013">
        <ele>529</ele>
        <time>2015-11-29T10:44:52Z</time>
      </trkpt>
      <trkpt lat="43.94735" lon="2.5902">
        <ele>530</ele>
        <time>2015-11-29T10:44:57Z</time>
      </trkpt>
      <trkpt lat="43.94738" lon="2.59026">
        <ele>530</ele>
        <time>2015-11-29T10:45:02Z</time>
      </trkpt>
      <trkpt lat="43.9474" lon="2.59031">
        <ele>531</ele>
        <time>2015-11-29T10:45:07Z</time>
      </trkpt>
      <trkpt lat="43.94742" lon="2.59038">
        <ele>532</ele>
        <time>2015-11-29T10:45:12Z</time>
      </trkpt>
      <trkpt lat="43.94742" lon="2.59046">
        <ele>532</ele>
        <time>2015-11-29T10:45:17Z</time>
      </trkpt>
      <trkpt lat="43.94744" lon="2.59052">
        <ele>533</ele>
        <time>2015-11-29T10:45:22Z</time>
      </trkpt>
      <trkpt lat="43.94748" lon="2.59057">
        <ele>533</ele>
        <time>2015-11-29T10:45:27Z</time>
      </trkpt>
      <trkpt lat="43.94753" lon="2.59064">
        <ele>534</ele>
        <time>2015-11-29T10:45:35Z</time>
      </trkpt>
      <trkpt lat="43.94754" lon="2.59071">
        <ele>535</ele>
        <time>2015-11-29T10:45:40Z</time>
      </trkpt>
      <trkpt lat="43.94755" lon="2.59078">
        <ele>535</ele>
        <time>2015-11-29T10:45:45Z</time>
      </trkpt>
      <trkpt lat="43.94757" lon="2.59086">
        <ele>536</ele>
        <time>2015-11-29T10:45:51Z</time>
      </trkpt>
      <trkpt lat="43.94758" lon="2.59093">
        <ele>537</ele>
        <time>2015-11-29T10:45:57Z</time>
      </trkpt>
      <trkpt lat="43.94759" lon="2.591">
        <ele>537</ele>
        <time>2015-11-29T10:46:13Z</time>
      </trkpt>
      <trkpt lat="43.94763" lon="2.59106">
        <ele>538</ele>
        <time>2015-11-29T10:46:19Z</time>
      </trkpt>
      <trkpt lat="43.94766" lon="2.59112">
        <ele>539</ele>
        <time>2015-11-29T10:46:26Z</time>
      </trkpt>
      <trkpt lat="43.94768" lon="2.5912">
        <ele>539</ele>
        <time>2015-11-29T10:46:34Z</time>
      </trkpt>
      <trkpt lat="43.94768" lon="2.59127">
        <ele>540</ele>
        <time>2015-11-29T10:46:40Z</time>
      </trkpt>
      <trkpt lat="43.94768" lon="2.59136">
        <ele>540</ele>
        <time>2015-11-29T10:46:47Z</time>
      </trkpt>
      <trkpt lat="43.94766" lon="2.5915">
        <ele>539</ele>
        <time>2015-11-29T10:46:56Z</time>
      </trkpt>
      <trkpt lat="43.94766" lon="2.59158">
        <ele>539</ele>
        <time>2015-11-29T10:47:01Z</time>
      </trkpt>
      <trkpt lat="43.94766" lon="2.59165">
        <ele>539</ele>
        <time>2015-11-29T10:47:05Z</time>
      </trkpt>
      <trkpt lat="43.94766" lon="2.59172">
        <ele>539</ele>
        <time>2015-11-29T10:47:09Z</time>
      </trkpt>
      <trkpt lat="43.94765" lon="2.59181">
        <ele>539</ele>
        <time>2015-11-29T10:47:15Z</time>
      </trkpt>
      <trkpt lat="43.94764" lon="2.59188">
        <ele>539</ele>
        <time>2015-11-29T10:47:21Z</time>
      </trkpt>
      <trkpt lat="43.94764" lon="2.59195">
        <ele>539</ele>
        <time>2015-11-29T10:47:26Z</time>
      </trkpt>
      <trkpt lat="43.94764" lon="2.59204">
        <ele>539</ele>
        <time>2015-11-29T10:47:32Z</time>
      </trkpt>
      <trkpt lat="43.94763" lon="2.59211">
        <ele>539</ele>
        <time>2015-11-29T10:47:38Z</time>
      </trkpt>
      <trkpt lat="43.94762" lon="2.59218">
        <ele>539</ele>
        <time>2015-11-29T10:47:42Z</time>
      </trkpt>
      <trkpt lat="43.94763" lon="2.59233">
        <ele>539</ele>
        <time>2015-11-29T10:48:01Z</time>
      </trkpt>
      <trkpt lat="43.94763" lon="2.59233">
        <ele>540</ele>
        <time>2015-11-29T10:48:22Z</time>
      </trkpt>
      <trkpt lat="43.94763" lon="2.59233">
        <ele>540</ele>
        <time>2015-11-29T10:48:48Z</time>
      </trkpt>
      <trkpt lat="43.94763" lon="2.59233">
        <ele>540</ele>
        <time>2015-11-29T10:49:12Z</time>
      </trkpt>
      <trkpt lat="43.94763" lon="2.59233">
        <ele>541</ele>
        <time>2015-11-29T10:49:39Z</time>
      </trkpt>
      <trkpt lat="43.94763" lon="2.59233">
        <ele>541</ele>
        <time>2015-11-29T10:50:04Z</time>
      </trkpt>
      <trkpt lat="43.94763" lon="2.59233">
        <ele>541</ele>
        <time>2015-11-29T10:50:32Z</time>
      </trkpt>
      <trkpt lat="43.94763" lon="2.59233">
        <ele>541</ele>
        <time>2015-11-29T10:51:04Z</time>
      </trkpt>
      <trkpt lat="43.94763" lon="2.59233">
        <ele>541</ele>
        <time>2015-11-29T10:51:29Z</time>
      </trkpt>
      <trkpt lat="43.94763" lon="2.59233">
        <ele>541</ele>
        <time>2015-11-29T10:51:58Z</time>
      </trkpt>
      <trkpt lat="43.94763" lon="2.59233">
        <ele>541</ele>
        <time>2015-11-29T10:52:26Z</time>
      </trkpt>
      <trkpt lat="43.94764" lon="2.59234">
        <ele>541</ele>
        <time>2015-11-29T10:52:56Z</time>
      </trkpt>
      <trkpt lat="43.94764" lon="2.59239">
        <ele>541</ele>
        <time>2015-11-29T10:53:02Z</time>
      </trkpt>
      <trkpt lat="43.94764" lon="2.59246">
        <ele>541</ele>
        <time>2015-11-29T10:53:13Z</time>
      </trkpt>
      <trkpt lat="43.94767" lon="2.59252">
        <ele>540</ele>
        <time>2015-11-29T10:53:23Z</time>
      </trkpt>
      <trkpt lat="43.94768" lon="2.59258">
        <ele>540</ele>
        <time>2015-11-29T10:53:28Z</time>
      </trkpt>
      <trkpt lat="43.94769" lon="2.59265">
        <ele>540</ele>
        <time>2015-11-29T10:53:33Z</time>
      </trkpt>
      <trkpt lat="43.94772" lon="2.59273">
        <ele>540</ele>
        <time>2015-11-29T10:53:44Z</time>
      </trkpt>
      <trkpt lat="43.94775" lon="2.59279">
        <ele>539</ele>
        <time>2015-11-29T10:53:52Z</time>
      </trkpt>
      <trkpt lat="43.94778" lon="2.59287">
        <ele>539</ele>
        <time>2015-11-29T10:54:01Z</time>
      </trkpt>
      <trkpt lat="43.94779" lon="2.59295">
        <ele>538</ele>
        <time>2015-11-29T10:54:07Z</time>
      </trkpt>
      <trkpt lat="43.94781" lon="2.59302">
        <ele>538</ele>
        <time>2015-11-29T10:54:16Z</time>
      </trkpt>
      <trkpt lat="43.94785" lon="2.59317">
        <ele>537</ele>
        <time>2015-11-29T10:54:33Z</time>
      </trkpt>
      <trkpt lat="43.94785" lon="2.59324">
        <ele>537</ele>
        <time>2015-11-29T10:54:38Z</time>
      </trkpt>
      <trkpt lat="43.94787" lon="2.5933">
        <ele>536</ele>
        <time>2015-11-29T10:54:47Z</time>
      </trkpt>
      <trkpt lat="43.9479" lon="2.59336">
        <ele>536</ele>
        <time>2015-11-29T10:54:51Z</time>
      </trkpt>
      <trkpt lat="43.94791" lon="2.59342">
        <ele>535</ele>
        <time>2015-11-29T10:54:58Z</time>
      </trkpt>
      <trkpt lat="43.94793" lon="2.59349">
        <ele>535</ele>
        <time>2015-11-29T10:55:05Z</time>
      </trkpt>
      <trkpt lat="43.94796" lon="2.59355">
        <ele>534</ele>
        <time>2015-11-29T10:55:15Z</time>
      </trkpt>
      <trkpt lat="43.94797" lon="2.59368">
        <ele>534</ele>
        <time>2015-11-29T10:55:26Z</time>
      </trkpt>
      <trkpt lat="43.94798" lon="2.5938">
        <ele>533</ele>
        <time>2015-11-29T10:55:34Z</time>
      </trkpt>
      <trkpt lat="43.94799" lon="2.59386">
        <ele>533</ele>
        <time>2015-11-29T10:55:39Z</time>
      </trkpt>
      <trkpt lat="43.94804" lon="2.594">
        <ele>532</ele>
        <time>2015-11-29T10:55:53Z</time>
      </trkpt>
      <trkpt lat="43.94807" lon="2.59407">
        <ele>531</ele>
        <time>2015-11-29T10:55:57Z</time>
      </trkpt>
      <trkpt lat="43.94809" lon="2.59413">
        <ele>530</ele>
        <time>2015-11-29T10:56:01Z</time>
      </trkpt>
      <trkpt lat="43.94814" lon="2.5942">
        <ele>530</ele>
        <time>2015-11-29T10:56:07Z</time>
      </trkpt>
      <trkpt lat="43.94817" lon="2.59426">
        <ele>529</ele>
        <time>2015-11-29T10:56:13Z</time>
      </trkpt>
      <trkpt lat="43.94817" lon="2.59433">
        <ele>528</ele>
        <time>2015-11-29T10:56:16Z</time>
      </trkpt>
      <trkpt lat="43.94819" lon="2.59444">
        <ele>528</ele>
        <time>2015-11-29T10:56:22Z</time>
      </trkpt>
      <trkpt lat="43.94822" lon="2.5945">
        <ele>528</ele>
        <time>2015-11-29T10:56:28Z</time>
      </trkpt>
      <trkpt lat="43.94825" lon="2.5946">
        <ele>527</ele>
        <time>2015-11-29T10:56:33Z</time>
      </trkpt>
      <trkpt lat="43.94827" lon="2.59468">
        <ele>527</ele>
        <time>2015-11-29T10:56:37Z</time>
      </trkpt>
      <trkpt lat="43.9483" lon="2.59474">
        <ele>527</ele>
        <time>2015-11-29T10:56:43Z</time>
      </trkpt>
      <trkpt lat="43.94831" lon="2.59483">
        <ele>527</ele>
        <time>2015-11-29T10:56:47Z</time>
      </trkpt>
      <trkpt lat="43.94833" lon="2.59489">
        <ele>527</ele>
        <time>2015-11-29T10:56:52Z</time>
      </trkpt>
      <trkpt lat="43.94834" lon="2.59501">
        <ele>527</ele>
        <time>2015-11-29T10:56:59Z</time>
      </trkpt>
      <trkpt lat="43.94831" lon="2.59509">
        <ele>527</ele>
        <time>2015-11-29T10:57:01Z</time>
      </trkpt>
      <trkpt lat="43.94835" lon="2.59514">
        <ele>527</ele>
        <time>2015-11-29T10:57:06Z</time>
      </trkpt>
      <trkpt lat="43.94838" lon="2.59519">
        <ele>527</ele>
        <time>2015-11-29T10:57:12Z</time>
      </trkpt>
      <trkpt lat="43.94838" lon="2.59529">
        <ele>527</ele>
        <time>2015-11-29T10:57:19Z</time>
      </trkpt>
      <trkpt lat="43.94842" lon="2.59537">
        <ele>527</ele>
        <time>2015-11-29T10:57:26Z</time>
      </trkpt>
      <trkpt lat="43.94846" lon="2.5954">
        <ele>526</ele>
        <time>2015-11-29T10:57:31Z</time>
      </trkpt>
      <trkpt lat="43.94852" lon="2.59542">
        <ele>526</ele>
        <time>2015-11-29T10:57:37Z</time>
      </trkpt>
      <trkpt lat="43.94856" lon="2.59545">
        <ele>525</ele>
        <time>2015-11-29T10:57:41Z</time>
      </trkpt>
      <trkpt lat="43.94862" lon="2.59547">
        <ele>525</ele>
        <time>2015-11-29T10:57:48Z</time>
      </trkpt>
      <trkpt lat="43.94865" lon="2.59552">
        <ele>524</ele>
        <time>2015-11-29T10:57:52Z</time>
      </trkpt>
      <trkpt lat="43.9487" lon="2.59553">
        <ele>523</ele>
        <time>2015-11-29T10:57:57Z</time>
      </trkpt>
      <trkpt lat="43.94874" lon="2.59556">
        <ele>522</ele>
        <time>2015-11-29T10:58:05Z</time>
      </trkpt>
      <trkpt lat="43.94881" lon="2.59555">
        <ele>521</ele>
        <time>2015-11-29T10:58:18Z</time>
      </trkpt>
      <trkpt lat="43.94881" lon="2.59555">
        <ele>520</ele>
        <time>2015-11-29T10:58:34Z</time>
      </trkpt>
      <trkpt lat="43.94881" lon="2.59555">
        <ele>519</ele>
        <time>2015-11-29T10:59:03Z</time>
      </trkpt>
      <trkpt lat="43.94881" lon="2.59555">
        <ele>519</ele>
        <time>2015-11-29T10:59:29Z</time>
      </trkpt>
      <trkpt lat="43.94883" lon="2.59554">
        <ele>517</ele>
        <time>2015-11-29T10:59:59Z</time>
      </trkpt>
      <trkpt lat="43.94884" lon="2.59549">
        <ele>516</ele>
        <time>2015-11-29T11:00:08Z</time>
      </trkpt>
      <trkpt lat="43.94889" lon="2.59547">
        <ele>515</ele>
        <time>2015-11-29T11:00:16Z</time>
      </trkpt>
      <trkpt lat="43.94893" lon="2.59542">
        <ele>513</ele>
        <time>2015-11-29T11:00:27Z</time>
      </trkpt>
      <trkpt lat="43.94897" lon="2.59539">
        <ele>512</ele>
        <time>2015-11-29T11:00:33Z</time>
      </trkpt>
      <trkpt lat="43.94902" lon="2.59535">
        <ele>511</ele>
        <time>2015-11-29T11:00:40Z</time>
      </trkpt>
      <trkpt lat="43.94907" lon="2.59532">
        <ele>510</ele>
        <time>2015-11-29T11:00:48Z</time>
      </trkpt>
      <trkpt lat="43.94911" lon="2.59528">
        <ele>509</ele>
        <time>2015-11-29T11:00:54Z</time>
      </trkpt>
      <trkpt lat="43.94913" lon="2.59522">
        <ele>508</ele>
        <time>2015-11-29T11:01:05Z</time>
      </trkpt>
      <trkpt lat="43.94917" lon="2.59517">
        <ele>506</ele>
        <time>2015-11-29T11:01:14Z</time>
      </trkpt>
      <trkpt lat="43.94921" lon="2.59513">
        <ele>505</ele>
        <time>2015-11-29T11:01:22Z</time>
      </trkpt>
      <trkpt lat="43.94925" lon="2.59508">
        <ele>504</ele>
        <time>2015-11-29T11:01:32Z</time>
      </trkpt>
      <trkpt lat="43.94929" lon="2.59504">
        <ele>503</ele>
        <time>2015-11-29T11:01:39Z</time>
      </trkpt>
      <trkpt lat="43.94933" lon="2.59499">
        <ele>501</ele>
        <time>2015-11-29T11:01:47Z</time>
      </trkpt>
      <trkpt lat="43.94938" lon="2.59499">
        <ele>500</ele>
        <time>2015-11-29T11:01:55Z</time>
      </trkpt>
      <trkpt lat="43.9494" lon="2.59506">
        <ele>499</ele>
        <time>2015-11-29T11:02:04Z</time>
      </trkpt>
      <trkpt lat="43.94943" lon="2.59515">
        <ele>497</ele>
        <time>2015-11-29T11:02:12Z</time>
      </trkpt>
      <trkpt lat="43.94943" lon="2.59522">
        <ele>496</ele>
        <time>2015-11-29T11:02:18Z</time>
      </trkpt>
      <trkpt lat="43.94943" lon="2.59528">
        <ele>495</ele>
        <time>2015-11-29T11:02:24Z</time>
      </trkpt>
      <trkpt lat="43.94943" lon="2.59536">
        <ele>495</ele>
        <time>2015-11-29T11:02:31Z</time>
      </trkpt>
      <trkpt lat="43.94944" lon="2.59542">
        <ele>494</ele>
        <time>2015-11-29T11:02:37Z</time>
      </trkpt>
      <trkpt lat="43.94944" lon="2.5955">
        <ele>493</ele>
        <time>2015-11-29T11:02:43Z</time>
      </trkpt>
      <trkpt lat="43.94945" lon="2.59557">
        <ele>492</ele>
        <time>2015-11-29T11:02:48Z</time>
      </trkpt>
      <trkpt lat="43.94947" lon="2.59565">
        <ele>491</ele>
        <time>2015-11-29T11:02:54Z</time>
      </trkpt>
      <trkpt lat="43.94949" lon="2.59572">
        <ele>491</ele>
        <time>2015-11-29T11:03:00Z</time>
      </trkpt>
      <trkpt lat="43.9495" lon="2.59579">
        <ele>490</ele>
        <time>2015-11-29T11:03:04Z</time>
      </trkpt>
      <trkpt lat="43.94951" lon="2.59587">
        <ele>489</ele>
        <time>2015-11-29T11:03:10Z</time>
      </trkpt>
      <trkpt lat="43.94952" lon="2.59594">
        <ele>489</ele>
        <time>2015-11-29T11:03:15Z</time>
      </trkpt>
      <trkpt lat="43.94951" lon="2.596">
        <ele>488</ele>
        <time>2015-11-29T11:03:19Z</time>
      </trkpt>
      <trkpt lat="43.94951" lon="2.59609">
        <ele>488</ele>
        <time>2015-11-29T11:03:24Z</time>
      </trkpt>
      <trkpt lat="43.94953" lon="2.59615">
        <ele>487</ele>
        <time>2015-11-29T11:03:29Z</time>
      </trkpt>
      <trkpt lat="43.94955" lon="2.59625">
        <ele>487</ele>
        <time>2015-11-29T11:03:35Z</time>
      </trkpt>
      <trkpt lat="43.94957" lon="2.59636">
        <ele>486</ele>
        <time>2015-11-29T11:03:41Z</time>
      </trkpt>
      <trkpt lat="43.94957" lon="2.59642">
        <ele>486</ele>
        <time>2015-11-29T11:03:44Z</time>
      </trkpt>
      <trkpt lat="43.94959" lon="2.5965">
        <ele>485</ele>
        <time>2015-11-29T11:03:48Z</time>
      </trkpt>
      <trkpt lat="43.94959" lon="2.59657">
        <ele>485</ele>
        <time>2015-11-29T11:03:52Z</time>
      </trkpt>
      <trkpt lat="43.94959" lon="2.59664">
        <ele>484</ele>
        <time>2015-11-29T11:03:56Z</time>
      </trkpt>
      <trkpt lat="43.94959" lon="2.59672">
        <ele>484</ele>
        <time>2015-11-29T11:04:00Z</time>
      </trkpt>
      <trkpt lat="43.94959" lon="2.59679">
        <ele>484</ele>
        <time>2015-11-29T11:04:04Z</time>
      </trkpt>
      <trkpt lat="43.94958" lon="2.59686">
        <ele>484</ele>
        <time>2015-11-29T11:04:06Z</time>
      </trkpt>
      <trkpt lat="43.94958" lon="2.59694">
        <ele>484</ele>
        <time>2015-11-29T11:04:10Z</time>
      </trkpt>
      <trkpt lat="43.94957" lon="2.59701">
        <ele>484</ele>
        <time>2015-11-29T11:04:14Z</time>
      </trkpt>
      <trkpt lat="43.9496" lon="2.59707">
        <ele>484</ele>
        <time>2015-11-29T11:04:20Z</time>
      </trkpt>
      <trkpt lat="43.94964" lon="2.59714">
        <ele>483</ele>
        <time>2015-11-29T11:04:26Z</time>
      </trkpt>
      <trkpt lat="43.94968" lon="2.59719">
        <ele>483</ele>
        <time>2015-11-29T11:04:32Z</time>
      </trkpt>
      <trkpt lat="43.94972" lon="2.59724">
        <ele>482</ele>
        <time>2015-11-29T11:04:38Z</time>
      </trkpt>
      <trkpt lat="43.94976" lon="2.59729">
        <ele>482</ele>
        <time>2015-11-29T11:04:43Z</time>
      </trkpt>
      <trkpt lat="43.94975" lon="2.59737">
        <ele>481</ele>
        <time>2015-11-29T11:04:47Z</time>
      </trkpt>
      <trkpt lat="43.94989" lon="2.59736">
        <ele>481</ele>
        <time>2015-11-29T11:04:52Z</time>
      </trkpt>
      <trkpt lat="43.94995" lon="2.59739">
        <ele>481</ele>
        <time>2015-11-29T11:04:56Z</time>
      </trkpt>
      <trkpt lat="43.95" lon="2.59744">
        <ele>481</ele>
        <time>2015-11-29T11:05:01Z</time>
      </trkpt>
      <trkpt lat="43.95004" lon="2.59749">
        <ele>482</ele>
        <time>2015-11-29T11:05:06Z</time>
      </trkpt>
      <trkpt lat="43.95006" lon="2.59755">
        <ele>483</ele>
        <time>2015-11-29T11:05:13Z</time>
      </trkpt>
      <trkpt lat="43.95007" lon="2.59767">
        <ele>483</ele>
        <time>2015-11-29T11:05:18Z</time>
      </trkpt>
      <trkpt lat="43.95007" lon="2.59773">
        <ele>484</ele>
        <time>2015-11-29T11:05:21Z</time>
      </trkpt>
      <trkpt lat="43.95004" lon="2.5978">
        <ele>485</ele>
        <time>2015-11-29T11:05:25Z</time>
      </trkpt>
      <trkpt lat="43.95006" lon="2.59786">
        <ele>486</ele>
        <time>2015-11-29T11:05:45Z</time>
      </trkpt>
      <trkpt lat="43.95004" lon="2.59794">
        <ele>487</ele>
        <time>2015-11-29T11:05:54Z</time>
      </trkpt>
      <trkpt lat="43.95004" lon="2.598">
        <ele>488</ele>
        <time>2015-11-29T11:05:59Z</time>
      </trkpt>
      <trkpt lat="43.95005" lon="2.59808">
        <ele>490</ele>
        <time>2015-11-29T11:06:07Z</time>
      </trkpt>
      <trkpt lat="43.95002" lon="2.59824">
        <ele>491</ele>
        <time>2015-11-29T11:06:12Z</time>
      </trkpt>
      <trkpt lat="43.95002" lon="2.59832">
        <ele>491</ele>
        <time>2015-11-29T11:06:14Z</time>
      </trkpt>
      <trkpt lat="43.95007" lon="2.59835">
        <ele>491</ele>
        <time>2015-11-29T11:06:18Z</time>
      </trkpt>
      <trkpt lat="43.9501" lon="2.59831">
        <ele>491</ele>
        <time>2015-11-29T11:06:22Z</time>
      </trkpt>
      <trkpt lat="43.95012" lon="2.59822">
        <ele>491</ele>
        <time>2015-11-29T11:06:27Z</time>
      </trkpt>
      <trkpt lat="43.95013" lon="2.59815">
        <ele>491</ele>
        <time>2015-11-29T11:06:31Z</time>
      </trkpt>
      <trkpt lat="43.95013" lon="2.59807">
        <ele>491</ele>
        <time>2015-11-29T11:06:36Z</time>
      </trkpt>
      <trkpt lat="43.95014" lon="2.598">
        <ele>491</ele>
        <time>2015-11-29T11:06:42Z</time>
      </trkpt>
      <trkpt lat="43.95014" lon="2.59793">
        <ele>491</ele>
        <time>2015-11-29T11:06:47Z</time>
      </trkpt>
      <trkpt lat="43.95014" lon="2.59786">
        <ele>491</ele>
        <time>2015-11-29T11:06:52Z</time>
      </trkpt>
      <trkpt lat="43.95015" lon="2.59778">
        <ele>490</ele>
        <time>2015-11-29T11:06:56Z</time>
      </trkpt>
      <trkpt lat="43.95015" lon="2.59771">
        <ele>490</ele>
        <time>2015-11-29T11:07:00Z</time>
      </trkpt>
      <trkpt lat="43.95018" lon="2.59763">
        <ele>490</ele>
        <time>2015-11-29T11:07:06Z</time>
      </trkpt>
      <trkpt lat="43.95019" lon="2.59756">
        <ele>490</ele>
        <time>2015-11-29T11:07:11Z</time>
      </trkpt>
      <trkpt lat="43.95018" lon="2.59752">
        <ele>489</ele>
        <time>2015-11-29T11:07:39Z</time>
      </trkpt>
      <trkpt lat="43.95018" lon="2.59747">
        <ele>489</ele>
        <time>2015-11-29T11:07:40Z</time>
      </trkpt>
      <trkpt lat="43.95018" lon="2.59739">
        <ele>489</ele>
        <time>2015-11-29T11:07:46Z</time>
      </trkpt>
      <trkpt lat="43.95017" lon="2.59732">
        <ele>489</ele>
        <time>2015-11-29T11:07:50Z</time>
      </trkpt>
      <trkpt lat="43.95018" lon="2.59726">
        <ele>489</ele>
        <time>2015-11-29T11:07:54Z</time>
      </trkpt>
      <trkpt lat="43.95017" lon="2.59716">
        <ele>489</ele>
        <time>2015-11-29T11:07:59Z</time>
      </trkpt>
      <trkpt lat="43.95018" lon="2.59708">
        <ele>489</ele>
        <time>2015-11-29T11:08:04Z</time>
      </trkpt>
      <trkpt lat="43.95017" lon="2.59701">
        <ele>489</ele>
        <time>2015-11-29T11:08:08Z</time>
      </trkpt>
      <trkpt lat="43.95017" lon="2.59694">
        <ele>489</ele>
        <time>2015-11-29T11:08:14Z</time>
      </trkpt>
      <trkpt lat="43.95017" lon="2.59687">
        <ele>488</ele>
        <time>2015-11-29T11:08:18Z</time>
      </trkpt>
      <trkpt lat="43.95017" lon="2.59681">
        <ele>488</ele>
        <time>2015-11-29T11:08:23Z</time>
      </trkpt>
      <trkpt lat="43.95015" lon="2.59673">
        <ele>488</ele>
        <time>2015-11-29T11:08:30Z</time>
      </trkpt>
      <trkpt lat="43.95012" lon="2.59665">
        <ele>487</ele>
        <time>2015-11-29T11:08:35Z</time>
      </trkpt>
      <trkpt lat="43.95009" lon="2.59657">
        <ele>487</ele>
        <time>2015-11-29T11:08:40Z</time>
      </trkpt>
      <trkpt lat="43.95007" lon="2.5965">
        <ele>486</ele>
        <time>2015-11-29T11:08:44Z</time>
      </trkpt>
      <trkpt lat="43.95004" lon="2.59644">
        <ele>486</ele>
        <time>2015-11-29T11:08:49Z</time>
      </trkpt>
      <trkpt lat="43.95002" lon="2.59637">
        <ele>485</ele>
        <time>2015-11-29T11:08:56Z</time>
      </trkpt>
      <trkpt lat="43.94999" lon="2.59629">
        <ele>485</ele>
        <time>2015-11-29T11:09:01Z</time>
      </trkpt>
      <trkpt lat="43.94997" lon="2.59621">
        <ele>484</ele>
        <time>2015-11-29T11:09:07Z</time>
      </trkpt>
      <trkpt lat="43.94994" lon="2.59613">
        <ele>484</ele>
        <time>2015-11-29T11:09:14Z</time>
      </trkpt>
      <trkpt lat="43.94991" lon="2.59606">
        <ele>483</ele>
        <time>2015-11-29T11:09:20Z</time>
      </trkpt>
      <trkpt lat="43.9499" lon="2.59599">
        <ele>482</ele>
        <time>2015-11-29T11:09:25Z</time>
      </trkpt>
      <trkpt lat="43.94988" lon="2.59594">
        <ele>482</ele>
        <time>2015-11-29T11:09:31Z</time>
      </trkpt>
      <trkpt lat="43.94987" lon="2.59587">
        <ele>481</ele>
        <time>2015-11-29T11:09:39Z</time>
      </trkpt>
      <trkpt lat="43.94987" lon="2.59579">
        <ele>480</ele>
        <time>2015-11-29T11:09:45Z</time>
      </trkpt>
      <trkpt lat="43.94987" lon="2.5957">
        <ele>480</ele>
        <time>2015-11-29T11:09:52Z</time>
      </trkpt>
      <trkpt lat="43.94988" lon="2.59563">
        <ele>479</ele>
        <time>2015-11-29T11:10:00Z</time>
      </trkpt>
      <trkpt lat="43.94987" lon="2.59555">
        <ele>479</ele>
        <time>2015-11-29T11:10:06Z</time>
      </trkpt>
      <trkpt lat="43.9499" lon="2.59551">
        <ele>478</ele>
        <time>2015-11-29T11:10:13Z</time>
      </trkpt>
      <trkpt lat="43.94996" lon="2.59551">
        <ele>477</ele>
        <time>2015-11-29T11:10:18Z</time>
      </trkpt>
      <trkpt lat="43.95" lon="2.59547">
        <ele>477</ele>
        <time>2015-11-29T11:10:24Z</time>
      </trkpt>
      <trkpt lat="43.95002" lon="2.59542">
        <ele>476</ele>
        <time>2015-11-29T11:10:30Z</time>
      </trkpt>
      <trkpt lat="43.95004" lon="2.59535">
        <ele>476</ele>
        <time>2015-11-29T11:10:35Z</time>
      </trkpt>
      <trkpt lat="43.95005" lon="2.59529">
        <ele>476</ele>
        <time>2015-11-29T11:10:40Z</time>
      </trkpt>
      <trkpt lat="43.95004" lon="2.59521">
        <ele>476</ele>
        <time>2015-11-29T11:10:48Z</time>
      </trkpt>
      <trkpt lat="43.95004" lon="2.59514">
        <ele>475</ele>
        <time>2015-11-29T11:10:53Z</time>
      </trkpt>
      <trkpt lat="43.95003" lon="2.59504">
        <ele>475</ele>
        <time>2015-11-29T11:10:58Z</time>
      </trkpt>
      <trkpt lat="43.95004" lon="2.59496">
        <ele>474</ele>
        <time>2015-11-29T11:11:04Z</time>
      </trkpt>
      <trkpt lat="43.95001" lon="2.59489">
        <ele>474</ele>
        <time>2015-11-29T11:11:24Z</time>
      </trkpt>
      <trkpt lat="43.94997" lon="2.59493">
        <ele>473</ele>
        <time>2015-11-29T11:11:45Z</time>
      </trkpt>
      <trkpt lat="43.94988" lon="2.5949">
        <ele>473</ele>
        <time>2015-11-29T11:11:54Z</time>
      </trkpt>
      <trkpt lat="43.94989" lon="2.59486">
        <ele>472</ele>
        <time>2015-11-29T11:12:19Z</time>
      </trkpt>
      <trkpt lat="43.94991" lon="2.59486">
        <ele>472</ele>
        <time>2015-11-29T11:12:40Z</time>
      </trkpt>
      <trkpt lat="43.94993" lon="2.59487">
        <ele>471</ele>
        <time>2015-11-29T11:12:46Z</time>
      </trkpt>
      <trkpt lat="43.94994" lon="2.59485">
        <ele>471</ele>
        <time>2015-11-29T11:13:01Z</time>
      </trkpt>
      <trkpt lat="43.94988" lon="2.5949">
        <ele>471</ele>
        <time>2015-11-29T11:13:22Z</time>
      </trkpt>
      <trkpt lat="43.94992" lon="2.59486">
        <ele>470</ele>
        <time>2015-11-29T11:13:34Z</time>
      </trkpt>
      <trkpt lat="43.94996" lon="2.5948">
        <ele>470</ele>
        <time>2015-11-29T11:13:41Z</time>
      </trkpt>
      <trkpt lat="43.95005" lon="2.59473">
        <ele>470</ele>
        <time>2015-11-29T11:14:02Z</time>
      </trkpt>
      <trkpt lat="43.95007" lon="2.59467">
        <ele>470</ele>
        <time>2015-11-29T11:14:12Z</time>
      </trkpt>
      <trkpt lat="43.95007" lon="2.59459">
        <ele>469</ele>
        <time>2015-11-29T11:14:19Z</time>
      </trkpt>
      <trkpt lat="43.95007" lon="2.59452">
        <ele>469</ele>
        <time>2015-11-29T11:14:26Z</time>
      </trkpt>
      <trkpt lat="43.95005" lon="2.59446">
        <ele>468</ele>
        <time>2015-11-29T11:14:32Z</time>
      </trkpt>
      <trkpt lat="43.95004" lon="2.59439">
        <ele>468</ele>
        <time>2015-11-29T11:14:38Z</time>
      </trkpt>
      <trkpt lat="43.95004" lon="2.59433">
        <ele>467</ele>
        <time>2015-11-29T11:14:46Z</time>
      </trkpt>
      <trkpt lat="43.95006" lon="2.59427">
        <ele>467</ele>
        <time>2015-11-29T11:14:52Z</time>
      </trkpt>
      <trkpt lat="43.95006" lon="2.59419">
        <ele>466</ele>
        <time>2015-11-29T11:14:56Z</time>
      </trkpt>
      <trkpt lat="43.95006" lon="2.59412">
        <ele>466</ele>
        <time>2015-11-29T11:15:00Z</time>
      </trkpt>
      <trkpt lat="43.95007" lon="2.59404">
        <ele>465</ele>
        <time>2015-11-29T11:15:04Z</time>
      </trkpt>
      <trkpt lat="43.95009" lon="2.59398">
        <ele>465</ele>
        <time>2015-11-29T11:15:09Z</time>
      </trkpt>
      <trkpt lat="43.9501" lon="2.5939">
        <ele>464</ele>
        <time>2015-11-29T11:15:15Z</time>
      </trkpt>
      <trkpt lat="43.95012" lon="2.59384">
        <ele>463</ele>
        <time>2015-11-29T11:15:19Z</time>
      </trkpt>
      <trkpt lat="43.95014" lon="2.59378">
        <ele>462</ele>
        <time>2015-11-29T11:15:24Z</time>
      </trkpt>
      <trkpt lat="43.95018" lon="2.59373">
        <ele>461</ele>
        <time>2015-11-29T11:15:28Z</time>
      </trkpt>
      <trkpt lat="43.95021" lon="2.59367">
        <ele>460</ele>
        <time>2015-11-29T11:15:33Z</time>
      </trkpt>
      <trkpt lat="43.95025" lon="2.59362">
        <ele>459</ele>
        <time>2015-11-29T11:15:39Z</time>
      </trkpt>
      <trkpt lat="43.95027" lon="2.59355">
        <ele>457</ele>
        <time>2015-11-29T11:15:45Z</time>
      </trkpt>
      <trkpt lat="43.95033" lon="2.59353">
        <ele>456</ele>
        <time>2015-11-29T11:15:54Z</time>
      </trkpt>
      <trkpt lat="43.95038" lon="2.59349">
        <ele>455</ele>
        <time>2015-11-29T11:16:03Z</time>
      </trkpt>
      <trkpt lat="43.95043" lon="2.5935">
        <ele>454</ele>
        <time>2015-11-29T11:16:08Z</time>
      </trkpt>
      <trkpt lat="43.95047" lon="2.5935">
        <ele>453</ele>
        <time>2015-11-29T11:16:12Z</time>
      </trkpt>
      <trkpt lat="43.95052" lon="2.59347">
        <ele>452</ele>
        <time>2015-11-29T11:16:17Z</time>
      </trkpt>
      <trkpt lat="43.95057" lon="2.59346">
        <ele>451</ele>
        <time>2015-11-29T11:16:20Z</time>
      </trkpt>
      <trkpt lat="43.95064" lon="2.59349">
        <ele>450</ele>
        <time>2015-11-29T11:16:26Z</time>
      </trkpt>
      <trkpt lat="43.95068" lon="2.59347">
        <ele>449</ele>
        <time>2015-11-29T11:16:32Z</time>
      </trkpt>
      <trkpt lat="43.95073" lon="2.59347">
        <ele>448</ele>
        <time>2015-11-29T11:16:37Z</time>
      </trkpt>
      <trkpt lat="43.95078" lon="2.59346">
        <ele>446</ele>
        <time>2015-11-29T11:16:42Z</time>
      </trkpt>
      <trkpt lat="43.95084" lon="2.59345">
        <ele>445</ele>
        <time>2015-11-29T11:16:47Z</time>
      </trkpt>
      <trkpt lat="43.95089" lon="2.59345">
        <ele>444</ele>
        <time>2015-11-29T11:16:51Z</time>
      </trkpt>
      <trkpt lat="43.95094" lon="2.59345">
        <ele>443</ele>
        <time>2015-11-29T11:16:55Z</time>
      </trkpt>
      <trkpt lat="43.95101" lon="2.59347">
        <ele>442</ele>
        <time>2015-11-29T11:17:00Z</time>
      </trkpt>
      <trkpt lat="43.95105" lon="2.59346">
        <ele>441</ele>
        <time>2015-11-29T11:17:06Z</time>
      </trkpt>
      <trkpt lat="43.9511" lon="2.59345">
        <ele>440</ele>
        <time>2015-11-29T11:17:10Z</time>
      </trkpt>
      <trkpt lat="43.95115" lon="2.59343">
        <ele>439</ele>
        <time>2015-11-29T11:17:15Z</time>
      </trkpt>
      <trkpt lat="43.9512" lon="2.59339">
        <ele>439</ele>
        <time>2015-11-29T11:17:22Z</time>
      </trkpt>
      <trkpt lat="43.95124" lon="2.59336">
        <ele>438</ele>
        <time>2015-11-29T11:17:28Z</time>
      </trkpt>
      <trkpt lat="43.95128" lon="2.59331">
        <ele>437</ele>
        <time>2015-11-29T11:17:34Z</time>
      </trkpt>
      <trkpt lat="43.95133" lon="2.59328">
        <ele>436</ele>
        <time>2015-11-29T11:17:40Z</time>
      </trkpt>
      <trkpt lat="43.95138" lon="2.59324">
        <ele>436</ele>
        <time>2015-11-29T11:17:46Z</time>
      </trkpt>
      <trkpt lat="43.95142" lon="2.5932">
        <ele>435</ele>
        <time>2015-11-29T11:17:51Z</time>
      </trkpt>
      <trkpt lat="43.95145" lon="2.59316">
        <ele>434</ele>
        <time>2015-11-29T11:18:08Z</time>
      </trkpt>
      <trkpt lat="43.95153" lon="2.59311">
        <ele>434</ele>
        <time>2015-11-29T11:18:12Z</time>
      </trkpt>
      <trkpt lat="43.95158" lon="2.59311">
        <ele>434</ele>
        <time>2015-11-29T11:18:19Z</time>
      </trkpt>
      <trkpt lat="43.95165" lon="2.59307">
        <ele>433</ele>
        <time>2015-11-29T11:18:24Z</time>
      </trkpt>
      <trkpt lat="43.95169" lon="2.59303">
        <ele>433</ele>
        <time>2015-11-29T11:18:30Z</time>
      </trkpt>
      <trkpt lat="43.95176" lon="2.59296">
        <ele>433</ele>
        <time>2015-11-29T11:18:38Z</time>
      </trkpt>
      <trkpt lat="43.9518" lon="2.59293">
        <ele>432</ele>
        <time>2015-11-29T11:18:42Z</time>
      </trkpt>
      <trkpt lat="43.95185" lon="2.59289">
        <ele>431</ele>
        <time>2015-11-29T11:18:46Z</time>
      </trkpt>
      <trkpt lat="43.9519" lon="2.59284">
        <ele>431</ele>
        <time>2015-11-29T11:18:51Z</time>
      </trkpt>
      <trkpt lat="43.95195" lon="2.59279">
        <ele>430</ele>
        <time>2015-11-29T11:19:04Z</time>
      </trkpt>
      <trkpt lat="43.952" lon="2.59276">
        <ele>429</ele>
        <time>2015-11-29T11:19:09Z</time>
      </trkpt>
      <trkpt lat="43.95205" lon="2.59275">
        <ele>429</ele>
        <time>2015-11-29T11:19:16Z</time>
      </trkpt>
      <trkpt lat="43.9521" lon="2.59271">
        <ele>429</ele>
        <time>2015-11-29T11:19:23Z</time>
      </trkpt>
      <trkpt lat="43.95215" lon="2.59266">
        <ele>428</ele>
        <time>2015-11-29T11:19:28Z</time>
      </trkpt>
      <trkpt lat="43.9522" lon="2.59262">
        <ele>428</ele>
        <time>2015-11-29T11:19:33Z</time>
      </trkpt>
      <trkpt lat="43.95224" lon="2.59259">
        <ele>428</ele>
        <time>2015-11-29T11:19:38Z</time>
      </trkpt>
      <trkpt lat="43.95229" lon="2.59254">
        <ele>427</ele>
        <time>2015-11-29T11:19:43Z</time>
      </trkpt>
      <trkpt lat="43.95233" lon="2.59248">
        <ele>427</ele>
        <time>2015-11-29T11:19:46Z</time>
      </trkpt>
      <trkpt lat="43.95239" lon="2.59243">
        <ele>427</ele>
        <time>2015-11-29T11:19:51Z</time>
      </trkpt>
      <trkpt lat="43.95241" lon="2.59238">
        <ele>427</ele>
        <time>2015-11-29T11:19:56Z</time>
      </trkpt>
      <trkpt lat="43.95245" lon="2.59233">
        <ele>427</ele>
        <time>2015-11-29T11:20:00Z</time>
      </trkpt>
      <trkpt lat="43.9525" lon="2.59232">
        <ele>427</ele>
        <time>2015-11-29T11:20:05Z</time>
      </trkpt>
      <trkpt lat="43.95255" lon="2.59227">
        <ele>427</ele>
        <time>2015-11-29T11:20:09Z</time>
      </trkpt>
      <trkpt lat="43.9526" lon="2.59222">
        <ele>427</ele>
        <time>2015-11-29T11:20:13Z</time>
      </trkpt>
      <trkpt lat="43.95263" lon="2.59218">
        <ele>427</ele>
        <time>2015-11-29T11:20:17Z</time>
      </trkpt>
      <trkpt lat="43.95267" lon="2.59211">
        <ele>426</ele>
        <time>2015-11-29T11:20:22Z</time>
      </trkpt>
      <trkpt lat="43.95272" lon="2.59207">
        <ele>426</ele>
        <time>2015-11-29T11:20:27Z</time>
      </trkpt>
      <trkpt lat="43.95276" lon="2.59206">
        <ele>425</ele>
        <time>2015-11-29T11:20:32Z</time>
      </trkpt>
      <trkpt lat="43.9528" lon="2.59201">
        <ele>425</ele>
        <time>2015-11-29T11:20:38Z</time>
      </trkpt>
      <trkpt lat="43.95284" lon="2.59196">
        <ele>424</ele>
        <time>2015-11-29T11:20:44Z</time>
      </trkpt>
      <trkpt lat="43.95287" lon="2.59189">
        <ele>423</ele>
        <time>2015-11-29T11:20:55Z</time>
      </trkpt>
      <trkpt lat="43.95291" lon="2.59184">
        <ele>421</ele>
        <time>2015-11-29T11:21:00Z</time>
      </trkpt>
      <trkpt lat="43.95295" lon="2.59181">
        <ele>420</ele>
        <time>2015-11-29T11:21:06Z</time>
      </trkpt>
      <trkpt lat="43.953" lon="2.59177">
        <ele>419</ele>
        <time>2015-11-29T11:21:11Z</time>
      </trkpt>
      <trkpt lat="43.95304" lon="2.59172">
        <ele>417</ele>
        <time>2015-11-29T11:21:18Z</time>
      </trkpt>
      <trkpt lat="43.95309" lon="2.59167">
        <ele>416</ele>
        <time>2015-11-29T11:21:23Z</time>
      </trkpt>
      <trkpt lat="43.95314" lon="2.59163">
        <ele>415</ele>
        <time>2015-11-29T11:21:28Z</time>
      </trkpt>
      <trkpt lat="43.95319" lon="2.59161">
        <ele>413</ele>
        <time>2015-11-29T11:21:34Z</time>
      </trkpt>
      <trkpt lat="43.95324" lon="2.59157">
        <ele>412</ele>
        <time>2015-11-29T11:21:39Z</time>
      </trkpt>
      <trkpt lat="43.95334" lon="2.59161">
        <ele>411</ele>
        <time>2015-11-29T11:21:56Z</time>
      </trkpt>
      <trkpt lat="43.95339" lon="2.5916">
        <ele>410</ele>
        <time>2015-11-29T11:21:59Z</time>
      </trkpt>
      <trkpt lat="43.95344" lon="2.59162">
        <ele>409</ele>
        <time>2015-11-29T11:22:04Z</time>
      </trkpt>
      <trkpt lat="43.9535" lon="2.59162">
        <ele>409</ele>
        <time>2015-11-29T11:22:09Z</time>
      </trkpt>
      <trkpt lat="43.95355" lon="2.59164">
        <ele>408</ele>
        <time>2015-11-29T11:22:14Z</time>
      </trkpt>
      <trkpt lat="43.9536" lon="2.59163">
        <ele>407</ele>
        <time>2015-11-29T11:22:17Z</time>
      </trkpt>
      <trkpt lat="43.95366" lon="2.59162">
        <ele>407</ele>
        <time>2015-11-29T11:22:21Z</time>
      </trkpt>
      <trkpt lat="43.95371" lon="2.59161">
        <ele>407</ele>
        <time>2015-11-29T11:22:26Z</time>
      </trkpt>
      <trkpt lat="43.95375" lon="2.5916">
        <ele>406</ele>
        <time>2015-11-29T11:22:34Z</time>
      </trkpt>
      <trkpt lat="43.95379" lon="2.59156">
        <ele>406</ele>
        <time>2015-11-29T11:22:39Z</time>
      </trkpt>
      <trkpt lat="43.95385" lon="2.59153">
        <ele>405</ele>
        <time>2015-11-29T11:22:44Z</time>
      </trkpt>
      <trkpt lat="43.95389" lon="2.59151">
        <ele>404</ele>
        <time>2015-11-29T11:22:49Z</time>
      </trkpt>
      <trkpt lat="43.95395" lon="2.59149">
        <ele>404</ele>
        <time>2015-11-29T11:22:55Z</time>
      </trkpt>
      <trkpt lat="43.954" lon="2.59146">
        <ele>403</ele>
        <time>2015-11-29T11:23:00Z</time>
      </trkpt>
      <trkpt lat="43.95404" lon="2.59141">
        <ele>403</ele>
        <time>2015-11-29T11:23:06Z</time>
      </trkpt>
      <trkpt lat="43.95409" lon="2.59141">
        <ele>403</ele>
        <time>2015-11-29T11:23:13Z</time>
      </trkpt>
      <trkpt lat="43.95414" lon="2.59141">
        <ele>402</ele>
        <time>2015-11-29T11:23:18Z</time>
      </trkpt>
      <trkpt lat="43.95419" lon="2.5914">
        <ele>402</ele>
        <time>2015-11-29T11:23:24Z</time>
      </trkpt>
      <trkpt lat="43.95424" lon="2.59139">
        <ele>402</ele>
        <time>2015-11-29T11:23:31Z</time>
      </trkpt>
      <trkpt lat="43.9543" lon="2.59137">
        <ele>402</ele>
        <time>2015-11-29T11:23:40Z</time>
      </trkpt>
      <trkpt lat="43.95434" lon="2.59134">
        <ele>402</ele>
        <time>2015-11-29T11:23:44Z</time>
      </trkpt>
      <trkpt lat="43.95439" lon="2.59133">
        <ele>401</ele>
        <time>2015-11-29T11:23:48Z</time>
      </trkpt>
      <trkpt lat="43.95444" lon="2.5913">
        <ele>401</ele>
        <time>2015-11-29T11:23:54Z</time>
      </trkpt>
      <trkpt lat="43.95449" lon="2.59129">
        <ele>400</ele>
        <time>2015-11-29T11:23:59Z</time>
      </trkpt>
      <trkpt lat="43.95454" lon="2.59128">
        <ele>399</ele>
        <time>2015-11-29T11:24:06Z</time>
      </trkpt>
      <trkpt lat="43.95459" lon="2.59125">
        <ele>398</ele>
        <time>2015-11-29T11:24:12Z</time>
      </trkpt>
      <trkpt lat="43.95462" lon="2.59121">
        <ele>397</ele>
        <time>2015-11-29T11:24:16Z</time>
      </trkpt>
      <trkpt lat="43.95466" lon="2.59117">
        <ele>396</ele>
        <time>2015-11-29T11:24:22Z</time>
      </trkpt>
      <trkpt lat="43.9547" lon="2.59114">
        <ele>395</ele>
        <time>2015-11-29T11:24:26Z</time>
      </trkpt>
      <trkpt lat="43.95472" lon="2.59108">
        <ele>395</ele>
        <time>2015-11-29T11:24:30Z</time>
      </trkpt>
      <trkpt lat="43.95474" lon="2.59103">
        <ele>394</ele>
        <time>2015-11-29T11:24:36Z</time>
      </trkpt>
      <trkpt lat="43.95474" lon="2.59095">
        <ele>393</ele>
        <time>2015-11-29T11:24:42Z</time>
      </trkpt>
      <trkpt lat="43.95474" lon="2.59089">
        <ele>392</ele>
        <time>2015-11-29T11:24:48Z</time>
      </trkpt>
      <trkpt lat="43.95476" lon="2.59082">
        <ele>391</ele>
        <time>2015-11-29T11:24:54Z</time>
      </trkpt>
      <trkpt lat="43.95481" lon="2.59078">
        <ele>390</ele>
        <time>2015-11-29T11:24:59Z</time>
      </trkpt>
      <trkpt lat="43.95486" lon="2.59073">
        <ele>390</ele>
        <time>2015-11-29T11:25:04Z</time>
      </trkpt>
      <trkpt lat="43.9549" lon="2.59066">
        <ele>389</ele>
        <time>2015-11-29T11:25:12Z</time>
      </trkpt>
      <trkpt lat="43.95492" lon="2.5906">
        <ele>389</ele>
        <time>2015-11-29T11:25:19Z</time>
      </trkpt>
      <trkpt lat="43.95498" lon="2.59057">
        <ele>388</ele>
        <time>2015-11-29T11:25:29Z</time>
      </trkpt>
      <trkpt lat="43.95501" lon="2.59051">
        <ele>388</ele>
        <time>2015-11-29T11:25:34Z</time>
      </trkpt>
      <trkpt lat="43.95503" lon="2.59045">
        <ele>388</ele>
        <time>2015-11-29T11:25:40Z</time>
      </trkpt>
      <trkpt lat="43.95504" lon="2.59038">
        <ele>387</ele>
        <time>2015-11-29T11:25:45Z</time>
      </trkpt>
      <trkpt lat="43.95509" lon="2.59035">
        <ele>387</ele>
        <time>2015-11-29T11:25:49Z</time>
      </trkpt>
      <trkpt lat="43.95514" lon="2.59031">
        <ele>387</ele>
        <time>2015-11-29T11:25:53Z</time>
      </trkpt>
      <trkpt lat="43.95514" lon="2.59024">
        <ele>386</ele>
        <time>2015-11-29T11:25:56Z</time>
      </trkpt>
      <trkpt lat="43.95515" lon="2.59017">
        <ele>386</ele>
        <time>2015-11-29T11:26:03Z</time>
      </trkpt>
      <trkpt lat="43.95515" lon="2.5901">
        <ele>386</ele>
        <time>2015-11-29T11:26:08Z</time>
      </trkpt>
      <trkpt lat="43.95515" lon="2.59002">
        <ele>386</ele>
        <time>2015-11-29T11:26:12Z</time>
      </trkpt>
      <trkpt lat="43.95517" lon="2.58996">
        <ele>386</ele>
        <time>2015-11-29T11:26:16Z</time>
      </trkpt>
      <trkpt lat="43.95516" lon="2.58988">
        <ele>386</ele>
        <time>2015-11-29T11:26:21Z</time>
      </trkpt>
      <trkpt lat="43.95516" lon="2.5898">
        <ele>385</ele>
        <time>2015-11-29T11:26:28Z</time>
      </trkpt>
      <trkpt lat="43.95517" lon="2.58974">
        <ele>385</ele>
        <time>2015-11-29T11:26:33Z</time>
      </trkpt>
      <trkpt lat="43.9552" lon="2.58968">
        <ele>384</ele>
        <time>2015-11-29T11:26:38Z</time>
      </trkpt>
      <trkpt lat="43.95523" lon="2.58962">
        <ele>384</ele>
        <time>2015-11-29T11:26:44Z</time>
      </trkpt>
      <trkpt lat="43.95525" lon="2.58957">
        <ele>383</ele>
        <time>2015-11-29T11:26:49Z</time>
      </trkpt>
      <trkpt lat="43.95524" lon="2.58949">
        <ele>383</ele>
        <time>2015-11-29T11:26:58Z</time>
      </trkpt>
      <trkpt lat="43.95524" lon="2.58942">
        <ele>382</ele>
        <time>2015-11-29T11:27:03Z</time>
      </trkpt>
      <trkpt lat="43.95522" lon="2.58935">
        <ele>381</ele>
        <time>2015-11-29T11:27:08Z</time>
      </trkpt>
      <trkpt lat="43.95519" lon="2.58928">
        <ele>381</ele>
        <time>2015-11-29T11:27:14Z</time>
      </trkpt>
      <trkpt lat="43.95516" lon="2.58921">
        <ele>381</ele>
        <time>2015-11-29T11:27:19Z</time>
      </trkpt>
      <trkpt lat="43.95515" lon="2.58915">
        <ele>381</ele>
        <time>2015-11-29T11:27:29Z</time>
      </trkpt>
      <trkpt lat="43.95514" lon="2.58906">
        <ele>382</ele>
        <time>2015-11-29T11:27:35Z</time>
      </trkpt>
      <trkpt lat="43.95513" lon="2.58899">
        <ele>382</ele>
        <time>2015-11-29T11:27:42Z</time>
      </trkpt>
      <trkpt lat="43.95512" lon="2.58892">
        <ele>382</ele>
        <time>2015-11-29T11:27:47Z</time>
      </trkpt>
      <trkpt lat="43.95511" lon="2.58883">
        <ele>382</ele>
        <time>2015-11-29T11:27:54Z</time>
      </trkpt>
      <trkpt lat="43.95509" lon="2.58877">
        <ele>382</ele>
        <time>2015-11-29T11:27:58Z</time>
      </trkpt>
      <trkpt lat="43.95509" lon="2.58871">
        <ele>382</ele>
        <time>2015-11-29T11:28:02Z</time>
      </trkpt>
      <trkpt lat="43.95504" lon="2.58862">
        <ele>382</ele>
        <time>2015-11-29T11:28:10Z</time>
      </trkpt>
      <trkpt lat="43.95501" lon="2.58858">
        <ele>382</ele>
        <time>2015-11-29T11:28:15Z</time>
      </trkpt>
      <trkpt lat="43.95497" lon="2.58851">
        <ele>382</ele>
        <time>2015-11-29T11:28:22Z</time>
      </trkpt>
      <trkpt lat="43.95494" lon="2.58843">
        <ele>381</ele>
        <time>2015-11-29T11:28:28Z</time>
      </trkpt>
      <trkpt lat="43.95491" lon="2.58835">
        <ele>381</ele>
        <time>2015-11-29T11:28:34Z</time>
      </trkpt>
      <trkpt lat="43.95487" lon="2.5883">
        <ele>380</ele>
        <time>2015-11-29T11:28:38Z</time>
      </trkpt>
      <trkpt lat="43.95487" lon="2.58824">
        <ele>379</ele>
        <time>2015-11-29T11:28:42Z</time>
      </trkpt>
      <trkpt lat="43.95486" lon="2.58816">
        <ele>379</ele>
        <time>2015-11-29T11:28:48Z</time>
      </trkpt>
      <trkpt lat="43.95487" lon="2.58809">
        <ele>378</ele>
        <time>2015-11-29T11:28:52Z</time>
      </trkpt>
      <trkpt lat="43.95488" lon="2.58803">
        <ele>378</ele>
        <time>2015-11-29T11:28:56Z</time>
      </trkpt>
      <trkpt lat="43.95488" lon="2.58796">
        <ele>377</ele>
        <time>2015-11-29T11:29:01Z</time>
      </trkpt>
      <trkpt lat="43.9549" lon="2.58788">
        <ele>377</ele>
        <time>2015-11-29T11:29:06Z</time>
      </trkpt>
      <trkpt lat="43.95489" lon="2.58778">
        <ele>376</ele>
        <time>2015-11-29T11:29:12Z</time>
      </trkpt>
      <trkpt lat="43.95488" lon="2.5877">
        <ele>376</ele>
        <time>2015-11-29T11:29:16Z</time>
      </trkpt>
      <trkpt lat="43.95487" lon="2.58764">
        <ele>376</ele>
        <time>2015-11-29T11:29:20Z</time>
      </trkpt>
      <trkpt lat="43.95485" lon="2.58756">
        <ele>375</ele>
        <time>2015-11-29T11:29:26Z</time>
      </trkpt>
      <trkpt lat="43.95483" lon="2.5875">
        <ele>375</ele>
        <time>2015-11-29T11:29:30Z</time>
      </trkpt>
      <trkpt lat="43.95483" lon="2.58743">
        <ele>374</ele>
        <time>2015-11-29T11:29:34Z</time>
      </trkpt>
      <trkpt lat="43.95484" lon="2.58735">
        <ele>374</ele>
        <time>2015-11-29T11:29:40Z</time>
      </trkpt>
      <trkpt lat="43.95485" lon="2.58729">
        <ele>373</ele>
        <time>2015-11-29T11:29:46Z</time>
      </trkpt>
      <trkpt lat="43.95489" lon="2.58723">
        <ele>373</ele>
        <time>2015-11-29T11:29:50Z</time>
      </trkpt>
      <trkpt lat="43.95493" lon="2.58721">
        <ele>372</ele>
        <time>2015-11-29T11:29:52Z</time>
      </trkpt>
      <trkpt lat="43.95496" lon="2.58713">
        <ele>372</ele>
        <time>2015-11-29T11:29:59Z</time>
      </trkpt>
      <trkpt lat="43.95499" lon="2.58709">
        <ele>371</ele>
        <time>2015-11-29T11:30:10Z</time>
      </trkpt>
      <trkpt lat="43.95493" lon="2.58697">
        <ele>371</ele>
        <time>2015-11-29T11:30:41Z</time>
      </trkpt>
      <trkpt lat="43.95491" lon="2.58691">
        <ele>370</ele>
        <time>2015-11-29T11:30:46Z</time>
      </trkpt>
      <trkpt lat="43.95494" lon="2.587">
        <ele>370</ele>
        <time>2015-11-29T11:31:07Z</time>
      </trkpt>
      <trkpt lat="43.955" lon="2.58702">
        <ele>370</ele>
        <time>2015-11-29T11:31:25Z</time>
      </trkpt>
      <trkpt lat="43.95502" lon="2.58692">
        <ele>371</ele>
        <time>2015-11-29T11:31:31Z</time>
      </trkpt>
      <trkpt lat="43.95505" lon="2.58686">
        <ele>371</ele>
        <time>2015-11-29T11:31:37Z</time>
      </trkpt>
      <trkpt lat="43.95505" lon="2.58679">
        <ele>371</ele>
        <time>2015-11-29T11:31:42Z</time>
      </trkpt>
      <trkpt lat="43.95506" lon="2.58685">
        <ele>371</ele>
        <time>2015-11-29T11:32:02Z</time>
      </trkpt>
      <trkpt lat="43.95505" lon="2.58687">
        <ele>371</ele>
        <time>2015-11-29T11:32:04Z</time>
      </trkpt>
      <trkpt lat="43.95501" lon="2.58691">
        <ele>371</ele>
        <time>2015-11-29T11:32:09Z</time>
      </trkpt>
      <trkpt lat="43.95498" lon="2.58696">
        <ele>371</ele>
        <time>2015-11-29T11:32:18Z</time>
      </trkpt>
      <trkpt lat="43.95493" lon="2.58713">
        <ele>370</ele>
        <time>2015-11-29T11:32:51Z</time>
      </trkpt>
      <trkpt lat="43.95492" lon="2.58714">
        <ele>370</ele>
        <time>2015-11-29T11:33:30Z</time>
      </trkpt>
      <trkpt lat="43.95498" lon="2.58705">
        <ele>371</ele>
        <time>2015-11-29T11:33:44Z</time>
      </trkpt>
      <trkpt lat="43.95503" lon="2.58702">
        <ele>371</ele>
        <time>2015-11-29T11:33:50Z</time>
      </trkpt>
      <trkpt lat="43.95509" lon="2.58704">
        <ele>371</ele>
        <time>2015-11-29T11:33:56Z</time>
      </trkpt>
      <trkpt lat="43.95515" lon="2.58707">
        <ele>372</ele>
        <time>2015-11-29T11:34:02Z</time>
      </trkpt>
      <trkpt lat="43.95516" lon="2.58714">
        <ele>372</ele>
        <time>2015-11-29T11:34:17Z</time>
      </trkpt>
      <trkpt lat="43.95518" lon="2.5872">
        <ele>372</ele>
        <time>2015-11-29T11:34:23Z</time>
      </trkpt>
      <trkpt lat="43.95522" lon="2.58727">
        <ele>371</ele>
        <time>2015-11-29T11:34:28Z</time>
      </trkpt>
      <trkpt lat="43.95524" lon="2.58734">
        <ele>371</ele>
        <time>2015-11-29T11:34:33Z</time>
      </trkpt>
      <trkpt lat="43.95525" lon="2.58742">
        <ele>371</ele>
        <time>2015-11-29T11:34:39Z</time>
      </trkpt>
      <trkpt lat="43.95526" lon="2.58749">
        <ele>370</ele>
        <time>2015-11-29T11:34:44Z</time>
      </trkpt>
      <trkpt lat="43.95527" lon="2.58756">
        <ele>370</ele>
        <time>2015-11-29T11:34:48Z</time>
      </trkpt>
      <trkpt lat="43.95528" lon="2.58764">
        <ele>370</ele>
        <time>2015-11-29T11:34:53Z</time>
      </trkpt>
      <trkpt lat="43.95531" lon="2.5877">
        <ele>370</ele>
        <time>2015-11-29T11:34:58Z</time>
      </trkpt>
      <trkpt lat="43.95533" lon="2.58776">
        <ele>370</ele>
        <time>2015-11-29T11:35:02Z</time>
      </trkpt>
      <trkpt lat="43.95534" lon="2.58782">
        <ele>370</ele>
        <time>2015-11-29T11:35:06Z</time>
      </trkpt>
      <trkpt lat="43.95536" lon="2.58791">
        <ele>370</ele>
        <time>2015-11-29T11:35:12Z</time>
      </trkpt>
      <trkpt lat="43.95536" lon="2.588">
        <ele>370</ele>
        <time>2015-11-29T11:35:17Z</time>
      </trkpt>
      <trkpt lat="43.95538" lon="2.58808">
        <ele>370</ele>
        <time>2015-11-29T11:35:22Z</time>
      </trkpt>
      <trkpt lat="43.95538" lon="2.58815">
        <ele>370</ele>
        <time>2015-11-29T11:35:27Z</time>
      </trkpt>
      <trkpt lat="43.9554" lon="2.58821">
        <ele>370</ele>
        <time>2015-11-29T11:35:34Z</time>
      </trkpt>
      <trkpt lat="43.95542" lon="2.58828">
        <ele>370</ele>
        <time>2015-11-29T11:35:38Z</time>
      </trkpt>
      <trkpt lat="43.95546" lon="2.58833">
        <ele>370</ele>
        <time>2015-11-29T11:35:42Z</time>
      </trkpt>
      <trkpt lat="43.95548" lon="2.58839">
        <ele>370</ele>
        <time>2015-11-29T11:35:47Z</time>
      </trkpt>
      <trkpt lat="43.95549" lon="2.58845">
        <ele>370</ele>
        <time>2015-11-29T11:35:52Z</time>
      </trkpt>
      <trkpt lat="43.95552" lon="2.58853">
        <ele>370</ele>
        <time>2015-11-29T11:35:58Z</time>
      </trkpt>
      <trkpt lat="43.95556" lon="2.58857">
        <ele>370</ele>
        <time>2015-11-29T11:36:02Z</time>
      </trkpt>
      <trkpt lat="43.95561" lon="2.58864">
        <ele>369</ele>
        <time>2015-11-29T11:36:07Z</time>
      </trkpt>
      <trkpt lat="43.95564" lon="2.5887">
        <ele>369</ele>
        <time>2015-11-29T11:36:11Z</time>
      </trkpt>
      <trkpt lat="43.95565" lon="2.58876">
        <ele>369</ele>
        <time>2015-11-29T11:36:15Z</time>
      </trkpt>
      <trkpt lat="43.95566" lon="2.58884">
        <ele>369</ele>
        <time>2015-11-29T11:36:21Z</time>
      </trkpt>
      <trkpt lat="43.95567" lon="2.5889">
        <ele>369</ele>
        <time>2015-11-29T11:36:25Z</time>
      </trkpt>
      <trkpt lat="43.95568" lon="2.58898">
        <ele>369</ele>
        <time>2015-11-29T11:36:29Z</time>
      </trkpt>
      <trkpt lat="43.9557" lon="2.58906">
        <ele>369</ele>
        <time>2015-11-29T11:36:36Z</time>
      </trkpt>
      <trkpt lat="43.9557" lon="2.58914">
        <ele>369</ele>
        <time>2015-11-29T11:36:41Z</time>
      </trkpt>
      <trkpt lat="43.95572" lon="2.58921">
        <ele>369</ele>
        <time>2015-11-29T11:36:45Z</time>
      </trkpt>
      <trkpt lat="43.95572" lon="2.58928">
        <ele>369</ele>
        <time>2015-11-29T11:36:49Z</time>
      </trkpt>
      <trkpt lat="43.95572" lon="2.58937">
        <ele>369</ele>
        <time>2015-11-29T11:36:55Z</time>
      </trkpt>
      <trkpt lat="43.95572" lon="2.58944">
        <ele>369</ele>
        <time>2015-11-29T11:37:01Z</time>
      </trkpt>
      <trkpt lat="43.95572" lon="2.58951">
        <ele>369</ele>
        <time>2015-11-29T11:37:04Z</time>
      </trkpt>
      <trkpt lat="43.95573" lon="2.58959">
        <ele>368</ele>
        <time>2015-11-29T11:37:11Z</time>
      </trkpt>
      <trkpt lat="43.95575" lon="2.58965">
        <ele>368</ele>
        <time>2015-11-29T11:37:16Z</time>
      </trkpt>
      <trkpt lat="43.95577" lon="2.58971">
        <ele>368</ele>
        <time>2015-11-29T11:37:22Z</time>
      </trkpt>
      <trkpt lat="43.95583" lon="2.58972">
        <ele>368</ele>
        <time>2015-11-29T11:37:28Z</time>
      </trkpt>
      <trkpt lat="43.95594" lon="2.58973">
        <ele>368</ele>
        <time>2015-11-29T11:37:46Z</time>
      </trkpt>
      <trkpt lat="43.95594" lon="2.58971">
        <ele>368</ele>
        <time>2015-11-29T11:38:07Z</time>
      </trkpt>
      <trkpt lat="43.95594" lon="2.58971">
        <ele>368</ele>
        <time>2015-11-29T11:38:30Z</time>
      </trkpt>
      <trkpt lat="43.95594" lon="2.58971">
        <ele>368</ele>
        <time>2015-11-29T11:38:59Z</time>
      </trkpt>
      <trkpt lat="43.95589" lon="2.58982">
        <ele>370</ele>
        <time>2015-11-29T11:39:21Z</time>
      </trkpt>
      <trkpt lat="43.95592" lon="2.58978">
        <ele>371</ele>
        <time>2015-11-29T11:39:51Z</time>
      </trkpt>
      <trkpt lat="43.95598" lon="2.58977">
        <ele>373</ele>
        <time>2015-11-29T11:39:57Z</time>
      </trkpt>
      <trkpt lat="43.95602" lon="2.58977">
        <ele>375</ele>
        <time>2015-11-29T11:40:02Z</time>
      </trkpt>
      <trkpt lat="43.95607" lon="2.58975">
        <ele>376</ele>
        <time>2015-11-29T11:40:06Z</time>
      </trkpt>
      <trkpt lat="43.95611" lon="2.58974">
        <ele>376</ele>
        <time>2015-11-29T11:40:13Z</time>
      </trkpt>
      <trkpt lat="43.95617" lon="2.58972">
        <ele>376</ele>
        <time>2015-11-29T11:40:20Z</time>
      </trkpt>
      <trkpt lat="43.95623" lon="2.58971">
        <ele>376</ele>
        <time>2015-11-29T11:40:25Z</time>
      </trkpt>
      <trkpt lat="43.95628" lon="2.58971">
        <ele>375</ele>
        <time>2015-11-29T11:40:30Z</time>
      </trkpt>
      <trkpt lat="43.95635" lon="2.58971">
        <ele>374</ele>
        <time>2015-11-29T11:40:37Z</time>
      </trkpt>
      <trkpt lat="43.95641" lon="2.58972">
        <ele>373</ele>
        <time>2015-11-29T11:40:42Z</time>
      </trkpt>
      <trkpt lat="43.95646" lon="2.58971">
        <ele>373</ele>
        <time>2015-11-29T11:40:47Z</time>
      </trkpt>
      <trkpt lat="43.9565" lon="2.58976">
        <ele>372</ele>
        <time>2015-11-29T11:40:52Z</time>
      </trkpt>
      <trkpt lat="43.95655" lon="2.58978">
        <ele>372</ele>
        <time>2015-11-29T11:40:59Z</time>
      </trkpt>
      <trkpt lat="43.9566" lon="2.58979">
        <ele>372</ele>
        <time>2015-11-29T11:41:05Z</time>
      </trkpt>
      <trkpt lat="43.95665" lon="2.58983">
        <ele>372</ele>
        <time>2015-11-29T11:41:13Z</time>
      </trkpt>
      <trkpt lat="43.9567" lon="2.58984">
        <ele>372</ele>
        <time>2015-11-29T11:41:19Z</time>
      </trkpt>
      <trkpt lat="43.95674" lon="2.58988">
        <ele>372</ele>
        <time>2015-11-29T11:41:23Z</time>
      </trkpt>
      <trkpt lat="43.9568" lon="2.58989">
        <ele>372</ele>
        <time>2015-11-29T11:41:27Z</time>
      </trkpt>
      <trkpt lat="43.95685" lon="2.58989">
        <ele>372</ele>
        <time>2015-11-29T11:41:30Z</time>
      </trkpt>
      <trkpt lat="43.95691" lon="2.58988">
        <ele>372</ele>
        <time>2015-11-29T11:41:35Z</time>
      </trkpt>
      <trkpt lat="43.95696" lon="2.58986">
        <ele>372</ele>
        <time>2015-11-29T11:41:37Z</time>
      </trkpt>
      <trkpt lat="43.95701" lon="2.58987">
        <ele>371</ele>
        <time>2015-11-29T11:41:41Z</time>
      </trkpt>
      <trkpt lat="43.95707" lon="2.5899">
        <ele>371</ele>
        <time>2015-11-29T11:41:45Z</time>
      </trkpt>
      <trkpt lat="43.95712" lon="2.58993">
        <ele>371</ele>
        <time>2015-11-29T11:41:49Z</time>
      </trkpt>
      <trkpt lat="43.95717" lon="2.58993">
        <ele>371</ele>
        <time>2015-11-29T11:41:52Z</time>
      </trkpt>
      <trkpt lat="43.95723" lon="2.58994">
        <ele>371</ele>
        <time>2015-11-29T11:41:56Z</time>
      </trkpt>
      <trkpt lat="43.95727" lon="2.59">
        <ele>371</ele>
        <time>2015-11-29T11:42:02Z</time>
      </trkpt>
      <trkpt lat="43.95731" lon="2.59004">
        <ele>372</ele>
        <time>2015-11-29T11:42:08Z</time>
      </trkpt>
      <trkpt lat="43.95736" lon="2.59007">
        <ele>372</ele>
        <time>2015-11-29T11:42:14Z</time>
      </trkpt>
      <trkpt lat="43.95741" lon="2.59009">
        <ele>372</ele>
        <time>2015-11-29T11:42:20Z</time>
      </trkpt>
      <trkpt lat="43.95747" lon="2.59013">
        <ele>371</ele>
        <time>2015-11-29T11:42:25Z</time>
      </trkpt>
      <trkpt lat="43.95748" lon="2.59023">
        <ele>371</ele>
        <time>2015-11-29T11:42:30Z</time>
      </trkpt>
      <trkpt lat="43.95751" lon="2.59028">
        <ele>371</ele>
        <time>2015-11-29T11:42:34Z</time>
      </trkpt>
      <trkpt lat="43.95755" lon="2.59034">
        <ele>371</ele>
        <time>2015-11-29T11:42:39Z</time>
      </trkpt>
      <trkpt lat="43.95759" lon="2.59041">
        <ele>371</ele>
        <time>2015-11-29T11:42:44Z</time>
      </trkpt>
      <trkpt lat="43.95763" lon="2.59043">
        <ele>371</ele>
        <time>2015-11-29T11:42:47Z</time>
      </trkpt>
      <trkpt lat="43.95765" lon="2.5905">
        <ele>371</ele>
        <time>2015-11-29T11:42:52Z</time>
      </trkpt>
      <trkpt lat="43.95768" lon="2.59056">
        <ele>370</ele>
        <time>2015-11-29T11:42:58Z</time>
      </trkpt>
      <trkpt lat="43.95777" lon="2.59059">
        <ele>370</ele>
        <time>2015-11-29T11:43:06Z</time>
      </trkpt>
      <trkpt lat="43.95782" lon="2.59059">
        <ele>369</ele>
        <time>2015-11-29T11:43:10Z</time>
      </trkpt>
      <trkpt lat="43.95786" lon="2.59063">
        <ele>369</ele>
        <time>2015-11-29T11:43:17Z</time>
      </trkpt>
      <trkpt lat="43.9579" lon="2.59068">
        <ele>368</ele>
        <time>2015-11-29T11:43:24Z</time>
      </trkpt>
      <trkpt lat="43.95794" lon="2.59073">
        <ele>368</ele>
        <time>2015-11-29T11:43:30Z</time>
      </trkpt>
      <trkpt lat="43.958" lon="2.59074">
        <ele>367</ele>
        <time>2015-11-29T11:43:35Z</time>
      </trkpt>
      <trkpt lat="43.95803" lon="2.59079">
        <ele>367</ele>
        <time>2015-11-29T11:43:41Z</time>
      </trkpt>
      <trkpt lat="43.95805" lon="2.59086">
        <ele>367</ele>
        <time>2015-11-29T11:43:44Z</time>
      </trkpt>
      <trkpt lat="43.95809" lon="2.59095">
        <ele>367</ele>
        <time>2015-11-29T11:43:47Z</time>
      </trkpt>
      <trkpt lat="43.9581" lon="2.59103">
        <ele>367</ele>
        <time>2015-11-29T11:43:50Z</time>
      </trkpt>
      <trkpt lat="43.95813" lon="2.59109">
        <ele>368</ele>
        <time>2015-11-29T11:43:54Z</time>
      </trkpt>
      <trkpt lat="43.95813" lon="2.59118">
        <ele>368</ele>
        <time>2015-11-29T11:44:00Z</time>
      </trkpt>
      <trkpt lat="43.95812" lon="2.59129">
        <ele>369</ele>
        <time>2015-11-29T11:44:04Z</time>
      </trkpt>
      <trkpt lat="43.95814" lon="2.59135">
        <ele>370</ele>
        <time>2015-11-29T11:44:10Z</time>
      </trkpt>
      <trkpt lat="43.95816" lon="2.59129">
        <ele>372</ele>
        <time>2015-11-29T11:44:17Z</time>
      </trkpt>
      <trkpt lat="43.95817" lon="2.59115">
        <ele>373</ele>
        <time>2015-11-29T11:44:34Z</time>
      </trkpt>
      <trkpt lat="43.95824" lon="2.59123">
        <ele>375</ele>
        <time>2015-11-29T11:44:54Z</time>
      </trkpt>
      <trkpt lat="43.95828" lon="2.59127">
        <ele>376</ele>
        <time>2015-11-29T11:45:04Z</time>
      </trkpt>
      <trkpt lat="43.95829" lon="2.59133">
        <ele>378</ele>
        <time>2015-11-29T11:45:12Z</time>
      </trkpt>
      <trkpt lat="43.9583" lon="2.5914">
        <ele>379</ele>
        <time>2015-11-29T11:45:17Z</time>
      </trkpt>
      <trkpt lat="43.95833" lon="2.59148">
        <ele>380</ele>
        <time>2015-11-29T11:45:25Z</time>
      </trkpt>
      <trkpt lat="43.95835" lon="2.59155">
        <ele>380</ele>
        <time>2015-11-29T11:45:30Z</time>
      </trkpt>
      <trkpt lat="43.95839" lon="2.59161">
        <ele>381</ele>
        <time>2015-11-29T11:45:38Z</time>
      </trkpt>
      <trkpt lat="43.95843" lon="2.59163">
        <ele>381</ele>
        <time>2015-11-29T11:45:44Z</time>
      </trkpt>
      <trkpt lat="43.95847" lon="2.59167">
        <ele>382</ele>
        <time>2015-11-29T11:45:49Z</time>
      </trkpt>
      <trkpt lat="43.95852" lon="2.5917">
        <ele>382</ele>
        <time>2015-11-29T11:45:56Z</time>
      </trkpt>
      <trkpt lat="43.95852" lon="2.59171">
        <ele>383</ele>
        <time>2015-11-29T11:46:26Z</time>
      </trkpt>
      <trkpt lat="43.95852" lon="2.59171">
        <ele>383</ele>
        <time>2015-11-29T11:46:52Z</time>
      </trkpt>
      <trkpt lat="43.95852" lon="2.59171">
        <ele>383</ele>
        <time>2015-11-29T11:47:18Z</time>
      </trkpt>
      <trkpt lat="43.95852" lon="2.59171">
        <ele>383</ele>
        <time>2015-11-29T11:47:46Z</time>
      </trkpt>
      <trkpt lat="43.95852" lon="2.59171">
        <ele>383</ele>
        <time>2015-11-29T11:48:12Z</time>
      </trkpt>
      <trkpt lat="43.95852" lon="2.59171">
        <ele>383</ele>
        <time>2015-11-29T11:48:40Z</time>
      </trkpt>
      <trkpt lat="43.95852" lon="2.59171">
        <ele>383</ele>
        <time>2015-11-29T11:49:04Z</time>
      </trkpt>
      <trkpt lat="43.95852" lon="2.59171">
        <ele>383</ele>
        <time>2015-11-29T11:49:31Z</time>
      </trkpt>
      <trkpt lat="43.95852" lon="2.59171">
        <ele>383</ele>
        <time>2015-11-29T11:49:58Z</time>
      </trkpt>
      <trkpt lat="43.95852" lon="2.59171">
        <ele>383</ele>
        <time>2015-11-29T11:50:26Z</time>
      </trkpt>
      <trkpt lat="43.95852" lon="2.59171">
        <ele>383</ele>
        <time>2015-11-29T11:50:54Z</time>
      </trkpt>
      <trkpt lat="43.95852" lon="2.59171">
        <ele>383</ele>
        <time>2015-11-29T11:51:22Z</time>
      </trkpt>
      <trkpt lat="43.95852" lon="2.59176">
        <ele>384</ele>
        <time>2015-11-29T11:51:42Z</time>
      </trkpt>
      <trkpt lat="43.95853" lon="2.59173">
        <ele>384</ele>
        <time>2015-11-29T11:52:13Z</time>
      </trkpt>
      <trkpt lat="43.95853" lon="2.59173">
        <ele>385</ele>
        <time>2015-11-29T11:52:40Z</time>
      </trkpt>
      <trkpt lat="43.95853" lon="2.59173">
        <ele>385</ele>
        <time>2015-11-29T11:53:08Z</time>
      </trkpt>
      <trkpt lat="43.95853" lon="2.59173">
        <ele>386</ele>
        <time>2015-11-29T11:53:31Z</time>
      </trkpt>
      <trkpt lat="43.95853" lon="2.59173">
        <ele>386</ele>
        <time>2015-11-29T11:54:02Z</time>
      </trkpt>
      <trkpt lat="43.95853" lon="2.59173">
        <ele>386</ele>
        <time>2015-11-29T11:54:27Z</time>
      </trkpt>
      <trkpt lat="43.95853" lon="2.59173">
        <ele>386</ele>
        <time>2015-11-29T11:54:55Z</time>
      </trkpt>
      <trkpt lat="43.95853" lon="2.59173">
        <ele>386</ele>
        <time>2015-11-29T11:55:26Z</time>
      </trkpt>
      <trkpt lat="43.95853" lon="2.59173">
        <ele>386</ele>
        <time>2015-11-29T11:55:52Z</time>
      </trkpt>
      <trkpt lat="43.95853" lon="2.59173">
        <ele>386</ele>
        <time>2015-11-29T11:56:18Z</time>
      </trkpt>
      <trkpt lat="43.95853" lon="2.59173">
        <ele>386</ele>
        <time>2015-11-29T11:56:47Z</time>
      </trkpt>
      <trkpt lat="43.95853" lon="2.59173">
        <ele>386</ele>
        <time>2015-11-29T11:57:16Z</time>
      </trkpt>
      <trkpt lat="43.95853" lon="2.59173">
        <ele>386</ele>
        <time>2015-11-29T11:57:45Z</time>
      </trkpt>
      <trkpt lat="43.95853" lon="2.59173">
        <ele>386</ele>
        <time>2015-11-29T11:58:11Z</time>
      </trkpt>
      <trkpt lat="43.95853" lon="2.59173">
        <ele>386</ele>
        <time>2015-11-29T11:58:38Z</time>
      </trkpt>
      <trkpt lat="43.95853" lon="2.59173">
        <ele>386</ele>
        <time>2015-11-29T11:59:05Z</time>
      </trkpt>
      <trkpt lat="43.95853" lon="2.59173">
        <ele>386</ele>
        <time>2015-11-29T11:59:31Z</time>
      </trkpt>
      <trkpt lat="43.95853" lon="2.59173">
        <ele>386</ele>
        <time>2015-11-29T11:59:58Z</time>
      </trkpt>
      <trkpt lat="43.95853" lon="2.59173">
        <ele>386</ele>
        <time>2015-11-29T12:00:25Z</time>
      </trkpt>
      <trkpt lat="43.95853" lon="2.59173">
        <ele>386</ele>
        <time>2015-11-29T12:00:52Z</time>
      </trkpt>
      <trkpt lat="43.95853" lon="2.59173">
        <ele>386</ele>
        <time>2015-11-29T12:01:20Z</time>
      </trkpt>
      <trkpt lat="43.95853" lon="2.59173">
        <ele>386</ele>
        <time>2015-11-29T12:01:48Z</time>
      </trkpt>
      <trkpt lat="43.95853" lon="2.59173">
        <ele>386</ele>
        <time>2015-11-29T12:02:18Z</time>
      </trkpt>
      <trkpt lat="43.95853" lon="2.59173">
        <ele>386</ele>
        <time>2015-11-29T12:02:46Z</time>
      </trkpt>
      <trkpt lat="43.95853" lon="2.59173">
        <ele>386</ele>
        <time>2015-11-29T12:03:13Z</time>
      </trkpt>
      <trkpt lat="43.95853" lon="2.59173">
        <ele>386</ele>
        <time>2015-11-29T12:03:42Z</time>
      </trkpt>
      <trkpt lat="43.95853" lon="2.59173">
        <ele>386</ele>
        <time>2015-11-29T12:04:10Z</time>
      </trkpt>
      <trkpt lat="43.95853" lon="2.59173">
        <ele>386</ele>
        <time>2015-11-29T12:04:38Z</time>
      </trkpt>
      <trkpt lat="43.95853" lon="2.59173">
        <ele>386</ele>
        <time>2015-11-29T12:05:08Z</time>
      </trkpt>
      <trkpt lat="43.95853" lon="2.59173">
        <ele>386</ele>
        <time>2015-11-29T12:05:33Z</time>
      </trkpt>
      <trkpt lat="43.95853" lon="2.59173">
        <ele>386</ele>
        <time>2015-11-29T12:06:04Z</time>
      </trkpt>
      <trkpt lat="43.95853" lon="2.59173">
        <ele>386</ele>
        <time>2015-11-29T12:06:29Z</time>
      </trkpt>
      <trkpt lat="43.95853" lon="2.59173">
        <ele>386</ele>
        <time>2015-11-29T12:06:57Z</time>
      </trkpt>
      <trkpt lat="43.95853" lon="2.59173">
        <ele>386</ele>
        <time>2015-11-29T12:07:25Z</time>
      </trkpt>
      <trkpt lat="43.95853" lon="2.59173">
        <ele>386</ele>
        <time>2015-11-29T12:07:50Z</time>
      </trkpt>
      <trkpt lat="43.95853" lon="2.59173">
        <ele>386</ele>
        <time>2015-11-29T12:08:20Z</time>
      </trkpt>
      <trkpt lat="43.95853" lon="2.59173">
        <ele>386</ele>
        <time>2015-11-29T12:08:47Z</time>
      </trkpt>
      <trkpt lat="43.95853" lon="2.59173">
        <ele>386</ele>
        <time>2015-11-29T12:09:13Z</time>
      </trkpt>
      <trkpt lat="43.95853" lon="2.59173">
        <ele>386</ele>
        <time>2015-11-29T12:09:39Z</time>
      </trkpt>
      <trkpt lat="43.95853" lon="2.59173">
        <ele>386</ele>
        <time>2015-11-29T12:10:06Z</time>
      </trkpt>
      <trkpt lat="43.95853" lon="2.59173">
        <ele>386</ele>
        <time>2015-11-29T12:10:30Z</time>
      </trkpt>
      <trkpt lat="43.95853" lon="2.59173">
        <ele>386</ele>
        <time>2015-11-29T12:11:00Z</time>
      </trkpt>
      <trkpt lat="43.95853" lon="2.59173">
        <ele>386</ele>
        <time>2015-11-29T12:11:28Z</time>
      </trkpt>
      <trkpt lat="43.95853" lon="2.59173">
        <ele>386</ele>
        <time>2015-11-29T12:11:53Z</time>
      </trkpt>
      <trkpt lat="43.95853" lon="2.59173">
        <ele>386</ele>
        <time>2015-11-29T12:12:22Z</time>
      </trkpt>
      <trkpt lat="43.95853" lon="2.59173">
        <ele>386</ele>
        <time>2015-11-29T12:12:47Z</time>
      </trkpt>
      <trkpt lat="43.95853" lon="2.59173">
        <ele>386</ele>
        <time>2015-11-29T12:13:17Z</time>
      </trkpt>
      <trkpt lat="43.95853" lon="2.59173">
        <ele>386</ele>
        <time>2015-11-29T12:13:44Z</time>
      </trkpt>
      <trkpt lat="43.95853" lon="2.59173">
        <ele>386</ele>
        <time>2015-11-29T12:14:11Z</time>
      </trkpt>
      <trkpt lat="43.95853" lon="2.59173">
        <ele>386</ele>
        <time>2015-11-29T12:14:41Z</time>
      </trkpt>
      <trkpt lat="43.95853" lon="2.59173">
        <ele>386</ele>
        <time>2015-11-29T12:15:09Z</time>
      </trkpt>
      <trkpt lat="43.95853" lon="2.59173">
        <ele>386</ele>
        <time>2015-11-29T12:15:35Z</time>
      </trkpt>
      <trkpt lat="43.95853" lon="2.59173">
        <ele>386</ele>
        <time>2015-11-29T12:16:02Z</time>
      </trkpt>
      <trkpt lat="43.95853" lon="2.59173">
        <ele>386</ele>
        <time>2015-11-29T12:16:30Z</time>
      </trkpt>
      <trkpt lat="43.95853" lon="2.59173">
        <ele>386</ele>
        <time>2015-11-29T12:16:58Z</time>
      </trkpt>
      <trkpt lat="43.95853" lon="2.59173">
        <ele>386</ele>
        <time>2015-11-29T12:17:28Z</time>
      </trkpt>
      <trkpt lat="43.95853" lon="2.59173">
        <ele>386</ele>
        <time>2015-11-29T12:17:57Z</time>
      </trkpt>
      <trkpt lat="43.95853" lon="2.59173">
        <ele>386</ele>
        <time>2015-11-29T12:18:25Z</time>
      </trkpt>
      <trkpt lat="43.95853" lon="2.59173">
        <ele>386</ele>
        <time>2015-11-29T12:18:52Z</time>
      </trkpt>
      <trkpt lat="43.95853" lon="2.59173">
        <ele>386</ele>
        <time>2015-11-29T12:19:21Z</time>
      </trkpt>
      <trkpt lat="43.95853" lon="2.59173">
        <ele>386</ele>
        <time>2015-11-29T12:19:48Z</time>
      </trkpt>
      <trkpt lat="43.95853" lon="2.59173">
        <ele>386</ele>
        <time>2015-11-29T12:20:13Z</time>
      </trkpt>
      <trkpt lat="43.95853" lon="2.59173">
        <ele>386</ele>
        <time>2015-11-29T12:20:37Z</time>
      </trkpt>
      <trkpt lat="43.95853" lon="2.59173">
        <ele>386</ele>
        <time>2015-11-29T12:21:06Z</time>
      </trkpt>
      <trkpt lat="43.95853" lon="2.59173">
        <ele>386</ele>
        <time>2015-11-29T12:21:35Z</time>
      </trkpt>
      <trkpt lat="43.95853" lon="2.59173">
        <ele>386</ele>
        <time>2015-11-29T12:22:04Z</time>
      </trkpt>
      <trkpt lat="43.95853" lon="2.59173">
        <ele>386</ele>
        <time>2015-11-29T12:22:31Z</time>
      </trkpt>
      <trkpt lat="43.95851" lon="2.5916">
        <ele>384</ele>
        <time>2015-11-29T12:22:32Z</time>
      </trkpt>
      <trkpt lat="43.95851" lon="2.59161">
        <ele>383</ele>
        <time>2015-11-29T12:22:59Z</time>
      </trkpt>
      <trkpt lat="43.95851" lon="2.59161">
        <ele>381</ele>
        <time>2015-11-29T12:23:29Z</time>
      </trkpt>
      <trkpt lat="43.95851" lon="2.59161">
        <ele>380</ele>
        <time>2015-11-29T12:23:54Z</time>
      </trkpt>
      <trkpt lat="43.95851" lon="2.59161">
        <ele>379</ele>
        <time>2015-11-29T12:24:22Z</time>
      </trkpt>
      <trkpt lat="43.95851" lon="2.59161">
        <ele>379</ele>
        <time>2015-11-29T12:24:48Z</time>
      </trkpt>
      <trkpt lat="43.95851" lon="2.59161">
        <ele>379</ele>
        <time>2015-11-29T12:25:14Z</time>
      </trkpt>
      <trkpt lat="43.95853" lon="2.59174">
        <ele>379</ele>
        <time>2015-11-29T12:25:36Z</time>
      </trkpt>
      <trkpt lat="43.95852" lon="2.59174">
        <ele>380</ele>
        <time>2015-11-29T12:26:10Z</time>
      </trkpt>
      <trkpt lat="43.95852" lon="2.59174">
        <ele>380</ele>
        <time>2015-11-29T12:26:37Z</time>
      </trkpt>
      <trkpt lat="43.95852" lon="2.59174">
        <ele>381</ele>
        <time>2015-11-29T12:27:07Z</time>
      </trkpt>
      <trkpt lat="43.95852" lon="2.59174">
        <ele>381</ele>
        <time>2015-11-29T12:27:33Z</time>
      </trkpt>
      <trkpt lat="43.95852" lon="2.59174">
        <ele>381</ele>
        <time>2015-11-29T12:28:02Z</time>
      </trkpt>
      <trkpt lat="43.95852" lon="2.59174">
        <ele>381</ele>
        <time>2015-11-29T12:28:29Z</time>
      </trkpt>
      <trkpt lat="43.95852" lon="2.59174">
        <ele>381</ele>
        <time>2015-11-29T12:28:55Z</time>
      </trkpt>
      <trkpt lat="43.95852" lon="2.59174">
        <ele>381</ele>
        <time>2015-11-29T12:29:25Z</time>
      </trkpt>
      <trkpt lat="43.95852" lon="2.59174">
        <ele>381</ele>
        <time>2015-11-29T12:29:52Z</time>
      </trkpt>
      <trkpt lat="43.95852" lon="2.59174">
        <ele>381</ele>
        <time>2015-11-29T12:30:18Z</time>
      </trkpt>
      <trkpt lat="43.95856" lon="2.59162">
        <ele>381</ele>
        <time>2015-11-29T12:30:42Z</time>
      </trkpt>
      <trkpt lat="43.95857" lon="2.5916">
        <ele>381</ele>
        <time>2015-11-29T12:31:12Z</time>
      </trkpt>
      <trkpt lat="43.95857" lon="2.5916">
        <ele>381</ele>
        <time>2015-11-29T12:31:42Z</time>
      </trkpt>
      <trkpt lat="43.95857" lon="2.5916">
        <ele>381</ele>
        <time>2015-11-29T12:32:10Z</time>
      </trkpt>
      <trkpt lat="43.95857" lon="2.5916">
        <ele>381</ele>
        <time>2015-11-29T12:32:39Z</time>
      </trkpt>
      <trkpt lat="43.95857" lon="2.5916">
        <ele>381</ele>
        <time>2015-11-29T12:33:09Z</time>
      </trkpt>
      <trkpt lat="43.95857" lon="2.5916">
        <ele>381</ele>
        <time>2015-11-29T12:33:36Z</time>
      </trkpt>
      <trkpt lat="43.95857" lon="2.5916">
        <ele>381</ele>
        <time>2015-11-29T12:34:03Z</time>
      </trkpt>
      <trkpt lat="43.95857" lon="2.59173">
        <ele>381</ele>
        <time>2015-11-29T12:34:20Z</time>
      </trkpt>
      <trkpt lat="43.95857" lon="2.59173">
        <ele>382</ele>
        <time>2015-11-29T12:34:57Z</time>
      </trkpt>
      <trkpt lat="43.95857" lon="2.59173">
        <ele>382</ele>
        <time>2015-11-29T12:35:27Z</time>
      </trkpt>
      <trkpt lat="43.95857" lon="2.59173">
        <ele>383</ele>
        <time>2015-11-29T12:35:53Z</time>
      </trkpt>
      <trkpt lat="43.9585" lon="2.5918">
        <ele>384</ele>
        <time>2015-11-29T12:35:55Z</time>
      </trkpt>
      <trkpt lat="43.95849" lon="2.59179">
        <ele>384</ele>
        <time>2015-11-29T12:36:21Z</time>
      </trkpt>
      <trkpt lat="43.95855" lon="2.5917">
        <ele>385</ele>
        <time>2015-11-29T12:36:26Z</time>
      </trkpt>
      <trkpt lat="43.95856" lon="2.59171">
        <ele>385</ele>
        <time>2015-11-29T12:36:46Z</time>
      </trkpt>
      <trkpt lat="43.95856" lon="2.59171">
        <ele>385</ele>
        <time>2015-11-29T12:37:14Z</time>
      </trkpt>
      <trkpt lat="43.95856" lon="2.59171">
        <ele>385</ele>
        <time>2015-11-29T12:37:41Z</time>
      </trkpt>
      <trkpt lat="43.95856" lon="2.59171">
        <ele>384</ele>
        <time>2015-11-29T12:38:09Z</time>
      </trkpt>
      <trkpt lat="43.95856" lon="2.59171">
        <ele>385</ele>
        <time>2015-11-29T12:38:33Z</time>
      </trkpt>
      <trkpt lat="43.95856" lon="2.59171">
        <ele>385</ele>
        <time>2015-11-29T12:39:01Z</time>
      </trkpt>
      <trkpt lat="43.95855" lon="2.59183">
        <ele>385</ele>
        <time>2015-11-29T12:39:09Z</time>
      </trkpt>
      <trkpt lat="43.9586" lon="2.59186">
        <ele>385</ele>
        <time>2015-11-29T12:39:20Z</time>
      </trkpt>
      <trkpt lat="43.95852" lon="2.59185">
        <ele>386</ele>
        <time>2015-11-29T12:39:36Z</time>
      </trkpt>
      <trkpt lat="43.9585" lon="2.59192">
        <ele>386</ele>
        <time>2015-11-29T12:39:48Z</time>
      </trkpt>
      <trkpt lat="43.95849" lon="2.59198">
        <ele>386</ele>
        <time>2015-11-29T12:39:52Z</time>
      </trkpt>
      <trkpt lat="43.9585" lon="2.59205">
        <ele>386</ele>
        <time>2015-11-29T12:39:55Z</time>
      </trkpt>
      <trkpt lat="43.95852" lon="2.59214">
        <ele>386</ele>
        <time>2015-11-29T12:40:00Z</time>
      </trkpt>
      <trkpt lat="43.95854" lon="2.59205">
        <ele>386</ele>
        <time>2015-11-29T12:40:09Z</time>
      </trkpt>
      <trkpt lat="43.95853" lon="2.59196">
        <ele>386</ele>
        <time>2015-11-29T12:40:12Z</time>
      </trkpt>
      <trkpt lat="43.95855" lon="2.59191">
        <ele>386</ele>
        <time>2015-11-29T12:40:18Z</time>
      </trkpt>
      <trkpt lat="43.95856" lon="2.59183">
        <ele>386</ele>
        <time>2015-11-29T12:40:23Z</time>
      </trkpt>
      <trkpt lat="43.95857" lon="2.59174">
        <ele>386</ele>
        <time>2015-11-29T12:40:27Z</time>
      </trkpt>
      <trkpt lat="43.95855" lon="2.59169">
        <ele>386</ele>
        <time>2015-11-29T12:40:31Z</time>
      </trkpt>
      <trkpt lat="43.9586" lon="2.59172">
        <ele>386</ele>
        <time>2015-11-29T12:40:39Z</time>
      </trkpt>
      <trkpt lat="43.95865" lon="2.59176">
        <ele>386</ele>
        <time>2015-11-29T12:40:42Z</time>
      </trkpt>
      <trkpt lat="43.9586" lon="2.59188">
        <ele>386</ele>
        <time>2015-11-29T12:41:17Z</time>
      </trkpt>
      <trkpt lat="43.95859" lon="2.59189">
        <ele>386</ele>
        <time>2015-11-29T12:41:44Z</time>
      </trkpt>
      <trkpt lat="43.95866" lon="2.59181">
        <ele>386</ele>
        <time>2015-11-29T12:41:54Z</time>
      </trkpt>
      <trkpt lat="43.95871" lon="2.59182">
        <ele>387</ele>
        <time>2015-11-29T12:41:59Z</time>
      </trkpt>
      <trkpt lat="43.95875" lon="2.59187">
        <ele>387</ele>
        <time>2015-11-29T12:42:06Z</time>
      </trkpt>
      <trkpt lat="43.95879" lon="2.59192">
        <ele>387</ele>
        <time>2015-11-29T12:42:13Z</time>
      </trkpt>
      <trkpt lat="43.95883" lon="2.59198">
        <ele>387</ele>
        <time>2015-11-29T12:42:20Z</time>
      </trkpt>
      <trkpt lat="43.95886" lon="2.59204">
        <ele>386</ele>
        <time>2015-11-29T12:42:31Z</time>
      </trkpt>
      <trkpt lat="43.95887" lon="2.59212">
        <ele>386</ele>
        <time>2015-11-29T12:42:35Z</time>
      </trkpt>
      <trkpt lat="43.95891" lon="2.59216">
        <ele>386</ele>
        <time>2015-11-29T12:42:44Z</time>
      </trkpt>
      <trkpt lat="43.95894" lon="2.59222">
        <ele>386</ele>
        <time>2015-11-29T12:42:49Z</time>
      </trkpt>
      <trkpt lat="43.95894" lon="2.59225">
        <ele>386</ele>
        <time>2015-11-29T12:43:06Z</time>
      </trkpt>
      <trkpt lat="43.95896" lon="2.59229">
        <ele>386</ele>
        <time>2015-11-29T12:43:11Z</time>
      </trkpt>
      <trkpt lat="43.959" lon="2.59234">
        <ele>386</ele>
        <time>2015-11-29T12:43:19Z</time>
      </trkpt>
      <trkpt lat="43.95904" lon="2.59239">
        <ele>385</ele>
        <time>2015-11-29T12:43:28Z</time>
      </trkpt>
      <trkpt lat="43.95905" lon="2.59247">
        <ele>385</ele>
        <time>2015-11-29T12:43:33Z</time>
      </trkpt>
      <trkpt lat="43.95909" lon="2.59253">
        <ele>385</ele>
        <time>2015-11-29T12:43:39Z</time>
      </trkpt>
      <trkpt lat="43.95913" lon="2.59258">
        <ele>385</ele>
        <time>2015-11-29T12:43:46Z</time>
      </trkpt>
      <trkpt lat="43.95915" lon="2.59265">
        <ele>385</ele>
        <time>2015-11-29T12:43:52Z</time>
      </trkpt>
      <trkpt lat="43.95921" lon="2.59269">
        <ele>384</ele>
        <time>2015-11-29T12:44:00Z</time>
      </trkpt>
      <trkpt lat="43.95925" lon="2.59273">
        <ele>384</ele>
        <time>2015-11-29T12:44:05Z</time>
      </trkpt>
      <trkpt lat="43.9593" lon="2.59274">
        <ele>384</ele>
        <time>2015-11-29T12:44:09Z</time>
      </trkpt>
      <trkpt lat="43.95934" lon="2.59279">
        <ele>384</ele>
        <time>2015-11-29T12:44:15Z</time>
      </trkpt>
      <trkpt lat="43.95938" lon="2.59284">
        <ele>383</ele>
        <time>2015-11-29T12:44:20Z</time>
      </trkpt>
      <trkpt lat="43.95943" lon="2.59287">
        <ele>383</ele>
        <time>2015-11-29T12:44:26Z</time>
      </trkpt>
      <trkpt lat="43.95945" lon="2.59292">
        <ele>383</ele>
        <time>2015-11-29T12:44:33Z</time>
      </trkpt>
      <trkpt lat="43.95954" lon="2.59292">
        <ele>383</ele>
        <time>2015-11-29T12:44:46Z</time>
      </trkpt>
      <trkpt lat="43.95958" lon="2.59295">
        <ele>383</ele>
        <time>2015-11-29T12:44:54Z</time>
      </trkpt>
      <trkpt lat="43.95967" lon="2.593">
        <ele>383</ele>
        <time>2015-11-29T12:45:09Z</time>
      </trkpt>
      <trkpt lat="43.95968" lon="2.593">
        <ele>383</ele>
        <time>2015-11-29T12:45:26Z</time>
      </trkpt>
      <trkpt lat="43.95977" lon="2.59302">
        <ele>383</ele>
        <time>2015-11-29T12:45:28Z</time>
      </trkpt>
      <trkpt lat="43.95989" lon="2.59297">
        <ele>383</ele>
        <time>2015-11-29T12:45:41Z</time>
      </trkpt>
      <trkpt lat="43.96001" lon="2.593">
        <ele>384</ele>
        <time>2015-11-29T12:45:56Z</time>
      </trkpt>
      <trkpt lat="43.96011" lon="2.59298">
        <ele>384</ele>
        <time>2015-11-29T12:46:03Z</time>
      </trkpt>
      <trkpt lat="43.96016" lon="2.59301">
        <ele>384</ele>
        <time>2015-11-29T12:46:09Z</time>
      </trkpt>
      <trkpt lat="43.96019" lon="2.59307">
        <ele>384</ele>
        <time>2015-11-29T12:46:15Z</time>
      </trkpt>
      <trkpt lat="43.96024" lon="2.59312">
        <ele>384</ele>
        <time>2015-11-29T12:46:20Z</time>
      </trkpt>
      <trkpt lat="43.96029" lon="2.59315">
        <ele>383</ele>
        <time>2015-11-29T12:46:26Z</time>
      </trkpt>
      <trkpt lat="43.96032" lon="2.59319">
        <ele>383</ele>
        <time>2015-11-29T12:46:30Z</time>
      </trkpt>
      <trkpt lat="43.96038" lon="2.59322">
        <ele>383</ele>
        <time>2015-11-29T12:46:33Z</time>
      </trkpt>
      <trkpt lat="43.96042" lon="2.59327">
        <ele>383</ele>
        <time>2015-11-29T12:46:39Z</time>
      </trkpt>
      <trkpt lat="43.96046" lon="2.59331">
        <ele>383</ele>
        <time>2015-11-29T12:46:43Z</time>
      </trkpt>
      <trkpt lat="43.96051" lon="2.59331">
        <ele>383</ele>
        <time>2015-11-29T12:46:46Z</time>
      </trkpt>
      <trkpt lat="43.96056" lon="2.59331">
        <ele>383</ele>
        <time>2015-11-29T12:46:52Z</time>
      </trkpt>
      <trkpt lat="43.96061" lon="2.59331">
        <ele>383</ele>
        <time>2015-11-29T12:47:00Z</time>
      </trkpt>
      <trkpt lat="43.96072" lon="2.5934">
        <ele>383</ele>
        <time>2015-11-29T12:47:18Z</time>
      </trkpt>
      <trkpt lat="43.96088" lon="2.59345">
        <ele>383</ele>
        <time>2015-11-29T12:47:31Z</time>
      </trkpt>
      <trkpt lat="43.96092" lon="2.59343">
        <ele>383</ele>
        <time>2015-11-29T12:47:33Z</time>
      </trkpt>
      <trkpt lat="43.96098" lon="2.59343">
        <ele>383</ele>
        <time>2015-11-29T12:47:36Z</time>
      </trkpt>
      <trkpt lat="43.96103" lon="2.59346">
        <ele>384</ele>
        <time>2015-11-29T12:47:41Z</time>
      </trkpt>
      <trkpt lat="43.96107" lon="2.59346">
        <ele>384</ele>
        <time>2015-11-29T12:47:44Z</time>
      </trkpt>
      <trkpt lat="43.9612" lon="2.59346">
        <ele>384</ele>
        <time>2015-11-29T12:47:59Z</time>
      </trkpt>
      <trkpt lat="43.96125" lon="2.59344">
        <ele>384</ele>
        <time>2015-11-29T12:48:05Z</time>
      </trkpt>
      <trkpt lat="43.96134" lon="2.59346">
        <ele>384</ele>
        <time>2015-11-29T12:48:15Z</time>
      </trkpt>
      <trkpt lat="43.96149" lon="2.59348">
        <ele>383</ele>
        <time>2015-11-29T12:48:29Z</time>
      </trkpt>
      <trkpt lat="43.96153" lon="2.59349">
        <ele>382</ele>
        <time>2015-11-29T12:48:33Z</time>
      </trkpt>
      <trkpt lat="43.96158" lon="2.59352">
        <ele>381</ele>
        <time>2015-11-29T12:48:39Z</time>
      </trkpt>
      <trkpt lat="43.96162" lon="2.59355">
        <ele>380</ele>
        <time>2015-11-29T12:48:45Z</time>
      </trkpt>
      <trkpt lat="43.96167" lon="2.59355">
        <ele>380</ele>
        <time>2015-11-29T12:48:49Z</time>
      </trkpt>
      <trkpt lat="43.96172" lon="2.59359">
        <ele>380</ele>
        <time>2015-11-29T12:48:55Z</time>
      </trkpt>
      <trkpt lat="43.96176" lon="2.59363">
        <ele>379</ele>
        <time>2015-11-29T12:49:01Z</time>
      </trkpt>
      <trkpt lat="43.96178" lon="2.59369">
        <ele>379</ele>
        <time>2015-11-29T12:49:08Z</time>
      </trkpt>
      <trkpt lat="43.96182" lon="2.59374">
        <ele>378</ele>
        <time>2015-11-29T12:49:15Z</time>
      </trkpt>
      <trkpt lat="43.96186" lon="2.59378">
        <ele>378</ele>
        <time>2015-11-29T12:49:21Z</time>
      </trkpt>
      <trkpt lat="43.96189" lon="2.59385">
        <ele>377</ele>
        <time>2015-11-29T12:49:28Z</time>
      </trkpt>
      <trkpt lat="43.96192" lon="2.59397">
        <ele>377</ele>
        <time>2015-11-29T12:49:40Z</time>
      </trkpt>
      <trkpt lat="43.962" lon="2.59405">
        <ele>377</ele>
        <time>2015-11-29T12:49:51Z</time>
      </trkpt>
      <trkpt lat="43.96204" lon="2.59409">
        <ele>377</ele>
        <time>2015-11-29T12:49:57Z</time>
      </trkpt>
      <trkpt lat="43.96209" lon="2.59411">
        <ele>377</ele>
        <time>2015-11-29T12:50:01Z</time>
      </trkpt>
      <trkpt lat="43.96214" lon="2.59413">
        <ele>377</ele>
        <time>2015-11-29T12:50:04Z</time>
      </trkpt>
      <trkpt lat="43.96217" lon="2.59417">
        <ele>377</ele>
        <time>2015-11-29T12:50:08Z</time>
      </trkpt>
      <trkpt lat="43.96222" lon="2.59419">
        <ele>377</ele>
        <time>2015-11-29T12:50:12Z</time>
      </trkpt>
      <trkpt lat="43.96228" lon="2.59422">
        <ele>378</ele>
        <time>2015-11-29T12:50:17Z</time>
      </trkpt>
      <trkpt lat="43.96233" lon="2.59421">
        <ele>378</ele>
        <time>2015-11-29T12:50:22Z</time>
      </trkpt>
      <trkpt lat="43.96238" lon="2.59419">
        <ele>378</ele>
        <time>2015-11-29T12:50:26Z</time>
      </trkpt>
      <trkpt lat="43.96243" lon="2.59417">
        <ele>378</ele>
        <time>2015-11-29T12:50:30Z</time>
      </trkpt>
      <trkpt lat="43.96248" lon="2.59415">
        <ele>377</ele>
        <time>2015-11-29T12:50:39Z</time>
      </trkpt>
      <trkpt lat="43.96253" lon="2.59416">
        <ele>377</ele>
        <time>2015-11-29T12:50:49Z</time>
      </trkpt>
      <trkpt lat="43.96259" lon="2.59419">
        <ele>376</ele>
        <time>2015-11-29T12:50:57Z</time>
      </trkpt>
      <trkpt lat="43.96261" lon="2.59425">
        <ele>375</ele>
        <time>2015-11-29T12:51:00Z</time>
      </trkpt>
      <trkpt lat="43.96273" lon="2.5943">
        <ele>375</ele>
        <time>2015-11-29T12:51:17Z</time>
      </trkpt>
      <trkpt lat="43.96278" lon="2.59429">
        <ele>375</ele>
        <time>2015-11-29T12:51:20Z</time>
      </trkpt>
      <trkpt lat="43.96282" lon="2.59425">
        <ele>374</ele>
        <time>2015-11-29T12:51:26Z</time>
      </trkpt>
      <trkpt lat="43.96287" lon="2.59426">
        <ele>374</ele>
        <time>2015-11-29T12:51:28Z</time>
      </trkpt>
      <trkpt lat="43.96293" lon="2.59429">
        <ele>374</ele>
        <time>2015-11-29T12:51:36Z</time>
      </trkpt>
      <trkpt lat="43.963" lon="2.59434">
        <ele>374</ele>
        <time>2015-11-29T12:51:42Z</time>
      </trkpt>
      <trkpt lat="43.96304" lon="2.59434">
        <ele>374</ele>
        <time>2015-11-29T12:51:46Z</time>
      </trkpt>
      <trkpt lat="43.96304" lon="2.59475">
        <ele>375</ele>
        <time>2015-11-29T12:51:57Z</time>
      </trkpt>
      <trkpt lat="43.96316" lon="2.59483">
        <ele>377</ele>
        <time>2015-11-29T12:52:11Z</time>
      </trkpt>
      <trkpt lat="43.96325" lon="2.59477">
        <ele>380</ele>
        <time>2015-11-29T12:52:42Z</time>
      </trkpt>
      <trkpt lat="43.96325" lon="2.59475">
        <ele>383</ele>
        <time>2015-11-29T12:53:06Z</time>
      </trkpt>
      <trkpt lat="43.96334" lon="2.59479">
        <ele>386</ele>
        <time>2015-11-29T12:53:27Z</time>
      </trkpt>
      <trkpt lat="43.96346" lon="2.59481">
        <ele>388</ele>
        <time>2015-11-29T12:53:40Z</time>
      </trkpt>
      <trkpt lat="43.96353" lon="2.59476">
        <ele>390</ele>
        <time>2015-11-29T12:53:41Z</time>
      </trkpt>
      <trkpt lat="43.96357" lon="2.59473">
        <ele>390</ele>
        <time>2015-11-29T12:53:44Z</time>
      </trkpt>
      <trkpt lat="43.96362" lon="2.59485">
        <ele>391</ele>
        <time>2015-11-29T12:53:56Z</time>
      </trkpt>
      <trkpt lat="43.96369" lon="2.59495">
        <ele>391</ele>
        <time>2015-11-29T12:54:19Z</time>
      </trkpt>
      <trkpt lat="43.96379" lon="2.59488">
        <ele>392</ele>
        <time>2015-11-29T12:54:33Z</time>
      </trkpt>
      <trkpt lat="43.96394" lon="2.59487">
        <ele>393</ele>
        <time>2015-11-29T12:54:43Z</time>
      </trkpt>
      <trkpt lat="43.96399" lon="2.59491">
        <ele>393</ele>
        <time>2015-11-29T12:54:49Z</time>
      </trkpt>
      <trkpt lat="43.96405" lon="2.5949">
        <ele>393</ele>
        <time>2015-11-29T12:54:53Z</time>
      </trkpt>
      <trkpt lat="43.9641" lon="2.59489">
        <ele>394</ele>
        <time>2015-11-29T12:54:57Z</time>
      </trkpt>
      <trkpt lat="43.96423" lon="2.59492">
        <ele>394</ele>
        <time>2015-11-29T12:55:13Z</time>
      </trkpt>
      <trkpt lat="43.96423" lon="2.59501">
        <ele>394</ele>
        <time>2015-11-29T12:55:17Z</time>
      </trkpt>
      <trkpt lat="43.96429" lon="2.59493">
        <ele>395</ele>
        <time>2015-11-29T12:55:43Z</time>
      </trkpt>
      <trkpt lat="43.96426" lon="2.59485">
        <ele>395</ele>
        <time>2015-11-29T12:55:50Z</time>
      </trkpt>
      <trkpt lat="43.96428" lon="2.59478">
        <ele>396</ele>
        <time>2015-11-29T12:55:59Z</time>
      </trkpt>
      <trkpt lat="43.96429" lon="2.59469">
        <ele>397</ele>
        <time>2015-11-29T12:56:07Z</time>
      </trkpt>
      <trkpt lat="43.9643" lon="2.59462">
        <ele>398</ele>
        <time>2015-11-29T12:56:14Z</time>
      </trkpt>
      <trkpt lat="43.96431" lon="2.59455">
        <ele>398</ele>
        <time>2015-11-29T12:56:21Z</time>
      </trkpt>
      <trkpt lat="43.96434" lon="2.59448">
        <ele>398</ele>
        <time>2015-11-29T12:56:28Z</time>
      </trkpt>
      <trkpt lat="43.96435" lon="2.59441">
        <ele>398</ele>
        <time>2015-11-29T12:56:32Z</time>
      </trkpt>
      <trkpt lat="43.96438" lon="2.59435">
        <ele>398</ele>
        <time>2015-11-29T12:56:38Z</time>
      </trkpt>
      <trkpt lat="43.96441" lon="2.59429">
        <ele>399</ele>
        <time>2015-11-29T12:56:48Z</time>
      </trkpt>
      <trkpt lat="43.96443" lon="2.59423">
        <ele>399</ele>
        <time>2015-11-29T12:56:51Z</time>
      </trkpt>
      <trkpt lat="43.96444" lon="2.59417">
        <ele>399</ele>
        <time>2015-11-29T12:56:58Z</time>
      </trkpt>
      <trkpt lat="43.96448" lon="2.59402">
        <ele>399</ele>
        <time>2015-11-29T12:57:09Z</time>
      </trkpt>
      <trkpt lat="43.96452" lon="2.59397">
        <ele>399</ele>
        <time>2015-11-29T12:57:12Z</time>
      </trkpt>
      <trkpt lat="43.96456" lon="2.59393">
        <ele>399</ele>
        <time>2015-11-29T12:57:18Z</time>
      </trkpt>
      <trkpt lat="43.96462" lon="2.59389">
        <ele>400</ele>
        <time>2015-11-29T12:57:24Z</time>
      </trkpt>
      <trkpt lat="43.96463" lon="2.59382">
        <ele>400</ele>
        <time>2015-11-29T12:57:32Z</time>
      </trkpt>
      <trkpt lat="43.96467" lon="2.59374">
        <ele>400</ele>
        <time>2015-11-29T12:57:42Z</time>
      </trkpt>
      <trkpt lat="43.96472" lon="2.59372">
        <ele>400</ele>
        <time>2015-11-29T12:57:45Z</time>
      </trkpt>
      <trkpt lat="43.96475" lon="2.59368">
        <ele>400</ele>
        <time>2015-11-29T12:57:51Z</time>
      </trkpt>
      <trkpt lat="43.96478" lon="2.59357">
        <ele>400</ele>
        <time>2015-11-29T12:57:56Z</time>
      </trkpt>
      <trkpt lat="43.96479" lon="2.59351">
        <ele>400</ele>
        <time>2015-11-29T12:57:59Z</time>
      </trkpt>
      <trkpt lat="43.96483" lon="2.59347">
        <ele>400</ele>
        <time>2015-11-29T12:58:03Z</time>
      </trkpt>
      <trkpt lat="43.96484" lon="2.5934">
        <ele>401</ele>
        <time>2015-11-29T12:58:09Z</time>
      </trkpt>
      <trkpt lat="43.96489" lon="2.59337">
        <ele>401</ele>
        <time>2015-11-29T12:58:13Z</time>
      </trkpt>
      <trkpt lat="43.96491" lon="2.59332">
        <ele>401</ele>
        <time>2015-11-29T12:58:18Z</time>
      </trkpt>
      <trkpt lat="43.9649" lon="2.59325">
        <ele>401</ele>
        <time>2015-11-29T12:58:22Z</time>
      </trkpt>
      <trkpt lat="43.96486" lon="2.5932">
        <ele>401</ele>
        <time>2015-11-29T12:58:25Z</time>
      </trkpt>
      <trkpt lat="43.96477" lon="2.59315">
        <ele>401</ele>
        <time>2015-11-29T12:58:30Z</time>
      </trkpt>
      <trkpt lat="43.96472" lon="2.59313">
        <ele>402</ele>
        <time>2015-11-29T12:58:33Z</time>
      </trkpt>
      <trkpt lat="43.96468" lon="2.59315">
        <ele>403</ele>
        <time>2015-11-29T12:58:45Z</time>
      </trkpt>
      <trkpt lat="43.96465" lon="2.59322">
        <ele>404</ele>
        <time>2015-11-29T12:58:53Z</time>
      </trkpt>
      <trkpt lat="43.96463" lon="2.59333">
        <ele>405</ele>
        <time>2015-11-29T12:58:59Z</time>
      </trkpt>
      <trkpt lat="43.96459" lon="2.59338">
        <ele>406</ele>
        <time>2015-11-29T12:59:05Z</time>
      </trkpt>
      <trkpt lat="43.96456" lon="2.59343">
        <ele>407</ele>
        <time>2015-11-29T12:59:09Z</time>
      </trkpt>
      <trkpt lat="43.96462" lon="2.59339">
        <ele>408</ele>
        <time>2015-11-29T12:59:31Z</time>
      </trkpt>
      <trkpt lat="43.96466" lon="2.59334">
        <ele>409</ele>
        <time>2015-11-29T12:59:36Z</time>
      </trkpt>
      <trkpt lat="43.96466" lon="2.59327">
        <ele>409</ele>
        <time>2015-11-29T12:59:42Z</time>
      </trkpt>
      <trkpt lat="43.96462" lon="2.59327">
        <ele>410</ele>
        <time>2015-11-29T12:59:44Z</time>
      </trkpt>
      <trkpt lat="43.96451" lon="2.5932">
        <ele>411</ele>
        <time>2015-11-29T12:59:50Z</time>
      </trkpt>
      <trkpt lat="43.96446" lon="2.59321">
        <ele>411</ele>
        <time>2015-11-29T12:59:57Z</time>
      </trkpt>
      <trkpt lat="43.96439" lon="2.59323">
        <ele>412</ele>
        <time>2015-11-29T13:00:05Z</time>
      </trkpt>
      <trkpt lat="43.96435" lon="2.59324">
        <ele>413</ele>
        <time>2015-11-29T13:00:10Z</time>
      </trkpt>
      <trkpt lat="43.96431" lon="2.59325">
        <ele>414</ele>
        <time>2015-11-29T13:00:15Z</time>
      </trkpt>
      <trkpt lat="43.96425" lon="2.59325">
        <ele>414</ele>
        <time>2015-11-29T13:00:21Z</time>
      </trkpt>
      <trkpt lat="43.9642" lon="2.59324">
        <ele>415</ele>
        <time>2015-11-29T13:00:26Z</time>
      </trkpt>
      <trkpt lat="43.96416" lon="2.59324">
        <ele>415</ele>
        <time>2015-11-29T13:00:29Z</time>
      </trkpt>
      <trkpt lat="43.96411" lon="2.5933">
        <ele>416</ele>
        <time>2015-11-29T13:00:37Z</time>
      </trkpt>
      <trkpt lat="43.96407" lon="2.59331">
        <ele>416</ele>
        <time>2015-11-29T13:00:42Z</time>
      </trkpt>
      <trkpt lat="43.96401" lon="2.59334">
        <ele>417</ele>
        <time>2015-11-29T13:00:47Z</time>
      </trkpt>
      <trkpt lat="43.96396" lon="2.59338">
        <ele>418</ele>
        <time>2015-11-29T13:00:52Z</time>
      </trkpt>
      <trkpt lat="43.96391" lon="2.59342">
        <ele>418</ele>
        <time>2015-11-29T13:00:58Z</time>
      </trkpt>
      <trkpt lat="43.96386" lon="2.59346">
        <ele>419</ele>
        <time>2015-11-29T13:01:06Z</time>
      </trkpt>
      <trkpt lat="43.96381" lon="2.59349">
        <ele>420</ele>
        <time>2015-11-29T13:01:12Z</time>
      </trkpt>
      <trkpt lat="43.96377" lon="2.59352">
        <ele>421</ele>
        <time>2015-11-29T13:01:21Z</time>
      </trkpt>
      <trkpt lat="43.96372" lon="2.59352">
        <ele>422</ele>
        <time>2015-11-29T13:01:26Z</time>
      </trkpt>
      <trkpt lat="43.96368" lon="2.59355">
        <ele>422</ele>
        <time>2015-11-29T13:01:31Z</time>
      </trkpt>
      <trkpt lat="43.96363" lon="2.59359">
        <ele>423</ele>
        <time>2015-11-29T13:01:35Z</time>
      </trkpt>
      <trkpt lat="43.96356" lon="2.59355">
        <ele>424</ele>
        <time>2015-11-29T13:01:55Z</time>
      </trkpt>
      <trkpt lat="43.96352" lon="2.59352">
        <ele>424</ele>
        <time>2015-11-29T13:02:02Z</time>
      </trkpt>
      <trkpt lat="43.96347" lon="2.59349">
        <ele>425</ele>
        <time>2015-11-29T13:02:10Z</time>
      </trkpt>
      <trkpt lat="43.96345" lon="2.59348">
        <ele>425</ele>
        <time>2015-11-29T13:02:25Z</time>
      </trkpt>
      <trkpt lat="43.96337" lon="2.5934">
        <ele>425</ele>
        <time>2015-11-29T13:02:33Z</time>
      </trkpt>
      <trkpt lat="43.96332" lon="2.59341">
        <ele>425</ele>
        <time>2015-11-29T13:02:38Z</time>
      </trkpt>
      <trkpt lat="43.96328" lon="2.59342">
        <ele>425</ele>
        <time>2015-11-29T13:02:43Z</time>
      </trkpt>
      <trkpt lat="43.96322" lon="2.59344">
        <ele>425</ele>
        <time>2015-11-29T13:02:50Z</time>
      </trkpt>
      <trkpt lat="43.96315" lon="2.59344">
        <ele>425</ele>
        <time>2015-11-29T13:03:03Z</time>
      </trkpt>
      <trkpt lat="43.96309" lon="2.59345">
        <ele>425</ele>
        <time>2015-11-29T13:03:09Z</time>
      </trkpt>
      <trkpt lat="43.96303" lon="2.59344">
        <ele>425</ele>
        <time>2015-11-29T13:03:12Z</time>
      </trkpt>
      <trkpt lat="43.96297" lon="2.59343">
        <ele>425</ele>
        <time>2015-11-29T13:03:16Z</time>
      </trkpt>
      <trkpt lat="43.9629" lon="2.59342">
        <ele>426</ele>
        <time>2015-11-29T13:03:21Z</time>
      </trkpt>
      <trkpt lat="43.96284" lon="2.59339">
        <ele>426</ele>
        <time>2015-11-29T13:03:26Z</time>
      </trkpt>
      <trkpt lat="43.96278" lon="2.59339">
        <ele>426</ele>
        <time>2015-11-29T13:03:31Z</time>
      </trkpt>
      <trkpt lat="43.96273" lon="2.59338">
        <ele>427</ele>
        <time>2015-11-29T13:03:35Z</time>
      </trkpt>
      <trkpt lat="43.96269" lon="2.59334">
        <ele>427</ele>
        <time>2015-11-29T13:03:44Z</time>
      </trkpt>
      <trkpt lat="43.96264" lon="2.59331">
        <ele>428</ele>
        <time>2015-11-29T13:03:53Z</time>
      </trkpt>
      <trkpt lat="43.96262" lon="2.59325">
        <ele>428</ele>
        <time>2015-11-29T13:04:00Z</time>
      </trkpt>
      <trkpt lat="43.9626" lon="2.59318">
        <ele>428</ele>
        <time>2015-11-29T13:04:06Z</time>
      </trkpt>
      <trkpt lat="43.9626" lon="2.59311">
        <ele>428</ele>
        <time>2015-11-29T13:04:14Z</time>
      </trkpt>
      <trkpt lat="43.96258" lon="2.59304">
        <ele>428</ele>
        <time>2015-11-29T13:04:21Z</time>
      </trkpt>
      <trkpt lat="43.96254" lon="2.59298">
        <ele>428</ele>
        <time>2015-11-29T13:04:28Z</time>
      </trkpt>
      <trkpt lat="43.96252" lon="2.59292">
        <ele>428</ele>
        <time>2015-11-29T13:04:32Z</time>
      </trkpt>
      <trkpt lat="43.96249" lon="2.59283">
        <ele>428</ele>
        <time>2015-11-29T13:04:37Z</time>
      </trkpt>
      <trkpt lat="43.96249" lon="2.59273">
        <ele>428</ele>
        <time>2015-11-29T13:04:40Z</time>
      </trkpt>
      <trkpt lat="43.96247" lon="2.59266">
        <ele>428</ele>
        <time>2015-11-29T13:04:45Z</time>
      </trkpt>
      <trkpt lat="43.96244" lon="2.5926">
        <ele>428</ele>
        <time>2015-11-29T13:04:50Z</time>
      </trkpt>
      <trkpt lat="43.96239" lon="2.59257">
        <ele>428</ele>
        <time>2015-11-29T13:04:56Z</time>
      </trkpt>
      <trkpt lat="43.96235" lon="2.5925">
        <ele>429</ele>
        <time>2015-11-29T13:05:04Z</time>
      </trkpt>
      <trkpt lat="43.9623" lon="2.59245">
        <ele>429</ele>
        <time>2015-11-29T13:05:11Z</time>
      </trkpt>
      <trkpt lat="43.96227" lon="2.59239">
        <ele>429</ele>
        <time>2015-11-29T13:05:15Z</time>
      </trkpt>
      <trkpt lat="43.96223" lon="2.59232">
        <ele>429</ele>
        <time>2015-11-29T13:05:22Z</time>
      </trkpt>
      <trkpt lat="43.96219" lon="2.59226">
        <ele>429</ele>
        <time>2015-11-29T13:05:28Z</time>
      </trkpt>
      <trkpt lat="43.96215" lon="2.59225">
        <ele>429</ele>
        <time>2015-11-29T13:05:30Z</time>
      </trkpt>
      <trkpt lat="43.9621" lon="2.59221">
        <ele>430</ele>
        <time>2015-11-29T13:05:38Z</time>
      </trkpt>
      <trkpt lat="43.96204" lon="2.5922">
        <ele>430</ele>
        <time>2015-11-29T13:05:43Z</time>
      </trkpt>
      <trkpt lat="43.96199" lon="2.59221">
        <ele>430</ele>
        <time>2015-11-29T13:05:48Z</time>
      </trkpt>
      <trkpt lat="43.96195" lon="2.59219">
        <ele>431</ele>
        <time>2015-11-29T13:05:55Z</time>
      </trkpt>
      <trkpt lat="43.96188" lon="2.59218">
        <ele>431</ele>
        <time>2015-11-29T13:05:59Z</time>
      </trkpt>
      <trkpt lat="43.96182" lon="2.59216">
        <ele>432</ele>
        <time>2015-11-29T13:06:05Z</time>
      </trkpt>
      <trkpt lat="43.96178" lon="2.59209">
        <ele>432</ele>
        <time>2015-11-29T13:06:12Z</time>
      </trkpt>
      <trkpt lat="43.96175" lon="2.59202">
        <ele>432</ele>
        <time>2015-11-29T13:06:18Z</time>
      </trkpt>
      <trkpt lat="43.96175" lon="2.59194">
        <ele>433</ele>
        <time>2015-11-29T13:06:24Z</time>
      </trkpt>
      <trkpt lat="43.96175" lon="2.59188">
        <ele>433</ele>
        <time>2015-11-29T13:06:30Z</time>
      </trkpt>
      <trkpt lat="43.96172" lon="2.59182">
        <ele>433</ele>
        <time>2015-11-29T13:06:36Z</time>
      </trkpt>
      <trkpt lat="43.96173" lon="2.59175">
        <ele>433</ele>
        <time>2015-11-29T13:06:42Z</time>
      </trkpt>
      <trkpt lat="43.96173" lon="2.59167">
        <ele>433</ele>
        <time>2015-11-29T13:06:48Z</time>
      </trkpt>
      <trkpt lat="43.96171" lon="2.5916">
        <ele>433</ele>
        <time>2015-11-29T13:06:52Z</time>
      </trkpt>
      <trkpt lat="43.96167" lon="2.59154">
        <ele>433</ele>
        <time>2015-11-29T13:06:56Z</time>
      </trkpt>
      <trkpt lat="43.96159" lon="2.59147">
        <ele>434</ele>
        <time>2015-11-29T13:06:59Z</time>
      </trkpt>
      <trkpt lat="43.96155" lon="2.5914">
        <ele>435</ele>
        <time>2015-11-29T13:07:04Z</time>
      </trkpt>
      <trkpt lat="43.96155" lon="2.59132">
        <ele>435</ele>
        <time>2015-11-29T13:07:10Z</time>
      </trkpt>
      <trkpt lat="43.96154" lon="2.59124">
        <ele>436</ele>
        <time>2015-11-29T13:07:16Z</time>
      </trkpt>
      <trkpt lat="43.96154" lon="2.59115">
        <ele>437</ele>
        <time>2015-11-29T13:07:24Z</time>
      </trkpt>
      <trkpt lat="43.96156" lon="2.59108">
        <ele>438</ele>
        <time>2015-11-29T13:07:31Z</time>
      </trkpt>
      <trkpt lat="43.96158" lon="2.59101">
        <ele>439</ele>
        <time>2015-11-29T13:07:37Z</time>
      </trkpt>
      <trkpt lat="43.96157" lon="2.59093">
        <ele>440</ele>
        <time>2015-11-29T13:07:43Z</time>
      </trkpt>
      <trkpt lat="43.96159" lon="2.59086">
        <ele>440</ele>
        <time>2015-11-29T13:07:50Z</time>
      </trkpt>
      <trkpt lat="43.96159" lon="2.59079">
        <ele>441</ele>
        <time>2015-11-29T13:07:58Z</time>
      </trkpt>
      <trkpt lat="43.96159" lon="2.59073">
        <ele>442</ele>
        <time>2015-11-29T13:08:03Z</time>
      </trkpt>
      <trkpt lat="43.9616" lon="2.59065">
        <ele>442</ele>
        <time>2015-11-29T13:08:10Z</time>
      </trkpt>
      <trkpt lat="43.9616" lon="2.59054">
        <ele>443</ele>
        <time>2015-11-29T13:08:18Z</time>
      </trkpt>
      <trkpt lat="43.96161" lon="2.59047">
        <ele>444</ele>
        <time>2015-11-29T13:08:25Z</time>
      </trkpt>
      <trkpt lat="43.9616" lon="2.59031">
        <ele>444</ele>
        <time>2015-11-29T13:08:31Z</time>
      </trkpt>
      <trkpt lat="43.96164" lon="2.59017">
        <ele>445</ele>
        <time>2015-11-29T13:08:46Z</time>
      </trkpt>
      <trkpt lat="43.96164" lon="2.59017">
        <ele>446</ele>
        <time>2015-11-29T13:09:25Z</time>
      </trkpt>
      <trkpt lat="43.96164" lon="2.59017">
        <ele>446</ele>
        <time>2015-11-29T13:09:52Z</time>
      </trkpt>
      <trkpt lat="43.96164" lon="2.59031">
        <ele>449</ele>
        <time>2015-11-29T13:10:16Z</time>
      </trkpt>
      <trkpt lat="43.96166" lon="2.59023">
        <ele>451</ele>
        <time>2015-11-29T13:10:27Z</time>
      </trkpt>
      <trkpt lat="43.96166" lon="2.59017">
        <ele>453</ele>
        <time>2015-11-29T13:10:32Z</time>
      </trkpt>
      <trkpt lat="43.96164" lon="2.59008">
        <ele>455</ele>
        <time>2015-11-29T13:10:39Z</time>
      </trkpt>
      <trkpt lat="43.96163" lon="2.59001">
        <ele>457</ele>
        <time>2015-11-29T13:10:43Z</time>
      </trkpt>
      <trkpt lat="43.9616" lon="2.58994">
        <ele>457</ele>
        <time>2015-11-29T13:10:50Z</time>
      </trkpt>
      <trkpt lat="43.96159" lon="2.58993">
        <ele>457</ele>
        <time>2015-11-29T13:11:14Z</time>
      </trkpt>
      <trkpt lat="43.96161" lon="2.5898">
        <ele>458</ele>
        <time>2015-11-29T13:11:29Z</time>
      </trkpt>
      <trkpt lat="43.96157" lon="2.58991">
        <ele>459</ele>
        <time>2015-11-29T13:12:01Z</time>
      </trkpt>
      <trkpt lat="43.96156" lon="2.58993">
        <ele>460</ele>
        <time>2015-11-29T13:12:40Z</time>
      </trkpt>
      <trkpt lat="43.96156" lon="2.58993">
        <ele>461</ele>
        <time>2015-11-29T13:13:09Z</time>
      </trkpt>
      <trkpt lat="43.96149" lon="2.58999">
        <ele>462</ele>
        <time>2015-11-29T13:13:24Z</time>
      </trkpt>
      <trkpt lat="43.96149" lon="2.58988">
        <ele>463</ele>
        <time>2015-11-29T13:13:48Z</time>
      </trkpt>
      <trkpt lat="43.9615" lon="2.58986">
        <ele>463</ele>
        <time>2015-11-29T13:14:08Z</time>
      </trkpt>
      <trkpt lat="43.9615" lon="2.58986">
        <ele>463</ele>
        <time>2015-11-29T13:14:34Z</time>
      </trkpt>
      <trkpt lat="43.96146" lon="2.58993">
        <ele>464</ele>
        <time>2015-11-29T13:14:56Z</time>
      </trkpt>
      <trkpt lat="43.96141" lon="2.58997">
        <ele>464</ele>
        <time>2015-11-29T13:15:04Z</time>
      </trkpt>
      <trkpt lat="43.96134" lon="2.59004">
        <ele>465</ele>
        <time>2015-11-29T13:15:27Z</time>
      </trkpt>
      <trkpt lat="43.9613" lon="2.59008">
        <ele>466</ele>
        <time>2015-11-29T13:15:34Z</time>
      </trkpt>
      <trkpt lat="43.96127" lon="2.59014">
        <ele>467</ele>
        <time>2015-11-29T13:15:40Z</time>
      </trkpt>
      <trkpt lat="43.96124" lon="2.59019">
        <ele>467</ele>
        <time>2015-11-29T13:15:44Z</time>
      </trkpt>
      <trkpt lat="43.96119" lon="2.59022">
        <ele>468</ele>
        <time>2015-11-29T13:15:51Z</time>
      </trkpt>
      <trkpt lat="43.96114" lon="2.59025">
        <ele>467</ele>
        <time>2015-11-29T13:15:56Z</time>
      </trkpt>
      <trkpt lat="43.96109" lon="2.59025">
        <ele>467</ele>
        <time>2015-11-29T13:16:02Z</time>
      </trkpt>
      <trkpt lat="43.96105" lon="2.59023">
        <ele>467</ele>
        <time>2015-11-29T13:16:07Z</time>
      </trkpt>
      <trkpt lat="43.96101" lon="2.59019">
        <ele>467</ele>
        <time>2015-11-29T13:16:12Z</time>
      </trkpt>
      <trkpt lat="43.96096" lon="2.59016">
        <ele>467</ele>
        <time>2015-11-29T13:16:19Z</time>
      </trkpt>
      <trkpt lat="43.96091" lon="2.59015">
        <ele>466</ele>
        <time>2015-11-29T13:16:29Z</time>
      </trkpt>
      <trkpt lat="43.96087" lon="2.59012">
        <ele>466</ele>
        <time>2015-11-29T13:16:34Z</time>
      </trkpt>
      <trkpt lat="43.96083" lon="2.59007">
        <ele>466</ele>
        <time>2015-11-29T13:16:39Z</time>
      </trkpt>
      <trkpt lat="43.96079" lon="2.59001">
        <ele>467</ele>
        <time>2015-11-29T13:16:45Z</time>
      </trkpt>
      <trkpt lat="43.96074" lon="2.58993">
        <ele>467</ele>
        <time>2015-11-29T13:16:50Z</time>
      </trkpt>
      <trkpt lat="43.96071" lon="2.58987">
        <ele>467</ele>
        <time>2015-11-29T13:16:54Z</time>
      </trkpt>
      <trkpt lat="43.9607" lon="2.58981">
        <ele>467</ele>
        <time>2015-11-29T13:17:01Z</time>
      </trkpt>
      <trkpt lat="43.96068" lon="2.58975">
        <ele>467</ele>
        <time>2015-11-29T13:17:14Z</time>
      </trkpt>
      <trkpt lat="43.96063" lon="2.5897">
        <ele>468</ele>
        <time>2015-11-29T13:17:21Z</time>
      </trkpt>
      <trkpt lat="43.9606" lon="2.58963">
        <ele>468</ele>
        <time>2015-11-29T13:17:27Z</time>
      </trkpt>
      <trkpt lat="43.96056" lon="2.58957">
        <ele>468</ele>
        <time>2015-11-29T13:17:32Z</time>
      </trkpt>
      <trkpt lat="43.96051" lon="2.58951">
        <ele>468</ele>
        <time>2015-11-29T13:17:38Z</time>
      </trkpt>
      <trkpt lat="43.96047" lon="2.58945">
        <ele>468</ele>
        <time>2015-11-29T13:17:44Z</time>
      </trkpt>
      <trkpt lat="43.96043" lon="2.58941">
        <ele>468</ele>
        <time>2015-11-29T13:17:48Z</time>
      </trkpt>
      <trkpt lat="43.96038" lon="2.58937">
        <ele>468</ele>
        <time>2015-11-29T13:17:54Z</time>
      </trkpt>
      <trkpt lat="43.96034" lon="2.58931">
        <ele>469</ele>
        <time>2015-11-29T13:18:00Z</time>
      </trkpt>
      <trkpt lat="43.9603" lon="2.58926">
        <ele>469</ele>
        <time>2015-11-29T13:18:04Z</time>
      </trkpt>
      <trkpt lat="43.96026" lon="2.58919">
        <ele>469</ele>
        <time>2015-11-29T13:18:09Z</time>
      </trkpt>
      <trkpt lat="43.96023" lon="2.58914">
        <ele>469</ele>
        <time>2015-11-29T13:18:14Z</time>
      </trkpt>
      <trkpt lat="43.96019" lon="2.58908">
        <ele>469</ele>
        <time>2015-11-29T13:18:19Z</time>
      </trkpt>
      <trkpt lat="43.96016" lon="2.58904">
        <ele>469</ele>
        <time>2015-11-29T13:18:24Z</time>
      </trkpt>
      <trkpt lat="43.96011" lon="2.58899">
        <ele>469</ele>
        <time>2015-11-29T13:18:32Z</time>
      </trkpt>
      <trkpt lat="43.96008" lon="2.58892">
        <ele>469</ele>
        <time>2015-11-29T13:18:40Z</time>
      </trkpt>
      <trkpt lat="43.96005" lon="2.58888">
        <ele>469</ele>
        <time>2015-11-29T13:18:45Z</time>
      </trkpt>
      <trkpt lat="43.96001" lon="2.58882">
        <ele>469</ele>
        <time>2015-11-29T13:18:53Z</time>
      </trkpt>
      <trkpt lat="43.95997" lon="2.58876">
        <ele>469</ele>
        <time>2015-11-29T13:18:58Z</time>
      </trkpt>
      <trkpt lat="43.95993" lon="2.58869">
        <ele>469</ele>
        <time>2015-11-29T13:19:04Z</time>
      </trkpt>
      <trkpt lat="43.9599" lon="2.58864">
        <ele>469</ele>
        <time>2015-11-29T13:19:08Z</time>
      </trkpt>
      <trkpt lat="43.95986" lon="2.58859">
        <ele>469</ele>
        <time>2015-11-29T13:19:13Z</time>
      </trkpt>
      <trkpt lat="43.95986" lon="2.58853">
        <ele>470</ele>
        <time>2015-11-29T13:19:20Z</time>
      </trkpt>
      <trkpt lat="43.95982" lon="2.58848">
        <ele>470</ele>
        <time>2015-11-29T13:19:24Z</time>
      </trkpt>
      <trkpt lat="43.95984" lon="2.5884">
        <ele>471</ele>
        <time>2015-11-29T13:19:34Z</time>
      </trkpt>
      <trkpt lat="43.95984" lon="2.58833">
        <ele>472</ele>
        <time>2015-11-29T13:19:40Z</time>
      </trkpt>
      <trkpt lat="43.95984" lon="2.58825">
        <ele>472</ele>
        <time>2015-11-29T13:19:45Z</time>
      </trkpt>
      <trkpt lat="43.95986" lon="2.58819">
        <ele>472</ele>
        <time>2015-11-29T13:19:51Z</time>
      </trkpt>
      <trkpt lat="43.95989" lon="2.58813">
        <ele>473</ele>
        <time>2015-11-29T13:19:58Z</time>
      </trkpt>
      <trkpt lat="43.95993" lon="2.5881">
        <ele>473</ele>
        <time>2015-11-29T13:20:11Z</time>
      </trkpt>
      <trkpt lat="43.95996" lon="2.58804">
        <ele>473</ele>
        <time>2015-11-29T13:20:18Z</time>
      </trkpt>
      <trkpt lat="43.95997" lon="2.58796">
        <ele>474</ele>
        <time>2015-11-29T13:20:26Z</time>
      </trkpt>
      <trkpt lat="43.95997" lon="2.58789">
        <ele>474</ele>
        <time>2015-11-29T13:20:34Z</time>
      </trkpt>
      <trkpt lat="43.95998" lon="2.58783">
        <ele>475</ele>
        <time>2015-11-29T13:20:42Z</time>
      </trkpt>
      <trkpt lat="43.96003" lon="2.58777">
        <ele>475</ele>
        <time>2015-11-29T13:20:52Z</time>
      </trkpt>
      <trkpt lat="43.96007" lon="2.5877">
        <ele>476</ele>
        <time>2015-11-29T13:20:58Z</time>
      </trkpt>
      <trkpt lat="43.96008" lon="2.58764">
        <ele>476</ele>
        <time>2015-11-29T13:21:04Z</time>
      </trkpt>
      <trkpt lat="43.96014" lon="2.58762">
        <ele>477</ele>
        <time>2015-11-29T13:21:08Z</time>
      </trkpt>
      <trkpt lat="43.96016" lon="2.58754">
        <ele>477</ele>
        <time>2015-11-29T13:21:13Z</time>
      </trkpt>
      <trkpt lat="43.96016" lon="2.58747">
        <ele>477</ele>
        <time>2015-11-29T13:21:17Z</time>
      </trkpt>
      <trkpt lat="43.96015" lon="2.58738">
        <ele>477</ele>
        <time>2015-11-29T13:21:22Z</time>
      </trkpt>
      <trkpt lat="43.96014" lon="2.5873">
        <ele>477</ele>
        <time>2015-11-29T13:21:28Z</time>
      </trkpt>
      <trkpt lat="43.96013" lon="2.58723">
        <ele>478</ele>
        <time>2015-11-29T13:21:34Z</time>
      </trkpt>
      <trkpt lat="43.96009" lon="2.58718">
        <ele>478</ele>
        <time>2015-11-29T13:21:39Z</time>
      </trkpt>
      <trkpt lat="43.96014" lon="2.5872">
        <ele>479</ele>
        <time>2015-11-29T13:22:14Z</time>
      </trkpt>
      <trkpt lat="43.96014" lon="2.58713">
        <ele>480</ele>
        <time>2015-11-29T13:22:24Z</time>
      </trkpt>
      <trkpt lat="43.96013" lon="2.58706">
        <ele>481</ele>
        <time>2015-11-29T13:22:31Z</time>
      </trkpt>
      <trkpt lat="43.96011" lon="2.58699">
        <ele>481</ele>
        <time>2015-11-29T13:22:37Z</time>
      </trkpt>
      <trkpt lat="43.96012" lon="2.58691">
        <ele>482</ele>
        <time>2015-11-29T13:22:42Z</time>
      </trkpt>
      <trkpt lat="43.96011" lon="2.58685">
        <ele>482</ele>
        <time>2015-11-29T13:22:46Z</time>
      </trkpt>
      <trkpt lat="43.9601" lon="2.58678">
        <ele>482</ele>
        <time>2015-11-29T13:22:51Z</time>
      </trkpt>
      <trkpt lat="43.9601" lon="2.58671">
        <ele>482</ele>
        <time>2015-11-29T13:22:57Z</time>
      </trkpt>
      <trkpt lat="43.96009" lon="2.58663">
        <ele>483</ele>
        <time>2015-11-29T13:23:03Z</time>
      </trkpt>
      <trkpt lat="43.96009" lon="2.58656">
        <ele>483</ele>
        <time>2015-11-29T13:23:08Z</time>
      </trkpt>
      <trkpt lat="43.96007" lon="2.5865">
        <ele>483</ele>
        <time>2015-11-29T13:23:13Z</time>
      </trkpt>
      <trkpt lat="43.96004" lon="2.58644">
        <ele>483</ele>
        <time>2015-11-29T13:23:21Z</time>
      </trkpt>
      <trkpt lat="43.96002" lon="2.58637">
        <ele>484</ele>
        <time>2015-11-29T13:23:33Z</time>
      </trkpt>
      <trkpt lat="43.95998" lon="2.58633">
        <ele>484</ele>
        <time>2015-11-29T13:23:43Z</time>
      </trkpt>
      <trkpt lat="43.95995" lon="2.58627">
        <ele>484</ele>
        <time>2015-11-29T13:23:50Z</time>
      </trkpt>
      <trkpt lat="43.95991" lon="2.58624">
        <ele>484</ele>
        <time>2015-11-29T13:23:57Z</time>
      </trkpt>
      <trkpt lat="43.95987" lon="2.58619">
        <ele>484</ele>
        <time>2015-11-29T13:24:04Z</time>
      </trkpt>
      <trkpt lat="43.95984" lon="2.58614">
        <ele>484</ele>
        <time>2015-11-29T13:24:11Z</time>
      </trkpt>
      <trkpt lat="43.95981" lon="2.58609">
        <ele>484</ele>
        <time>2015-11-29T13:24:16Z</time>
      </trkpt>
      <trkpt lat="43.95975" lon="2.58604">
        <ele>485</ele>
        <time>2015-11-29T13:24:23Z</time>
      </trkpt>
      <trkpt lat="43.9597" lon="2.58601">
        <ele>485</ele>
        <time>2015-11-29T13:24:29Z</time>
      </trkpt>
      <trkpt lat="43.95964" lon="2.58599">
        <ele>485</ele>
        <time>2015-11-29T13:24:36Z</time>
      </trkpt>
      <trkpt lat="43.95962" lon="2.58593">
        <ele>485</ele>
        <time>2015-11-29T13:24:40Z</time>
      </trkpt>
      <trkpt lat="43.9596" lon="2.58586">
        <ele>486</ele>
        <time>2015-11-29T13:24:45Z</time>
      </trkpt>
      <trkpt lat="43.95957" lon="2.5858">
        <ele>486</ele>
        <time>2015-11-29T13:24:51Z</time>
      </trkpt>
      <trkpt lat="43.95951" lon="2.58576">
        <ele>487</ele>
        <time>2015-11-29T13:24:56Z</time>
      </trkpt>
      <trkpt lat="43.95947" lon="2.58571">
        <ele>488</ele>
        <time>2015-11-29T13:25:01Z</time>
      </trkpt>
      <trkpt lat="43.95944" lon="2.58566">
        <ele>489</ele>
        <time>2015-11-29T13:25:06Z</time>
      </trkpt>
      <trkpt lat="43.95941" lon="2.58559">
        <ele>490</ele>
        <time>2015-11-29T13:25:13Z</time>
      </trkpt>
      <trkpt lat="43.95939" lon="2.58553">
        <ele>491</ele>
        <time>2015-11-29T13:25:19Z</time>
      </trkpt>
      <trkpt lat="43.95936" lon="2.58545">
        <ele>492</ele>
        <time>2015-11-29T13:25:26Z</time>
      </trkpt>
      <trkpt lat="43.95935" lon="2.58537">
        <ele>493</ele>
        <time>2015-11-29T13:25:31Z</time>
      </trkpt>
      <trkpt lat="43.95934" lon="2.58531">
        <ele>494</ele>
        <time>2015-11-29T13:25:40Z</time>
      </trkpt>
      <trkpt lat="43.95933" lon="2.58524">
        <ele>495</ele>
        <time>2015-11-29T13:25:45Z</time>
      </trkpt>
      <trkpt lat="43.95933" lon="2.58517">
        <ele>496</ele>
        <time>2015-11-29T13:25:52Z</time>
      </trkpt>
      <trkpt lat="43.95934" lon="2.5851">
        <ele>496</ele>
        <time>2015-11-29T13:25:57Z</time>
      </trkpt>
      <trkpt lat="43.95935" lon="2.58502">
        <ele>497</ele>
        <time>2015-11-29T13:26:07Z</time>
      </trkpt>
      <trkpt lat="43.95937" lon="2.58495">
        <ele>497</ele>
        <time>2015-11-29T13:26:14Z</time>
      </trkpt>
      <trkpt lat="43.95942" lon="2.5849">
        <ele>498</ele>
        <time>2015-11-29T13:26:21Z</time>
      </trkpt>
      <trkpt lat="43.95947" lon="2.58487">
        <ele>499</ele>
        <time>2015-11-29T13:26:28Z</time>
      </trkpt>
      <trkpt lat="43.95952" lon="2.58485">
        <ele>500</ele>
        <time>2015-11-29T13:26:34Z</time>
      </trkpt>
      <trkpt lat="43.95957" lon="2.58483">
        <ele>501</ele>
        <time>2015-11-29T13:26:40Z</time>
      </trkpt>
      <trkpt lat="43.95963" lon="2.58482">
        <ele>502</ele>
        <time>2015-11-29T13:26:46Z</time>
      </trkpt>
      <trkpt lat="43.95968" lon="2.58481">
        <ele>503</ele>
        <time>2015-11-29T13:26:52Z</time>
      </trkpt>
      <trkpt lat="43.95974" lon="2.58479">
        <ele>504</ele>
        <time>2015-11-29T13:26:59Z</time>
      </trkpt>
      <trkpt lat="43.95978" lon="2.58476">
        <ele>505</ele>
        <time>2015-11-29T13:27:05Z</time>
      </trkpt>
      <trkpt lat="43.95983" lon="2.58475">
        <ele>506</ele>
        <time>2015-11-29T13:27:09Z</time>
      </trkpt>
      <trkpt lat="43.95988" lon="2.58474">
        <ele>507</ele>
        <time>2015-11-29T13:27:16Z</time>
      </trkpt>
      <trkpt lat="43.95993" lon="2.58473">
        <ele>508</ele>
        <time>2015-11-29T13:27:21Z</time>
      </trkpt>
      <trkpt lat="43.95999" lon="2.58472">
        <ele>510</ele>
        <time>2015-11-29T13:27:26Z</time>
      </trkpt>
      <trkpt lat="43.96004" lon="2.58472">
        <ele>511</ele>
        <time>2015-11-29T13:27:31Z</time>
      </trkpt>
      <trkpt lat="43.96009" lon="2.58472">
        <ele>513</ele>
        <time>2015-11-29T13:27:36Z</time>
      </trkpt>
      <trkpt lat="43.96016" lon="2.58473">
        <ele>515</ele>
        <time>2015-11-29T13:27:41Z</time>
      </trkpt>
      <trkpt lat="43.96022" lon="2.58474">
        <ele>517</ele>
        <time>2015-11-29T13:27:47Z</time>
      </trkpt>
      <trkpt lat="43.96027" lon="2.58475">
        <ele>520</ele>
        <time>2015-11-29T13:27:52Z</time>
      </trkpt>
      <trkpt lat="43.96032" lon="2.58477">
        <ele>523</ele>
        <time>2015-11-29T13:27:58Z</time>
      </trkpt>
      <trkpt lat="43.96037" lon="2.58479">
        <ele>525</ele>
        <time>2015-11-29T13:28:02Z</time>
      </trkpt>
      <trkpt lat="43.96042" lon="2.58481">
        <ele>527</ele>
        <time>2015-11-29T13:28:08Z</time>
      </trkpt>
      <trkpt lat="43.96047" lon="2.58485">
        <ele>529</ele>
        <time>2015-11-29T13:28:13Z</time>
      </trkpt>
      <trkpt lat="43.96051" lon="2.58488">
        <ele>530</ele>
        <time>2015-11-29T13:28:18Z</time>
      </trkpt>
      <trkpt lat="43.96056" lon="2.58491">
        <ele>531</ele>
        <time>2015-11-29T13:28:23Z</time>
      </trkpt>
      <trkpt lat="43.96061" lon="2.58494">
        <ele>532</ele>
        <time>2015-11-29T13:28:29Z</time>
      </trkpt>
      <trkpt lat="43.96064" lon="2.58498">
        <ele>533</ele>
        <time>2015-11-29T13:28:35Z</time>
      </trkpt>
      <trkpt lat="43.96068" lon="2.58502">
        <ele>534</ele>
        <time>2015-11-29T13:28:40Z</time>
      </trkpt>
      <trkpt lat="43.96072" lon="2.58506">
        <ele>535</ele>
        <time>2015-11-29T13:28:45Z</time>
      </trkpt>
      <trkpt lat="43.96076" lon="2.58511">
        <ele>536</ele>
        <time>2015-11-29T13:28:50Z</time>
      </trkpt>
      <trkpt lat="43.96082" lon="2.58516">
        <ele>537</ele>
        <time>2015-11-29T13:28:57Z</time>
      </trkpt>
      <trkpt lat="43.96086" lon="2.5852">
        <ele>537</ele>
        <time>2015-11-29T13:29:02Z</time>
      </trkpt>
      <trkpt lat="43.96091" lon="2.58523">
        <ele>538</ele>
        <time>2015-11-29T13:29:08Z</time>
      </trkpt>
      <trkpt lat="43.96096" lon="2.58527">
        <ele>539</ele>
        <time>2015-11-29T13:29:13Z</time>
      </trkpt>
      <trkpt lat="43.961" lon="2.58531">
        <ele>540</ele>
        <time>2015-11-29T13:29:17Z</time>
      </trkpt>
      <trkpt lat="43.96104" lon="2.58537">
        <ele>541</ele>
        <time>2015-11-29T13:29:22Z</time>
      </trkpt>
      <trkpt lat="43.96109" lon="2.58541">
        <ele>541</ele>
        <time>2015-11-29T13:29:27Z</time>
      </trkpt>
      <trkpt lat="43.96116" lon="2.58544">
        <ele>542</ele>
        <time>2015-11-29T13:29:33Z</time>
      </trkpt>
      <trkpt lat="43.9612" lon="2.58547">
        <ele>542</ele>
        <time>2015-11-29T13:29:39Z</time>
      </trkpt>
      <trkpt lat="43.96125" lon="2.5855">
        <ele>543</ele>
        <time>2015-11-29T13:29:44Z</time>
      </trkpt>
      <trkpt lat="43.96129" lon="2.58553">
        <ele>543</ele>
        <time>2015-11-29T13:29:49Z</time>
      </trkpt>
      <trkpt lat="43.96134" lon="2.58557">
        <ele>544</ele>
        <time>2015-11-29T13:29:55Z</time>
      </trkpt>
      <trkpt lat="43.96139" lon="2.5856">
        <ele>544</ele>
        <time>2015-11-29T13:30:01Z</time>
      </trkpt>
      <trkpt lat="43.96144" lon="2.58563">
        <ele>544</ele>
        <time>2015-11-29T13:30:07Z</time>
      </trkpt>
      <trkpt lat="43.96149" lon="2.58567">
        <ele>544</ele>
        <time>2015-11-29T13:30:12Z</time>
      </trkpt>
      <trkpt lat="43.96153" lon="2.5857">
        <ele>544</ele>
        <time>2015-11-29T13:30:17Z</time>
      </trkpt>
      <trkpt lat="43.96158" lon="2.58573">
        <ele>544</ele>
        <time>2015-11-29T13:30:22Z</time>
      </trkpt>
      <trkpt lat="43.96163" lon="2.58576">
        <ele>544</ele>
        <time>2015-11-29T13:30:28Z</time>
      </trkpt>
      <trkpt lat="43.96167" lon="2.5858">
        <ele>544</ele>
        <time>2015-11-29T13:30:33Z</time>
      </trkpt>
      <trkpt lat="43.96172" lon="2.58583">
        <ele>544</ele>
        <time>2015-11-29T13:30:40Z</time>
      </trkpt>
      <trkpt lat="43.96176" lon="2.58586">
        <ele>544</ele>
        <time>2015-11-29T13:30:45Z</time>
      </trkpt>
      <trkpt lat="43.96182" lon="2.58588">
        <ele>544</ele>
        <time>2015-11-29T13:30:51Z</time>
      </trkpt>
      <trkpt lat="43.96186" lon="2.58592">
        <ele>544</ele>
        <time>2015-11-29T13:30:57Z</time>
      </trkpt>
      <trkpt lat="43.9619" lon="2.58595">
        <ele>545</ele>
        <time>2015-11-29T13:31:03Z</time>
      </trkpt>
      <trkpt lat="43.96194" lon="2.58598">
        <ele>545</ele>
        <time>2015-11-29T13:31:08Z</time>
      </trkpt>
      <trkpt lat="43.96198" lon="2.586">
        <ele>546</ele>
        <time>2015-11-29T13:31:15Z</time>
      </trkpt>
      <trkpt lat="43.96201" lon="2.58605">
        <ele>547</ele>
        <time>2015-11-29T13:31:26Z</time>
      </trkpt>
      <trkpt lat="43.96206" lon="2.58607">
        <ele>547</ele>
        <time>2015-11-29T13:31:33Z</time>
      </trkpt>
      <trkpt lat="43.96211" lon="2.5861">
        <ele>547</ele>
        <time>2015-11-29T13:31:45Z</time>
      </trkpt>
      <trkpt lat="43.96208" lon="2.58606">
        <ele>548</ele>
        <time>2015-11-29T13:32:11Z</time>
      </trkpt>
      <trkpt lat="43.96208" lon="2.58606">
        <ele>548</ele>
        <time>2015-11-29T13:32:37Z</time>
      </trkpt>
      <trkpt lat="43.96207" lon="2.58603">
        <ele>548</ele>
        <time>2015-11-29T13:32:42Z</time>
      </trkpt>
      <trkpt lat="43.96202" lon="2.586">
        <ele>548</ele>
        <time>2015-11-29T13:32:48Z</time>
      </trkpt>
      <trkpt lat="43.96198" lon="2.58596">
        <ele>547</ele>
        <time>2015-11-29T13:32:54Z</time>
      </trkpt>
      <trkpt lat="43.96193" lon="2.58593">
        <ele>547</ele>
        <time>2015-11-29T13:33:04Z</time>
      </trkpt>
      <trkpt lat="43.96193" lon="2.58593">
        <ele>547</ele>
        <time>2015-11-29T13:33:33Z</time>
      </trkpt>
      <trkpt lat="43.96193" lon="2.58593">
        <ele>546</ele>
        <time>2015-11-29T13:34:02Z</time>
      </trkpt>
      <trkpt lat="43.96193" lon="2.58593">
        <ele>546</ele>
        <time>2015-11-29T13:34:24Z</time>
      </trkpt>
      <trkpt lat="43.96193" lon="2.58593">
        <ele>546</ele>
        <time>2015-11-29T13:34:40Z</time>
      </trkpt>
      <trkpt lat="43.96193" lon="2.58593">
        <ele>546</ele>
        <time>2015-11-29T13:34:55Z</time>
      </trkpt>
      <trkpt lat="43.96193" lon="2.58593">
        <ele>546</ele>
        <time>2015-11-29T13:35:10Z</time>
      </trkpt>
      <trkpt lat="43.96193" lon="2.58593">
        <ele>546</ele>
        <time>2015-11-29T13:35:31Z</time>
      </trkpt>
      <trkpt lat="43.96193" lon="2.58593">
        <ele>546</ele>
        <time>2015-11-29T13:35:57Z</time>
      </trkpt>
      <trkpt lat="43.96193" lon="2.58593">
        <ele>546</ele>
        <time>2015-11-29T13:36:24Z</time>
      </trkpt>
      <trkpt lat="43.96193" lon="2.58593">
        <ele>546</ele>
        <time>2015-11-29T13:36:53Z</time>
      </trkpt>
      <trkpt lat="43.96193" lon="2.58593">
        <ele>546</ele>
        <time>2015-11-29T13:37:18Z</time>
      </trkpt>
      <trkpt lat="43.96193" lon="2.58593">
        <ele>546</ele>
        <time>2015-11-29T13:37:46Z</time>
      </trkpt>
      <trkpt lat="43.96193" lon="2.58593">
        <ele>546</ele>
        <time>2015-11-29T13:38:12Z</time>
      </trkpt>
      <trkpt lat="43.96193" lon="2.58593">
        <ele>546</ele>
        <time>2015-11-29T13:38:39Z</time>
      </trkpt>
      <trkpt lat="43.96193" lon="2.58593">
        <ele>546</ele>
        <time>2015-11-29T13:39:09Z</time>
      </trkpt>
      <trkpt lat="43.96193" lon="2.58593">
        <ele>546</ele>
        <time>2015-11-29T13:39:35Z</time>
      </trkpt>
      <trkpt lat="43.96193" lon="2.58593">
        <ele>546</ele>
        <time>2015-11-29T13:39:59Z</time>
      </trkpt>
      <trkpt lat="43.96193" lon="2.58593">
        <ele>546</ele>
        <time>2015-11-29T13:40:23Z</time>
      </trkpt>
      <trkpt lat="43.96193" lon="2.58593">
        <ele>546</ele>
        <time>2015-11-29T13:40:52Z</time>
      </trkpt>
      <trkpt lat="43.96193" lon="2.58593">
        <ele>546</ele>
        <time>2015-11-29T13:41:15Z</time>
      </trkpt>
      <trkpt lat="43.96193" lon="2.58593">
        <ele>546</ele>
        <time>2015-11-29T13:41:44Z</time>
      </trkpt>
      <trkpt lat="43.96193" lon="2.58593">
        <ele>546</ele>
        <time>2015-11-29T13:42:13Z</time>
      </trkpt>
      <trkpt lat="43.96193" lon="2.58593">
        <ele>546</ele>
        <time>2015-11-29T13:42:40Z</time>
      </trkpt>
      <trkpt lat="43.96193" lon="2.58593">
        <ele>546</ele>
        <time>2015-11-29T13:43:08Z</time>
      </trkpt>
      <trkpt lat="43.96196" lon="2.58598">
        <ele>546</ele>
        <time>2015-11-29T13:43:32Z</time>
      </trkpt>
      <trkpt lat="43.96202" lon="2.58601">
        <ele>546</ele>
        <time>2015-11-29T13:43:40Z</time>
      </trkpt>
      <trkpt lat="43.96207" lon="2.58603">
        <ele>545</ele>
        <time>2015-11-29T13:43:45Z</time>
      </trkpt>
      <trkpt lat="43.96212" lon="2.58606">
        <ele>545</ele>
        <time>2015-11-29T13:43:52Z</time>
      </trkpt>
      <trkpt lat="43.96219" lon="2.5861">
        <ele>545</ele>
        <time>2015-11-29T13:43:59Z</time>
      </trkpt>
      <trkpt lat="43.96223" lon="2.5861">
        <ele>545</ele>
        <time>2015-11-29T13:44:03Z</time>
      </trkpt>
      <trkpt lat="43.96228" lon="2.58611">
        <ele>545</ele>
        <time>2015-11-29T13:44:07Z</time>
      </trkpt>
      <trkpt lat="43.96233" lon="2.58613">
        <ele>545</ele>
        <time>2015-11-29T13:44:10Z</time>
      </trkpt>
      <trkpt lat="43.96238" lon="2.58615">
        <ele>544</ele>
        <time>2015-11-29T13:44:14Z</time>
      </trkpt>
      <trkpt lat="43.96244" lon="2.58616">
        <ele>544</ele>
        <time>2015-11-29T13:44:19Z</time>
      </trkpt>
      <trkpt lat="43.96249" lon="2.58617">
        <ele>544</ele>
        <time>2015-11-29T13:44:23Z</time>
      </trkpt>
      <trkpt lat="43.96254" lon="2.58617">
        <ele>544</ele>
        <time>2015-11-29T13:44:29Z</time>
      </trkpt>
      <trkpt lat="43.9626" lon="2.58617">
        <ele>544</ele>
        <time>2015-11-29T13:44:34Z</time>
      </trkpt>
      <trkpt lat="43.96264" lon="2.58616">
        <ele>545</ele>
        <time>2015-11-29T13:44:39Z</time>
      </trkpt>
      <trkpt lat="43.9627" lon="2.58615">
        <ele>545</ele>
        <time>2015-11-29T13:44:44Z</time>
      </trkpt>
      <trkpt lat="43.96275" lon="2.58615">
        <ele>545</ele>
        <time>2015-11-29T13:44:49Z</time>
      </trkpt>
      <trkpt lat="43.9628" lon="2.58614">
        <ele>545</ele>
        <time>2015-11-29T13:44:53Z</time>
      </trkpt>
      <trkpt lat="43.96285" lon="2.58614">
        <ele>545</ele>
        <time>2015-11-29T13:44:57Z</time>
      </trkpt>
      <trkpt lat="43.96291" lon="2.58612">
        <ele>545</ele>
        <time>2015-11-29T13:45:03Z</time>
      </trkpt>
      <trkpt lat="43.96296" lon="2.58612">
        <ele>544</ele>
        <time>2015-11-29T13:45:07Z</time>
      </trkpt>
      <trkpt lat="43.96302" lon="2.58611">
        <ele>544</ele>
        <time>2015-11-29T13:45:13Z</time>
      </trkpt>
      <trkpt lat="43.96306" lon="2.5861">
        <ele>544</ele>
        <time>2015-11-29T13:45:17Z</time>
      </trkpt>
      <trkpt lat="43.96312" lon="2.5861">
        <ele>544</ele>
        <time>2015-11-29T13:45:23Z</time>
      </trkpt>
      <trkpt lat="43.96318" lon="2.58608">
        <ele>544</ele>
        <time>2015-11-29T13:45:28Z</time>
      </trkpt>
      <trkpt lat="43.96323" lon="2.58606">
        <ele>544</ele>
        <time>2015-11-29T13:45:34Z</time>
      </trkpt>
      <trkpt lat="43.96328" lon="2.58604">
        <ele>544</ele>
        <time>2015-11-29T13:45:39Z</time>
      </trkpt>
      <trkpt lat="43.96333" lon="2.58602">
        <ele>544</ele>
        <time>2015-11-29T13:45:43Z</time>
      </trkpt>
      <trkpt lat="43.96338" lon="2.58601">
        <ele>544</ele>
        <time>2015-11-29T13:45:48Z</time>
      </trkpt>
      <trkpt lat="43.96345" lon="2.58598">
        <ele>544</ele>
        <time>2015-11-29T13:45:54Z</time>
      </trkpt>
      <trkpt lat="43.96349" lon="2.58595">
        <ele>544</ele>
        <time>2015-11-29T13:46:00Z</time>
      </trkpt>
      <trkpt lat="43.96354" lon="2.58594">
        <ele>545</ele>
        <time>2015-11-29T13:46:05Z</time>
      </trkpt>
      <trkpt lat="43.96359" lon="2.58592">
        <ele>545</ele>
        <time>2015-11-29T13:46:09Z</time>
      </trkpt>
      <trkpt lat="43.96365" lon="2.5859">
        <ele>545</ele>
        <time>2015-11-29T13:46:14Z</time>
      </trkpt>
      <trkpt lat="43.9637" lon="2.58587">
        <ele>546</ele>
        <time>2015-11-29T13:46:19Z</time>
      </trkpt>
      <trkpt lat="43.96375" lon="2.58585">
        <ele>546</ele>
        <time>2015-11-29T13:46:23Z</time>
      </trkpt>
      <trkpt lat="43.9638" lon="2.58584">
        <ele>546</ele>
        <time>2015-11-29T13:46:27Z</time>
      </trkpt>
      <trkpt lat="43.96384" lon="2.58583">
        <ele>547</ele>
        <time>2015-11-29T13:46:31Z</time>
      </trkpt>
      <trkpt lat="43.96389" lon="2.58581">
        <ele>547</ele>
        <time>2015-11-29T13:46:36Z</time>
      </trkpt>
      <trkpt lat="43.96396" lon="2.58581">
        <ele>548</ele>
        <time>2015-11-29T13:46:42Z</time>
      </trkpt>
      <trkpt lat="43.96401" lon="2.58581">
        <ele>548</ele>
        <time>2015-11-29T13:46:47Z</time>
      </trkpt>
      <trkpt lat="43.96407" lon="2.5858">
        <ele>549</ele>
        <time>2015-11-29T13:46:54Z</time>
      </trkpt>
      <trkpt lat="43.96412" lon="2.58581">
        <ele>549</ele>
        <time>2015-11-29T13:46:58Z</time>
      </trkpt>
      <trkpt lat="43.96418" lon="2.58581">
        <ele>549</ele>
        <time>2015-11-29T13:47:06Z</time>
      </trkpt>
      <trkpt lat="43.96424" lon="2.58582">
        <ele>549</ele>
        <time>2015-11-29T13:47:10Z</time>
      </trkpt>
      <trkpt lat="43.96429" lon="2.58582">
        <ele>549</ele>
        <time>2015-11-29T13:47:14Z</time>
      </trkpt>
      <trkpt lat="43.96436" lon="2.58582">
        <ele>550</ele>
        <time>2015-11-29T13:47:20Z</time>
      </trkpt>
      <trkpt lat="43.96441" lon="2.58582">
        <ele>550</ele>
        <time>2015-11-29T13:47:25Z</time>
      </trkpt>
      <trkpt lat="43.96446" lon="2.58582">
        <ele>551</ele>
        <time>2015-11-29T13:47:29Z</time>
      </trkpt>
      <trkpt lat="43.9645" lon="2.58584">
        <ele>551</ele>
        <time>2015-11-29T13:47:34Z</time>
      </trkpt>
      <trkpt lat="43.96455" lon="2.58583">
        <ele>552</ele>
        <time>2015-11-29T13:47:39Z</time>
      </trkpt>
      <trkpt lat="43.96461" lon="2.58582">
        <ele>552</ele>
        <time>2015-11-29T13:47:44Z</time>
      </trkpt>
      <trkpt lat="43.96467" lon="2.58581">
        <ele>552</ele>
        <time>2015-11-29T13:47:50Z</time>
      </trkpt>
      <trkpt lat="43.96473" lon="2.58581">
        <ele>552</ele>
        <time>2015-11-29T13:47:56Z</time>
      </trkpt>
      <trkpt lat="43.96479" lon="2.5858">
        <ele>552</ele>
        <time>2015-11-29T13:48:02Z</time>
      </trkpt>
      <trkpt lat="43.96486" lon="2.58579">
        <ele>552</ele>
        <time>2015-11-29T13:48:09Z</time>
      </trkpt>
      <trkpt lat="43.96492" lon="2.58577">
        <ele>553</ele>
        <time>2015-11-29T13:48:15Z</time>
      </trkpt>
      <trkpt lat="43.96497" lon="2.58576">
        <ele>553</ele>
        <time>2015-11-29T13:48:20Z</time>
      </trkpt>
      <trkpt lat="43.96503" lon="2.58574">
        <ele>553</ele>
        <time>2015-11-29T13:48:26Z</time>
      </trkpt>
      <trkpt lat="43.96509" lon="2.58571">
        <ele>553</ele>
        <time>2015-11-29T13:48:31Z</time>
      </trkpt>
      <trkpt lat="43.96513" lon="2.58569">
        <ele>553</ele>
        <time>2015-11-29T13:48:36Z</time>
      </trkpt>
      <trkpt lat="43.9652" lon="2.58566">
        <ele>553</ele>
        <time>2015-11-29T13:48:43Z</time>
      </trkpt>
      <trkpt lat="43.96525" lon="2.58562">
        <ele>554</ele>
        <time>2015-11-29T13:48:48Z</time>
      </trkpt>
      <trkpt lat="43.96529" lon="2.58559">
        <ele>554</ele>
        <time>2015-11-29T13:48:52Z</time>
      </trkpt>
      <trkpt lat="43.96535" lon="2.58554">
        <ele>554</ele>
        <time>2015-11-29T13:48:58Z</time>
      </trkpt>
      <trkpt lat="43.9654" lon="2.5855">
        <ele>555</ele>
        <time>2015-11-29T13:49:04Z</time>
      </trkpt>
      <trkpt lat="43.96545" lon="2.58545">
        <ele>555</ele>
        <time>2015-11-29T13:49:11Z</time>
      </trkpt>
      <trkpt lat="43.9655" lon="2.5854">
        <ele>555</ele>
        <time>2015-11-29T13:49:16Z</time>
      </trkpt>
      <trkpt lat="43.96553" lon="2.58536">
        <ele>556</ele>
        <time>2015-11-29T13:49:21Z</time>
      </trkpt>
      <trkpt lat="43.96557" lon="2.58531">
        <ele>556</ele>
        <time>2015-11-29T13:49:26Z</time>
      </trkpt>
      <trkpt lat="43.96563" lon="2.58527">
        <ele>556</ele>
        <time>2015-11-29T13:49:32Z</time>
      </trkpt>
      <trkpt lat="43.96567" lon="2.58522">
        <ele>556</ele>
        <time>2015-11-29T13:49:36Z</time>
      </trkpt>
      <trkpt lat="43.96572" lon="2.58519">
        <ele>556</ele>
        <time>2015-11-29T13:49:42Z</time>
      </trkpt>
      <trkpt lat="43.96577" lon="2.58514">
        <ele>556</ele>
        <time>2015-11-29T13:49:48Z</time>
      </trkpt>
      <trkpt lat="43.96582" lon="2.58509">
        <ele>556</ele>
        <time>2015-11-29T13:49:54Z</time>
      </trkpt>
      <trkpt lat="43.96586" lon="2.58505">
        <ele>556</ele>
        <time>2015-11-29T13:49:59Z</time>
      </trkpt>
      <trkpt lat="43.9659" lon="2.58502">
        <ele>557</ele>
        <time>2015-11-29T13:50:03Z</time>
      </trkpt>
      <trkpt lat="43.96595" lon="2.58497">
        <ele>557</ele>
        <time>2015-11-29T13:50:10Z</time>
      </trkpt>
      <trkpt lat="43.966" lon="2.58492">
        <ele>556</ele>
        <time>2015-11-29T13:50:15Z</time>
      </trkpt>
      <trkpt lat="43.96605" lon="2.58488">
        <ele>556</ele>
        <time>2015-11-29T13:50:20Z</time>
      </trkpt>
      <trkpt lat="43.9661" lon="2.58482">
        <ele>556</ele>
        <time>2015-11-29T13:50:26Z</time>
      </trkpt>
      <trkpt lat="43.96615" lon="2.58477">
        <ele>556</ele>
        <time>2015-11-29T13:50:32Z</time>
      </trkpt>
      <trkpt lat="43.96619" lon="2.58474">
        <ele>556</ele>
        <time>2015-11-29T13:50:36Z</time>
      </trkpt>
      <trkpt lat="43.96625" lon="2.5847">
        <ele>556</ele>
        <time>2015-11-29T13:50:42Z</time>
      </trkpt>
      <trkpt lat="43.9663" lon="2.58467">
        <ele>556</ele>
        <time>2015-11-29T13:50:47Z</time>
      </trkpt>
      <trkpt lat="43.96634" lon="2.58463">
        <ele>556</ele>
        <time>2015-11-29T13:50:52Z</time>
      </trkpt>
      <trkpt lat="43.96638" lon="2.58458">
        <ele>556</ele>
        <time>2015-11-29T13:50:56Z</time>
      </trkpt>
      <trkpt lat="43.96643" lon="2.58454">
        <ele>556</ele>
        <time>2015-11-29T13:51:00Z</time>
      </trkpt>
      <trkpt lat="43.96648" lon="2.58449">
        <ele>556</ele>
        <time>2015-11-29T13:51:05Z</time>
      </trkpt>
      <trkpt lat="43.96653" lon="2.58445">
        <ele>556</ele>
        <time>2015-11-29T13:51:11Z</time>
      </trkpt>
      <trkpt lat="43.96657" lon="2.58441">
        <ele>556</ele>
        <time>2015-11-29T13:51:16Z</time>
      </trkpt>
      <trkpt lat="43.96662" lon="2.58435">
        <ele>555</ele>
        <time>2015-11-29T13:51:22Z</time>
      </trkpt>
      <trkpt lat="43.96666" lon="2.58428">
        <ele>555</ele>
        <time>2015-11-29T13:51:27Z</time>
      </trkpt>
      <trkpt lat="43.96669" lon="2.58424">
        <ele>555</ele>
        <time>2015-11-29T13:51:31Z</time>
      </trkpt>
      <trkpt lat="43.96674" lon="2.5842">
        <ele>555</ele>
        <time>2015-11-29T13:51:36Z</time>
      </trkpt>
      <trkpt lat="43.96679" lon="2.58418">
        <ele>555</ele>
        <time>2015-11-29T13:51:40Z</time>
      </trkpt>
      <trkpt lat="43.96684" lon="2.58416">
        <ele>554</ele>
        <time>2015-11-29T13:51:45Z</time>
      </trkpt>
      <trkpt lat="43.96687" lon="2.5841">
        <ele>554</ele>
        <time>2015-11-29T13:51:50Z</time>
      </trkpt>
      <trkpt lat="43.96693" lon="2.5841">
        <ele>554</ele>
        <time>2015-11-29T13:51:56Z</time>
      </trkpt>
      <trkpt lat="43.96698" lon="2.5841">
        <ele>554</ele>
        <time>2015-11-29T13:52:02Z</time>
      </trkpt>
      <trkpt lat="43.96704" lon="2.58409">
        <ele>554</ele>
        <time>2015-11-29T13:52:08Z</time>
      </trkpt>
      <trkpt lat="43.96708" lon="2.58406">
        <ele>554</ele>
        <time>2015-11-29T13:52:14Z</time>
      </trkpt>
      <trkpt lat="43.96713" lon="2.58402">
        <ele>554</ele>
        <time>2015-11-29T13:52:20Z</time>
      </trkpt>
      <trkpt lat="43.96718" lon="2.58403">
        <ele>554</ele>
        <time>2015-11-29T13:52:26Z</time>
      </trkpt>
      <trkpt lat="43.96723" lon="2.58405">
        <ele>554</ele>
        <time>2015-11-29T13:52:34Z</time>
      </trkpt>
      <trkpt lat="43.96727" lon="2.5841">
        <ele>554</ele>
        <time>2015-11-29T13:52:40Z</time>
      </trkpt>
      <trkpt lat="43.96728" lon="2.58419">
        <ele>554</ele>
        <time>2015-11-29T13:52:45Z</time>
      </trkpt>
      <trkpt lat="43.96729" lon="2.58426">
        <ele>554</ele>
        <time>2015-11-29T13:52:51Z</time>
      </trkpt>
      <trkpt lat="43.96731" lon="2.58434">
        <ele>554</ele>
        <time>2015-11-29T13:52:59Z</time>
      </trkpt>
      <trkpt lat="43.96735" lon="2.58438">
        <ele>555</ele>
        <time>2015-11-29T13:53:04Z</time>
      </trkpt>
      <trkpt lat="43.9674" lon="2.58443">
        <ele>555</ele>
        <time>2015-11-29T13:53:11Z</time>
      </trkpt>
      <trkpt lat="43.96745" lon="2.58445">
        <ele>555</ele>
        <time>2015-11-29T13:53:15Z</time>
      </trkpt>
      <trkpt lat="43.96751" lon="2.58447">
        <ele>555</ele>
        <time>2015-11-29T13:53:20Z</time>
      </trkpt>
      <trkpt lat="43.96756" lon="2.58449">
        <ele>556</ele>
        <time>2015-11-29T13:53:26Z</time>
      </trkpt>
      <trkpt lat="43.96761" lon="2.58451">
        <ele>556</ele>
        <time>2015-11-29T13:53:31Z</time>
      </trkpt>
      <trkpt lat="43.96766" lon="2.58452">
        <ele>556</ele>
        <time>2015-11-29T13:53:36Z</time>
      </trkpt>
      <trkpt lat="43.96772" lon="2.58453">
        <ele>557</ele>
        <time>2015-11-29T13:53:43Z</time>
      </trkpt>
      <trkpt lat="43.96778" lon="2.5845">
        <ele>558</ele>
        <time>2015-11-29T13:53:49Z</time>
      </trkpt>
      <trkpt lat="43.96787" lon="2.58445">
        <ele>559</ele>
        <time>2015-11-29T13:53:59Z</time>
      </trkpt>
      <trkpt lat="43.96791" lon="2.58442">
        <ele>560</ele>
        <time>2015-11-29T13:54:04Z</time>
      </trkpt>
      <trkpt lat="43.96795" lon="2.58438">
        <ele>561</ele>
        <time>2015-11-29T13:54:10Z</time>
      </trkpt>
      <trkpt lat="43.96799" lon="2.58432">
        <ele>562</ele>
        <time>2015-11-29T13:54:16Z</time>
      </trkpt>
      <trkpt lat="43.96804" lon="2.58428">
        <ele>562</ele>
        <time>2015-11-29T13:54:22Z</time>
      </trkpt>
      <trkpt lat="43.96808" lon="2.58424">
        <ele>563</ele>
        <time>2015-11-29T13:54:28Z</time>
      </trkpt>
      <trkpt lat="43.96811" lon="2.58418">
        <ele>564</ele>
        <time>2015-11-29T13:54:35Z</time>
      </trkpt>
      <trkpt lat="43.96814" lon="2.58414">
        <ele>565</ele>
        <time>2015-11-29T13:54:40Z</time>
      </trkpt>
      <trkpt lat="43.96817" lon="2.58408">
        <ele>565</ele>
        <time>2015-11-29T13:54:45Z</time>
      </trkpt>
      <trkpt lat="43.96821" lon="2.58404">
        <ele>566</ele>
        <time>2015-11-29T13:54:50Z</time>
      </trkpt>
      <trkpt lat="43.96824" lon="2.58398">
        <ele>566</ele>
        <time>2015-11-29T13:54:56Z</time>
      </trkpt>
      <trkpt lat="43.96828" lon="2.58393">
        <ele>567</ele>
        <time>2015-11-29T13:55:02Z</time>
      </trkpt>
      <trkpt lat="43.96833" lon="2.58387">
        <ele>567</ele>
        <time>2015-11-29T13:55:10Z</time>
      </trkpt>
      <trkpt lat="43.96838" lon="2.58382">
        <ele>568</ele>
        <time>2015-11-29T13:55:18Z</time>
      </trkpt>
      <trkpt lat="43.96841" lon="2.58376">
        <ele>568</ele>
        <time>2015-11-29T13:55:23Z</time>
      </trkpt>
      <trkpt lat="43.96845" lon="2.58373">
        <ele>569</ele>
        <time>2015-11-29T13:55:28Z</time>
      </trkpt>
      <trkpt lat="43.9685" lon="2.58366">
        <ele>569</ele>
        <time>2015-11-29T13:55:35Z</time>
      </trkpt>
      <trkpt lat="43.96853" lon="2.58361">
        <ele>569</ele>
        <time>2015-11-29T13:55:40Z</time>
      </trkpt>
      <trkpt lat="43.96857" lon="2.58357">
        <ele>570</ele>
        <time>2015-11-29T13:55:45Z</time>
      </trkpt>
      <trkpt lat="43.96861" lon="2.5835">
        <ele>570</ele>
        <time>2015-11-29T13:55:51Z</time>
      </trkpt>
      <trkpt lat="43.96864" lon="2.58346">
        <ele>570</ele>
        <time>2015-11-29T13:55:56Z</time>
      </trkpt>
      <trkpt lat="43.96867" lon="2.5834">
        <ele>570</ele>
        <time>2015-11-29T13:56:02Z</time>
      </trkpt>
      <trkpt lat="43.96871" lon="2.58335">
        <ele>571</ele>
        <time>2015-11-29T13:56:07Z</time>
      </trkpt>
      <trkpt lat="43.96875" lon="2.58329">
        <ele>571</ele>
        <time>2015-11-29T13:56:14Z</time>
      </trkpt>
      <trkpt lat="43.96878" lon="2.58324">
        <ele>572</ele>
        <time>2015-11-29T13:56:18Z</time>
      </trkpt>
      <trkpt lat="43.96881" lon="2.58319">
        <ele>572</ele>
        <time>2015-11-29T13:56:23Z</time>
      </trkpt>
      <trkpt lat="43.96883" lon="2.58311">
        <ele>573</ele>
        <time>2015-11-29T13:56:31Z</time>
      </trkpt>
      <trkpt lat="43.96886" lon="2.58305">
        <ele>573</ele>
        <time>2015-11-29T13:56:45Z</time>
      </trkpt>
      <trkpt lat="43.96888" lon="2.58298">
        <ele>574</ele>
        <time>2015-11-29T13:56:54Z</time>
      </trkpt>
      <trkpt lat="43.96891" lon="2.58292">
        <ele>575</ele>
        <time>2015-11-29T13:57:01Z</time>
      </trkpt>
      <trkpt lat="43.96893" lon="2.58286">
        <ele>575</ele>
        <time>2015-11-29T13:57:06Z</time>
      </trkpt>
      <trkpt lat="43.96896" lon="2.5828">
        <ele>575</ele>
        <time>2015-11-29T13:57:10Z</time>
      </trkpt>
      <trkpt lat="43.96898" lon="2.58272">
        <ele>575</ele>
        <time>2015-11-29T13:57:16Z</time>
      </trkpt>
      <trkpt lat="43.96901" lon="2.58267">
        <ele>575</ele>
        <time>2015-11-29T13:57:20Z</time>
      </trkpt>
      <trkpt lat="43.96904" lon="2.5826">
        <ele>575</ele>
        <time>2015-11-29T13:57:25Z</time>
      </trkpt>
      <trkpt lat="43.96906" lon="2.58255">
        <ele>575</ele>
        <time>2015-11-29T13:57:30Z</time>
      </trkpt>
      <trkpt lat="43.96908" lon="2.58248">
        <ele>575</ele>
        <time>2015-11-29T13:57:35Z</time>
      </trkpt>
      <trkpt lat="43.96909" lon="2.58241">
        <ele>575</ele>
        <time>2015-11-29T13:57:40Z</time>
      </trkpt>
      <trkpt lat="43.96912" lon="2.58233">
        <ele>575</ele>
        <time>2015-11-29T13:57:45Z</time>
      </trkpt>
      <trkpt lat="43.96914" lon="2.58228">
        <ele>575</ele>
        <time>2015-11-29T13:57:49Z</time>
      </trkpt>
      <trkpt lat="43.96917" lon="2.58222">
        <ele>575</ele>
        <time>2015-11-29T13:57:53Z</time>
      </trkpt>
      <trkpt lat="43.96919" lon="2.58213">
        <ele>575</ele>
        <time>2015-11-29T13:57:58Z</time>
      </trkpt>
      <trkpt lat="43.96921" lon="2.58207">
        <ele>575</ele>
        <time>2015-11-29T13:58:04Z</time>
      </trkpt>
      <trkpt lat="43.96923" lon="2.58196">
        <ele>575</ele>
        <time>2015-11-29T13:58:10Z</time>
      </trkpt>
      <trkpt lat="43.96927" lon="2.5819">
        <ele>575</ele>
        <time>2015-11-29T13:58:16Z</time>
      </trkpt>
      <trkpt lat="43.96931" lon="2.58184">
        <ele>575</ele>
        <time>2015-11-29T13:58:22Z</time>
      </trkpt>
      <trkpt lat="43.96934" lon="2.58179">
        <ele>576</ele>
        <time>2015-11-29T13:58:27Z</time>
      </trkpt>
      <trkpt lat="43.96936" lon="2.58173">
        <ele>576</ele>
        <time>2015-11-29T13:58:33Z</time>
      </trkpt>
      <trkpt lat="43.96938" lon="2.58167">
        <ele>576</ele>
        <time>2015-11-29T13:58:38Z</time>
      </trkpt>
      <trkpt lat="43.96942" lon="2.58161">
        <ele>576</ele>
        <time>2015-11-29T13:58:43Z</time>
      </trkpt>
      <trkpt lat="43.96944" lon="2.58153">
        <ele>576</ele>
        <time>2015-11-29T13:58:48Z</time>
      </trkpt>
      <trkpt lat="43.96946" lon="2.58145">
        <ele>576</ele>
        <time>2015-11-29T13:58:53Z</time>
      </trkpt>
      <trkpt lat="43.96949" lon="2.58139">
        <ele>576</ele>
        <time>2015-11-29T13:58:58Z</time>
      </trkpt>
      <trkpt lat="43.96951" lon="2.58133">
        <ele>576</ele>
        <time>2015-11-29T13:59:03Z</time>
      </trkpt>
      <trkpt lat="43.96953" lon="2.58127">
        <ele>576</ele>
        <time>2015-11-29T13:59:09Z</time>
      </trkpt>
      <trkpt lat="43.96954" lon="2.58121">
        <ele>576</ele>
        <time>2015-11-29T13:59:13Z</time>
      </trkpt>
      <trkpt lat="43.96957" lon="2.58114">
        <ele>576</ele>
        <time>2015-11-29T13:59:18Z</time>
      </trkpt>
      <trkpt lat="43.96959" lon="2.58108">
        <ele>576</ele>
        <time>2015-11-29T13:59:22Z</time>
      </trkpt>
      <trkpt lat="43.96962" lon="2.58102">
        <ele>576</ele>
        <time>2015-11-29T13:59:28Z</time>
      </trkpt>
      <trkpt lat="43.96965" lon="2.58095">
        <ele>576</ele>
        <time>2015-11-29T13:59:33Z</time>
      </trkpt>
      <trkpt lat="43.96969" lon="2.58091">
        <ele>576</ele>
        <time>2015-11-29T13:59:38Z</time>
      </trkpt>
      <trkpt lat="43.96972" lon="2.58084">
        <ele>576</ele>
        <time>2015-11-29T13:59:44Z</time>
      </trkpt>
      <trkpt lat="43.96975" lon="2.58077">
        <ele>576</ele>
        <time>2015-11-29T13:59:49Z</time>
      </trkpt>
      <trkpt lat="43.96978" lon="2.58071">
        <ele>576</ele>
        <time>2015-11-29T13:59:54Z</time>
      </trkpt>
      <trkpt lat="43.96981" lon="2.58063">
        <ele>576</ele>
        <time>2015-11-29T14:00:00Z</time>
      </trkpt>
      <trkpt lat="43.96984" lon="2.58058">
        <ele>576</ele>
        <time>2015-11-29T14:00:06Z</time>
      </trkpt>
      <trkpt lat="43.96986" lon="2.58052">
        <ele>576</ele>
        <time>2015-11-29T14:00:10Z</time>
      </trkpt>
      <trkpt lat="43.96989" lon="2.58047">
        <ele>576</ele>
        <time>2015-11-29T14:00:14Z</time>
      </trkpt>
      <trkpt lat="43.96992" lon="2.58042">
        <ele>576</ele>
        <time>2015-11-29T14:00:18Z</time>
      </trkpt>
      <trkpt lat="43.96994" lon="2.58036">
        <ele>576</ele>
        <time>2015-11-29T14:00:22Z</time>
      </trkpt>
      <trkpt lat="43.96998" lon="2.5803">
        <ele>576</ele>
        <time>2015-11-29T14:00:26Z</time>
      </trkpt>
      <trkpt lat="43.97002" lon="2.58024">
        <ele>576</ele>
        <time>2015-11-29T14:00:31Z</time>
      </trkpt>
      <trkpt lat="43.97006" lon="2.5802">
        <ele>576</ele>
        <time>2015-11-29T14:00:36Z</time>
      </trkpt>
      <trkpt lat="43.97012" lon="2.58018">
        <ele>576</ele>
        <time>2015-11-29T14:00:42Z</time>
      </trkpt>
      <trkpt lat="43.97016" lon="2.58013">
        <ele>576</ele>
        <time>2015-11-29T14:00:49Z</time>
      </trkpt>
      <trkpt lat="43.97018" lon="2.58008">
        <ele>577</ele>
        <time>2015-11-29T14:01:32Z</time>
      </trkpt>
      <trkpt lat="43.97018" lon="2.58008">
        <ele>577</ele>
        <time>2015-11-29T14:01:56Z</time>
      </trkpt>
      <trkpt lat="43.97018" lon="2.58008">
        <ele>578</ele>
        <time>2015-11-29T14:02:23Z</time>
      </trkpt>
      <trkpt lat="43.97018" lon="2.58008">
        <ele>578</ele>
        <time>2015-11-29T14:02:53Z</time>
      </trkpt>
      <trkpt lat="43.97018" lon="2.58008">
        <ele>578</ele>
        <time>2015-11-29T14:03:18Z</time>
      </trkpt>
      <trkpt lat="43.97018" lon="2.58008">
        <ele>578</ele>
        <time>2015-11-29T14:03:47Z</time>
      </trkpt>
      <trkpt lat="43.97018" lon="2.58008">
        <ele>578</ele>
        <time>2015-11-29T14:04:13Z</time>
      </trkpt>
      <trkpt lat="43.97018" lon="2.58008">
        <ele>578</ele>
        <time>2015-11-29T14:04:41Z</time>
      </trkpt>
      <trkpt lat="43.97018" lon="2.58008">
        <ele>578</ele>
        <time>2015-11-29T14:05:12Z</time>
      </trkpt>
      <trkpt lat="43.97016" lon="2.5801">
        <ele>580</ele>
        <time>2015-11-29T14:05:34Z</time>
      </trkpt>
      <trkpt lat="43.97022" lon="2.58011">
        <ele>581</ele>
        <time>2015-11-29T14:06:00Z</time>
      </trkpt>
      <trkpt lat="43.97026" lon="2.58013">
        <ele>582</ele>
        <time>2015-11-29T14:06:05Z</time>
      </trkpt>
      <trkpt lat="43.97032" lon="2.58015">
        <ele>584</ele>
        <time>2015-11-29T14:06:09Z</time>
      </trkpt>
      <trkpt lat="43.97037" lon="2.58016">
        <ele>585</ele>
        <time>2015-11-29T14:06:13Z</time>
      </trkpt>
      <trkpt lat="43.97043" lon="2.58017">
        <ele>585</ele>
        <time>2015-11-29T14:06:18Z</time>
      </trkpt>
      <trkpt lat="43.97048" lon="2.58018">
        <ele>585</ele>
        <time>2015-11-29T14:06:22Z</time>
      </trkpt>
      <trkpt lat="43.97053" lon="2.58019">
        <ele>585</ele>
        <time>2015-11-29T14:06:26Z</time>
      </trkpt>
      <trkpt lat="43.97059" lon="2.5802">
        <ele>585</ele>
        <time>2015-11-29T14:06:30Z</time>
      </trkpt>
      <trkpt lat="43.97064" lon="2.5802">
        <ele>585</ele>
        <time>2015-11-29T14:06:35Z</time>
      </trkpt>
      <trkpt lat="43.97069" lon="2.58019">
        <ele>585</ele>
        <time>2015-11-29T14:06:43Z</time>
      </trkpt>
      <trkpt lat="43.97073" lon="2.58013">
        <ele>584</ele>
        <time>2015-11-29T14:06:54Z</time>
      </trkpt>
      <trkpt lat="43.9707" lon="2.58008">
        <ele>583</ele>
        <time>2015-11-29T14:06:58Z</time>
      </trkpt>
      <trkpt lat="43.97066" lon="2.58001">
        <ele>582</ele>
        <time>2015-11-29T14:07:02Z</time>
      </trkpt>
      <trkpt lat="43.97063" lon="2.57996">
        <ele>581</ele>
        <time>2015-11-29T14:07:06Z</time>
      </trkpt>
      <trkpt lat="43.97058" lon="2.57991">
        <ele>581</ele>
        <time>2015-11-29T14:07:11Z</time>
      </trkpt>
      <trkpt lat="43.97054" lon="2.57986">
        <ele>581</ele>
        <time>2015-11-29T14:07:15Z</time>
      </trkpt>
      <trkpt lat="43.9705" lon="2.57982">
        <ele>581</ele>
        <time>2015-11-29T14:07:19Z</time>
      </trkpt>
      <trkpt lat="43.97045" lon="2.57975">
        <ele>581</ele>
        <time>2015-11-29T14:07:25Z</time>
      </trkpt>
      <trkpt lat="43.97041" lon="2.57969">
        <ele>581</ele>
        <time>2015-11-29T14:07:31Z</time>
      </trkpt>
      <trkpt lat="43.97038" lon="2.57963">
        <ele>582</ele>
        <time>2015-11-29T14:07:36Z</time>
      </trkpt>
      <trkpt lat="43.97036" lon="2.57957">
        <ele>582</ele>
        <time>2015-11-29T14:07:42Z</time>
      </trkpt>
      <trkpt lat="43.97033" lon="2.57952">
        <ele>582</ele>
        <time>2015-11-29T14:07:46Z</time>
      </trkpt>
      <trkpt lat="43.9703" lon="2.57943">
        <ele>583</ele>
        <time>2015-11-29T14:07:52Z</time>
      </trkpt>
      <trkpt lat="43.97026" lon="2.57936">
        <ele>583</ele>
        <time>2015-11-29T14:07:58Z</time>
      </trkpt>
      <trkpt lat="43.97023" lon="2.5793">
        <ele>583</ele>
        <time>2015-11-29T14:08:02Z</time>
      </trkpt>
      <trkpt lat="43.97021" lon="2.57921">
        <ele>583</ele>
        <time>2015-11-29T14:08:07Z</time>
      </trkpt>
      <trkpt lat="43.97018" lon="2.57913">
        <ele>584</ele>
        <time>2015-11-29T14:08:12Z</time>
      </trkpt>
      <trkpt lat="43.97015" lon="2.57908">
        <ele>584</ele>
        <time>2015-11-29T14:08:16Z</time>
      </trkpt>
      <trkpt lat="43.97013" lon="2.57902">
        <ele>584</ele>
        <time>2015-11-29T14:08:21Z</time>
      </trkpt>
      <trkpt lat="43.9701" lon="2.57895">
        <ele>585</ele>
        <time>2015-11-29T14:08:26Z</time>
      </trkpt>
      <trkpt lat="43.97008" lon="2.57887">
        <ele>585</ele>
        <time>2015-11-29T14:08:33Z</time>
      </trkpt>
      <trkpt lat="43.97007" lon="2.57879">
        <ele>586</ele>
        <time>2015-11-29T14:08:38Z</time>
      </trkpt>
      <trkpt lat="43.97006" lon="2.57872">
        <ele>586</ele>
        <time>2015-11-29T14:08:43Z</time>
      </trkpt>
      <trkpt lat="43.97002" lon="2.57867">
        <ele>587</ele>
        <time>2015-11-29T14:09:04Z</time>
      </trkpt>
      <trkpt lat="43.96998" lon="2.57866">
        <ele>587</ele>
        <time>2015-11-29T14:09:08Z</time>
      </trkpt>
      <trkpt lat="43.96995" lon="2.57867">
        <ele>587</ele>
        <time>2015-11-29T14:09:33Z</time>
      </trkpt>
      <trkpt lat="43.96999" lon="2.57873">
        <ele>588</ele>
        <time>2015-11-29T14:09:41Z</time>
      </trkpt>
      <trkpt lat="43.97" lon="2.57881">
        <ele>589</ele>
        <time>2015-11-29T14:09:50Z</time>
      </trkpt>
      <trkpt lat="43.97001" lon="2.57881">
        <ele>589</ele>
        <time>2015-11-29T14:10:29Z</time>
      </trkpt>
      <trkpt lat="43.96998" lon="2.57874">
        <ele>590</ele>
        <time>2015-11-29T14:10:51Z</time>
      </trkpt>
      <trkpt lat="43.96996" lon="2.57868">
        <ele>591</ele>
        <time>2015-11-29T14:10:53Z</time>
      </trkpt>
      <trkpt lat="43.96992" lon="2.57862">
        <ele>591</ele>
        <time>2015-11-29T14:10:56Z</time>
      </trkpt>
      <trkpt lat="43.9699" lon="2.57856">
        <ele>592</ele>
        <time>2015-11-29T14:10:59Z</time>
      </trkpt>
      <trkpt lat="43.96986" lon="2.5785">
        <ele>592</ele>
        <time>2015-11-29T14:11:03Z</time>
      </trkpt>
      <trkpt lat="43.96982" lon="2.57845">
        <ele>592</ele>
        <time>2015-11-29T14:11:07Z</time>
      </trkpt>
      <trkpt lat="43.96978" lon="2.57838">
        <ele>592</ele>
        <time>2015-11-29T14:11:12Z</time>
      </trkpt>
      <trkpt lat="43.96975" lon="2.57833">
        <ele>592</ele>
        <time>2015-11-29T14:11:16Z</time>
      </trkpt>
      <trkpt lat="43.96972" lon="2.57829">
        <ele>591</ele>
        <time>2015-11-29T14:11:20Z</time>
      </trkpt>
      <trkpt lat="43.96968" lon="2.57824">
        <ele>591</ele>
        <time>2015-11-29T14:11:28Z</time>
      </trkpt>
      <trkpt lat="43.96964" lon="2.57818">
        <ele>590</ele>
        <time>2015-11-29T14:11:36Z</time>
      </trkpt>
      <trkpt lat="43.9696" lon="2.57814">
        <ele>590</ele>
        <time>2015-11-29T14:11:41Z</time>
      </trkpt>
      <trkpt lat="43.96956" lon="2.57809">
        <ele>589</ele>
        <time>2015-11-29T14:11:49Z</time>
      </trkpt>
      <trkpt lat="43.96952" lon="2.57803">
        <ele>589</ele>
        <time>2015-11-29T14:11:56Z</time>
      </trkpt>
      <trkpt lat="43.96949" lon="2.57796">
        <ele>588</ele>
        <time>2015-11-29T14:12:01Z</time>
      </trkpt>
      <trkpt lat="43.96945" lon="2.57791">
        <ele>587</ele>
        <time>2015-11-29T14:12:06Z</time>
      </trkpt>
      <trkpt lat="43.96941" lon="2.57784">
        <ele>586</ele>
        <time>2015-11-29T14:12:13Z</time>
      </trkpt>
      <trkpt lat="43.96937" lon="2.57779">
        <ele>585</ele>
        <time>2015-11-29T14:12:19Z</time>
      </trkpt>
      <trkpt lat="43.96933" lon="2.57773">
        <ele>584</ele>
        <time>2015-11-29T14:12:25Z</time>
      </trkpt>
      <trkpt lat="43.9693" lon="2.57768">
        <ele>583</ele>
        <time>2015-11-29T14:12:30Z</time>
      </trkpt>
      <trkpt lat="43.96926" lon="2.57763">
        <ele>582</ele>
        <time>2015-11-29T14:12:36Z</time>
      </trkpt>
      <trkpt lat="43.96923" lon="2.57756">
        <ele>580</ele>
        <time>2015-11-29T14:12:41Z</time>
      </trkpt>
      <trkpt lat="43.96919" lon="2.57749">
        <ele>579</ele>
        <time>2015-11-29T14:12:47Z</time>
      </trkpt>
      <trkpt lat="43.96915" lon="2.57742">
        <ele>578</ele>
        <time>2015-11-29T14:12:54Z</time>
      </trkpt>
      <trkpt lat="43.96911" lon="2.57736">
        <ele>577</ele>
        <time>2015-11-29T14:13:01Z</time>
      </trkpt>
      <trkpt lat="43.96906" lon="2.57729">
        <ele>576</ele>
        <time>2015-11-29T14:13:07Z</time>
      </trkpt>
      <trkpt lat="43.96903" lon="2.57723">
        <ele>575</ele>
        <time>2015-11-29T14:13:12Z</time>
      </trkpt>
      <trkpt lat="43.96899" lon="2.57717">
        <ele>574</ele>
        <time>2015-11-29T14:13:21Z</time>
      </trkpt>
      <trkpt lat="43.96897" lon="2.57712">
        <ele>573</ele>
        <time>2015-11-29T14:13:29Z</time>
      </trkpt>
      <trkpt lat="43.96893" lon="2.57705">
        <ele>572</ele>
        <time>2015-11-29T14:13:36Z</time>
      </trkpt>
      <trkpt lat="43.9689" lon="2.57698">
        <ele>570</ele>
        <time>2015-11-29T14:13:44Z</time>
      </trkpt>
      <trkpt lat="43.96886" lon="2.57691">
        <ele>569</ele>
        <time>2015-11-29T14:13:51Z</time>
      </trkpt>
      <trkpt lat="43.96882" lon="2.57685">
        <ele>568</ele>
        <time>2015-11-29T14:13:56Z</time>
      </trkpt>
      <trkpt lat="43.96878" lon="2.57678">
        <ele>567</ele>
        <time>2015-11-29T14:14:02Z</time>
      </trkpt>
      <trkpt lat="43.96875" lon="2.57671">
        <ele>566</ele>
        <time>2015-11-29T14:14:08Z</time>
      </trkpt>
      <trkpt lat="43.96872" lon="2.57665">
        <ele>565</ele>
        <time>2015-11-29T14:14:14Z</time>
      </trkpt>
      <trkpt lat="43.96869" lon="2.5766">
        <ele>564</ele>
        <time>2015-11-29T14:14:20Z</time>
      </trkpt>
      <trkpt lat="43.96866" lon="2.57655">
        <ele>564</ele>
        <time>2015-11-29T14:14:25Z</time>
      </trkpt>
      <trkpt lat="43.96863" lon="2.5765">
        <ele>563</ele>
        <time>2015-11-29T14:14:32Z</time>
      </trkpt>
      <trkpt lat="43.96862" lon="2.57644">
        <ele>562</ele>
        <time>2015-11-29T14:14:43Z</time>
      </trkpt>
      <trkpt lat="43.96862" lon="2.57644">
        <ele>562</ele>
        <time>2015-11-29T14:15:02Z</time>
      </trkpt>
      <trkpt lat="43.96861" lon="2.57636">
        <ele>562</ele>
        <time>2015-11-29T14:15:14Z</time>
      </trkpt>
      <trkpt lat="43.96856" lon="2.57632">
        <ele>561</ele>
        <time>2015-11-29T14:15:20Z</time>
      </trkpt>
      <trkpt lat="43.96853" lon="2.57625">
        <ele>561</ele>
        <time>2015-11-29T14:15:37Z</time>
      </trkpt>
      <trkpt lat="43.96849" lon="2.57619">
        <ele>561</ele>
        <time>2015-11-29T14:15:43Z</time>
      </trkpt>
      <trkpt lat="43.96846" lon="2.57615">
        <ele>561</ele>
        <time>2015-11-29T14:15:48Z</time>
      </trkpt>
      <trkpt lat="43.96843" lon="2.57609">
        <ele>561</ele>
        <time>2015-11-29T14:15:54Z</time>
      </trkpt>
      <trkpt lat="43.9684" lon="2.57603">
        <ele>561</ele>
        <time>2015-11-29T14:15:59Z</time>
      </trkpt>
      <trkpt lat="43.96836" lon="2.57597">
        <ele>561</ele>
        <time>2015-11-29T14:16:04Z</time>
      </trkpt>
      <trkpt lat="43.96833" lon="2.57591">
        <ele>561</ele>
        <time>2015-11-29T14:16:08Z</time>
      </trkpt>
      <trkpt lat="43.96829" lon="2.57587">
        <ele>561</ele>
        <time>2015-11-29T14:16:13Z</time>
      </trkpt>
      <trkpt lat="43.96825" lon="2.57582">
        <ele>561</ele>
        <time>2015-11-29T14:16:17Z</time>
      </trkpt>
      <trkpt lat="43.96822" lon="2.57579">
        <ele>561</ele>
        <time>2015-11-29T14:16:22Z</time>
      </trkpt>
      <trkpt lat="43.96818" lon="2.57572">
        <ele>561</ele>
        <time>2015-11-29T14:16:27Z</time>
      </trkpt>
      <trkpt lat="43.96814" lon="2.57567">
        <ele>561</ele>
        <time>2015-11-29T14:16:32Z</time>
      </trkpt>
      <trkpt lat="43.96809" lon="2.57562">
        <ele>561</ele>
        <time>2015-11-29T14:16:37Z</time>
      </trkpt>
      <trkpt lat="43.96805" lon="2.57555">
        <ele>561</ele>
        <time>2015-11-29T14:16:43Z</time>
      </trkpt>
      <trkpt lat="43.96801" lon="2.57551">
        <ele>560</ele>
        <time>2015-11-29T14:16:48Z</time>
      </trkpt>
      <trkpt lat="43.96795" lon="2.57547">
        <ele>560</ele>
        <time>2015-11-29T14:16:54Z</time>
      </trkpt>
      <trkpt lat="43.9679" lon="2.57542">
        <ele>561</ele>
        <time>2015-11-29T14:16:59Z</time>
      </trkpt>
      <trkpt lat="43.96784" lon="2.57538">
        <ele>561</ele>
        <time>2015-11-29T14:17:04Z</time>
      </trkpt>
      <trkpt lat="43.96778" lon="2.57534">
        <ele>561</ele>
        <time>2015-11-29T14:17:09Z</time>
      </trkpt>
      <trkpt lat="43.96773" lon="2.57529">
        <ele>561</ele>
        <time>2015-11-29T14:17:14Z</time>
      </trkpt>
      <trkpt lat="43.96768" lon="2.57525">
        <ele>561</ele>
        <time>2015-11-29T14:17:19Z</time>
      </trkpt>
      <trkpt lat="43.96763" lon="2.57523">
        <ele>561</ele>
        <time>2015-11-29T14:17:24Z</time>
      </trkpt>
      <trkpt lat="43.96758" lon="2.57518">
        <ele>561</ele>
        <time>2015-11-29T14:17:30Z</time>
      </trkpt>
      <trkpt lat="43.96753" lon="2.57514">
        <ele>561</ele>
        <time>2015-11-29T14:17:34Z</time>
      </trkpt>
      <trkpt lat="43.96747" lon="2.5751">
        <ele>561</ele>
        <time>2015-11-29T14:17:40Z</time>
      </trkpt>
      <trkpt lat="43.96742" lon="2.57507">
        <ele>561</ele>
        <time>2015-11-29T14:17:44Z</time>
      </trkpt>
      <trkpt lat="43.96737" lon="2.57504">
        <ele>561</ele>
        <time>2015-11-29T14:17:49Z</time>
      </trkpt>
      <trkpt lat="43.96733" lon="2.57501">
        <ele>561</ele>
        <time>2015-11-29T14:17:53Z</time>
      </trkpt>
      <trkpt lat="43.96728" lon="2.57497">
        <ele>562</ele>
        <time>2015-11-29T14:17:59Z</time>
      </trkpt>
      <trkpt lat="43.96723" lon="2.57495">
        <ele>562</ele>
        <time>2015-11-29T14:18:03Z</time>
      </trkpt>
      <trkpt lat="43.96718" lon="2.57491">
        <ele>562</ele>
        <time>2015-11-29T14:18:07Z</time>
      </trkpt>
      <trkpt lat="43.96714" lon="2.57488">
        <ele>562</ele>
        <time>2015-11-29T14:18:11Z</time>
      </trkpt>
      <trkpt lat="43.9671" lon="2.57485">
        <ele>563</ele>
        <time>2015-11-29T14:18:15Z</time>
      </trkpt>
      <trkpt lat="43.96705" lon="2.57483">
        <ele>563</ele>
        <time>2015-11-29T14:18:19Z</time>
      </trkpt>
      <trkpt lat="43.96701" lon="2.5748">
        <ele>563</ele>
        <time>2015-11-29T14:18:23Z</time>
      </trkpt>
      <trkpt lat="43.96695" lon="2.57477">
        <ele>563</ele>
        <time>2015-11-29T14:18:29Z</time>
      </trkpt>
      <trkpt lat="43.9669" lon="2.57474">
        <ele>563</ele>
        <time>2015-11-29T14:18:33Z</time>
      </trkpt>
      <trkpt lat="43.96685" lon="2.57472">
        <ele>563</ele>
        <time>2015-11-29T14:18:37Z</time>
      </trkpt>
      <trkpt lat="43.9668" lon="2.57469">
        <ele>563</ele>
        <time>2015-11-29T14:18:42Z</time>
      </trkpt>
      <trkpt lat="43.96675" lon="2.57466">
        <ele>563</ele>
        <time>2015-11-29T14:18:46Z</time>
      </trkpt>
      <trkpt lat="43.96669" lon="2.57463">
        <ele>563</ele>
        <time>2015-11-29T14:18:51Z</time>
      </trkpt>
      <trkpt lat="43.96664" lon="2.57461">
        <ele>563</ele>
        <time>2015-11-29T14:18:56Z</time>
      </trkpt>
      <trkpt lat="43.96659" lon="2.57459">
        <ele>563</ele>
        <time>2015-11-29T14:19:02Z</time>
      </trkpt>
      <trkpt lat="43.96653" lon="2.57457">
        <ele>563</ele>
        <time>2015-11-29T14:19:07Z</time>
      </trkpt>
      <trkpt lat="43.96648" lon="2.57457">
        <ele>563</ele>
        <time>2015-11-29T14:19:11Z</time>
      </trkpt>
      <trkpt lat="43.96643" lon="2.57457">
        <ele>564</ele>
        <time>2015-11-29T14:19:16Z</time>
      </trkpt>
      <trkpt lat="43.96638" lon="2.57458">
        <ele>564</ele>
        <time>2015-11-29T14:19:21Z</time>
      </trkpt>
      <trkpt lat="43.96632" lon="2.5746">
        <ele>564</ele>
        <time>2015-11-29T14:19:26Z</time>
      </trkpt>
      <trkpt lat="43.96627" lon="2.57461">
        <ele>564</ele>
        <time>2015-11-29T14:19:32Z</time>
      </trkpt>
      <trkpt lat="43.96622" lon="2.57463">
        <ele>565</ele>
        <time>2015-11-29T14:19:36Z</time>
      </trkpt>
      <trkpt lat="43.96617" lon="2.57465">
        <ele>565</ele>
        <time>2015-11-29T14:19:40Z</time>
      </trkpt>
      <trkpt lat="43.96613" lon="2.57467">
        <ele>565</ele>
        <time>2015-11-29T14:19:44Z</time>
      </trkpt>
      <trkpt lat="43.96608" lon="2.57469">
        <ele>566</ele>
        <time>2015-11-29T14:19:50Z</time>
      </trkpt>
      <trkpt lat="43.96601" lon="2.57471">
        <ele>566</ele>
        <time>2015-11-29T14:19:56Z</time>
      </trkpt>
      <trkpt lat="43.96595" lon="2.57473">
        <ele>566</ele>
        <time>2015-11-29T14:20:02Z</time>
      </trkpt>
      <trkpt lat="43.9659" lon="2.57475">
        <ele>566</ele>
        <time>2015-11-29T14:20:07Z</time>
      </trkpt>
      <trkpt lat="43.96584" lon="2.57477">
        <ele>566</ele>
        <time>2015-11-29T14:20:11Z</time>
      </trkpt>
      <trkpt lat="43.96579" lon="2.5748">
        <ele>567</ele>
        <time>2015-11-29T14:20:17Z</time>
      </trkpt>
      <trkpt lat="43.96573" lon="2.5748">
        <ele>567</ele>
        <time>2015-11-29T14:20:22Z</time>
      </trkpt>
      <trkpt lat="43.96568" lon="2.57482">
        <ele>567</ele>
        <time>2015-11-29T14:20:26Z</time>
      </trkpt>
      <trkpt lat="43.96562" lon="2.57482">
        <ele>567</ele>
        <time>2015-11-29T14:20:32Z</time>
      </trkpt>
      <trkpt lat="43.96556" lon="2.57484">
        <ele>567</ele>
        <time>2015-11-29T14:20:38Z</time>
      </trkpt>
      <trkpt lat="43.9655" lon="2.57486">
        <ele>567</ele>
        <time>2015-11-29T14:20:44Z</time>
      </trkpt>
      <trkpt lat="43.96544" lon="2.57488">
        <ele>568</ele>
        <time>2015-11-29T14:20:50Z</time>
      </trkpt>
      <trkpt lat="43.96538" lon="2.57488">
        <ele>568</ele>
        <time>2015-11-29T14:20:56Z</time>
      </trkpt>
      <trkpt lat="43.96533" lon="2.57489">
        <ele>568</ele>
        <time>2015-11-29T14:21:00Z</time>
      </trkpt>
      <trkpt lat="43.96529" lon="2.57489">
        <ele>568</ele>
        <time>2015-11-29T14:21:04Z</time>
      </trkpt>
      <trkpt lat="43.96523" lon="2.5749">
        <ele>568</ele>
        <time>2015-11-29T14:21:08Z</time>
      </trkpt>
      <trkpt lat="43.96517" lon="2.5749">
        <ele>569</ele>
        <time>2015-11-29T14:21:13Z</time>
      </trkpt>
      <trkpt lat="43.96512" lon="2.5749">
        <ele>569</ele>
        <time>2015-11-29T14:21:17Z</time>
      </trkpt>
      <trkpt lat="43.96506" lon="2.5749">
        <ele>569</ele>
        <time>2015-11-29T14:21:21Z</time>
      </trkpt>
      <trkpt lat="43.96501" lon="2.5749">
        <ele>569</ele>
        <time>2015-11-29T14:21:25Z</time>
      </trkpt>
      <trkpt lat="43.96494" lon="2.57493">
        <ele>569</ele>
        <time>2015-11-29T14:21:31Z</time>
      </trkpt>
      <trkpt lat="43.96488" lon="2.57495">
        <ele>569</ele>
        <time>2015-11-29T14:21:37Z</time>
      </trkpt>
      <trkpt lat="43.96483" lon="2.57499">
        <ele>569</ele>
        <time>2015-11-29T14:21:45Z</time>
      </trkpt>
      <trkpt lat="43.96477" lon="2.57502">
        <ele>570</ele>
        <time>2015-11-29T14:21:54Z</time>
      </trkpt>
      <trkpt lat="43.96472" lon="2.57503">
        <ele>570</ele>
        <time>2015-11-29T14:22:00Z</time>
      </trkpt>
      <trkpt lat="43.96468" lon="2.57509">
        <ele>571</ele>
        <time>2015-11-29T14:22:19Z</time>
      </trkpt>
      <trkpt lat="43.96462" lon="2.57507">
        <ele>571</ele>
        <time>2015-11-29T14:22:25Z</time>
      </trkpt>
      <trkpt lat="43.96456" lon="2.57509">
        <ele>571</ele>
        <time>2015-11-29T14:22:30Z</time>
      </trkpt>
      <trkpt lat="43.96449" lon="2.57509">
        <ele>572</ele>
        <time>2015-11-29T14:22:36Z</time>
      </trkpt>
      <trkpt lat="43.96443" lon="2.57509">
        <ele>572</ele>
        <time>2015-11-29T14:22:41Z</time>
      </trkpt>
      <trkpt lat="43.96438" lon="2.57506">
        <ele>572</ele>
        <time>2015-11-29T14:22:46Z</time>
      </trkpt>
      <trkpt lat="43.96433" lon="2.57503">
        <ele>573</ele>
        <time>2015-11-29T14:22:50Z</time>
      </trkpt>
      <trkpt lat="43.96429" lon="2.57498">
        <ele>573</ele>
        <time>2015-11-29T14:22:54Z</time>
      </trkpt>
      <trkpt lat="43.96427" lon="2.57492">
        <ele>573</ele>
        <time>2015-11-29T14:22:59Z</time>
      </trkpt>
      <trkpt lat="43.96425" lon="2.57484">
        <ele>573</ele>
        <time>2015-11-29T14:23:04Z</time>
      </trkpt>
      <trkpt lat="43.96425" lon="2.57478">
        <ele>573</ele>
        <time>2015-11-29T14:23:09Z</time>
      </trkpt>
      <trkpt lat="43.96425" lon="2.5747">
        <ele>572</ele>
        <time>2015-11-29T14:23:14Z</time>
      </trkpt>
      <trkpt lat="43.96427" lon="2.57463">
        <ele>572</ele>
        <time>2015-11-29T14:23:19Z</time>
      </trkpt>
      <trkpt lat="43.96428" lon="2.57456">
        <ele>572</ele>
        <time>2015-11-29T14:23:24Z</time>
      </trkpt>
      <trkpt lat="43.96428" lon="2.5745">
        <ele>572</ele>
        <time>2015-11-29T14:23:28Z</time>
      </trkpt>
      <trkpt lat="43.96431" lon="2.57444">
        <ele>572</ele>
        <time>2015-11-29T14:23:33Z</time>
      </trkpt>
      <trkpt lat="43.96436" lon="2.57432">
        <ele>571</ele>
        <time>2015-11-29T14:23:42Z</time>
      </trkpt>
      <trkpt lat="43.96439" lon="2.57427">
        <ele>571</ele>
        <time>2015-11-29T14:23:46Z</time>
      </trkpt>
      <trkpt lat="43.96441" lon="2.57419">
        <ele>571</ele>
        <time>2015-11-29T14:23:51Z</time>
      </trkpt>
      <trkpt lat="43.96447" lon="2.57413">
        <ele>571</ele>
        <time>2015-11-29T14:23:59Z</time>
      </trkpt>
      <trkpt lat="43.9645" lon="2.57408">
        <ele>570</ele>
        <time>2015-11-29T14:24:04Z</time>
      </trkpt>
      <trkpt lat="43.96455" lon="2.57401">
        <ele>570</ele>
        <time>2015-11-29T14:24:10Z</time>
      </trkpt>
      <trkpt lat="43.96459" lon="2.57393">
        <ele>570</ele>
        <time>2015-11-29T14:24:16Z</time>
      </trkpt>
      <trkpt lat="43.96462" lon="2.57389">
        <ele>570</ele>
        <time>2015-11-29T14:24:20Z</time>
      </trkpt>
      <trkpt lat="43.96465" lon="2.57384">
        <ele>570</ele>
        <time>2015-11-29T14:24:23Z</time>
      </trkpt>
      <trkpt lat="43.9647" lon="2.57376">
        <ele>569</ele>
        <time>2015-11-29T14:24:29Z</time>
      </trkpt>
      <trkpt lat="43.96473" lon="2.57371">
        <ele>569</ele>
        <time>2015-11-29T14:24:32Z</time>
      </trkpt>
      <trkpt lat="43.96477" lon="2.57366">
        <ele>569</ele>
        <time>2015-11-29T14:24:36Z</time>
      </trkpt>
      <trkpt lat="43.9648" lon="2.5736">
        <ele>569</ele>
        <time>2015-11-29T14:24:40Z</time>
      </trkpt>
      <trkpt lat="43.96483" lon="2.57355">
        <ele>569</ele>
        <time>2015-11-29T14:24:44Z</time>
      </trkpt>
      <trkpt lat="43.96486" lon="2.57348">
        <ele>568</ele>
        <time>2015-11-29T14:24:49Z</time>
      </trkpt>
      <trkpt lat="43.96489" lon="2.57341">
        <ele>568</ele>
        <time>2015-11-29T14:24:53Z</time>
      </trkpt>
      <trkpt lat="43.96494" lon="2.57338">
        <ele>568</ele>
        <time>2015-11-29T14:25:00Z</time>
      </trkpt>
      <trkpt lat="43.96498" lon="2.57333">
        <ele>568</ele>
        <time>2015-11-29T14:25:05Z</time>
      </trkpt>
      <trkpt lat="43.96502" lon="2.57327">
        <ele>567</ele>
        <time>2015-11-29T14:25:10Z</time>
      </trkpt>
      <trkpt lat="43.96505" lon="2.5732">
        <ele>567</ele>
        <time>2015-11-29T14:25:14Z</time>
      </trkpt>
      <trkpt lat="43.96507" lon="2.57313">
        <ele>567</ele>
        <time>2015-11-29T14:25:19Z</time>
      </trkpt>
      <trkpt lat="43.9651" lon="2.57307">
        <ele>566</ele>
        <time>2015-11-29T14:25:23Z</time>
      </trkpt>
      <trkpt lat="43.96511" lon="2.573">
        <ele>566</ele>
        <time>2015-11-29T14:25:28Z</time>
      </trkpt>
      <trkpt lat="43.96512" lon="2.57288">
        <ele>566</ele>
        <time>2015-11-29T14:25:33Z</time>
      </trkpt>
      <trkpt lat="43.96515" lon="2.57281">
        <ele>566</ele>
        <time>2015-11-29T14:25:36Z</time>
      </trkpt>
      <trkpt lat="43.96516" lon="2.57275">
        <ele>567</ele>
        <time>2015-11-29T14:25:39Z</time>
      </trkpt>
      <trkpt lat="43.96517" lon="2.57269">
        <ele>567</ele>
        <time>2015-11-29T14:25:43Z</time>
      </trkpt>
      <trkpt lat="43.9652" lon="2.57261">
        <ele>567</ele>
        <time>2015-11-29T14:25:48Z</time>
      </trkpt>
      <trkpt lat="43.96524" lon="2.57258">
        <ele>568</ele>
        <time>2015-11-29T14:25:56Z</time>
      </trkpt>
      <trkpt lat="43.96529" lon="2.5726">
        <ele>569</ele>
        <time>2015-11-29T14:26:02Z</time>
      </trkpt>
      <trkpt lat="43.96535" lon="2.57262">
        <ele>570</ele>
        <time>2015-11-29T14:26:07Z</time>
      </trkpt>
      <trkpt lat="43.96539" lon="2.57266">
        <ele>571</ele>
        <time>2015-11-29T14:26:13Z</time>
      </trkpt>
      <trkpt lat="43.9654" lon="2.57273">
        <ele>572</ele>
        <time>2015-11-29T14:26:19Z</time>
      </trkpt>
      <trkpt lat="43.96541" lon="2.57275">
        <ele>573</ele>
        <time>2015-11-29T14:26:35Z</time>
      </trkpt>
      <trkpt lat="43.96547" lon="2.57284">
        <ele>574</ele>
        <time>2015-11-29T14:26:37Z</time>
      </trkpt>
      <trkpt lat="43.96548" lon="2.57285">
        <ele>575</ele>
        <time>2015-11-29T14:27:02Z</time>
      </trkpt>
      <trkpt lat="43.96548" lon="2.57285">
        <ele>576</ele>
        <time>2015-11-29T14:27:33Z</time>
      </trkpt>
      <trkpt lat="43.96543" lon="2.57274">
        <ele>577</ele>
        <time>2015-11-29T14:27:51Z</time>
      </trkpt>
      <trkpt lat="43.96543" lon="2.57274">
        <ele>578</ele>
        <time>2015-11-29T14:28:28Z</time>
      </trkpt>
      <trkpt lat="43.96543" lon="2.57274">
        <ele>579</ele>
        <time>2015-11-29T14:28:56Z</time>
      </trkpt>
      <trkpt lat="43.96539" lon="2.57272">
        <ele>579</ele>
        <time>2015-11-29T14:29:24Z</time>
      </trkpt>
      <trkpt lat="43.96537" lon="2.57271">
        <ele>580</ele>
        <time>2015-11-29T14:29:26Z</time>
      </trkpt>
      <trkpt lat="43.96532" lon="2.57267">
        <ele>581</ele>
        <time>2015-11-29T14:29:33Z</time>
      </trkpt>
      <trkpt lat="43.96528" lon="2.57262">
        <ele>581</ele>
        <time>2015-11-29T14:29:40Z</time>
      </trkpt>
      <trkpt lat="43.96523" lon="2.5726">
        <ele>582</ele>
        <time>2015-11-29T14:29:45Z</time>
      </trkpt>
      <trkpt lat="43.96518" lon="2.57257">
        <ele>581</ele>
        <time>2015-11-29T14:29:51Z</time>
      </trkpt>
      <trkpt lat="43.96513" lon="2.57253">
        <ele>581</ele>
        <time>2015-11-29T14:29:57Z</time>
      </trkpt>
      <trkpt lat="43.96509" lon="2.57249">
        <ele>581</ele>
        <time>2015-11-29T14:30:03Z</time>
      </trkpt>
      <trkpt lat="43.96506" lon="2.57244">
        <ele>581</ele>
        <time>2015-11-29T14:30:09Z</time>
      </trkpt>
      <trkpt lat="43.96505" lon="2.57237">
        <ele>581</ele>
        <time>2015-11-29T14:30:14Z</time>
      </trkpt>
      <trkpt lat="43.96501" lon="2.5723">
        <ele>580</ele>
        <time>2015-11-29T14:30:19Z</time>
      </trkpt>
      <trkpt lat="43.96497" lon="2.57225">
        <ele>580</ele>
        <time>2015-11-29T14:30:23Z</time>
      </trkpt>
      <trkpt lat="43.96495" lon="2.57219">
        <ele>580</ele>
        <time>2015-11-29T14:30:28Z</time>
      </trkpt>
      <trkpt lat="43.9649" lon="2.57214">
        <ele>579</ele>
        <time>2015-11-29T14:30:34Z</time>
      </trkpt>
      <trkpt lat="43.96487" lon="2.57208">
        <ele>579</ele>
        <time>2015-11-29T14:30:40Z</time>
      </trkpt>
      <trkpt lat="43.96483" lon="2.57202">
        <ele>579</ele>
        <time>2015-11-29T14:30:47Z</time>
      </trkpt>
      <trkpt lat="43.96478" lon="2.57197">
        <ele>578</ele>
        <time>2015-11-29T14:30:52Z</time>
      </trkpt>
      <trkpt lat="43.96474" lon="2.5719">
        <ele>578</ele>
        <time>2015-11-29T14:30:57Z</time>
      </trkpt>
      <trkpt lat="43.9647" lon="2.57184">
        <ele>578</ele>
        <time>2015-11-29T14:31:02Z</time>
      </trkpt>
      <trkpt lat="43.96467" lon="2.57178">
        <ele>577</ele>
        <time>2015-11-29T14:31:06Z</time>
      </trkpt>
      <trkpt lat="43.96463" lon="2.5717">
        <ele>577</ele>
        <time>2015-11-29T14:31:12Z</time>
      </trkpt>
      <trkpt lat="43.9646" lon="2.57163">
        <ele>577</ele>
        <time>2015-11-29T14:31:17Z</time>
      </trkpt>
      <trkpt lat="43.96457" lon="2.57157">
        <ele>576</ele>
        <time>2015-11-29T14:31:21Z</time>
      </trkpt>
      <trkpt lat="43.96454" lon="2.57152">
        <ele>576</ele>
        <time>2015-11-29T14:31:25Z</time>
      </trkpt>
      <trkpt lat="43.96451" lon="2.57146">
        <ele>575</ele>
        <time>2015-11-29T14:31:30Z</time>
      </trkpt>
      <trkpt lat="43.96448" lon="2.57141">
        <ele>575</ele>
        <time>2015-11-29T14:31:35Z</time>
      </trkpt>
      <trkpt lat="43.96446" lon="2.57135">
        <ele>574</ele>
        <time>2015-11-29T14:31:40Z</time>
      </trkpt>
      <trkpt lat="43.96443" lon="2.57129">
        <ele>573</ele>
        <time>2015-11-29T14:31:45Z</time>
      </trkpt>
      <trkpt lat="43.96441" lon="2.57122">
        <ele>572</ele>
        <time>2015-11-29T14:31:50Z</time>
      </trkpt>
      <trkpt lat="43.96438" lon="2.57113">
        <ele>572</ele>
        <time>2015-11-29T14:31:55Z</time>
      </trkpt>
      <trkpt lat="43.96436" lon="2.57105">
        <ele>571</ele>
        <time>2015-11-29T14:32:00Z</time>
      </trkpt>
      <trkpt lat="43.96434" lon="2.57098">
        <ele>570</ele>
        <time>2015-11-29T14:32:05Z</time>
      </trkpt>
      <trkpt lat="43.96431" lon="2.57092">
        <ele>569</ele>
        <time>2015-11-29T14:32:09Z</time>
      </trkpt>
      <trkpt lat="43.96429" lon="2.57085">
        <ele>569</ele>
        <time>2015-11-29T14:32:14Z</time>
      </trkpt>
      <trkpt lat="43.96428" lon="2.57078">
        <ele>568</ele>
        <time>2015-11-29T14:32:20Z</time>
      </trkpt>
      <trkpt lat="43.96427" lon="2.57069">
        <ele>567</ele>
        <time>2015-11-29T14:32:25Z</time>
      </trkpt>
      <trkpt lat="43.96425" lon="2.57063">
        <ele>567</ele>
        <time>2015-11-29T14:32:30Z</time>
      </trkpt>
      <trkpt lat="43.96423" lon="2.57057">
        <ele>566</ele>
        <time>2015-11-29T14:32:36Z</time>
      </trkpt>
      <trkpt lat="43.96421" lon="2.57049">
        <ele>566</ele>
        <time>2015-11-29T14:32:42Z</time>
      </trkpt>
      <trkpt lat="43.96421" lon="2.57041">
        <ele>566</ele>
        <time>2015-11-29T14:32:47Z</time>
      </trkpt>
      <trkpt lat="43.96421" lon="2.57031">
        <ele>566</ele>
        <time>2015-11-29T14:32:53Z</time>
      </trkpt>
      <trkpt lat="43.9642" lon="2.57024">
        <ele>565</ele>
        <time>2015-11-29T14:32:57Z</time>
      </trkpt>
      <trkpt lat="43.96419" lon="2.57015">
        <ele>565</ele>
        <time>2015-11-29T14:33:02Z</time>
      </trkpt>
      <trkpt lat="43.96418" lon="2.57007">
        <ele>564</ele>
        <time>2015-11-29T14:33:07Z</time>
      </trkpt>
      <trkpt lat="43.96418" lon="2.57">
        <ele>564</ele>
        <time>2015-11-29T14:33:11Z</time>
      </trkpt>
      <trkpt lat="43.96418" lon="2.56991">
        <ele>564</ele>
        <time>2015-11-29T14:33:16Z</time>
      </trkpt>
      <trkpt lat="43.96417" lon="2.56982">
        <ele>564</ele>
        <time>2015-11-29T14:33:22Z</time>
      </trkpt>
      <trkpt lat="43.96417" lon="2.56973">
        <ele>564</ele>
        <time>2015-11-29T14:33:26Z</time>
      </trkpt>
      <trkpt lat="43.96417" lon="2.56966">
        <ele>564</ele>
        <time>2015-11-29T14:33:30Z</time>
      </trkpt>
      <trkpt lat="43.96417" lon="2.56959">
        <ele>564</ele>
        <time>2015-11-29T14:33:34Z</time>
      </trkpt>
      <trkpt lat="43.96417" lon="2.56951">
        <ele>564</ele>
        <time>2015-11-29T14:33:39Z</time>
      </trkpt>
      <trkpt lat="43.96417" lon="2.56943">
        <ele>564</ele>
        <time>2015-11-29T14:33:43Z</time>
      </trkpt>
      <trkpt lat="43.96416" lon="2.56935">
        <ele>563</ele>
        <time>2015-11-29T14:33:48Z</time>
      </trkpt>
      <trkpt lat="43.96417" lon="2.56928">
        <ele>563</ele>
        <time>2015-11-29T14:33:53Z</time>
      </trkpt>
      <trkpt lat="43.96418" lon="2.5692">
        <ele>563</ele>
        <time>2015-11-29T14:33:58Z</time>
      </trkpt>
      <trkpt lat="43.96417" lon="2.56912">
        <ele>562</ele>
        <time>2015-11-29T14:34:03Z</time>
      </trkpt>
      <trkpt lat="43.96417" lon="2.56903">
        <ele>562</ele>
        <time>2015-11-29T14:34:08Z</time>
      </trkpt>
      <trkpt lat="43.96417" lon="2.56895">
        <ele>561</ele>
        <time>2015-11-29T14:34:11Z</time>
      </trkpt>
      <trkpt lat="43.96416" lon="2.56887">
        <ele>561</ele>
        <time>2015-11-29T14:34:16Z</time>
      </trkpt>
      <trkpt lat="43.96415" lon="2.56881">
        <ele>561</ele>
        <time>2015-11-29T14:34:20Z</time>
      </trkpt>
      <trkpt lat="43.96414" lon="2.56874">
        <ele>561</ele>
        <time>2015-11-29T14:34:25Z</time>
      </trkpt>
      <trkpt lat="43.96412" lon="2.56867">
        <ele>561</ele>
        <time>2015-11-29T14:34:30Z</time>
      </trkpt>
      <trkpt lat="43.9641" lon="2.56859">
        <ele>561</ele>
        <time>2015-11-29T14:34:35Z</time>
      </trkpt>
      <trkpt lat="43.96407" lon="2.56852">
        <ele>560</ele>
        <time>2015-11-29T14:34:40Z</time>
      </trkpt>
      <trkpt lat="43.96405" lon="2.56845">
        <ele>560</ele>
        <time>2015-11-29T14:34:45Z</time>
      </trkpt>
      <trkpt lat="43.96402" lon="2.56839">
        <ele>560</ele>
        <time>2015-11-29T14:34:50Z</time>
      </trkpt>
      <trkpt lat="43.96401" lon="2.56833">
        <ele>560</ele>
        <time>2015-11-29T14:34:53Z</time>
      </trkpt>
      <trkpt lat="43.96401" lon="2.56833">
        <ele>560</ele>
        <time>2015-11-29T14:35:18Z</time>
      </trkpt>
      <trkpt lat="43.964" lon="2.56839">
        <ele>560</ele>
        <time>2015-11-29T14:35:43Z</time>
      </trkpt>
      <trkpt lat="43.96395" lon="2.56842">
        <ele>561</ele>
        <time>2015-11-29T14:35:53Z</time>
      </trkpt>
      <trkpt lat="43.96389" lon="2.56843">
        <ele>562</ele>
        <time>2015-11-29T14:35:58Z</time>
      </trkpt>
      <trkpt lat="43.96383" lon="2.56842">
        <ele>562</ele>
        <time>2015-11-29T14:36:02Z</time>
      </trkpt>
      <trkpt lat="43.96377" lon="2.56839">
        <ele>563</ele>
        <time>2015-11-29T14:36:07Z</time>
      </trkpt>
      <trkpt lat="43.96371" lon="2.56835">
        <ele>563</ele>
        <time>2015-11-29T14:36:13Z</time>
      </trkpt>
      <trkpt lat="43.96366" lon="2.56832">
        <ele>563</ele>
        <time>2015-11-29T14:36:18Z</time>
      </trkpt>
      <trkpt lat="43.96361" lon="2.56829">
        <ele>563</ele>
        <time>2015-11-29T14:36:23Z</time>
      </trkpt>
      <trkpt lat="43.96357" lon="2.56827">
        <ele>562</ele>
        <time>2015-11-29T14:36:28Z</time>
      </trkpt>
      <trkpt lat="43.9635" lon="2.56825">
        <ele>562</ele>
        <time>2015-11-29T14:36:36Z</time>
      </trkpt>
      <trkpt lat="43.96345" lon="2.56821">
        <ele>562</ele>
        <time>2015-11-29T14:36:41Z</time>
      </trkpt>
      <trkpt lat="43.96342" lon="2.56817">
        <ele>561</ele>
        <time>2015-11-29T14:36:46Z</time>
      </trkpt>
      <trkpt lat="43.96338" lon="2.56813">
        <ele>561</ele>
        <time>2015-11-29T14:36:51Z</time>
      </trkpt>
      <trkpt lat="43.96333" lon="2.56809">
        <ele>561</ele>
        <time>2015-11-29T14:36:58Z</time>
      </trkpt>
      <trkpt lat="43.96328" lon="2.56801">
        <ele>560</ele>
        <time>2015-11-29T14:37:02Z</time>
      </trkpt>
      <trkpt lat="43.96325" lon="2.56795">
        <ele>560</ele>
        <time>2015-11-29T14:37:07Z</time>
      </trkpt>
      <trkpt lat="43.96321" lon="2.56792">
        <ele>560</ele>
        <time>2015-11-29T14:37:15Z</time>
      </trkpt>
      <trkpt lat="43.96319" lon="2.56785">
        <ele>560</ele>
        <time>2015-11-29T14:37:19Z</time>
      </trkpt>
      <trkpt lat="43.96316" lon="2.5678">
        <ele>559</ele>
        <time>2015-11-29T14:37:25Z</time>
      </trkpt>
      <trkpt lat="43.96313" lon="2.56774">
        <ele>558</ele>
        <time>2015-11-29T14:37:32Z</time>
      </trkpt>
      <trkpt lat="43.96309" lon="2.56769">
        <ele>558</ele>
        <time>2015-11-29T14:37:37Z</time>
      </trkpt>
      <trkpt lat="43.96305" lon="2.56762">
        <ele>557</ele>
        <time>2015-11-29T14:37:41Z</time>
      </trkpt>
      <trkpt lat="43.96301" lon="2.56757">
        <ele>556</ele>
        <time>2015-11-29T14:37:45Z</time>
      </trkpt>
      <trkpt lat="43.96298" lon="2.56751">
        <ele>556</ele>
        <time>2015-11-29T14:37:49Z</time>
      </trkpt>
      <trkpt lat="43.96293" lon="2.56748">
        <ele>555</ele>
        <time>2015-11-29T14:37:54Z</time>
      </trkpt>
      <trkpt lat="43.96289" lon="2.56743">
        <ele>555</ele>
        <time>2015-11-29T14:37:58Z</time>
      </trkpt>
      <trkpt lat="43.96286" lon="2.56738">
        <ele>554</ele>
        <time>2015-11-29T14:38:02Z</time>
      </trkpt>
      <trkpt lat="43.96281" lon="2.56733">
        <ele>554</ele>
        <time>2015-11-29T14:38:07Z</time>
      </trkpt>
      <trkpt lat="43.96277" lon="2.56727">
        <ele>553</ele>
        <time>2015-11-29T14:38:12Z</time>
      </trkpt>
      <trkpt lat="43.96275" lon="2.5672">
        <ele>553</ele>
        <time>2015-11-29T14:38:18Z</time>
      </trkpt>
      <trkpt lat="43.96272" lon="2.56712">
        <ele>552</ele>
        <time>2015-11-29T14:38:24Z</time>
      </trkpt>
      <trkpt lat="43.96269" lon="2.56706">
        <ele>551</ele>
        <time>2015-11-29T14:38:30Z</time>
      </trkpt>
      <trkpt lat="43.96266" lon="2.56698">
        <ele>551</ele>
        <time>2015-11-29T14:38:34Z</time>
      </trkpt>
      <trkpt lat="43.96266" lon="2.56697">
        <ele>550</ele>
        <time>2015-11-29T14:39:01Z</time>
      </trkpt>
      <trkpt lat="43.96274" lon="2.56705">
        <ele>550</ele>
        <time>2015-11-29T14:39:03Z</time>
      </trkpt>
      <trkpt lat="43.96275" lon="2.56705">
        <ele>550</ele>
        <time>2015-11-29T14:39:31Z</time>
      </trkpt>
      <trkpt lat="43.96278" lon="2.56714">
        <ele>550</ele>
        <time>2015-11-29T14:39:38Z</time>
      </trkpt>
      <trkpt lat="43.96281" lon="2.56723">
        <ele>551</ele>
        <time>2015-11-29T14:39:46Z</time>
      </trkpt>
      <trkpt lat="43.96285" lon="2.5673">
        <ele>552</ele>
        <time>2015-11-29T14:39:53Z</time>
      </trkpt>
      <trkpt lat="43.96288" lon="2.56735">
        <ele>552</ele>
        <time>2015-11-29T14:39:59Z</time>
      </trkpt>
      <trkpt lat="43.96294" lon="2.56739">
        <ele>553</ele>
        <time>2015-11-29T14:40:05Z</time>
      </trkpt>
      <trkpt lat="43.96298" lon="2.56745">
        <ele>553</ele>
        <time>2015-11-29T14:40:10Z</time>
      </trkpt>
      <trkpt lat="43.96302" lon="2.5675">
        <ele>554</ele>
        <time>2015-11-29T14:40:19Z</time>
      </trkpt>
      <trkpt lat="43.96314" lon="2.56955">
        <ele>559</ele>
        <time>2015-11-29T14:43:21Z</time>
      </trkpt>
      <trkpt lat="43.9631" lon="2.56963">
        <ele>565</ele>
        <time>2015-11-29T14:43:23Z</time>
      </trkpt>
      <trkpt lat="43.96306" lon="2.5697">
        <ele>569</ele>
        <time>2015-11-29T14:43:32Z</time>
      </trkpt>
      <trkpt lat="43.96303" lon="2.5698">
        <ele>571</ele>
        <time>2015-11-29T14:43:36Z</time>
      </trkpt>
      <trkpt lat="43.96299" lon="2.56986">
        <ele>573</ele>
        <time>2015-11-29T14:43:42Z</time>
      </trkpt>
      <trkpt lat="43.96296" lon="2.56992">
        <ele>569</ele>
        <time>2015-11-29T14:43:46Z</time>
      </trkpt>
      <trkpt lat="43.96295" lon="2.56999">
        <ele>566</ele>
        <time>2015-11-29T14:43:51Z</time>
      </trkpt>
      <trkpt lat="43.96292" lon="2.57007">
        <ele>565</ele>
        <time>2015-11-29T14:43:56Z</time>
      </trkpt>
      <trkpt lat="43.9629" lon="2.57013">
        <ele>566</ele>
        <time>2015-11-29T14:44:00Z</time>
      </trkpt>
      <trkpt lat="43.96288" lon="2.57019">
        <ele>567</ele>
        <time>2015-11-29T14:44:05Z</time>
      </trkpt>
      <trkpt lat="43.96286" lon="2.57026">
        <ele>568</ele>
        <time>2015-11-29T14:44:09Z</time>
      </trkpt>
      <trkpt lat="43.96285" lon="2.57032">
        <ele>568</ele>
        <time>2015-11-29T14:44:12Z</time>
      </trkpt>
      <trkpt lat="43.96282" lon="2.57041">
        <ele>568</ele>
        <time>2015-11-29T14:44:17Z</time>
      </trkpt>
      <trkpt lat="43.9628" lon="2.57049">
        <ele>568</ele>
        <time>2015-11-29T14:44:22Z</time>
      </trkpt>
      <trkpt lat="43.96279" lon="2.57057">
        <ele>568</ele>
        <time>2015-11-29T14:44:28Z</time>
      </trkpt>
      <trkpt lat="43.96278" lon="2.57065">
        <ele>567</ele>
        <time>2015-11-29T14:44:35Z</time>
      </trkpt>
      <trkpt lat="43.96277" lon="2.57073">
        <ele>566</ele>
        <time>2015-11-29T14:44:42Z</time>
      </trkpt>
      <trkpt lat="43.96275" lon="2.5708">
        <ele>565</ele>
        <time>2015-11-29T14:44:47Z</time>
      </trkpt>
      <trkpt lat="43.96275" lon="2.57088">
        <ele>564</ele>
        <time>2015-11-29T14:44:52Z</time>
      </trkpt>
      <trkpt lat="43.96277" lon="2.57095">
        <ele>563</ele>
        <time>2015-11-29T14:44:56Z</time>
      </trkpt>
      <trkpt lat="43.96277" lon="2.57101">
        <ele>562</ele>
        <time>2015-11-29T14:45:00Z</time>
      </trkpt>
      <trkpt lat="43.96278" lon="2.57111">
        <ele>561</ele>
        <time>2015-11-29T14:45:06Z</time>
      </trkpt>
      <trkpt lat="43.96278" lon="2.57117">
        <ele>560</ele>
        <time>2015-11-29T14:45:12Z</time>
      </trkpt>
      <trkpt lat="43.96277" lon="2.57125">
        <ele>559</ele>
        <time>2015-11-29T14:45:19Z</time>
      </trkpt>
      <trkpt lat="43.9628" lon="2.57132">
        <ele>558</ele>
        <time>2015-11-29T14:45:25Z</time>
      </trkpt>
      <trkpt lat="43.96281" lon="2.5714">
        <ele>557</ele>
        <time>2015-11-29T14:45:32Z</time>
      </trkpt>
      <trkpt lat="43.9628" lon="2.57146">
        <ele>557</ele>
        <time>2015-11-29T14:45:39Z</time>
      </trkpt>
      <trkpt lat="43.96283" lon="2.57152">
        <ele>556</ele>
        <time>2015-11-29T14:45:47Z</time>
      </trkpt>
      <trkpt lat="43.96287" lon="2.57158">
        <ele>556</ele>
        <time>2015-11-29T14:45:52Z</time>
      </trkpt>
      <trkpt lat="43.96291" lon="2.57162">
        <ele>555</ele>
        <time>2015-11-29T14:45:56Z</time>
      </trkpt>
      <trkpt lat="43.96297" lon="2.57166">
        <ele>555</ele>
        <time>2015-11-29T14:45:59Z</time>
      </trkpt>
      <trkpt lat="43.96302" lon="2.57173">
        <ele>554</ele>
        <time>2015-11-29T14:46:04Z</time>
      </trkpt>
      <trkpt lat="43.96306" lon="2.57179">
        <ele>554</ele>
        <time>2015-11-29T14:46:08Z</time>
      </trkpt>
      <trkpt lat="43.9631" lon="2.57185">
        <ele>553</ele>
        <time>2015-11-29T14:46:11Z</time>
      </trkpt>
      <trkpt lat="43.96313" lon="2.5719">
        <ele>553</ele>
        <time>2015-11-29T14:46:18Z</time>
      </trkpt>
      <trkpt lat="43.96315" lon="2.57197">
        <ele>552</ele>
        <time>2015-11-29T14:46:22Z</time>
      </trkpt>
      <trkpt lat="43.96319" lon="2.572">
        <ele>552</ele>
        <time>2015-11-29T14:46:28Z</time>
      </trkpt>
      <trkpt lat="43.96326" lon="2.57205">
        <ele>551</ele>
        <time>2015-11-29T14:46:33Z</time>
      </trkpt>
      <trkpt lat="43.9633" lon="2.5721">
        <ele>551</ele>
        <time>2015-11-29T14:46:38Z</time>
      </trkpt>
      <trkpt lat="43.96331" lon="2.57218">
        <ele>551</ele>
        <time>2015-11-29T14:46:42Z</time>
      </trkpt>
      <trkpt lat="43.96335" lon="2.57223">
        <ele>550</ele>
        <time>2015-11-29T14:46:50Z</time>
      </trkpt>
      <trkpt lat="43.96337" lon="2.57229">
        <ele>550</ele>
        <time>2015-11-29T14:46:57Z</time>
      </trkpt>
      <trkpt lat="43.96339" lon="2.57235">
        <ele>550</ele>
        <time>2015-11-29T14:47:12Z</time>
      </trkpt>
      <trkpt lat="43.9634" lon="2.57242">
        <ele>550</ele>
        <time>2015-11-29T14:47:19Z</time>
      </trkpt>
      <trkpt lat="43.9634" lon="2.57249">
        <ele>551</ele>
        <time>2015-11-29T14:47:25Z</time>
      </trkpt>
      <trkpt lat="43.96338" lon="2.57256">
        <ele>551</ele>
        <time>2015-11-29T14:47:31Z</time>
      </trkpt>
      <trkpt lat="43.96334" lon="2.57263">
        <ele>551</ele>
        <time>2015-11-29T14:47:36Z</time>
      </trkpt>
      <trkpt lat="43.9633" lon="2.57267">
        <ele>551</ele>
        <time>2015-11-29T14:47:40Z</time>
      </trkpt>
      <trkpt lat="43.96326" lon="2.57272">
        <ele>551</ele>
        <time>2015-11-29T14:47:45Z</time>
      </trkpt>
      <trkpt lat="43.96322" lon="2.57276">
        <ele>551</ele>
        <time>2015-11-29T14:47:50Z</time>
      </trkpt>
      <trkpt lat="43.96315" lon="2.57279">
        <ele>551</ele>
        <time>2015-11-29T14:47:58Z</time>
      </trkpt>
      <trkpt lat="43.96309" lon="2.57281">
        <ele>551</ele>
        <time>2015-11-29T14:48:02Z</time>
      </trkpt>
      <trkpt lat="43.96304" lon="2.57284">
        <ele>551</ele>
        <time>2015-11-29T14:48:06Z</time>
      </trkpt>
      <trkpt lat="43.96299" lon="2.57286">
        <ele>551</ele>
        <time>2015-11-29T14:48:09Z</time>
      </trkpt>
      <trkpt lat="43.96293" lon="2.57289">
        <ele>551</ele>
        <time>2015-11-29T14:48:14Z</time>
      </trkpt>
      <trkpt lat="43.96287" lon="2.57291">
        <ele>551</ele>
        <time>2015-11-29T14:48:18Z</time>
      </trkpt>
      <trkpt lat="43.96283" lon="2.57293">
        <ele>551</ele>
        <time>2015-11-29T14:48:21Z</time>
      </trkpt>
      <trkpt lat="43.96278" lon="2.57296">
        <ele>551</ele>
        <time>2015-11-29T14:48:25Z</time>
      </trkpt>
      <trkpt lat="43.96273" lon="2.57298">
        <ele>551</ele>
        <time>2015-11-29T14:48:30Z</time>
      </trkpt>
      <trkpt lat="43.96268" lon="2.573">
        <ele>551</ele>
        <time>2015-11-29T14:48:34Z</time>
      </trkpt>
      <trkpt lat="43.96264" lon="2.57302">
        <ele>550</ele>
        <time>2015-11-29T14:48:38Z</time>
      </trkpt>
      <trkpt lat="43.96258" lon="2.57304">
        <ele>550</ele>
        <time>2015-11-29T14:48:42Z</time>
      </trkpt>
      <trkpt lat="43.96254" lon="2.57306">
        <ele>550</ele>
        <time>2015-11-29T14:48:47Z</time>
      </trkpt>
      <trkpt lat="43.96249" lon="2.57309">
        <ele>550</ele>
        <time>2015-11-29T14:48:52Z</time>
      </trkpt>
      <trkpt lat="43.96245" lon="2.57309">
        <ele>550</ele>
        <time>2015-11-29T14:48:58Z</time>
      </trkpt>
      <trkpt lat="43.9624" lon="2.57309">
        <ele>550</ele>
        <time>2015-11-29T14:49:03Z</time>
      </trkpt>
      <trkpt lat="43.96235" lon="2.57308">
        <ele>549</ele>
        <time>2015-11-29T14:49:11Z</time>
      </trkpt>
      <trkpt lat="43.9623" lon="2.57308">
        <ele>549</ele>
        <time>2015-11-29T14:49:17Z</time>
      </trkpt>
      <trkpt lat="43.96223" lon="2.57308">
        <ele>549</ele>
        <time>2015-11-29T14:49:24Z</time>
      </trkpt>
      <trkpt lat="43.96219" lon="2.57308">
        <ele>549</ele>
        <time>2015-11-29T14:49:28Z</time>
      </trkpt>
      <trkpt lat="43.96212" lon="2.57308">
        <ele>548</ele>
        <time>2015-11-29T14:49:35Z</time>
      </trkpt>
      <trkpt lat="43.96208" lon="2.57307">
        <ele>548</ele>
        <time>2015-11-29T14:49:40Z</time>
      </trkpt>
      <trkpt lat="43.96202" lon="2.57307">
        <ele>548</ele>
        <time>2015-11-29T14:49:46Z</time>
      </trkpt>
      <trkpt lat="43.96196" lon="2.57306">
        <ele>547</ele>
        <time>2015-11-29T14:49:51Z</time>
      </trkpt>
      <trkpt lat="43.96191" lon="2.57306">
        <ele>547</ele>
        <time>2015-11-29T14:49:57Z</time>
      </trkpt>
      <trkpt lat="43.96185" lon="2.57305">
        <ele>547</ele>
        <time>2015-11-29T14:50:04Z</time>
      </trkpt>
      <trkpt lat="43.9618" lon="2.57305">
        <ele>546</ele>
        <time>2015-11-29T14:50:08Z</time>
      </trkpt>
      <trkpt lat="43.96175" lon="2.57306">
        <ele>546</ele>
        <time>2015-11-29T14:50:12Z</time>
      </trkpt>
      <trkpt lat="43.9617" lon="2.57307">
        <ele>546</ele>
        <time>2015-11-29T14:50:17Z</time>
      </trkpt>
      <trkpt lat="43.96166" lon="2.57306">
        <ele>545</ele>
        <time>2015-11-29T14:50:23Z</time>
      </trkpt>
      <trkpt lat="43.96161" lon="2.57306">
        <ele>544</ele>
        <time>2015-11-29T14:50:28Z</time>
      </trkpt>
      <trkpt lat="43.96155" lon="2.57309">
        <ele>544</ele>
        <time>2015-11-29T14:50:34Z</time>
      </trkpt>
      <trkpt lat="43.96149" lon="2.57309">
        <ele>543</ele>
        <time>2015-11-29T14:50:40Z</time>
      </trkpt>
      <trkpt lat="43.96143" lon="2.57311">
        <ele>543</ele>
        <time>2015-11-29T14:50:46Z</time>
      </trkpt>
      <trkpt lat="43.96137" lon="2.57313">
        <ele>542</ele>
        <time>2015-11-29T14:50:52Z</time>
      </trkpt>
      <trkpt lat="43.9613" lon="2.57315">
        <ele>542</ele>
        <time>2015-11-29T14:50:59Z</time>
      </trkpt>
      <trkpt lat="43.96124" lon="2.57317">
        <ele>541</ele>
        <time>2015-11-29T14:51:05Z</time>
      </trkpt>
      <trkpt lat="43.96118" lon="2.57321">
        <ele>540</ele>
        <time>2015-11-29T14:51:10Z</time>
      </trkpt>
      <trkpt lat="43.96113" lon="2.57322">
        <ele>540</ele>
        <time>2015-11-29T14:51:15Z</time>
      </trkpt>
      <trkpt lat="43.96108" lon="2.57324">
        <ele>539</ele>
        <time>2015-11-29T14:51:20Z</time>
      </trkpt>
      <trkpt lat="43.96103" lon="2.57325">
        <ele>539</ele>
        <time>2015-11-29T14:51:29Z</time>
      </trkpt>
      <trkpt lat="43.96098" lon="2.57329">
        <ele>538</ele>
        <time>2015-11-29T14:51:37Z</time>
      </trkpt>
      <trkpt lat="43.96093" lon="2.5733">
        <ele>537</ele>
        <time>2015-11-29T14:51:43Z</time>
      </trkpt>
      <trkpt lat="43.96088" lon="2.57332">
        <ele>537</ele>
        <time>2015-11-29T14:51:48Z</time>
      </trkpt>
      <trkpt lat="43.96082" lon="2.57333">
        <ele>537</ele>
        <time>2015-11-29T14:51:54Z</time>
      </trkpt>
      <trkpt lat="43.96077" lon="2.57334">
        <ele>536</ele>
        <time>2015-11-29T14:52:00Z</time>
      </trkpt>
      <trkpt lat="43.96072" lon="2.57335">
        <ele>536</ele>
        <time>2015-11-29T14:52:05Z</time>
      </trkpt>
      <trkpt lat="43.96066" lon="2.57336">
        <ele>535</ele>
        <time>2015-11-29T14:52:11Z</time>
      </trkpt>
      <trkpt lat="43.9606" lon="2.57339">
        <ele>535</ele>
        <time>2015-11-29T14:52:18Z</time>
      </trkpt>
      <trkpt lat="43.96055" lon="2.57341">
        <ele>535</ele>
        <time>2015-11-29T14:52:22Z</time>
      </trkpt>
      <trkpt lat="43.96047" lon="2.57346">
        <ele>534</ele>
        <time>2015-11-29T14:52:29Z</time>
      </trkpt>
      <trkpt lat="43.96042" lon="2.57349">
        <ele>534</ele>
        <time>2015-11-29T14:52:34Z</time>
      </trkpt>
      <trkpt lat="43.96037" lon="2.57353">
        <ele>534</ele>
        <time>2015-11-29T14:52:38Z</time>
      </trkpt>
      <trkpt lat="43.96032" lon="2.57356">
        <ele>534</ele>
        <time>2015-11-29T14:52:43Z</time>
      </trkpt>
      <trkpt lat="43.96029" lon="2.57359">
        <ele>533</ele>
        <time>2015-11-29T14:52:51Z</time>
      </trkpt>
      <trkpt lat="43.96023" lon="2.57363">
        <ele>533</ele>
        <time>2015-11-29T14:52:59Z</time>
      </trkpt>
      <trkpt lat="43.96018" lon="2.57365">
        <ele>533</ele>
        <time>2015-11-29T14:53:04Z</time>
      </trkpt>
      <trkpt lat="43.96013" lon="2.57368">
        <ele>532</ele>
        <time>2015-11-29T14:53:09Z</time>
      </trkpt>
      <trkpt lat="43.96006" lon="2.57373">
        <ele>532</ele>
        <time>2015-11-29T14:53:14Z</time>
      </trkpt>
      <trkpt lat="43.96001" lon="2.57377">
        <ele>531</ele>
        <time>2015-11-29T14:53:18Z</time>
      </trkpt>
      <trkpt lat="43.95997" lon="2.57381">
        <ele>531</ele>
        <time>2015-11-29T14:53:23Z</time>
      </trkpt>
      <trkpt lat="43.95992" lon="2.57385">
        <ele>531</ele>
        <time>2015-11-29T14:53:28Z</time>
      </trkpt>
      <trkpt lat="43.95987" lon="2.57387">
        <ele>530</ele>
        <time>2015-11-29T14:53:33Z</time>
      </trkpt>
      <trkpt lat="43.95982" lon="2.57389">
        <ele>530</ele>
        <time>2015-11-29T14:53:37Z</time>
      </trkpt>
      <trkpt lat="43.95976" lon="2.57388">
        <ele>530</ele>
        <time>2015-11-29T14:53:44Z</time>
      </trkpt>
      <trkpt lat="43.95971" lon="2.57386">
        <ele>530</ele>
        <time>2015-11-29T14:53:53Z</time>
      </trkpt>
      <trkpt lat="43.9597" lon="2.57386">
        <ele>529</ele>
        <time>2015-11-29T14:54:32Z</time>
      </trkpt>
      <trkpt lat="43.9597" lon="2.57386">
        <ele>529</ele>
        <time>2015-11-29T14:55:00Z</time>
      </trkpt>
      <trkpt lat="43.95968" lon="2.57378">
        <ele>528</ele>
        <time>2015-11-29T14:55:17Z</time>
      </trkpt>
      <trkpt lat="43.95964" lon="2.57375">
        <ele>528</ele>
        <time>2015-11-29T14:55:25Z</time>
      </trkpt>
      <trkpt lat="43.95959" lon="2.57374">
        <ele>527</ele>
        <time>2015-11-29T14:55:35Z</time>
      </trkpt>
      <trkpt lat="43.95954" lon="2.57373">
        <ele>526</ele>
        <time>2015-11-29T14:55:40Z</time>
      </trkpt>
      <trkpt lat="43.95949" lon="2.57373">
        <ele>526</ele>
        <time>2015-11-29T14:55:46Z</time>
      </trkpt>
      <trkpt lat="43.95944" lon="2.57374">
        <ele>525</ele>
        <time>2015-11-29T14:55:54Z</time>
      </trkpt>
      <trkpt lat="43.95939" lon="2.57373">
        <ele>525</ele>
        <time>2015-11-29T14:56:01Z</time>
      </trkpt>
      <trkpt lat="43.95934" lon="2.5737">
        <ele>524</ele>
        <time>2015-11-29T14:56:07Z</time>
      </trkpt>
      <trkpt lat="43.95929" lon="2.57369">
        <ele>523</ele>
        <time>2015-11-29T14:56:12Z</time>
      </trkpt>
      <trkpt lat="43.95924" lon="2.57367">
        <ele>523</ele>
        <time>2015-11-29T14:56:17Z</time>
      </trkpt>
      <trkpt lat="43.95918" lon="2.57363">
        <ele>522</ele>
        <time>2015-11-29T14:56:23Z</time>
      </trkpt>
      <trkpt lat="43.95913" lon="2.5736">
        <ele>521</ele>
        <time>2015-11-29T14:56:28Z</time>
      </trkpt>
      <trkpt lat="43.95908" lon="2.57355">
        <ele>520</ele>
        <time>2015-11-29T14:56:33Z</time>
      </trkpt>
      <trkpt lat="43.95904" lon="2.57353">
        <ele>519</ele>
        <time>2015-11-29T14:56:38Z</time>
      </trkpt>
      <trkpt lat="43.95899" lon="2.57351">
        <ele>518</ele>
        <time>2015-11-29T14:56:46Z</time>
      </trkpt>
      <trkpt lat="43.95894" lon="2.5735">
        <ele>517</ele>
        <time>2015-11-29T14:56:52Z</time>
      </trkpt>
      <trkpt lat="43.95888" lon="2.57349">
        <ele>516</ele>
        <time>2015-11-29T14:56:58Z</time>
      </trkpt>
      <trkpt lat="43.95883" lon="2.57346">
        <ele>515</ele>
        <time>2015-11-29T14:57:05Z</time>
      </trkpt>
      <trkpt lat="43.95879" lon="2.57343">
        <ele>514</ele>
        <time>2015-11-29T14:57:11Z</time>
      </trkpt>
      <trkpt lat="43.95868" lon="2.57335">
        <ele>513</ele>
        <time>2015-11-29T14:57:38Z</time>
      </trkpt>
      <trkpt lat="43.95865" lon="2.57335">
        <ele>512</ele>
        <time>2015-11-29T14:58:12Z</time>
      </trkpt>
      <trkpt lat="43.9586" lon="2.57323">
        <ele>511</ele>
        <time>2015-11-29T14:58:13Z</time>
      </trkpt>
      <trkpt lat="43.95864" lon="2.57318">
        <ele>510</ele>
        <time>2015-11-29T14:58:20Z</time>
      </trkpt>
      <trkpt lat="43.95869" lon="2.57314">
        <ele>509</ele>
        <time>2015-11-29T14:58:26Z</time>
      </trkpt>
      <trkpt lat="43.95874" lon="2.57313">
        <ele>508</ele>
        <time>2015-11-29T14:58:34Z</time>
      </trkpt>
      <trkpt lat="43.9588" lon="2.57314">
        <ele>507</ele>
        <time>2015-11-29T14:58:41Z</time>
      </trkpt>
      <trkpt lat="43.95885" lon="2.57315">
        <ele>506</ele>
        <time>2015-11-29T14:58:46Z</time>
      </trkpt>
      <trkpt lat="43.95892" lon="2.57314">
        <ele>506</ele>
        <time>2015-11-29T14:58:53Z</time>
      </trkpt>
      <trkpt lat="43.95898" lon="2.57312">
        <ele>505</ele>
        <time>2015-11-29T14:58:58Z</time>
      </trkpt>
      <trkpt lat="43.95894" lon="2.57311">
        <ele>504</ele>
        <time>2015-11-29T14:59:08Z</time>
      </trkpt>
      <trkpt lat="43.95888" lon="2.5731">
        <ele>503</ele>
        <time>2015-11-29T14:59:15Z</time>
      </trkpt>
      <trkpt lat="43.95882" lon="2.57309">
        <ele>502</ele>
        <time>2015-11-29T14:59:20Z</time>
      </trkpt>
      <trkpt lat="43.95874" lon="2.57307">
        <ele>501</ele>
        <time>2015-11-29T14:59:26Z</time>
      </trkpt>
      <trkpt lat="43.95869" lon="2.57307">
        <ele>500</ele>
        <time>2015-11-29T14:59:33Z</time>
      </trkpt>
      <trkpt lat="43.95864" lon="2.57301">
        <ele>499</ele>
        <time>2015-11-29T14:59:38Z</time>
      </trkpt>
      <trkpt lat="43.95858" lon="2.57296">
        <ele>498</ele>
        <time>2015-11-29T14:59:45Z</time>
      </trkpt>
      <trkpt lat="43.95854" lon="2.57292">
        <ele>497</ele>
        <time>2015-11-29T14:59:51Z</time>
      </trkpt>
      <trkpt lat="43.9585" lon="2.57289">
        <ele>497</ele>
        <time>2015-11-29T14:59:55Z</time>
      </trkpt>
      <trkpt lat="43.95845" lon="2.57281">
        <ele>496</ele>
        <time>2015-11-29T14:59:59Z</time>
      </trkpt>
      <trkpt lat="43.9584" lon="2.57279">
        <ele>495</ele>
        <time>2015-11-29T15:00:05Z</time>
      </trkpt>
      <trkpt lat="43.95835" lon="2.57277">
        <ele>495</ele>
        <time>2015-11-29T15:00:12Z</time>
      </trkpt>
      <trkpt lat="43.95829" lon="2.57268">
        <ele>494</ele>
        <time>2015-11-29T15:00:18Z</time>
      </trkpt>
      <trkpt lat="43.95824" lon="2.5727">
        <ele>493</ele>
        <time>2015-11-29T15:00:24Z</time>
      </trkpt>
      <trkpt lat="43.95818" lon="2.57268">
        <ele>492</ele>
        <time>2015-11-29T15:00:33Z</time>
      </trkpt>
      <trkpt lat="43.95815" lon="2.57261">
        <ele>491</ele>
        <time>2015-11-29T15:00:36Z</time>
      </trkpt>
      <trkpt lat="43.95808" lon="2.5726">
        <ele>490</ele>
        <time>2015-11-29T15:00:44Z</time>
      </trkpt>
      <trkpt lat="43.95803" lon="2.57259">
        <ele>489</ele>
        <time>2015-11-29T15:00:50Z</time>
      </trkpt>
      <trkpt lat="43.95798" lon="2.57256">
        <ele>488</ele>
        <time>2015-11-29T15:00:55Z</time>
      </trkpt>
      <trkpt lat="43.95793" lon="2.57254">
        <ele>487</ele>
        <time>2015-11-29T15:01:01Z</time>
      </trkpt>
      <trkpt lat="43.95788" lon="2.5725">
        <ele>485</ele>
        <time>2015-11-29T15:01:06Z</time>
      </trkpt>
      <trkpt lat="43.95782" lon="2.57242">
        <ele>484</ele>
        <time>2015-11-29T15:01:11Z</time>
      </trkpt>
      <trkpt lat="43.95778" lon="2.57237">
        <ele>483</ele>
        <time>2015-11-29T15:01:16Z</time>
      </trkpt>
      <trkpt lat="43.95774" lon="2.57234">
        <ele>482</ele>
        <time>2015-11-29T15:01:23Z</time>
      </trkpt>
      <trkpt lat="43.95769" lon="2.57227">
        <ele>481</ele>
        <time>2015-11-29T15:01:29Z</time>
      </trkpt>
      <trkpt lat="43.95766" lon="2.57222">
        <ele>480</ele>
        <time>2015-11-29T15:01:34Z</time>
      </trkpt>
      <trkpt lat="43.95762" lon="2.57218">
        <ele>479</ele>
        <time>2015-11-29T15:01:43Z</time>
      </trkpt>
      <trkpt lat="43.95755" lon="2.57216">
        <ele>477</ele>
        <time>2015-11-29T15:01:51Z</time>
      </trkpt>
      <trkpt lat="43.9575" lon="2.57217">
        <ele>476</ele>
        <time>2015-11-29T15:01:58Z</time>
      </trkpt>
      <trkpt lat="43.95744" lon="2.5721">
        <ele>475</ele>
        <time>2015-11-29T15:02:03Z</time>
      </trkpt>
      <trkpt lat="43.95739" lon="2.5721">
        <ele>474</ele>
        <time>2015-11-29T15:02:08Z</time>
      </trkpt>
      <trkpt lat="43.95733" lon="2.57206">
        <ele>473</ele>
        <time>2015-11-29T15:02:15Z</time>
      </trkpt>
      <trkpt lat="43.95728" lon="2.57205">
        <ele>472</ele>
        <time>2015-11-29T15:02:21Z</time>
      </trkpt>
      <trkpt lat="43.95723" lon="2.57201">
        <ele>471</ele>
        <time>2015-11-29T15:02:25Z</time>
      </trkpt>
      <trkpt lat="43.95718" lon="2.57201">
        <ele>470</ele>
        <time>2015-11-29T15:02:34Z</time>
      </trkpt>
      <trkpt lat="43.95713" lon="2.572">
        <ele>469</ele>
        <time>2015-11-29T15:02:41Z</time>
      </trkpt>
      <trkpt lat="43.95709" lon="2.57202">
        <ele>468</ele>
        <time>2015-11-29T15:02:46Z</time>
      </trkpt>
      <trkpt lat="43.95703" lon="2.57194">
        <ele>466</ele>
        <time>2015-11-29T15:02:55Z</time>
      </trkpt>
      <trkpt lat="43.95696" lon="2.5719">
        <ele>465</ele>
        <time>2015-11-29T15:03:05Z</time>
      </trkpt>
      <trkpt lat="43.95692" lon="2.5718">
        <ele>464</ele>
        <time>2015-11-29T15:03:09Z</time>
      </trkpt>
      <trkpt lat="43.95688" lon="2.57174">
        <ele>462</ele>
        <time>2015-11-29T15:03:12Z</time>
      </trkpt>
      <trkpt lat="43.95683" lon="2.5717">
        <ele>462</ele>
        <time>2015-11-29T15:03:17Z</time>
      </trkpt>
      <trkpt lat="43.95679" lon="2.57164">
        <ele>460</ele>
        <time>2015-11-29T15:03:27Z</time>
      </trkpt>
      <trkpt lat="43.95675" lon="2.57161">
        <ele>460</ele>
        <time>2015-11-29T15:03:33Z</time>
      </trkpt>
      <trkpt lat="43.9567" lon="2.57158">
        <ele>459</ele>
        <time>2015-11-29T15:03:40Z</time>
      </trkpt>
      <trkpt lat="43.95666" lon="2.57157">
        <ele>457</ele>
        <time>2015-11-29T15:03:51Z</time>
      </trkpt>
      <trkpt lat="43.95661" lon="2.57156">
        <ele>456</ele>
        <time>2015-11-29T15:03:58Z</time>
      </trkpt>
      <trkpt lat="43.95654" lon="2.57153">
        <ele>455</ele>
        <time>2015-11-29T15:04:09Z</time>
      </trkpt>
      <trkpt lat="43.9565" lon="2.57153">
        <ele>454</ele>
        <time>2015-11-29T15:04:15Z</time>
      </trkpt>
      <trkpt lat="43.95642" lon="2.57153">
        <ele>453</ele>
        <time>2015-11-29T15:04:31Z</time>
      </trkpt>
      <trkpt lat="43.95637" lon="2.57151">
        <ele>452</ele>
        <time>2015-11-29T15:04:40Z</time>
      </trkpt>
      <trkpt lat="43.95632" lon="2.5715">
        <ele>451</ele>
        <time>2015-11-29T15:04:50Z</time>
      </trkpt>
      <trkpt lat="43.95627" lon="2.57149">
        <ele>451</ele>
        <time>2015-11-29T15:04:57Z</time>
      </trkpt>
      <trkpt lat="43.95622" lon="2.57149">
        <ele>451</ele>
        <time>2015-11-29T15:05:04Z</time>
      </trkpt>
      <trkpt lat="43.95618" lon="2.57145">
        <ele>450</ele>
        <time>2015-11-29T15:05:12Z</time>
      </trkpt>
      <trkpt lat="43.95613" lon="2.57143">
        <ele>450</ele>
        <time>2015-11-29T15:05:18Z</time>
      </trkpt>
      <trkpt lat="43.95608" lon="2.57141">
        <ele>449</ele>
        <time>2015-11-29T15:05:26Z</time>
      </trkpt>
      <trkpt lat="43.95605" lon="2.57135">
        <ele>449</ele>
        <time>2015-11-29T15:05:32Z</time>
      </trkpt>
      <trkpt lat="43.95601" lon="2.5713">
        <ele>448</ele>
        <time>2015-11-29T15:05:40Z</time>
      </trkpt>
      <trkpt lat="43.95596" lon="2.57127">
        <ele>447</ele>
        <time>2015-11-29T15:05:46Z</time>
      </trkpt>
      <trkpt lat="43.9559" lon="2.57123">
        <ele>446</ele>
        <time>2015-11-29T15:05:56Z</time>
      </trkpt>
      <trkpt lat="43.95585" lon="2.57121">
        <ele>445</ele>
        <time>2015-11-29T15:06:03Z</time>
      </trkpt>
      <trkpt lat="43.9558" lon="2.5712">
        <ele>444</ele>
        <time>2015-11-29T15:06:10Z</time>
      </trkpt>
      <trkpt lat="43.95575" lon="2.57118">
        <ele>443</ele>
        <time>2015-11-29T15:06:17Z</time>
      </trkpt>
      <trkpt lat="43.9557" lon="2.57117">
        <ele>442</ele>
        <time>2015-11-29T15:06:23Z</time>
      </trkpt>
      <trkpt lat="43.95565" lon="2.57116">
        <ele>441</ele>
        <time>2015-11-29T15:06:30Z</time>
      </trkpt>
      <trkpt lat="43.95563" lon="2.57114">
        <ele>441</ele>
        <time>2015-11-29T15:07:12Z</time>
      </trkpt>
      <trkpt lat="43.95572" lon="2.57108">
        <ele>439</ele>
        <time>2015-11-29T15:07:16Z</time>
      </trkpt>
      <trkpt lat="43.95572" lon="2.57107">
        <ele>438</ele>
        <time>2015-11-29T15:07:38Z</time>
      </trkpt>
      <trkpt lat="43.95581" lon="2.57114">
        <ele>438</ele>
        <time>2015-11-29T15:07:40Z</time>
      </trkpt>
      <trkpt lat="43.95581" lon="2.57114">
        <ele>437</ele>
        <time>2015-11-29T15:08:02Z</time>
      </trkpt>
      <trkpt lat="43.95575" lon="2.57104">
        <ele>437</ele>
        <time>2015-11-29T15:08:17Z</time>
      </trkpt>
      <trkpt lat="43.95575" lon="2.57103">
        <ele>437</ele>
        <time>2015-11-29T15:08:54Z</time>
      </trkpt>
      <trkpt lat="43.95575" lon="2.57103">
        <ele>437</ele>
        <time>2015-11-29T15:09:25Z</time>
      </trkpt>
      <trkpt lat="43.95571" lon="2.57113">
        <ele>436</ele>
        <time>2015-11-29T15:09:40Z</time>
      </trkpt>
      <trkpt lat="43.95572" lon="2.5712">
        <ele>434</ele>
        <time>2015-11-29T15:09:51Z</time>
      </trkpt>
      <trkpt lat="43.95573" lon="2.57126">
        <ele>433</ele>
        <time>2015-11-29T15:09:58Z</time>
      </trkpt>
      <trkpt lat="43.95575" lon="2.57133">
        <ele>432</ele>
        <time>2015-11-29T15:10:05Z</time>
      </trkpt>
      <trkpt lat="43.95578" lon="2.57138">
        <ele>430</ele>
        <time>2015-11-29T15:10:10Z</time>
      </trkpt>
      <trkpt lat="43.95582" lon="2.57143">
        <ele>430</ele>
        <time>2015-11-29T15:10:16Z</time>
      </trkpt>
      <trkpt lat="43.95585" lon="2.57148">
        <ele>430</ele>
        <time>2015-11-29T15:10:24Z</time>
      </trkpt>
      <trkpt lat="43.95589" lon="2.57152">
        <ele>430</ele>
        <time>2015-11-29T15:10:30Z</time>
      </trkpt>
      <trkpt lat="43.95593" lon="2.57158">
        <ele>430</ele>
        <time>2015-11-29T15:10:38Z</time>
      </trkpt>
      <trkpt lat="43.95596" lon="2.57162">
        <ele>429</ele>
        <time>2015-11-29T15:10:47Z</time>
      </trkpt>
      <trkpt lat="43.95599" lon="2.57167">
        <ele>429</ele>
        <time>2015-11-29T15:10:55Z</time>
      </trkpt>
      <trkpt lat="43.95602" lon="2.57172">
        <ele>429</ele>
        <time>2015-11-29T15:11:02Z</time>
      </trkpt>
      <trkpt lat="43.95606" lon="2.57176">
        <ele>429</ele>
        <time>2015-11-29T15:11:08Z</time>
      </trkpt>
      <trkpt lat="43.95609" lon="2.57182">
        <ele>429</ele>
        <time>2015-11-29T15:11:16Z</time>
      </trkpt>
      <trkpt lat="43.95611" lon="2.57188">
        <ele>429</ele>
        <time>2015-11-29T15:11:22Z</time>
      </trkpt>
      <trkpt lat="43.95616" lon="2.57193">
        <ele>429</ele>
        <time>2015-11-29T15:11:30Z</time>
      </trkpt>
      <trkpt lat="43.95619" lon="2.57198">
        <ele>429</ele>
        <time>2015-11-29T15:11:36Z</time>
      </trkpt>
      <trkpt lat="43.9562" lon="2.57204">
        <ele>429</ele>
        <time>2015-11-29T15:11:42Z</time>
      </trkpt>
      <trkpt lat="43.95624" lon="2.5721">
        <ele>429</ele>
        <time>2015-11-29T15:11:47Z</time>
      </trkpt>
      <trkpt lat="43.95628" lon="2.57218">
        <ele>429</ele>
        <time>2015-11-29T15:11:53Z</time>
      </trkpt>
      <trkpt lat="43.95632" lon="2.57222">
        <ele>429</ele>
        <time>2015-11-29T15:11:58Z</time>
      </trkpt>
      <trkpt lat="43.95635" lon="2.57227">
        <ele>429</ele>
        <time>2015-11-29T15:12:02Z</time>
      </trkpt>
      <trkpt lat="43.95638" lon="2.57234">
        <ele>429</ele>
        <time>2015-11-29T15:12:07Z</time>
      </trkpt>
      <trkpt lat="43.95639" lon="2.57241">
        <ele>429</ele>
        <time>2015-11-29T15:12:11Z</time>
      </trkpt>
      <trkpt lat="43.95641" lon="2.57248">
        <ele>428</ele>
        <time>2015-11-29T15:12:16Z</time>
      </trkpt>
      <trkpt lat="43.95645" lon="2.57253">
        <ele>428</ele>
        <time>2015-11-29T15:12:21Z</time>
      </trkpt>
      <trkpt lat="43.95649" lon="2.5726">
        <ele>428</ele>
        <time>2015-11-29T15:12:27Z</time>
      </trkpt>
      <trkpt lat="43.95651" lon="2.57266">
        <ele>428</ele>
        <time>2015-11-29T15:12:32Z</time>
      </trkpt>
      <trkpt lat="43.95652" lon="2.57273">
        <ele>428</ele>
        <time>2015-11-29T15:12:37Z</time>
      </trkpt>
      <trkpt lat="43.95654" lon="2.5728">
        <ele>428</ele>
        <time>2015-11-29T15:12:42Z</time>
      </trkpt>
      <trkpt lat="43.95656" lon="2.57286">
        <ele>428</ele>
        <time>2015-11-29T15:12:46Z</time>
      </trkpt>
      <trkpt lat="43.9566" lon="2.57289">
        <ele>427</ele>
        <time>2015-11-29T15:12:50Z</time>
      </trkpt>
      <trkpt lat="43.95663" lon="2.57296">
        <ele>427</ele>
        <time>2015-11-29T15:12:55Z</time>
      </trkpt>
      <trkpt lat="43.95665" lon="2.57301">
        <ele>427</ele>
        <time>2015-11-29T15:12:59Z</time>
      </trkpt>
      <trkpt lat="43.9567" lon="2.57307">
        <ele>427</ele>
        <time>2015-11-29T15:13:06Z</time>
      </trkpt>
      <trkpt lat="43.95672" lon="2.57313">
        <ele>427</ele>
        <time>2015-11-29T15:13:11Z</time>
      </trkpt>
      <trkpt lat="43.95675" lon="2.57318">
        <ele>427</ele>
        <time>2015-11-29T15:13:16Z</time>
      </trkpt>
      <trkpt lat="43.95678" lon="2.57323">
        <ele>427</ele>
        <time>2015-11-29T15:13:21Z</time>
      </trkpt>
      <trkpt lat="43.95681" lon="2.57328">
        <ele>427</ele>
        <time>2015-11-29T15:13:26Z</time>
      </trkpt>
      <trkpt lat="43.95684" lon="2.57335">
        <ele>427</ele>
        <time>2015-11-29T15:13:32Z</time>
      </trkpt>
      <trkpt lat="43.95686" lon="2.57341">
        <ele>427</ele>
        <time>2015-11-29T15:13:39Z</time>
      </trkpt>
      <trkpt lat="43.95691" lon="2.57345">
        <ele>428</ele>
        <time>2015-11-29T15:13:46Z</time>
      </trkpt>
      <trkpt lat="43.95693" lon="2.57352">
        <ele>428</ele>
        <time>2015-11-29T15:13:54Z</time>
      </trkpt>
      <trkpt lat="43.95694" lon="2.57359">
        <ele>428</ele>
        <time>2015-11-29T15:14:00Z</time>
      </trkpt>
      <trkpt lat="43.95694" lon="2.57365">
        <ele>428</ele>
        <time>2015-11-29T15:14:06Z</time>
      </trkpt>
      <trkpt lat="43.95695" lon="2.57372">
        <ele>429</ele>
        <time>2015-11-29T15:14:11Z</time>
      </trkpt>
      <trkpt lat="43.95696" lon="2.5738">
        <ele>429</ele>
        <time>2015-11-29T15:14:17Z</time>
      </trkpt>
      <trkpt lat="43.95695" lon="2.57386">
        <ele>429</ele>
        <time>2015-11-29T15:14:23Z</time>
      </trkpt>
      <trkpt lat="43.95696" lon="2.57394">
        <ele>430</ele>
        <time>2015-11-29T15:14:28Z</time>
      </trkpt>
      <trkpt lat="43.95695" lon="2.574">
        <ele>430</ele>
        <time>2015-11-29T15:14:32Z</time>
      </trkpt>
      <trkpt lat="43.95695" lon="2.57408">
        <ele>430</ele>
        <time>2015-11-29T15:14:36Z</time>
      </trkpt>
      <trkpt lat="43.95696" lon="2.57416">
        <ele>431</ele>
        <time>2015-11-29T15:14:40Z</time>
      </trkpt>
      <trkpt lat="43.95693" lon="2.57422">
        <ele>431</ele>
        <time>2015-11-29T15:14:43Z</time>
      </trkpt>
      <trkpt lat="43.95692" lon="2.5743">
        <ele>432</ele>
        <time>2015-11-29T15:14:48Z</time>
      </trkpt>
      <trkpt lat="43.9569" lon="2.57437">
        <ele>432</ele>
        <time>2015-11-29T15:14:54Z</time>
      </trkpt>
      <trkpt lat="43.95689" lon="2.57445">
        <ele>433</ele>
        <time>2015-11-29T15:15:01Z</time>
      </trkpt>
      <trkpt lat="43.95686" lon="2.57451">
        <ele>433</ele>
        <time>2015-11-29T15:15:07Z</time>
      </trkpt>
      <trkpt lat="43.95684" lon="2.57456">
        <ele>434</ele>
        <time>2015-11-29T15:15:12Z</time>
      </trkpt>
      <trkpt lat="43.95681" lon="2.57461">
        <ele>434</ele>
        <time>2015-11-29T15:15:19Z</time>
      </trkpt>
      <trkpt lat="43.9568" lon="2.57469">
        <ele>435</ele>
        <time>2015-11-29T15:15:24Z</time>
      </trkpt>
      <trkpt lat="43.95678" lon="2.57477">
        <ele>435</ele>
        <time>2015-11-29T15:15:30Z</time>
      </trkpt>
      <trkpt lat="43.95676" lon="2.57486">
        <ele>435</ele>
        <time>2015-11-29T15:15:36Z</time>
      </trkpt>
      <trkpt lat="43.95674" lon="2.57494">
        <ele>436</ele>
        <time>2015-11-29T15:15:42Z</time>
      </trkpt>
      <trkpt lat="43.95672" lon="2.575">
        <ele>436</ele>
        <time>2015-11-29T15:15:52Z</time>
      </trkpt>
      <trkpt lat="43.9567" lon="2.57506">
        <ele>437</ele>
        <time>2015-11-29T15:15:59Z</time>
      </trkpt>
      <trkpt lat="43.95669" lon="2.57513">
        <ele>438</ele>
        <time>2015-11-29T15:16:06Z</time>
      </trkpt>
      <trkpt lat="43.95668" lon="2.57519">
        <ele>438</ele>
        <time>2015-11-29T15:16:11Z</time>
      </trkpt>
      <trkpt lat="43.9567" lon="2.57529">
        <ele>439</ele>
        <time>2015-11-29T15:16:16Z</time>
      </trkpt>
      <trkpt lat="43.95672" lon="2.57535">
        <ele>439</ele>
        <time>2015-11-29T15:16:21Z</time>
      </trkpt>
      <trkpt lat="43.95673" lon="2.57543">
        <ele>440</ele>
        <time>2015-11-29T15:16:28Z</time>
      </trkpt>
      <trkpt lat="43.95675" lon="2.57549">
        <ele>440</ele>
        <time>2015-11-29T15:16:35Z</time>
      </trkpt>
      <trkpt lat="43.95677" lon="2.57555">
        <ele>441</ele>
        <time>2015-11-29T15:16:44Z</time>
      </trkpt>
      <trkpt lat="43.95681" lon="2.57559">
        <ele>441</ele>
        <time>2015-11-29T15:16:50Z</time>
      </trkpt>
      <trkpt lat="43.95684" lon="2.57564">
        <ele>442</ele>
        <time>2015-11-29T15:16:55Z</time>
      </trkpt>
      <trkpt lat="43.95686" lon="2.5757">
        <ele>442</ele>
        <time>2015-11-29T15:17:00Z</time>
      </trkpt>
      <trkpt lat="43.95689" lon="2.57576">
        <ele>442</ele>
        <time>2015-11-29T15:17:07Z</time>
      </trkpt>
      <trkpt lat="43.95693" lon="2.57584">
        <ele>442</ele>
        <time>2015-11-29T15:17:13Z</time>
      </trkpt>
      <trkpt lat="43.95696" lon="2.57589">
        <ele>442</ele>
        <time>2015-11-29T15:17:17Z</time>
      </trkpt>
      <trkpt lat="43.957" lon="2.57594">
        <ele>442</ele>
        <time>2015-11-29T15:17:22Z</time>
      </trkpt>
      <trkpt lat="43.95705" lon="2.57598">
        <ele>443</ele>
        <time>2015-11-29T15:17:27Z</time>
      </trkpt>
      <trkpt lat="43.95708" lon="2.57603">
        <ele>443</ele>
        <time>2015-11-29T15:17:34Z</time>
      </trkpt>
      <trkpt lat="43.95713" lon="2.57606">
        <ele>443</ele>
        <time>2015-11-29T15:17:41Z</time>
      </trkpt>
      <trkpt lat="43.95718" lon="2.57608">
        <ele>443</ele>
        <time>2015-11-29T15:17:47Z</time>
      </trkpt>
      <trkpt lat="43.95724" lon="2.57609">
        <ele>444</ele>
        <time>2015-11-29T15:17:56Z</time>
      </trkpt>
      <trkpt lat="43.95728" lon="2.57609">
        <ele>444</ele>
        <time>2015-11-29T15:18:05Z</time>
      </trkpt>
      <trkpt lat="43.95733" lon="2.57608">
        <ele>444</ele>
        <time>2015-11-29T15:18:09Z</time>
      </trkpt>
      <trkpt lat="43.95739" lon="2.57605">
        <ele>445</ele>
        <time>2015-11-29T15:18:13Z</time>
      </trkpt>
      <trkpt lat="43.95744" lon="2.57605">
        <ele>445</ele>
        <time>2015-11-29T15:18:20Z</time>
      </trkpt>
      <trkpt lat="43.95749" lon="2.5761">
        <ele>446</ele>
        <time>2015-11-29T15:18:26Z</time>
      </trkpt>
      <trkpt lat="43.95754" lon="2.57613">
        <ele>447</ele>
        <time>2015-11-29T15:18:32Z</time>
      </trkpt>
      <trkpt lat="43.95758" lon="2.57616">
        <ele>448</ele>
        <time>2015-11-29T15:18:37Z</time>
      </trkpt>
      <trkpt lat="43.95762" lon="2.57621">
        <ele>449</ele>
        <time>2015-11-29T15:18:42Z</time>
      </trkpt>
      <trkpt lat="43.95767" lon="2.57625">
        <ele>450</ele>
        <time>2015-11-29T15:18:47Z</time>
      </trkpt>
      <trkpt lat="43.9577" lon="2.57631">
        <ele>451</ele>
        <time>2015-11-29T15:18:54Z</time>
      </trkpt>
      <trkpt lat="43.95775" lon="2.57635">
        <ele>452</ele>
        <time>2015-11-29T15:19:00Z</time>
      </trkpt>
      <trkpt lat="43.9578" lon="2.57639">
        <ele>453</ele>
        <time>2015-11-29T15:19:06Z</time>
      </trkpt>
      <trkpt lat="43.95784" lon="2.57643">
        <ele>455</ele>
        <time>2015-11-29T15:19:12Z</time>
      </trkpt>
      <trkpt lat="43.95788" lon="2.57647">
        <ele>456</ele>
        <time>2015-11-29T15:19:18Z</time>
      </trkpt>
      <trkpt lat="43.95792" lon="2.57651">
        <ele>456</ele>
        <time>2015-11-29T15:19:24Z</time>
      </trkpt>
      <trkpt lat="43.95796" lon="2.57656">
        <ele>457</ele>
        <time>2015-11-29T15:19:31Z</time>
      </trkpt>
      <trkpt lat="43.95801" lon="2.57661">
        <ele>457</ele>
        <time>2015-11-29T15:19:37Z</time>
      </trkpt>
      <trkpt lat="43.95806" lon="2.57662">
        <ele>457</ele>
        <time>2015-11-29T15:19:42Z</time>
      </trkpt>
      <trkpt lat="43.95811" lon="2.57667">
        <ele>458</ele>
        <time>2015-11-29T15:19:49Z</time>
      </trkpt>
      <trkpt lat="43.95815" lon="2.57671">
        <ele>458</ele>
        <time>2015-11-29T15:19:53Z</time>
      </trkpt>
      <trkpt lat="43.95818" lon="2.57675">
        <ele>459</ele>
        <time>2015-11-29T15:19:58Z</time>
      </trkpt>
      <trkpt lat="43.95821" lon="2.57681">
        <ele>460</ele>
        <time>2015-11-29T15:20:03Z</time>
      </trkpt>
      <trkpt lat="43.95825" lon="2.57687">
        <ele>460</ele>
        <time>2015-11-29T15:20:09Z</time>
      </trkpt>
      <trkpt lat="43.95829" lon="2.57693">
        <ele>461</ele>
        <time>2015-11-29T15:20:15Z</time>
      </trkpt>
      <trkpt lat="43.95832" lon="2.57697">
        <ele>461</ele>
        <time>2015-11-29T15:20:20Z</time>
      </trkpt>
      <trkpt lat="43.95836" lon="2.57701">
        <ele>461</ele>
        <time>2015-11-29T15:20:28Z</time>
      </trkpt>
      <trkpt lat="43.95844" lon="2.57703">
        <ele>460</ele>
        <time>2015-11-29T15:20:37Z</time>
      </trkpt>
      <trkpt lat="43.95849" lon="2.57705">
        <ele>460</ele>
        <time>2015-11-29T15:20:42Z</time>
      </trkpt>
      <trkpt lat="43.95855" lon="2.57705">
        <ele>459</ele>
        <time>2015-11-29T15:20:48Z</time>
      </trkpt>
      <trkpt lat="43.9586" lon="2.57705">
        <ele>458</ele>
        <time>2015-11-29T15:20:54Z</time>
      </trkpt>
      <trkpt lat="43.95865" lon="2.57706">
        <ele>458</ele>
        <time>2015-11-29T15:21:00Z</time>
      </trkpt>
      <trkpt lat="43.95871" lon="2.57706">
        <ele>456</ele>
        <time>2015-11-29T15:21:07Z</time>
      </trkpt>
      <trkpt lat="43.95877" lon="2.57706">
        <ele>455</ele>
        <time>2015-11-29T15:21:12Z</time>
      </trkpt>
      <trkpt lat="43.95882" lon="2.57708">
        <ele>453</ele>
        <time>2015-11-29T15:21:18Z</time>
      </trkpt>
      <trkpt lat="43.95889" lon="2.5771">
        <ele>452</ele>
        <time>2015-11-29T15:21:23Z</time>
      </trkpt>
      <trkpt lat="43.95896" lon="2.5771">
        <ele>451</ele>
        <time>2015-11-29T15:21:28Z</time>
      </trkpt>
      <trkpt lat="43.95902" lon="2.57711">
        <ele>450</ele>
        <time>2015-11-29T15:21:33Z</time>
      </trkpt>
      <trkpt lat="43.959" lon="2.57718">
        <ele>449</ele>
        <time>2015-11-29T15:21:47Z</time>
      </trkpt>
      <trkpt lat="43.95894" lon="2.57718">
        <ele>449</ele>
        <time>2015-11-29T15:21:54Z</time>
      </trkpt>
      <trkpt lat="43.95889" lon="2.57718">
        <ele>449</ele>
        <time>2015-11-29T15:21:59Z</time>
      </trkpt>
      <trkpt lat="43.95883" lon="2.5772">
        <ele>449</ele>
        <time>2015-11-29T15:22:05Z</time>
      </trkpt>
      <trkpt lat="43.95878" lon="2.57722">
        <ele>448</ele>
        <time>2015-11-29T15:22:09Z</time>
      </trkpt>
      <trkpt lat="43.95874" lon="2.57724">
        <ele>448</ele>
        <time>2015-11-29T15:22:14Z</time>
      </trkpt>
      <trkpt lat="43.95868" lon="2.57726">
        <ele>447</ele>
        <time>2015-11-29T15:22:20Z</time>
      </trkpt>
      <trkpt lat="43.95863" lon="2.5773">
        <ele>446</ele>
        <time>2015-11-29T15:22:26Z</time>
      </trkpt>
      <trkpt lat="43.95857" lon="2.57733">
        <ele>445</ele>
        <time>2015-11-29T15:22:31Z</time>
      </trkpt>
      <trkpt lat="43.95853" lon="2.57737">
        <ele>445</ele>
        <time>2015-11-29T15:22:36Z</time>
      </trkpt>
      <trkpt lat="43.95847" lon="2.57738">
        <ele>444</ele>
        <time>2015-11-29T15:22:42Z</time>
      </trkpt>
      <trkpt lat="43.95841" lon="2.57739">
        <ele>443</ele>
        <time>2015-11-29T15:22:50Z</time>
      </trkpt>
      <trkpt lat="43.95835" lon="2.57739">
        <ele>442</ele>
        <time>2015-11-29T15:22:56Z</time>
      </trkpt>
      <trkpt lat="43.9583" lon="2.57742">
        <ele>442</ele>
        <time>2015-11-29T15:23:01Z</time>
      </trkpt>
      <trkpt lat="43.95825" lon="2.57741">
        <ele>441</ele>
        <time>2015-11-29T15:23:07Z</time>
      </trkpt>
      <trkpt lat="43.9582" lon="2.57741">
        <ele>440</ele>
        <time>2015-11-29T15:23:12Z</time>
      </trkpt>
      <trkpt lat="43.95814" lon="2.57739">
        <ele>440</ele>
        <time>2015-11-29T15:23:19Z</time>
      </trkpt>
      <trkpt lat="43.95808" lon="2.57736">
        <ele>439</ele>
        <time>2015-11-29T15:23:25Z</time>
      </trkpt>
      <trkpt lat="43.95804" lon="2.57735">
        <ele>438</ele>
        <time>2015-11-29T15:23:30Z</time>
      </trkpt>
      <trkpt lat="43.95798" lon="2.57732">
        <ele>437</ele>
        <time>2015-11-29T15:23:38Z</time>
      </trkpt>
      <trkpt lat="43.95794" lon="2.57731">
        <ele>436</ele>
        <time>2015-11-29T15:23:45Z</time>
      </trkpt>
      <trkpt lat="43.95787" lon="2.57729">
        <ele>436</ele>
        <time>2015-11-29T15:23:53Z</time>
      </trkpt>
      <trkpt lat="43.95783" lon="2.57728">
        <ele>435</ele>
        <time>2015-11-29T15:23:58Z</time>
      </trkpt>
      <trkpt lat="43.95779" lon="2.57729">
        <ele>434</ele>
        <time>2015-11-29T15:24:03Z</time>
      </trkpt>
      <trkpt lat="43.95771" lon="2.57728">
        <ele>433</ele>
        <time>2015-11-29T15:24:08Z</time>
      </trkpt>
      <trkpt lat="43.95767" lon="2.57729">
        <ele>432</ele>
        <time>2015-11-29T15:24:14Z</time>
      </trkpt>
      <trkpt lat="43.95761" lon="2.57728">
        <ele>432</ele>
        <time>2015-11-29T15:24:22Z</time>
      </trkpt>
      <trkpt lat="43.95758" lon="2.57731">
        <ele>431</ele>
        <time>2015-11-29T15:24:39Z</time>
      </trkpt>
      <trkpt lat="43.95758" lon="2.57731">
        <ele>431</ele>
        <time>2015-11-29T15:25:04Z</time>
      </trkpt>
      <trkpt lat="43.95755" lon="2.57719">
        <ele>430</ele>
        <time>2015-11-29T15:25:19Z</time>
      </trkpt>
      <trkpt lat="43.95754" lon="2.57717">
        <ele>430</ele>
        <time>2015-11-29T15:25:59Z</time>
      </trkpt>
      <trkpt lat="43.95754" lon="2.57717">
        <ele>430</ele>
        <time>2015-11-29T15:26:24Z</time>
      </trkpt>
      <trkpt lat="43.95762" lon="2.57722">
        <ele>430</ele>
        <time>2015-11-29T15:26:52Z</time>
      </trkpt>
      <trkpt lat="43.95762" lon="2.57723">
        <ele>430</ele>
        <time>2015-11-29T15:27:19Z</time>
      </trkpt>
      <trkpt lat="43.95769" lon="2.57728">
        <ele>430</ele>
        <time>2015-11-29T15:27:42Z</time>
      </trkpt>
      <trkpt lat="43.95771" lon="2.57735">
        <ele>430</ele>
        <time>2015-11-29T15:27:51Z</time>
      </trkpt>
      <trkpt lat="43.95775" lon="2.57741">
        <ele>430</ele>
        <time>2015-11-29T15:27:56Z</time>
      </trkpt>
      <trkpt lat="43.95779" lon="2.57746">
        <ele>430</ele>
        <time>2015-11-29T15:28:02Z</time>
      </trkpt>
      <trkpt lat="43.95782" lon="2.57752">
        <ele>430</ele>
        <time>2015-11-29T15:28:08Z</time>
      </trkpt>
      <trkpt lat="43.95787" lon="2.57756">
        <ele>430</ele>
        <time>2015-11-29T15:28:12Z</time>
      </trkpt>
      <trkpt lat="43.95791" lon="2.5776">
        <ele>429</ele>
        <time>2015-11-29T15:28:17Z</time>
      </trkpt>
      <trkpt lat="43.95794" lon="2.57765">
        <ele>429</ele>
        <time>2015-11-29T15:28:23Z</time>
      </trkpt>
      <trkpt lat="43.958" lon="2.5777">
        <ele>429</ele>
        <time>2015-11-29T15:28:28Z</time>
      </trkpt>
      <trkpt lat="43.95804" lon="2.57777">
        <ele>428</ele>
        <time>2015-11-29T15:28:33Z</time>
      </trkpt>
      <trkpt lat="43.95808" lon="2.57781">
        <ele>428</ele>
        <time>2015-11-29T15:28:37Z</time>
      </trkpt>
      <trkpt lat="43.95813" lon="2.57785">
        <ele>428</ele>
        <time>2015-11-29T15:28:43Z</time>
      </trkpt>
      <trkpt lat="43.95818" lon="2.5779">
        <ele>427</ele>
        <time>2015-11-29T15:28:47Z</time>
      </trkpt>
      <trkpt lat="43.95823" lon="2.57795">
        <ele>427</ele>
        <time>2015-11-29T15:28:52Z</time>
      </trkpt>
      <trkpt lat="43.95828" lon="2.57798">
        <ele>426</ele>
        <time>2015-11-29T15:28:56Z</time>
      </trkpt>
      <trkpt lat="43.95832" lon="2.57805">
        <ele>426</ele>
        <time>2015-11-29T15:29:01Z</time>
      </trkpt>
      <trkpt lat="43.95838" lon="2.57808">
        <ele>426</ele>
        <time>2015-11-29T15:29:05Z</time>
      </trkpt>
      <trkpt lat="43.95844" lon="2.5781">
        <ele>425</ele>
        <time>2015-11-29T15:29:10Z</time>
      </trkpt>
      <trkpt lat="43.95849" lon="2.57813">
        <ele>425</ele>
        <time>2015-11-29T15:29:15Z</time>
      </trkpt>
      <trkpt lat="43.95853" lon="2.57815">
        <ele>424</ele>
        <time>2015-11-29T15:29:18Z</time>
      </trkpt>
      <trkpt lat="43.95858" lon="2.57816">
        <ele>424</ele>
        <time>2015-11-29T15:29:20Z</time>
      </trkpt>
      <trkpt lat="43.95865" lon="2.57818">
        <ele>424</ele>
        <time>2015-11-29T15:29:26Z</time>
      </trkpt>
      <trkpt lat="43.9587" lon="2.57817">
        <ele>423</ele>
        <time>2015-11-29T15:29:30Z</time>
      </trkpt>
      <trkpt lat="43.95875" lon="2.57815">
        <ele>423</ele>
        <time>2015-11-29T15:29:35Z</time>
      </trkpt>
      <trkpt lat="43.95878" lon="2.57821">
        <ele>422</ele>
        <time>2015-11-29T15:29:47Z</time>
      </trkpt>
      <trkpt lat="43.95879" lon="2.57828">
        <ele>422</ele>
        <time>2015-11-29T15:29:51Z</time>
      </trkpt>
      <trkpt lat="43.95877" lon="2.57834">
        <ele>422</ele>
        <time>2015-11-29T15:29:55Z</time>
      </trkpt>
      <trkpt lat="43.95876" lon="2.57842">
        <ele>421</ele>
        <time>2015-11-29T15:29:58Z</time>
      </trkpt>
      <trkpt lat="43.95871" lon="2.57845">
        <ele>421</ele>
        <time>2015-11-29T15:30:02Z</time>
      </trkpt>
      <trkpt lat="43.95866" lon="2.57848">
        <ele>421</ele>
        <time>2015-11-29T15:30:06Z</time>
      </trkpt>
      <trkpt lat="43.95861" lon="2.57851">
        <ele>420</ele>
        <time>2015-11-29T15:30:10Z</time>
      </trkpt>
      <trkpt lat="43.95857" lon="2.57854">
        <ele>420</ele>
        <time>2015-11-29T15:30:14Z</time>
      </trkpt>
      <trkpt lat="43.9585" lon="2.57859">
        <ele>420</ele>
        <time>2015-11-29T15:30:19Z</time>
      </trkpt>
      <trkpt lat="43.95845" lon="2.57858">
        <ele>420</ele>
        <time>2015-11-29T15:30:23Z</time>
      </trkpt>
      <trkpt lat="43.95839" lon="2.57862">
        <ele>420</ele>
        <time>2015-11-29T15:30:29Z</time>
      </trkpt>
      <trkpt lat="43.95834" lon="2.57865">
        <ele>419</ele>
        <time>2015-11-29T15:30:35Z</time>
      </trkpt>
      <trkpt lat="43.95828" lon="2.57868">
        <ele>419</ele>
        <time>2015-11-29T15:30:39Z</time>
      </trkpt>
      <trkpt lat="43.95823" lon="2.57869">
        <ele>419</ele>
        <time>2015-11-29T15:30:43Z</time>
      </trkpt>
      <trkpt lat="43.95818" lon="2.57869">
        <ele>419</ele>
        <time>2015-11-29T15:30:48Z</time>
      </trkpt>
      <trkpt lat="43.95814" lon="2.57871">
        <ele>419</ele>
        <time>2015-11-29T15:30:57Z</time>
      </trkpt>
      <trkpt lat="43.9581" lon="2.57875">
        <ele>418</ele>
        <time>2015-11-29T15:31:01Z</time>
      </trkpt>
      <trkpt lat="43.95807" lon="2.57879">
        <ele>418</ele>
        <time>2015-11-29T15:31:06Z</time>
      </trkpt>
      <trkpt lat="43.95802" lon="2.5788">
        <ele>418</ele>
        <time>2015-11-29T15:31:11Z</time>
      </trkpt>
      <trkpt lat="43.95797" lon="2.57881">
        <ele>418</ele>
        <time>2015-11-29T15:31:18Z</time>
      </trkpt>
      <trkpt lat="43.95792" lon="2.57884">
        <ele>417</ele>
        <time>2015-11-29T15:31:24Z</time>
      </trkpt>
      <trkpt lat="43.95787" lon="2.57885">
        <ele>417</ele>
        <time>2015-11-29T15:31:30Z</time>
      </trkpt>
      <trkpt lat="43.95783" lon="2.5789">
        <ele>417</ele>
        <time>2015-11-29T15:31:34Z</time>
      </trkpt>
      <trkpt lat="43.95777" lon="2.57891">
        <ele>417</ele>
        <time>2015-11-29T15:31:39Z</time>
      </trkpt>
      <trkpt lat="43.95772" lon="2.57894">
        <ele>417</ele>
        <time>2015-11-29T15:31:44Z</time>
      </trkpt>
      <trkpt lat="43.95767" lon="2.57894">
        <ele>416</ele>
        <time>2015-11-29T15:31:48Z</time>
      </trkpt>
      <trkpt lat="43.95763" lon="2.57897">
        <ele>416</ele>
        <time>2015-11-29T15:31:52Z</time>
      </trkpt>
      <trkpt lat="43.95759" lon="2.57899">
        <ele>416</ele>
        <time>2015-11-29T15:31:56Z</time>
      </trkpt>
      <trkpt lat="43.95753" lon="2.579">
        <ele>416</ele>
        <time>2015-11-29T15:32:01Z</time>
      </trkpt>
      <trkpt lat="43.95749" lon="2.579">
        <ele>416</ele>
        <time>2015-11-29T15:32:06Z</time>
      </trkpt>
      <trkpt lat="43.95743" lon="2.579">
        <ele>416</ele>
        <time>2015-11-29T15:32:12Z</time>
      </trkpt>
      <trkpt lat="43.95738" lon="2.57905">
        <ele>415</ele>
        <time>2015-11-29T15:32:17Z</time>
      </trkpt>
      <trkpt lat="43.95734" lon="2.57907">
        <ele>415</ele>
        <time>2015-11-29T15:32:22Z</time>
      </trkpt>
      <trkpt lat="43.95729" lon="2.57911">
        <ele>415</ele>
        <time>2015-11-29T15:32:27Z</time>
      </trkpt>
      <trkpt lat="43.95724" lon="2.57915">
        <ele>415</ele>
        <time>2015-11-29T15:32:33Z</time>
      </trkpt>
      <trkpt lat="43.95718" lon="2.57918">
        <ele>415</ele>
        <time>2015-11-29T15:32:38Z</time>
      </trkpt>
      <trkpt lat="43.95713" lon="2.5792">
        <ele>415</ele>
        <time>2015-11-29T15:32:42Z</time>
      </trkpt>
      <trkpt lat="43.95708" lon="2.57919">
        <ele>415</ele>
        <time>2015-11-29T15:32:47Z</time>
      </trkpt>
      <trkpt lat="43.95701" lon="2.57919">
        <ele>415</ele>
        <time>2015-11-29T15:32:52Z</time>
      </trkpt>
      <trkpt lat="43.95696" lon="2.57923">
        <ele>415</ele>
        <time>2015-11-29T15:32:58Z</time>
      </trkpt>
      <trkpt lat="43.95689" lon="2.57926">
        <ele>414</ele>
        <time>2015-11-29T15:33:05Z</time>
      </trkpt>
      <trkpt lat="43.95684" lon="2.57931">
        <ele>414</ele>
        <time>2015-11-29T15:33:09Z</time>
      </trkpt>
      <trkpt lat="43.9568" lon="2.57935">
        <ele>414</ele>
        <time>2015-11-29T15:33:13Z</time>
      </trkpt>
      <trkpt lat="43.95675" lon="2.57938">
        <ele>414</ele>
        <time>2015-11-29T15:33:20Z</time>
      </trkpt>
      <trkpt lat="43.95668" lon="2.57942">
        <ele>414</ele>
        <time>2015-11-29T15:33:27Z</time>
      </trkpt>
      <trkpt lat="43.95665" lon="2.57947">
        <ele>413</ele>
        <time>2015-11-29T15:33:32Z</time>
      </trkpt>
      <trkpt lat="43.95662" lon="2.57954">
        <ele>414</ele>
        <time>2015-11-29T15:33:39Z</time>
      </trkpt>
      <trkpt lat="43.95659" lon="2.5796">
        <ele>414</ele>
        <time>2015-11-29T15:33:45Z</time>
      </trkpt>
      <trkpt lat="43.95656" lon="2.57967">
        <ele>414</ele>
        <time>2015-11-29T15:33:51Z</time>
      </trkpt>
      <trkpt lat="43.95654" lon="2.57972">
        <ele>414</ele>
        <time>2015-11-29T15:33:55Z</time>
      </trkpt>
      <trkpt lat="43.95652" lon="2.57978">
        <ele>414</ele>
        <time>2015-11-29T15:34:01Z</time>
      </trkpt>
      <trkpt lat="43.95649" lon="2.57984">
        <ele>414</ele>
        <time>2015-11-29T15:34:06Z</time>
      </trkpt>
      <trkpt lat="43.95646" lon="2.5799">
        <ele>413</ele>
        <time>2015-11-29T15:34:12Z</time>
      </trkpt>
      <trkpt lat="43.95643" lon="2.57996">
        <ele>413</ele>
        <time>2015-11-29T15:34:19Z</time>
      </trkpt>
      <trkpt lat="43.9564" lon="2.58002">
        <ele>413</ele>
        <time>2015-11-29T15:34:22Z</time>
      </trkpt>
      <trkpt lat="43.95636" lon="2.58008">
        <ele>413</ele>
        <time>2015-11-29T15:34:28Z</time>
      </trkpt>
      <trkpt lat="43.95632" lon="2.58013">
        <ele>413</ele>
        <time>2015-11-29T15:34:34Z</time>
      </trkpt>
      <trkpt lat="43.95627" lon="2.58018">
        <ele>413</ele>
        <time>2015-11-29T15:34:39Z</time>
      </trkpt>
      <trkpt lat="43.95624" lon="2.58023">
        <ele>413</ele>
        <time>2015-11-29T15:34:44Z</time>
      </trkpt>
      <trkpt lat="43.95622" lon="2.5803">
        <ele>413</ele>
        <time>2015-11-29T15:34:51Z</time>
      </trkpt>
      <trkpt lat="43.9562" lon="2.58036">
        <ele>413</ele>
        <time>2015-11-29T15:34:56Z</time>
      </trkpt>
      <trkpt lat="43.95618" lon="2.58042">
        <ele>413</ele>
        <time>2015-11-29T15:35:03Z</time>
      </trkpt>
      <trkpt lat="43.95614" lon="2.5805">
        <ele>413</ele>
        <time>2015-11-29T15:35:10Z</time>
      </trkpt>
      <trkpt lat="43.95609" lon="2.58056">
        <ele>414</ele>
        <time>2015-11-29T15:35:16Z</time>
      </trkpt>
      <trkpt lat="43.95606" lon="2.58062">
        <ele>414</ele>
        <time>2015-11-29T15:35:20Z</time>
      </trkpt>
      <trkpt lat="43.95603" lon="2.58068">
        <ele>414</ele>
        <time>2015-11-29T15:35:25Z</time>
      </trkpt>
      <trkpt lat="43.956" lon="2.58073">
        <ele>414</ele>
        <time>2015-11-29T15:35:28Z</time>
      </trkpt>
      <trkpt lat="43.95596" lon="2.58078">
        <ele>414</ele>
        <time>2015-11-29T15:35:34Z</time>
      </trkpt>
      <trkpt lat="43.95593" lon="2.58084">
        <ele>414</ele>
        <time>2015-11-29T15:35:39Z</time>
      </trkpt>
      <trkpt lat="43.95589" lon="2.58091">
        <ele>414</ele>
        <time>2015-11-29T15:35:46Z</time>
      </trkpt>
      <trkpt lat="43.95586" lon="2.58099">
        <ele>414</ele>
        <time>2015-11-29T15:35:51Z</time>
      </trkpt>
      <trkpt lat="43.95583" lon="2.58107">
        <ele>415</ele>
        <time>2015-11-29T15:36:00Z</time>
      </trkpt>
      <trkpt lat="43.9558" lon="2.58115">
        <ele>415</ele>
        <time>2015-11-29T15:36:07Z</time>
      </trkpt>
      <trkpt lat="43.95578" lon="2.5812">
        <ele>415</ele>
        <time>2015-11-29T15:36:13Z</time>
      </trkpt>
      <trkpt lat="43.95575" lon="2.58126">
        <ele>415</ele>
        <time>2015-11-29T15:36:18Z</time>
      </trkpt>
      <trkpt lat="43.95572" lon="2.58134">
        <ele>416</ele>
        <time>2015-11-29T15:36:25Z</time>
      </trkpt>
      <trkpt lat="43.95569" lon="2.5814">
        <ele>416</ele>
        <time>2015-11-29T15:36:29Z</time>
      </trkpt>
      <trkpt lat="43.95567" lon="2.58146">
        <ele>416</ele>
        <time>2015-11-29T15:36:33Z</time>
      </trkpt>
      <trkpt lat="43.95565" lon="2.58151">
        <ele>416</ele>
        <time>2015-11-29T15:36:37Z</time>
      </trkpt>
      <trkpt lat="43.95562" lon="2.58158">
        <ele>416</ele>
        <time>2015-11-29T15:36:41Z</time>
      </trkpt>
      <trkpt lat="43.95559" lon="2.58164">
        <ele>416</ele>
        <time>2015-11-29T15:36:44Z</time>
      </trkpt>
      <trkpt lat="43.95556" lon="2.58171">
        <ele>416</ele>
        <time>2015-11-29T15:36:49Z</time>
      </trkpt>
      <trkpt lat="43.95553" lon="2.58178">
        <ele>416</ele>
        <time>2015-11-29T15:36:54Z</time>
      </trkpt>
      <trkpt lat="43.95551" lon="2.58184">
        <ele>415</ele>
        <time>2015-11-29T15:36:58Z</time>
      </trkpt>
      <trkpt lat="43.95548" lon="2.58189">
        <ele>415</ele>
        <time>2015-11-29T15:37:02Z</time>
      </trkpt>
      <trkpt lat="43.95546" lon="2.58195">
        <ele>415</ele>
        <time>2015-11-29T15:37:06Z</time>
      </trkpt>
      <trkpt lat="43.95547" lon="2.58197">
        <ele>415</ele>
        <time>2015-11-29T15:37:23Z</time>
      </trkpt>
      <trkpt lat="43.95543" lon="2.58205">
        <ele>414</ele>
        <time>2015-11-29T15:37:35Z</time>
      </trkpt>
      <trkpt lat="43.9554" lon="2.58211">
        <ele>414</ele>
        <time>2015-11-29T15:37:42Z</time>
      </trkpt>
      <trkpt lat="43.95536" lon="2.58215">
        <ele>413</ele>
        <time>2015-11-29T15:37:50Z</time>
      </trkpt>
      <trkpt lat="43.95533" lon="2.5822">
        <ele>413</ele>
        <time>2015-11-29T15:37:56Z</time>
      </trkpt>
      <trkpt lat="43.9553" lon="2.58228">
        <ele>413</ele>
        <time>2015-11-29T15:38:13Z</time>
      </trkpt>
      <trkpt lat="43.95537" lon="2.58231">
        <ele>412</ele>
        <time>2015-11-29T15:38:24Z</time>
      </trkpt>
      <trkpt lat="43.95541" lon="2.5823">
        <ele>412</ele>
        <time>2015-11-29T15:38:33Z</time>
      </trkpt>
      <trkpt lat="43.95545" lon="2.58235">
        <ele>411</ele>
        <time>2015-11-29T15:38:43Z</time>
      </trkpt>
      <trkpt lat="43.95546" lon="2.58236">
        <ele>411</ele>
        <time>2015-11-29T15:39:12Z</time>
      </trkpt>
      <trkpt lat="43.95556" lon="2.58235">
        <ele>410</ele>
        <time>2015-11-29T15:39:14Z</time>
      </trkpt>
      <trkpt lat="43.95561" lon="2.58232">
        <ele>409</ele>
        <time>2015-11-29T15:39:23Z</time>
      </trkpt>
      <trkpt lat="43.95565" lon="2.58228">
        <ele>408</ele>
        <time>2015-11-29T15:39:31Z</time>
      </trkpt>
      <trkpt lat="43.95576" lon="2.58228">
        <ele>408</ele>
        <time>2015-11-29T15:39:54Z</time>
      </trkpt>
      <trkpt lat="43.95581" lon="2.5823">
        <ele>407</ele>
        <time>2015-11-29T15:40:11Z</time>
      </trkpt>
      <trkpt lat="43.95585" lon="2.58237">
        <ele>406</ele>
        <time>2015-11-29T15:40:20Z</time>
      </trkpt>
      <trkpt lat="43.95583" lon="2.58236">
        <ele>406</ele>
        <time>2015-11-29T15:41:00Z</time>
      </trkpt>
      <trkpt lat="43.9558" lon="2.58236">
        <ele>406</ele>
        <time>2015-11-29T15:41:07Z</time>
      </trkpt>
      <trkpt lat="43.95575" lon="2.5824">
        <ele>405</ele>
        <time>2015-11-29T15:41:14Z</time>
      </trkpt>
      <trkpt lat="43.95571" lon="2.58245">
        <ele>405</ele>
        <time>2015-11-29T15:41:24Z</time>
      </trkpt>
      <trkpt lat="43.95566" lon="2.58247">
        <ele>405</ele>
        <time>2015-11-29T15:41:30Z</time>
      </trkpt>
      <trkpt lat="43.95561" lon="2.5825">
        <ele>405</ele>
        <time>2015-11-29T15:41:35Z</time>
      </trkpt>
      <trkpt lat="43.95557" lon="2.58254">
        <ele>405</ele>
        <time>2015-11-29T15:41:39Z</time>
      </trkpt>
      <trkpt lat="43.95552" lon="2.58256">
        <ele>405</ele>
        <time>2015-11-29T15:41:44Z</time>
      </trkpt>
      <trkpt lat="43.95548" lon="2.58257">
        <ele>405</ele>
        <time>2015-11-29T15:41:48Z</time>
      </trkpt>
      <trkpt lat="43.95544" lon="2.58262">
        <ele>405</ele>
        <time>2015-11-29T15:41:53Z</time>
      </trkpt>
      <trkpt lat="43.9554" lon="2.58269">
        <ele>405</ele>
        <time>2015-11-29T15:42:00Z</time>
      </trkpt>
      <trkpt lat="43.95536" lon="2.58273">
        <ele>405</ele>
        <time>2015-11-29T15:42:06Z</time>
      </trkpt>
      <trkpt lat="43.95525" lon="2.58273">
        <ele>406</ele>
        <time>2015-11-29T15:42:37Z</time>
      </trkpt>
      <trkpt lat="43.95522" lon="2.58278">
        <ele>406</ele>
        <time>2015-11-29T15:42:50Z</time>
      </trkpt>
      <trkpt lat="43.9552" lon="2.58285">
        <ele>406</ele>
        <time>2015-11-29T15:42:58Z</time>
      </trkpt>
      <trkpt lat="43.95515" lon="2.5829">
        <ele>406</ele>
        <time>2015-11-29T15:43:06Z</time>
      </trkpt>
      <trkpt lat="43.95511" lon="2.58294">
        <ele>406</ele>
        <time>2015-11-29T15:43:10Z</time>
      </trkpt>
      <trkpt lat="43.95508" lon="2.58299">
        <ele>406</ele>
        <time>2015-11-29T15:43:15Z</time>
      </trkpt>
      <trkpt lat="43.95505" lon="2.58304">
        <ele>406</ele>
        <time>2015-11-29T15:43:42Z</time>
      </trkpt>
      <trkpt lat="43.95505" lon="2.58304">
        <ele>406</ele>
        <time>2015-11-29T15:44:10Z</time>
      </trkpt>
      <trkpt lat="43.95503" lon="2.58303">
        <ele>405</ele>
        <time>2015-11-29T15:44:29Z</time>
      </trkpt>
      <trkpt lat="43.95499" lon="2.58306">
        <ele>404</ele>
        <time>2015-11-29T15:44:48Z</time>
      </trkpt>
      <trkpt lat="43.95493" lon="2.58308">
        <ele>403</ele>
        <time>2015-11-29T15:44:56Z</time>
      </trkpt>
      <trkpt lat="43.95489" lon="2.58305">
        <ele>402</ele>
        <time>2015-11-29T15:45:02Z</time>
      </trkpt>
      <trkpt lat="43.95485" lon="2.583">
        <ele>400</ele>
        <time>2015-11-29T15:45:05Z</time>
      </trkpt>
      <trkpt lat="43.9548" lon="2.58297">
        <ele>400</ele>
        <time>2015-11-29T15:45:09Z</time>
      </trkpt>
      <trkpt lat="43.95475" lon="2.58295">
        <ele>400</ele>
        <time>2015-11-29T15:45:15Z</time>
      </trkpt>
      <trkpt lat="43.95471" lon="2.5829">
        <ele>399</ele>
        <time>2015-11-29T15:45:20Z</time>
      </trkpt>
      <trkpt lat="43.95466" lon="2.58287">
        <ele>399</ele>
        <time>2015-11-29T15:45:28Z</time>
      </trkpt>
      <trkpt lat="43.95463" lon="2.5828">
        <ele>398</ele>
        <time>2015-11-29T15:45:37Z</time>
      </trkpt>
      <trkpt lat="43.9547" lon="2.5828">
        <ele>398</ele>
        <time>2015-11-29T15:45:53Z</time>
      </trkpt>
      <trkpt lat="43.95475" lon="2.58281">
        <ele>397</ele>
        <time>2015-11-29T15:45:58Z</time>
      </trkpt>
      <trkpt lat="43.95483" lon="2.58278">
        <ele>397</ele>
        <time>2015-11-29T15:46:01Z</time>
      </trkpt>
      <trkpt lat="43.95488" lon="2.5828">
        <ele>396</ele>
        <time>2015-11-29T15:46:03Z</time>
      </trkpt>
      <trkpt lat="43.95481" lon="2.58277">
        <ele>396</ele>
        <time>2015-11-29T15:46:08Z</time>
      </trkpt>
      <trkpt lat="43.95477" lon="2.58274">
        <ele>395</ele>
        <time>2015-11-29T15:46:14Z</time>
      </trkpt>
      <trkpt lat="43.95473" lon="2.58269">
        <ele>395</ele>
        <time>2015-11-29T15:46:19Z</time>
      </trkpt>
      <trkpt lat="43.9547" lon="2.58263">
        <ele>394</ele>
        <time>2015-11-29T15:46:24Z</time>
      </trkpt>
      <trkpt lat="43.95466" lon="2.58259">
        <ele>393</ele>
        <time>2015-11-29T15:46:29Z</time>
      </trkpt>
      <trkpt lat="43.95462" lon="2.58255">
        <ele>392</ele>
        <time>2015-11-29T15:46:35Z</time>
      </trkpt>
      <trkpt lat="43.95459" lon="2.5825">
        <ele>391</ele>
        <time>2015-11-29T15:46:42Z</time>
      </trkpt>
      <trkpt lat="43.95454" lon="2.58246">
        <ele>390</ele>
        <time>2015-11-29T15:46:50Z</time>
      </trkpt>
      <trkpt lat="43.95451" lon="2.58242">
        <ele>389</ele>
        <time>2015-11-29T15:46:56Z</time>
      </trkpt>
      <trkpt lat="43.9545" lon="2.58233">
        <ele>389</ele>
        <time>2015-11-29T15:47:04Z</time>
      </trkpt>
      <trkpt lat="43.95448" lon="2.58225">
        <ele>388</ele>
        <time>2015-11-29T15:47:10Z</time>
      </trkpt>
      <trkpt lat="43.95445" lon="2.58218">
        <ele>387</ele>
        <time>2015-11-29T15:47:19Z</time>
      </trkpt>
      <trkpt lat="43.95443" lon="2.58208">
        <ele>387</ele>
        <time>2015-11-29T15:47:24Z</time>
      </trkpt>
      <trkpt lat="43.95442" lon="2.58202">
        <ele>387</ele>
        <time>2015-11-29T15:47:28Z</time>
      </trkpt>
      <trkpt lat="43.95443" lon="2.58194">
        <ele>386</ele>
        <time>2015-11-29T15:47:33Z</time>
      </trkpt>
      <trkpt lat="43.95448" lon="2.58189">
        <ele>386</ele>
        <time>2015-11-29T15:47:38Z</time>
      </trkpt>
      <trkpt lat="43.95448" lon="2.58182">
        <ele>385</ele>
        <time>2015-11-29T15:47:46Z</time>
      </trkpt>
      <trkpt lat="43.95446" lon="2.58176">
        <ele>384</ele>
        <time>2015-11-29T15:47:52Z</time>
      </trkpt>
      <trkpt lat="43.95441" lon="2.5818">
        <ele>383</ele>
        <time>2015-11-29T15:48:01Z</time>
      </trkpt>
      <trkpt lat="43.95438" lon="2.58189">
        <ele>382</ele>
        <time>2015-11-29T15:48:19Z</time>
      </trkpt>
      <trkpt lat="43.9544" lon="2.58184">
        <ele>381</ele>
        <time>2015-11-29T15:48:24Z</time>
      </trkpt>
      <trkpt lat="43.95445" lon="2.58179">
        <ele>380</ele>
        <time>2015-11-29T15:48:28Z</time>
      </trkpt>
      <trkpt lat="43.95448" lon="2.58174">
        <ele>378</ele>
        <time>2015-11-29T15:48:44Z</time>
      </trkpt>
      <trkpt lat="43.95447" lon="2.58167">
        <ele>377</ele>
        <time>2015-11-29T15:48:54Z</time>
      </trkpt>
      <trkpt lat="43.95444" lon="2.58161">
        <ele>376</ele>
        <time>2015-11-29T15:49:01Z</time>
      </trkpt>
      <trkpt lat="43.95439" lon="2.58157">
        <ele>375</ele>
        <time>2015-11-29T15:49:09Z</time>
      </trkpt>
      <trkpt lat="43.95435" lon="2.58159">
        <ele>374</ele>
        <time>2015-11-29T15:49:17Z</time>
      </trkpt>
      <trkpt lat="43.95434" lon="2.58165">
        <ele>373</ele>
        <time>2015-11-29T15:49:25Z</time>
      </trkpt>
      <trkpt lat="43.95437" lon="2.58165">
        <ele>372</ele>
        <time>2015-11-29T15:49:52Z</time>
      </trkpt>
      <trkpt lat="43.95438" lon="2.58151">
        <ele>372</ele>
        <time>2015-11-29T15:49:59Z</time>
      </trkpt>
      <trkpt lat="43.95439" lon="2.58144">
        <ele>371</ele>
        <time>2015-11-29T15:50:08Z</time>
      </trkpt>
      <trkpt lat="43.95438" lon="2.58138">
        <ele>371</ele>
        <time>2015-11-29T15:50:14Z</time>
      </trkpt>
      <trkpt lat="43.95434" lon="2.58132">
        <ele>372</ele>
        <time>2015-11-29T15:50:19Z</time>
      </trkpt>
      <trkpt lat="43.95433" lon="2.58126">
        <ele>372</ele>
        <time>2015-11-29T15:50:24Z</time>
      </trkpt>
      <trkpt lat="43.9543" lon="2.58119">
        <ele>372</ele>
        <time>2015-11-29T15:50:30Z</time>
      </trkpt>
      <trkpt lat="43.95422" lon="2.58105">
        <ele>372</ele>
        <time>2015-11-29T15:50:42Z</time>
      </trkpt>
      <trkpt lat="43.95416" lon="2.58103">
        <ele>372</ele>
        <time>2015-11-29T15:50:46Z</time>
      </trkpt>
      <trkpt lat="43.95411" lon="2.58106">
        <ele>371</ele>
        <time>2015-11-29T15:50:52Z</time>
      </trkpt>
      <trkpt lat="43.95404" lon="2.58097">
        <ele>371</ele>
        <time>2015-11-29T15:51:12Z</time>
      </trkpt>
      <trkpt lat="43.95405" lon="2.58091">
        <ele>371</ele>
        <time>2015-11-29T15:51:19Z</time>
      </trkpt>
      <trkpt lat="43.95419" lon="2.58096">
        <ele>371</ele>
        <time>2015-11-29T15:51:39Z</time>
      </trkpt>
      <trkpt lat="43.95412" lon="2.58091">
        <ele>371</ele>
        <time>2015-11-29T15:52:05Z</time>
      </trkpt>
      <trkpt lat="43.95409" lon="2.58099">
        <ele>371</ele>
        <time>2015-11-29T15:52:12Z</time>
      </trkpt>
      <trkpt lat="43.95404" lon="2.58101">
        <ele>371</ele>
        <time>2015-11-29T15:52:18Z</time>
      </trkpt>
      <trkpt lat="43.95399" lon="2.581">
        <ele>371</ele>
        <time>2015-11-29T15:52:21Z</time>
      </trkpt>
      <trkpt lat="43.95394" lon="2.58099">
        <ele>371</ele>
        <time>2015-11-29T15:52:26Z</time>
      </trkpt>
      <trkpt lat="43.95389" lon="2.58098">
        <ele>372</ele>
        <time>2015-11-29T15:52:32Z</time>
      </trkpt>
      <trkpt lat="43.95389" lon="2.58096">
        <ele>372</ele>
        <time>2015-11-29T15:53:07Z</time>
      </trkpt>
      <trkpt lat="43.95389" lon="2.58096">
        <ele>372</ele>
        <time>2015-11-29T15:53:37Z</time>
      </trkpt>
      <trkpt lat="43.95389" lon="2.58096">
        <ele>372</ele>
        <time>2015-11-29T15:54:04Z</time>
      </trkpt>
      <trkpt lat="43.95392" lon="2.58082">
        <ele>373</ele>
        <time>2015-11-29T15:54:15Z</time>
      </trkpt>
      <trkpt lat="43.95392" lon="2.58081">
        <ele>374</ele>
        <time>2015-11-29T15:54:33Z</time>
      </trkpt>
      <trkpt lat="43.95392" lon="2.58081">
        <ele>374</ele>
        <time>2015-11-29T15:54:55Z</time>
      </trkpt>
      <trkpt lat="43.95392" lon="2.58081">
        <ele>375</ele>
        <time>2015-11-29T15:55:24Z</time>
      </trkpt>
      <trkpt lat="43.95392" lon="2.58081">
        <ele>376</ele>
        <time>2015-11-29T15:55:55Z</time>
      </trkpt>
      <trkpt lat="43.95392" lon="2.58081">
        <ele>376</ele>
        <time>2015-11-29T15:56:25Z</time>
      </trkpt>
      <trkpt lat="43.95392" lon="2.58081">
        <ele>376</ele>
        <time>2015-11-29T15:56:55Z</time>
      </trkpt>
      <trkpt lat="43.95392" lon="2.58081">
        <ele>376</ele>
        <time>2015-11-29T15:57:24Z</time>
      </trkpt>
      <trkpt lat="43.95392" lon="2.58081">
        <ele>376</ele>
        <time>2015-11-29T15:57:39Z</time>
      </trkpt>
      <trkpt lat="43.95392" lon="2.58081">
        <ele>376</ele>
        <time>2015-11-29T15:57:56Z</time>
      </trkpt>
      <trkpt lat="43.95392" lon="2.58081">
        <ele>376</ele>
        <time>2015-11-29T15:58:26Z</time>
      </trkpt>
      <trkpt lat="43.95392" lon="2.58081">
        <ele>376</ele>
        <time>2015-11-29T15:58:56Z</time>
      </trkpt>
      <trkpt lat="43.95392" lon="2.58081">
        <ele>376</ele>
        <time>2015-11-29T15:59:26Z</time>
      </trkpt>
    </trkseg>
  </trk>
</gpx>